<?xml version="1.0" encoding="UTF-8" standalone="no" ?>
<gpx xmlns="http://www.topografix.com/GPX/1/1" xmlns:xsi="http://www.w3.org/2001/XMLSchema-instance" xsi:schemaLocation="http://www.topografix.com/GPX/1/1 http://www.topografix.com/GPX/1/1/gpx.xsd" version="1.1" creator="VisuGPX - https://www.visugpx.com">
  <metadata>
    <name>Crête des Vosges - tentative avortée</name>
    <desc><![CDATA[ma tentative avortée de parcourir les crêtes des Vosges d'Obersteinbach à Belfort par le GR 53 et GR 5. 

J'ai eu mal aux jambes et mon planning ne prévoyait pas les jours de repos nécessaires ou alors des étapes plus courtes. J'ai laissé tomber à la moitié, et je suis allé en train à Soultz-sous-Forêt pour finir sur un morceau de GR 531

Les distances présentées ici incluent les voyages en train. La distance totale à pieds fait environ 170 km d'après mon GPS.]]></desc>
  </metadata>
  <trk>
    <name><![CDATA[Track 001]]></name>
    <trkseg>
      <trkpt lat="49.03479" lon="7.69047">
        <ele>244.8</ele>
        <time>2012-08-15T11:08:47Z</time>
      </trkpt>
      <trkpt lat="49.03448" lon="7.69001">
        <ele>244.3</ele>
        <time>2012-08-15T11:09:24Z</time>
      </trkpt>
      <trkpt lat="49.03408" lon="7.68966">
        <ele>240</ele>
        <time>2012-08-15T11:10:08Z</time>
      </trkpt>
      <trkpt lat="49.03362" lon="7.68938">
        <ele>248.2</ele>
        <time>2012-08-15T11:11:07Z</time>
      </trkpt>
      <trkpt lat="49.03316" lon="7.68896">
        <ele>242.9</ele>
        <time>2012-08-15T11:11:50Z</time>
      </trkpt>
      <trkpt lat="49.03275" lon="7.68855">
        <ele>251</ele>
        <time>2012-08-15T11:12:25Z</time>
      </trkpt>
      <trkpt lat="49.03235" lon="7.68824">
        <ele>253.4</ele>
        <time>2012-08-15T11:13:01Z</time>
      </trkpt>
      <trkpt lat="49.03192" lon="7.68796">
        <ele>263.1</ele>
        <time>2012-08-15T11:13:39Z</time>
      </trkpt>
      <trkpt lat="49.03149" lon="7.68773">
        <ele>281.8</ele>
        <time>2012-08-15T11:14:15Z</time>
      </trkpt>
      <trkpt lat="49.03108" lon="7.68749">
        <ele>272.7</ele>
        <time>2012-08-15T11:14:50Z</time>
      </trkpt>
      <trkpt lat="49.03073" lon="7.68735">
        <ele>269.3</ele>
        <time>2012-08-15T11:15:51Z</time>
      </trkpt>
      <trkpt lat="49.03028" lon="7.68726">
        <ele>269.8</ele>
        <time>2012-08-15T11:16:30Z</time>
      </trkpt>
      <trkpt lat="49.02981" lon="7.68701">
        <ele>274.1</ele>
        <time>2012-08-15T11:17:13Z</time>
      </trkpt>
      <trkpt lat="49.02945" lon="7.68657">
        <ele>273.6</ele>
        <time>2012-08-15T11:17:56Z</time>
      </trkpt>
      <trkpt lat="49.02892" lon="7.68597">
        <ele>273.6</ele>
        <time>2012-08-15T11:19:03Z</time>
      </trkpt>
      <trkpt lat="49.02839" lon="7.68517">
        <ele>289.5</ele>
        <time>2012-08-15T11:20:11Z</time>
      </trkpt>
      <trkpt lat="49.02797" lon="7.68479">
        <ele>305.8</ele>
        <time>2012-08-15T11:20:53Z</time>
      </trkpt>
      <trkpt lat="49.02743" lon="7.68412">
        <ele>316.4</ele>
        <time>2012-08-15T11:21:55Z</time>
      </trkpt>
      <trkpt lat="49.02696" lon="7.6834">
        <ele>315.9</ele>
        <time>2012-08-15T11:24:00Z</time>
      </trkpt>
      <trkpt lat="49.02653" lon="7.68307">
        <ele>302</ele>
        <time>2012-08-15T11:24:43Z</time>
      </trkpt>
      <trkpt lat="49.02609" lon="7.6827">
        <ele>298.1</ele>
        <time>2012-08-15T11:25:30Z</time>
      </trkpt>
      <trkpt lat="49.0257" lon="7.68224">
        <ele>300.1</ele>
        <time>2012-08-15T11:26:21Z</time>
      </trkpt>
      <trkpt lat="49.02521" lon="7.68166">
        <ele>300.5</ele>
        <time>2012-08-15T11:27:31Z</time>
      </trkpt>
      <trkpt lat="49.0247" lon="7.68067">
        <ele>297.7</ele>
        <time>2012-08-15T11:29:06Z</time>
      </trkpt>
      <trkpt lat="49.02412" lon="7.67902">
        <ele>300.5</ele>
        <time>2012-08-15T11:31:22Z</time>
      </trkpt>
      <trkpt lat="49.02365" lon="7.67795">
        <ele>327.9</ele>
        <time>2012-08-15T11:32:44Z</time>
      </trkpt>
      <trkpt lat="49.02328" lon="7.67729">
        <ele>344.3</ele>
        <time>2012-08-15T11:33:50Z</time>
      </trkpt>
      <trkpt lat="49.02294" lon="7.67681">
        <ele>362.6</ele>
        <time>2012-08-15T11:37:16Z</time>
      </trkpt>
      <trkpt lat="49.02256" lon="7.67742">
        <ele>371.7</ele>
        <time>2012-08-15T11:40:37Z</time>
      </trkpt>
      <trkpt lat="49.02203" lon="7.67815">
        <ele>373.1</ele>
        <time>2012-08-15T11:41:44Z</time>
      </trkpt>
      <trkpt lat="49.02156" lon="7.67921">
        <ele>375.1</ele>
        <time>2012-08-15T11:45:55Z</time>
      </trkpt>
      <trkpt lat="49.02162" lon="7.68018">
        <ele>363.5</ele>
        <time>2012-08-15T11:46:53Z</time>
      </trkpt>
      <trkpt lat="49.02178" lon="7.68099">
        <ele>359.2</ele>
        <time>2012-08-15T11:47:40Z</time>
      </trkpt>
      <trkpt lat="49.02184" lon="7.68181">
        <ele>344.8</ele>
        <time>2012-08-15T11:48:27Z</time>
      </trkpt>
      <trkpt lat="49.02119" lon="7.6822">
        <ele>349.6</ele>
        <time>2012-08-15T11:49:28Z</time>
      </trkpt>
      <trkpt lat="49.02073" lon="7.68245">
        <ele>354.4</ele>
        <time>2012-08-15T11:50:17Z</time>
      </trkpt>
      <trkpt lat="49.02017" lon="7.68221">
        <ele>360.2</ele>
        <time>2012-08-15T11:51:33Z</time>
      </trkpt>
      <trkpt lat="49.01967" lon="7.68186">
        <ele>355.3</ele>
        <time>2012-08-15T11:52:19Z</time>
      </trkpt>
      <trkpt lat="49.01919" lon="7.68164">
        <ele>354.4</ele>
        <time>2012-08-15T11:52:59Z</time>
      </trkpt>
      <trkpt lat="49.0187" lon="7.68171">
        <ele>359.2</ele>
        <time>2012-08-15T11:53:43Z</time>
      </trkpt>
      <trkpt lat="49.01805" lon="7.68184">
        <ele>361.1</ele>
        <time>2012-08-15T11:54:43Z</time>
      </trkpt>
      <trkpt lat="49.0171" lon="7.6819">
        <ele>340</ele>
        <time>2012-08-15T11:55:57Z</time>
      </trkpt>
      <trkpt lat="49.01648" lon="7.68216">
        <ele>329.9</ele>
        <time>2012-08-15T11:56:50Z</time>
      </trkpt>
      <trkpt lat="49.01565" lon="7.68277">
        <ele>333.7</ele>
        <time>2012-08-15T11:58:22Z</time>
      </trkpt>
      <trkpt lat="49.01502" lon="7.68281">
        <ele>321.2</ele>
        <time>2012-08-15T11:59:13Z</time>
      </trkpt>
      <trkpt lat="49.01432" lon="7.68278">
        <ele>308.2</ele>
        <time>2012-08-15T12:00:07Z</time>
      </trkpt>
      <trkpt lat="49.01373" lon="7.68258">
        <ele>296.7</ele>
        <time>2012-08-15T12:00:49Z</time>
      </trkpt>
      <trkpt lat="49.01356" lon="7.68274">
        <ele>353.4</ele>
        <time>2012-08-15T12:01:42Z</time>
      </trkpt>
      <trkpt lat="49.01333" lon="7.68399">
        <ele>403.4</ele>
        <time>2012-08-15T12:03:26Z</time>
      </trkpt>
      <trkpt lat="49.01303" lon="7.68487">
        <ele>429.4</ele>
        <time>2012-08-15T12:07:18Z</time>
      </trkpt>
      <trkpt lat="49.01263" lon="7.68405">
        <ele>471.7</ele>
        <time>2012-08-15T12:11:25Z</time>
      </trkpt>
      <trkpt lat="49.01218" lon="7.6848">
        <ele>488.5</ele>
        <time>2012-08-15T12:13:02Z</time>
      </trkpt>
      <trkpt lat="49.01151" lon="7.68519">
        <ele>497.6</ele>
        <time>2012-08-15T12:14:18Z</time>
      </trkpt>
      <trkpt lat="49.01103" lon="7.68456">
        <ele>496.2</ele>
        <time>2012-08-15T12:15:19Z</time>
      </trkpt>
      <trkpt lat="49.01054" lon="7.68452">
        <ele>489</ele>
        <time>2012-08-15T12:16:05Z</time>
      </trkpt>
      <trkpt lat="49.01005" lon="7.68478">
        <ele>498.6</ele>
        <time>2012-08-15T12:16:56Z</time>
      </trkpt>
      <trkpt lat="49.00952" lon="7.68502">
        <ele>498.1</ele>
        <time>2012-08-15T12:17:53Z</time>
      </trkpt>
      <trkpt lat="49.00898" lon="7.68569">
        <ele>504.8</ele>
        <time>2012-08-15T12:19:44Z</time>
      </trkpt>
      <trkpt lat="49.00876" lon="7.6863">
        <ele>516.4</ele>
        <time>2012-08-15T12:20:25Z</time>
      </trkpt>
      <trkpt lat="49.00832" lon="7.68669">
        <ele>515.4</ele>
        <time>2012-08-15T12:21:06Z</time>
      </trkpt>
      <trkpt lat="49.00787" lon="7.68664">
        <ele>510.6</ele>
        <time>2012-08-15T12:21:51Z</time>
      </trkpt>
      <trkpt lat="49.00747" lon="7.68617">
        <ele>503.9</ele>
        <time>2012-08-15T12:22:39Z</time>
      </trkpt>
      <trkpt lat="49.00688" lon="7.68564">
        <ele>480.3</ele>
        <time>2012-08-15T12:23:43Z</time>
      </trkpt>
      <trkpt lat="49.00644" lon="7.68541">
        <ele>465.4</ele>
        <time>2012-08-15T12:24:55Z</time>
      </trkpt>
      <trkpt lat="49.00672" lon="7.68587">
        <ele>463.5</ele>
        <time>2012-08-15T12:25:28Z</time>
      </trkpt>
      <trkpt lat="49.00665" lon="7.68598">
        <ele>463.5</ele>
        <time>2012-08-15T12:26:13Z</time>
      </trkpt>
      <trkpt lat="49.00609" lon="7.68563">
        <ele>456.8</ele>
        <time>2012-08-15T12:26:58Z</time>
      </trkpt>
      <trkpt lat="49.00562" lon="7.68528">
        <ele>444.3</ele>
        <time>2012-08-15T12:27:47Z</time>
      </trkpt>
      <trkpt lat="49.00517" lon="7.68496">
        <ele>432.3</ele>
        <time>2012-08-15T12:28:37Z</time>
      </trkpt>
      <trkpt lat="49.00475" lon="7.6846">
        <ele>425.5</ele>
        <time>2012-08-15T12:29:26Z</time>
      </trkpt>
      <trkpt lat="49.00442" lon="7.68491">
        <ele>409.7</ele>
        <time>2012-08-15T12:30:17Z</time>
      </trkpt>
      <trkpt lat="49.00398" lon="7.6847">
        <ele>402.9</ele>
        <time>2012-08-15T12:31:00Z</time>
      </trkpt>
      <trkpt lat="49.00345" lon="7.68457">
        <ele>391.4</ele>
        <time>2012-08-15T12:31:49Z</time>
      </trkpt>
      <trkpt lat="49.00295" lon="7.68458">
        <ele>384.7</ele>
        <time>2012-08-15T12:32:35Z</time>
      </trkpt>
      <trkpt lat="49.00241" lon="7.68458">
        <ele>376.5</ele>
        <time>2012-08-15T12:33:27Z</time>
      </trkpt>
      <trkpt lat="49.00185" lon="7.68458">
        <ele>367.4</ele>
        <time>2012-08-15T12:34:15Z</time>
      </trkpt>
      <trkpt lat="49.00103" lon="7.68415">
        <ele>358.7</ele>
        <time>2012-08-15T12:35:48Z</time>
      </trkpt>
      <trkpt lat="49.00035" lon="7.68319">
        <ele>357.3</ele>
        <time>2012-08-15T12:38:11Z</time>
      </trkpt>
      <trkpt lat="48.9998" lon="7.68289">
        <ele>343.8</ele>
        <time>2012-08-15T12:38:59Z</time>
      </trkpt>
      <trkpt lat="48.99928" lon="7.68313">
        <ele>340.9</ele>
        <time>2012-08-15T12:39:51Z</time>
      </trkpt>
      <trkpt lat="48.99851" lon="7.68305">
        <ele>336.1</ele>
        <time>2012-08-15T12:40:59Z</time>
      </trkpt>
      <trkpt lat="48.99792" lon="7.68257">
        <ele>330.4</ele>
        <time>2012-08-15T12:41:44Z</time>
      </trkpt>
      <trkpt lat="48.99751" lon="7.68189">
        <ele>329.4</ele>
        <time>2012-08-15T12:42:40Z</time>
      </trkpt>
      <trkpt lat="48.99742" lon="7.68094">
        <ele>321.2</ele>
        <time>2012-08-15T12:43:57Z</time>
      </trkpt>
      <trkpt lat="48.99746" lon="7.68091">
        <ele>324.6</ele>
        <time>2012-08-15T12:44:58Z</time>
      </trkpt>
      <trkpt lat="48.99714" lon="7.68089">
        <ele>320.3</ele>
        <time>2012-08-15T12:45:45Z</time>
      </trkpt>
      <trkpt lat="48.99701" lon="7.68029">
        <ele>318.8</ele>
        <time>2012-08-15T12:46:28Z</time>
      </trkpt>
      <trkpt lat="48.99711" lon="7.67964">
        <ele>315.9</ele>
        <time>2012-08-15T12:47:11Z</time>
      </trkpt>
      <trkpt lat="48.99717" lon="7.67896">
        <ele>316.4</ele>
        <time>2012-08-15T12:47:58Z</time>
      </trkpt>
      <trkpt lat="48.99746" lon="7.67821">
        <ele>313.5</ele>
        <time>2012-08-15T12:48:51Z</time>
      </trkpt>
      <trkpt lat="48.9971" lon="7.67712">
        <ele>312.6</ele>
        <time>2012-08-15T12:49:58Z</time>
      </trkpt>
      <trkpt lat="48.99669" lon="7.6764">
        <ele>303</ele>
        <time>2012-08-15T12:50:54Z</time>
      </trkpt>
      <trkpt lat="48.99613" lon="7.67568">
        <ele>301</ele>
        <time>2012-08-15T12:51:54Z</time>
      </trkpt>
      <trkpt lat="48.99558" lon="7.67506">
        <ele>286.6</ele>
        <time>2012-08-15T12:52:45Z</time>
      </trkpt>
      <trkpt lat="48.99535" lon="7.67454">
        <ele>278.4</ele>
        <time>2012-08-15T12:53:33Z</time>
      </trkpt>
      <trkpt lat="48.99577" lon="7.67426">
        <ele>266.9</ele>
        <time>2012-08-15T12:54:23Z</time>
      </trkpt>
      <trkpt lat="48.99583" lon="7.67358">
        <ele>249.1</ele>
        <time>2012-08-15T12:55:09Z</time>
      </trkpt>
      <trkpt lat="48.99556" lon="7.67299">
        <ele>245.3</ele>
        <time>2012-08-15T12:55:51Z</time>
      </trkpt>
      <trkpt lat="48.99485" lon="7.67264">
        <ele>245.3</ele>
        <time>2012-08-15T12:57:00Z</time>
      </trkpt>
      <trkpt lat="48.99428" lon="7.67237">
        <ele>245.3</ele>
        <time>2012-08-15T12:57:47Z</time>
      </trkpt>
      <trkpt lat="48.99367" lon="7.67213">
        <ele>250.6</ele>
        <time>2012-08-15T12:58:36Z</time>
      </trkpt>
      <trkpt lat="48.99311" lon="7.67168">
        <ele>248.6</ele>
        <time>2012-08-15T12:59:36Z</time>
      </trkpt>
      <trkpt lat="48.99257" lon="7.67114">
        <ele>242.9</ele>
        <time>2012-08-15T13:00:28Z</time>
      </trkpt>
      <trkpt lat="48.99239" lon="7.67036">
        <ele>224.1</ele>
        <time>2012-08-15T13:01:12Z</time>
      </trkpt>
      <trkpt lat="48.99236" lon="7.66958">
        <ele>203</ele>
        <time>2012-08-15T13:01:55Z</time>
      </trkpt>
      <trkpt lat="48.99232" lon="7.66887">
        <ele>199.1</ele>
        <time>2012-08-15T13:02:31Z</time>
      </trkpt>
      <trkpt lat="48.99229" lon="7.66818">
        <ele>196.2</ele>
        <time>2012-08-15T13:03:08Z</time>
      </trkpt>
      <trkpt lat="48.99223" lon="7.66748">
        <ele>204.4</ele>
        <time>2012-08-15T13:03:45Z</time>
      </trkpt>
      <trkpt lat="48.99223" lon="7.66673">
        <ele>220.3</ele>
        <time>2012-08-15T13:04:29Z</time>
      </trkpt>
      <trkpt lat="48.99214" lon="7.66599">
        <ele>243.4</ele>
        <time>2012-08-15T13:05:10Z</time>
      </trkpt>
      <trkpt lat="48.99211" lon="7.66522">
        <ele>253</ele>
        <time>2012-08-15T13:05:46Z</time>
      </trkpt>
      <trkpt lat="48.99223" lon="7.66453">
        <ele>243.8</ele>
        <time>2012-08-15T13:06:22Z</time>
      </trkpt>
      <trkpt lat="48.99245" lon="7.66387">
        <ele>244.8</ele>
        <time>2012-08-15T13:07:02Z</time>
      </trkpt>
      <trkpt lat="48.9927" lon="7.66324">
        <ele>248.6</ele>
        <time>2012-08-15T13:07:41Z</time>
      </trkpt>
      <trkpt lat="48.99295" lon="7.66264">
        <ele>260.2</ele>
        <time>2012-08-15T13:08:21Z</time>
      </trkpt>
      <trkpt lat="48.99331" lon="7.66205">
        <ele>263.5</ele>
        <time>2012-08-15T13:09:05Z</time>
      </trkpt>
      <trkpt lat="48.99381" lon="7.66166">
        <ele>258.7</ele>
        <time>2012-08-15T13:09:42Z</time>
      </trkpt>
      <trkpt lat="48.99423" lon="7.66124">
        <ele>260.2</ele>
        <time>2012-08-15T13:10:30Z</time>
      </trkpt>
      <trkpt lat="48.9944" lon="7.66062">
        <ele>247.7</ele>
        <time>2012-08-15T13:11:25Z</time>
      </trkpt>
      <trkpt lat="48.99454" lon="7.66016">
        <ele>232.8</ele>
        <time>2012-08-15T13:12:17Z</time>
      </trkpt>
      <trkpt lat="48.99488" lon="7.65982">
        <ele>232.8</ele>
        <time>2012-08-15T13:13:09Z</time>
      </trkpt>
      <trkpt lat="48.99508" lon="7.6592">
        <ele>230.4</ele>
        <time>2012-08-15T13:13:44Z</time>
      </trkpt>
      <trkpt lat="48.99519" lon="7.65885">
        <ele>227.5</ele>
        <time>2012-08-15T13:19:10Z</time>
      </trkpt>
      <trkpt lat="48.99501" lon="7.65825">
        <ele>222.2</ele>
        <time>2012-08-15T13:19:48Z</time>
      </trkpt>
      <trkpt lat="48.99453" lon="7.6577">
        <ele>224.1</ele>
        <time>2012-08-15T13:20:47Z</time>
      </trkpt>
      <trkpt lat="48.99458" lon="7.65699">
        <ele>218.8</ele>
        <time>2012-08-15T13:21:28Z</time>
      </trkpt>
      <trkpt lat="48.99446" lon="7.65629">
        <ele>219.8</ele>
        <time>2012-08-15T13:22:09Z</time>
      </trkpt>
      <trkpt lat="48.99423" lon="7.65576">
        <ele>218.4</ele>
        <time>2012-08-15T13:22:46Z</time>
      </trkpt>
      <trkpt lat="48.99399" lon="7.65515">
        <ele>216</ele>
        <time>2012-08-15T13:23:29Z</time>
      </trkpt>
      <trkpt lat="48.99379" lon="7.65455">
        <ele>222.7</ele>
        <time>2012-08-15T13:24:10Z</time>
      </trkpt>
      <trkpt lat="48.99353" lon="7.65394">
        <ele>228.5</ele>
        <time>2012-08-15T13:24:58Z</time>
      </trkpt>
      <trkpt lat="48.99327" lon="7.65336">
        <ele>234.2</ele>
        <time>2012-08-15T13:25:44Z</time>
      </trkpt>
      <trkpt lat="48.99312" lon="7.65267">
        <ele>241.9</ele>
        <time>2012-08-15T13:26:22Z</time>
      </trkpt>
      <trkpt lat="48.99306" lon="7.65201">
        <ele>245.3</ele>
        <time>2012-08-15T13:27:01Z</time>
      </trkpt>
      <trkpt lat="48.99317" lon="7.65123">
        <ele>246.2</ele>
        <time>2012-08-15T13:27:51Z</time>
      </trkpt>
      <trkpt lat="48.99323" lon="7.65047">
        <ele>258.7</ele>
        <time>2012-08-15T13:33:10Z</time>
      </trkpt>
      <trkpt lat="48.99342" lon="7.64973">
        <ele>263.1</ele>
        <time>2012-08-15T13:33:44Z</time>
      </trkpt>
      <trkpt lat="48.99357" lon="7.64896">
        <ele>270.7</ele>
        <time>2012-08-15T13:34:20Z</time>
      </trkpt>
      <trkpt lat="48.99382" lon="7.64819">
        <ele>267.4</ele>
        <time>2012-08-15T13:35:00Z</time>
      </trkpt>
      <trkpt lat="48.99421" lon="7.64731">
        <ele>249.6</ele>
        <time>2012-08-15T13:35:59Z</time>
      </trkpt>
      <trkpt lat="48.99396" lon="7.64669">
        <ele>257.3</ele>
        <time>2012-08-15T13:36:42Z</time>
      </trkpt>
      <trkpt lat="48.99366" lon="7.64599">
        <ele>273.6</ele>
        <time>2012-08-15T13:37:38Z</time>
      </trkpt>
      <trkpt lat="48.99319" lon="7.64514">
        <ele>290.9</ele>
        <time>2012-08-15T13:39:08Z</time>
      </trkpt>
      <trkpt lat="48.99281" lon="7.64451">
        <ele>306.3</ele>
        <time>2012-08-15T13:40:17Z</time>
      </trkpt>
      <trkpt lat="48.99213" lon="7.64378">
        <ele>319.3</ele>
        <time>2012-08-15T13:42:15Z</time>
      </trkpt>
      <trkpt lat="48.99163" lon="7.64347">
        <ele>326</ele>
        <time>2012-08-15T13:43:14Z</time>
      </trkpt>
      <trkpt lat="48.99117" lon="7.64327">
        <ele>340</ele>
        <time>2012-08-15T13:44:25Z</time>
      </trkpt>
      <trkpt lat="48.9907" lon="7.64313">
        <ele>353.9</ele>
        <time>2012-08-15T13:45:21Z</time>
      </trkpt>
      <trkpt lat="48.99027" lon="7.64274">
        <ele>367.8</ele>
        <time>2012-08-15T13:46:26Z</time>
      </trkpt>
      <trkpt lat="48.98969" lon="7.64227">
        <ele>380.3</ele>
        <time>2012-08-15T13:47:55Z</time>
      </trkpt>
      <trkpt lat="48.98915" lon="7.64166">
        <ele>386.1</ele>
        <time>2012-08-15T13:49:15Z</time>
      </trkpt>
      <trkpt lat="48.98845" lon="7.64084">
        <ele>398.1</ele>
        <time>2012-08-15T13:51:14Z</time>
      </trkpt>
      <trkpt lat="48.98783" lon="7.64012">
        <ele>418.8</ele>
        <time>2012-08-15T13:52:53Z</time>
      </trkpt>
      <trkpt lat="48.98715" lon="7.63943">
        <ele>435.6</ele>
        <time>2012-08-15T13:55:36Z</time>
      </trkpt>
      <trkpt lat="48.98604" lon="7.63898">
        <ele>448.6</ele>
        <time>2012-08-15T13:58:32Z</time>
      </trkpt>
      <trkpt lat="48.98521" lon="7.63779">
        <ele>458.7</ele>
        <time>2012-08-15T14:00:33Z</time>
      </trkpt>
      <trkpt lat="48.98474" lon="7.6364">
        <ele>484.6</ele>
        <time>2012-08-15T14:02:20Z</time>
      </trkpt>
      <trkpt lat="48.98497" lon="7.63463">
        <ele>554.8</ele>
        <time>2012-08-15T14:04:32Z</time>
      </trkpt>
      <trkpt lat="48.98521" lon="7.63349">
        <ele>562</ele>
        <time>2012-08-15T14:06:07Z</time>
      </trkpt>
      <trkpt lat="48.98553" lon="7.63303">
        <ele>523.6</ele>
        <time>2012-08-15T14:06:54Z</time>
      </trkpt>
      <trkpt lat="48.98589" lon="7.63254">
        <ele>508.7</ele>
        <time>2012-08-15T14:07:36Z</time>
      </trkpt>
      <trkpt lat="48.98598" lon="7.6319">
        <ele>507.7</ele>
        <time>2012-08-15T14:08:53Z</time>
      </trkpt>
      <trkpt lat="48.98595" lon="7.63117">
        <ele>494.7</ele>
        <time>2012-08-15T14:09:33Z</time>
      </trkpt>
      <trkpt lat="48.98589" lon="7.63042">
        <ele>491.4</ele>
        <time>2012-08-15T14:10:15Z</time>
      </trkpt>
      <trkpt lat="48.98601" lon="7.62968">
        <ele>490.9</ele>
        <time>2012-08-15T14:10:59Z</time>
      </trkpt>
      <trkpt lat="48.98595" lon="7.62895">
        <ele>498.6</ele>
        <time>2012-08-15T14:11:43Z</time>
      </trkpt>
      <trkpt lat="48.98583" lon="7.62829">
        <ele>502.9</ele>
        <time>2012-08-15T14:12:49Z</time>
      </trkpt>
      <trkpt lat="48.98561" lon="7.62768">
        <ele>503.4</ele>
        <time>2012-08-15T14:13:25Z</time>
      </trkpt>
      <trkpt lat="48.9854" lon="7.62704">
        <ele>506.3</ele>
        <time>2012-08-15T14:14:06Z</time>
      </trkpt>
      <trkpt lat="48.98528" lon="7.62637">
        <ele>517.3</ele>
        <time>2012-08-15T14:14:45Z</time>
      </trkpt>
      <trkpt lat="48.98533" lon="7.62557">
        <ele>513</ele>
        <time>2012-08-15T14:15:25Z</time>
      </trkpt>
      <trkpt lat="48.98542" lon="7.62485">
        <ele>511.1</ele>
        <time>2012-08-15T14:16:03Z</time>
      </trkpt>
      <trkpt lat="48.98549" lon="7.62414">
        <ele>516.4</ele>
        <time>2012-08-15T14:16:50Z</time>
      </trkpt>
      <trkpt lat="48.98556" lon="7.62343">
        <ele>514.9</ele>
        <time>2012-08-15T14:17:36Z</time>
      </trkpt>
      <trkpt lat="48.98561" lon="7.62258">
        <ele>509.2</ele>
        <time>2012-08-15T14:18:38Z</time>
      </trkpt>
      <trkpt lat="48.98579" lon="7.62181">
        <ele>497.1</ele>
        <time>2012-08-15T14:19:19Z</time>
      </trkpt>
      <trkpt lat="48.98583" lon="7.621">
        <ele>498.1</ele>
        <time>2012-08-15T14:20:06Z</time>
      </trkpt>
      <trkpt lat="48.98572" lon="7.62026">
        <ele>512</ele>
        <time>2012-08-15T14:20:53Z</time>
      </trkpt>
      <trkpt lat="48.9856" lon="7.61953">
        <ele>516.8</ele>
        <time>2012-08-15T14:21:42Z</time>
      </trkpt>
      <trkpt lat="48.98541" lon="7.61874">
        <ele>512.5</ele>
        <time>2012-08-15T14:22:30Z</time>
      </trkpt>
      <trkpt lat="48.98522" lon="7.61802">
        <ele>510.1</ele>
        <time>2012-08-15T14:23:12Z</time>
      </trkpt>
      <trkpt lat="48.98485" lon="7.61748">
        <ele>499.5</ele>
        <time>2012-08-15T14:23:59Z</time>
      </trkpt>
      <trkpt lat="48.98433" lon="7.617">
        <ele>504.8</ele>
        <time>2012-08-15T14:25:00Z</time>
      </trkpt>
      <trkpt lat="48.98363" lon="7.61639">
        <ele>526.5</ele>
        <time>2012-08-15T14:26:08Z</time>
      </trkpt>
      <trkpt lat="48.98303" lon="7.61594">
        <ele>533.7</ele>
        <time>2012-08-15T14:27:09Z</time>
      </trkpt>
      <trkpt lat="48.9824" lon="7.61521">
        <ele>545.7</ele>
        <time>2012-08-15T14:28:37Z</time>
      </trkpt>
      <trkpt lat="48.98186" lon="7.6142">
        <ele>540.9</ele>
        <time>2012-08-15T14:30:39Z</time>
      </trkpt>
      <trkpt lat="48.98188" lon="7.61416">
        <ele>545.2</ele>
        <time>2012-08-15T14:31:27Z</time>
      </trkpt>
      <trkpt lat="48.98208" lon="7.61416">
        <ele>541.8</ele>
        <time>2012-08-15T14:36:17Z</time>
      </trkpt>
      <trkpt lat="48.98206" lon="7.61417">
        <ele>532.7</ele>
        <time>2012-08-15T14:36:31Z</time>
      </trkpt>
      <trkpt lat="48.98217" lon="7.61425">
        <ele>541.8</ele>
        <time>2012-08-15T14:45:36Z</time>
      </trkpt>
      <trkpt lat="48.9817" lon="7.61461">
        <ele>517.8</ele>
        <time>2012-08-15T14:46:26Z</time>
      </trkpt>
      <trkpt lat="48.98099" lon="7.61532">
        <ele>520.2</ele>
        <time>2012-08-15T14:48:11Z</time>
      </trkpt>
      <trkpt lat="48.98057" lon="7.61505">
        <ele>530.3</ele>
        <time>2012-08-15T14:50:28Z</time>
      </trkpt>
      <trkpt lat="48.98024" lon="7.6151">
        <ele>548.6</ele>
        <time>2012-08-15T14:51:36Z</time>
      </trkpt>
      <trkpt lat="48.9798" lon="7.61484">
        <ele>560.6</ele>
        <time>2012-08-15T14:52:41Z</time>
      </trkpt>
      <trkpt lat="48.97927" lon="7.61476">
        <ele>576.4</ele>
        <time>2012-08-15T14:53:42Z</time>
      </trkpt>
      <trkpt lat="48.97882" lon="7.61448">
        <ele>582.2</ele>
        <time>2012-08-15T14:54:57Z</time>
      </trkpt>
      <trkpt lat="48.97864" lon="7.61437">
        <ele>582.7</ele>
        <time>2012-08-15T15:12:54Z</time>
      </trkpt>
      <trkpt lat="48.97829" lon="7.61472">
        <ele>579.3</ele>
        <time>2012-08-15T15:14:26Z</time>
      </trkpt>
      <trkpt lat="48.9777" lon="7.61504">
        <ele>565.4</ele>
        <time>2012-08-15T15:15:32Z</time>
      </trkpt>
      <trkpt lat="48.97731" lon="7.61541">
        <ele>538</ele>
        <time>2012-08-15T15:17:04Z</time>
      </trkpt>
      <trkpt lat="48.9771" lon="7.61566">
        <ele>526.9</ele>
        <time>2012-08-15T15:17:58Z</time>
      </trkpt>
      <trkpt lat="48.97681" lon="7.6159">
        <ele>519.2</ele>
        <time>2012-08-15T15:18:48Z</time>
      </trkpt>
      <trkpt lat="48.97641" lon="7.61618">
        <ele>515.9</ele>
        <time>2012-08-15T15:19:45Z</time>
      </trkpt>
      <trkpt lat="48.97568" lon="7.61673">
        <ele>489</ele>
        <time>2012-08-15T15:21:18Z</time>
      </trkpt>
      <trkpt lat="48.97539" lon="7.61731">
        <ele>479.8</ele>
        <time>2012-08-15T15:21:55Z</time>
      </trkpt>
      <trkpt lat="48.97565" lon="7.61775">
        <ele>472.6</ele>
        <time>2012-08-15T15:22:40Z</time>
      </trkpt>
      <trkpt lat="48.97548" lon="7.61827">
        <ele>455.8</ele>
        <time>2012-08-15T15:23:31Z</time>
      </trkpt>
      <trkpt lat="48.97534" lon="7.61881">
        <ele>440.4</ele>
        <time>2012-08-15T15:24:45Z</time>
      </trkpt>
      <trkpt lat="48.97538" lon="7.61926">
        <ele>427.4</ele>
        <time>2012-08-15T15:25:37Z</time>
      </trkpt>
      <trkpt lat="48.97538" lon="7.61993">
        <ele>431.3</ele>
        <time>2012-08-15T15:26:18Z</time>
      </trkpt>
      <trkpt lat="48.97517" lon="7.62053">
        <ele>424.1</ele>
        <time>2012-08-15T15:26:52Z</time>
      </trkpt>
      <trkpt lat="48.97487" lon="7.62094">
        <ele>419.8</ele>
        <time>2012-08-15T15:27:31Z</time>
      </trkpt>
      <trkpt lat="48.97454" lon="7.6211">
        <ele>405.8</ele>
        <time>2012-08-15T15:28:10Z</time>
      </trkpt>
      <trkpt lat="48.97435" lon="7.62115">
        <ele>390.4</ele>
        <time>2012-08-15T15:28:53Z</time>
      </trkpt>
      <trkpt lat="48.974" lon="7.62159">
        <ele>376.5</ele>
        <time>2012-08-15T15:29:33Z</time>
      </trkpt>
      <trkpt lat="48.9737" lon="7.62213">
        <ele>372.2</ele>
        <time>2012-08-15T15:30:19Z</time>
      </trkpt>
      <trkpt lat="48.97349" lon="7.62282">
        <ele>356.3</ele>
        <time>2012-08-15T15:31:04Z</time>
      </trkpt>
      <trkpt lat="48.97313" lon="7.62352">
        <ele>348.6</ele>
        <time>2012-08-15T15:32:08Z</time>
      </trkpt>
      <trkpt lat="48.97273" lon="7.62396">
        <ele>345.7</ele>
        <time>2012-08-15T15:32:57Z</time>
      </trkpt>
      <trkpt lat="48.97225" lon="7.62423">
        <ele>340.4</ele>
        <time>2012-08-15T15:33:44Z</time>
      </trkpt>
      <trkpt lat="48.97175" lon="7.62437">
        <ele>339</ele>
        <time>2012-08-15T15:34:29Z</time>
      </trkpt>
      <trkpt lat="48.97124" lon="7.62446">
        <ele>333.7</ele>
        <time>2012-08-15T15:35:14Z</time>
      </trkpt>
      <trkpt lat="48.97077" lon="7.62462">
        <ele>322.7</ele>
        <time>2012-08-15T15:35:58Z</time>
      </trkpt>
      <trkpt lat="48.97033" lon="7.6248">
        <ele>314.5</ele>
        <time>2012-08-15T15:36:43Z</time>
      </trkpt>
      <trkpt lat="48.96991" lon="7.62481">
        <ele>312.1</ele>
        <time>2012-08-15T15:37:21Z</time>
      </trkpt>
      <trkpt lat="48.96947" lon="7.6246">
        <ele>306.3</ele>
        <time>2012-08-15T15:38:01Z</time>
      </trkpt>
      <trkpt lat="48.96904" lon="7.62441">
        <ele>295.3</ele>
        <time>2012-08-15T15:38:35Z</time>
      </trkpt>
      <trkpt lat="48.96866" lon="7.62417">
        <ele>288.1</ele>
        <time>2012-08-15T15:40:17Z</time>
      </trkpt>
      <trkpt lat="48.96822" lon="7.62396">
        <ele>288.1</ele>
        <time>2012-08-15T15:40:49Z</time>
      </trkpt>
      <trkpt lat="48.96775" lon="7.62386">
        <ele>279.4</ele>
        <time>2012-08-15T15:41:33Z</time>
      </trkpt>
      <trkpt lat="48.96729" lon="7.62381">
        <ele>273.6</ele>
        <time>2012-08-15T15:42:10Z</time>
      </trkpt>
      <trkpt lat="48.96677" lon="7.62367">
        <ele>266.9</ele>
        <time>2012-08-15T15:42:57Z</time>
      </trkpt>
      <trkpt lat="48.96628" lon="7.62352">
        <ele>259.7</ele>
        <time>2012-08-15T15:43:41Z</time>
      </trkpt>
      <trkpt lat="48.9658" lon="7.62332">
        <ele>253</ele>
        <time>2012-08-15T15:44:18Z</time>
      </trkpt>
      <trkpt lat="48.96535" lon="7.6231">
        <ele>253</ele>
        <time>2012-08-15T15:44:54Z</time>
      </trkpt>
      <trkpt lat="48.96489" lon="7.62305">
        <ele>245.8</ele>
        <time>2012-08-15T15:45:31Z</time>
      </trkpt>
      <trkpt lat="48.96441" lon="7.62299">
        <ele>244.3</ele>
        <time>2012-08-15T15:46:09Z</time>
      </trkpt>
      <trkpt lat="48.96396" lon="7.62289">
        <ele>235.2</ele>
        <time>2012-08-15T15:46:45Z</time>
      </trkpt>
      <trkpt lat="48.96361" lon="7.62328">
        <ele>227</ele>
        <time>2012-08-15T15:47:22Z</time>
      </trkpt>
      <trkpt lat="48.96331" lon="7.62375">
        <ele>221.2</ele>
        <time>2012-08-15T15:48:00Z</time>
      </trkpt>
      <trkpt lat="48.96294" lon="7.62426">
        <ele>208.3</ele>
        <time>2012-08-15T15:48:42Z</time>
      </trkpt>
      <trkpt lat="48.96251" lon="7.62483">
        <ele>193.4</ele>
        <time>2012-08-15T15:49:27Z</time>
      </trkpt>
      <trkpt lat="48.96199" lon="7.62527">
        <ele>178.9</ele>
        <time>2012-08-15T15:50:10Z</time>
      </trkpt>
      <trkpt lat="48.96152" lon="7.6256">
        <ele>170.3</ele>
        <time>2012-08-15T15:50:51Z</time>
      </trkpt>
      <trkpt lat="48.96128" lon="7.62595">
        <ele>183.3</ele>
        <time>2012-08-15T15:51:38Z</time>
      </trkpt>
      <trkpt lat="48.96136" lon="7.62608">
        <ele>187.6</ele>
        <time>2012-08-15T15:55:41Z</time>
      </trkpt>
      <trkpt lat="48.9611" lon="7.62625">
        <ele>170.8</ele>
        <time>2012-08-15T16:05:51Z</time>
      </trkpt>
      <trkpt lat="48.96117" lon="7.62585">
        <ele>196.7</ele>
        <time>2012-08-15T16:06:47Z</time>
      </trkpt>
      <trkpt lat="48.96101" lon="7.6261">
        <ele>201.5</ele>
        <time>2012-08-15T16:07:29Z</time>
      </trkpt>
      <trkpt lat="48.9607" lon="7.62656">
        <ele>202.5</ele>
        <time>2012-08-15T16:08:01Z</time>
      </trkpt>
      <trkpt lat="48.96039" lon="7.62702">
        <ele>202.5</ele>
        <time>2012-08-15T16:08:34Z</time>
      </trkpt>
      <trkpt lat="48.96005" lon="7.62718">
        <ele>202.5</ele>
        <time>2012-08-15T16:11:14Z</time>
      </trkpt>
      <trkpt lat="48.96001" lon="7.62656">
        <ele>205.4</ele>
        <time>2012-08-15T16:11:50Z</time>
      </trkpt>
      <trkpt lat="48.96039" lon="7.62622">
        <ele>204.4</ele>
        <time>2012-08-15T16:12:23Z</time>
      </trkpt>
      <trkpt lat="48.96061" lon="7.62569">
        <ele>205.9</ele>
        <time>2012-08-15T16:12:57Z</time>
      </trkpt>
      <trkpt lat="48.96027" lon="7.62532">
        <ele>204.4</ele>
        <time>2012-08-15T16:13:29Z</time>
      </trkpt>
      <trkpt lat="48.95983" lon="7.62544">
        <ele>201.1</ele>
        <time>2012-08-15T16:14:00Z</time>
      </trkpt>
      <trkpt lat="48.95938" lon="7.62548">
        <ele>200.1</ele>
        <time>2012-08-15T16:14:30Z</time>
      </trkpt>
      <trkpt lat="48.95894" lon="7.62576">
        <ele>198.6</ele>
        <time>2012-08-15T16:15:03Z</time>
      </trkpt>
      <trkpt lat="48.95854" lon="7.62614">
        <ele>188.6</ele>
        <time>2012-08-15T16:15:36Z</time>
      </trkpt>
      <trkpt lat="48.9581" lon="7.62645">
        <ele>190</ele>
        <time>2012-08-15T16:16:07Z</time>
      </trkpt>
      <trkpt lat="48.95768" lon="7.62673">
        <ele>190.5</ele>
        <time>2012-08-15T16:18:58Z</time>
      </trkpt>
      <trkpt lat="48.95725" lon="7.62691">
        <ele>199.1</ele>
        <time>2012-08-15T16:19:34Z</time>
      </trkpt>
      <trkpt lat="48.95678" lon="7.62694">
        <ele>201.5</ele>
        <time>2012-08-15T16:20:10Z</time>
      </trkpt>
      <trkpt lat="48.9563" lon="7.62692">
        <ele>209.7</ele>
        <time>2012-08-15T16:20:52Z</time>
      </trkpt>
      <trkpt lat="48.95661" lon="7.62653">
        <ele>222.7</ele>
        <time>2012-08-15T16:21:43Z</time>
      </trkpt>
      <trkpt lat="48.9562" lon="7.62615">
        <ele>242.4</ele>
        <time>2012-08-15T16:22:26Z</time>
      </trkpt>
      <trkpt lat="48.95604" lon="7.62574">
        <ele>259.7</ele>
        <time>2012-08-15T16:23:30Z</time>
      </trkpt>
      <trkpt lat="48.95587" lon="7.62529">
        <ele>272.2</ele>
        <time>2012-08-15T16:24:31Z</time>
      </trkpt>
      <trkpt lat="48.95541" lon="7.62523">
        <ele>276</ele>
        <time>2012-08-15T16:25:21Z</time>
      </trkpt>
      <trkpt lat="48.95543" lon="7.62457">
        <ele>293.8</ele>
        <time>2012-08-15T16:26:14Z</time>
      </trkpt>
      <trkpt lat="48.95593" lon="7.6247">
        <ele>300.1</ele>
        <time>2012-08-15T16:26:56Z</time>
      </trkpt>
      <trkpt lat="48.95642" lon="7.62475">
        <ele>295.3</ele>
        <time>2012-08-15T16:27:34Z</time>
      </trkpt>
      <trkpt lat="48.95685" lon="7.6244">
        <ele>301.5</ele>
        <time>2012-08-15T16:28:12Z</time>
      </trkpt>
      <trkpt lat="48.95723" lon="7.62385">
        <ele>308.7</ele>
        <time>2012-08-15T16:28:54Z</time>
      </trkpt>
      <trkpt lat="48.95752" lon="7.62324">
        <ele>314.5</ele>
        <time>2012-08-15T16:29:34Z</time>
      </trkpt>
      <trkpt lat="48.95782" lon="7.62263">
        <ele>318.3</ele>
        <time>2012-08-15T16:30:14Z</time>
      </trkpt>
      <trkpt lat="48.95795" lon="7.62195">
        <ele>327.5</ele>
        <time>2012-08-15T16:30:51Z</time>
      </trkpt>
      <trkpt lat="48.95794" lon="7.62124">
        <ele>337.1</ele>
        <time>2012-08-15T16:31:29Z</time>
      </trkpt>
      <trkpt lat="48.95785" lon="7.62053">
        <ele>349.1</ele>
        <time>2012-08-15T16:32:07Z</time>
      </trkpt>
      <trkpt lat="48.95776" lon="7.61985">
        <ele>359.7</ele>
        <time>2012-08-15T16:32:42Z</time>
      </trkpt>
      <trkpt lat="48.95762" lon="7.61919">
        <ele>365</ele>
        <time>2012-08-15T16:33:21Z</time>
      </trkpt>
      <trkpt lat="48.95746" lon="7.6185">
        <ele>374.6</ele>
        <time>2012-08-15T16:34:00Z</time>
      </trkpt>
      <trkpt lat="48.9573" lon="7.61782">
        <ele>380.3</ele>
        <time>2012-08-15T16:34:36Z</time>
      </trkpt>
      <trkpt lat="48.95716" lon="7.61715">
        <ele>393.3</ele>
        <time>2012-08-15T16:35:13Z</time>
      </trkpt>
      <trkpt lat="48.95707" lon="7.61647">
        <ele>396.7</ele>
        <time>2012-08-15T16:35:56Z</time>
      </trkpt>
      <trkpt lat="48.95712" lon="7.6158">
        <ele>390.4</ele>
        <time>2012-08-15T16:36:30Z</time>
      </trkpt>
      <trkpt lat="48.95709" lon="7.61513">
        <ele>387.1</ele>
        <time>2012-08-15T16:37:06Z</time>
      </trkpt>
      <trkpt lat="48.9575" lon="7.61487">
        <ele>375.1</ele>
        <time>2012-08-15T16:37:55Z</time>
      </trkpt>
      <trkpt lat="48.95793" lon="7.61511">
        <ele>378.9</ele>
        <time>2012-08-15T16:39:02Z</time>
      </trkpt>
      <trkpt lat="48.95838" lon="7.61539">
        <ele>393.3</ele>
        <time>2012-08-15T16:39:47Z</time>
      </trkpt>
      <trkpt lat="48.95886" lon="7.6157">
        <ele>405.3</ele>
        <time>2012-08-15T16:40:42Z</time>
      </trkpt>
      <trkpt lat="48.9593" lon="7.61599">
        <ele>419.3</ele>
        <time>2012-08-15T16:41:30Z</time>
      </trkpt>
      <trkpt lat="48.9598" lon="7.61628">
        <ele>432.3</ele>
        <time>2012-08-15T16:42:21Z</time>
      </trkpt>
      <trkpt lat="48.96029" lon="7.61654">
        <ele>439</ele>
        <time>2012-08-15T16:43:07Z</time>
      </trkpt>
      <trkpt lat="48.96055" lon="7.61653">
        <ele>440.9</ele>
        <time>2012-08-15T16:44:20Z</time>
      </trkpt>
      <trkpt lat="48.96035" lon="7.61618">
        <ele>487</ele>
        <time>2012-08-15T17:01:58Z</time>
      </trkpt>
      <trkpt lat="48.96048" lon="7.61637">
        <ele>435.6</ele>
        <time>2012-08-15T17:02:55Z</time>
      </trkpt>
      <trkpt lat="48.96044" lon="7.61654">
        <ele>442.3</ele>
        <time>2012-08-16T06:51:04Z</time>
      </trkpt>
      <trkpt lat="48.96032" lon="7.61584">
        <ele>435.1</ele>
        <time>2012-08-16T06:54:24Z</time>
      </trkpt>
      <trkpt lat="48.96014" lon="7.61536">
        <ele>440.9</ele>
        <time>2012-08-16T06:57:43Z</time>
      </trkpt>
      <trkpt lat="48.95997" lon="7.61579">
        <ele>427.4</ele>
        <time>2012-08-16T06:58:27Z</time>
      </trkpt>
      <trkpt lat="48.96009" lon="7.61578">
        <ele>425.5</ele>
        <time>2012-08-16T06:59:05Z</time>
      </trkpt>
      <trkpt lat="48.96036" lon="7.61638">
        <ele>428.9</ele>
        <time>2012-08-16T06:59:40Z</time>
      </trkpt>
      <trkpt lat="48.95989" lon="7.61617">
        <ele>423.6</ele>
        <time>2012-08-16T07:01:51Z</time>
      </trkpt>
      <trkpt lat="48.9592" lon="7.61543">
        <ele>431.8</ele>
        <time>2012-08-16T07:02:52Z</time>
      </trkpt>
      <trkpt lat="48.95871" lon="7.61486">
        <ele>434.7</ele>
        <time>2012-08-16T07:03:34Z</time>
      </trkpt>
      <trkpt lat="48.95827" lon="7.61433">
        <ele>430.8</ele>
        <time>2012-08-16T07:04:21Z</time>
      </trkpt>
      <trkpt lat="48.95781" lon="7.61378">
        <ele>430.3</ele>
        <time>2012-08-16T07:05:02Z</time>
      </trkpt>
      <trkpt lat="48.95724" lon="7.61341">
        <ele>433.7</ele>
        <time>2012-08-16T07:05:47Z</time>
      </trkpt>
      <trkpt lat="48.95668" lon="7.61344">
        <ele>434.2</ele>
        <time>2012-08-16T07:06:24Z</time>
      </trkpt>
      <trkpt lat="48.95616" lon="7.61344">
        <ele>432.3</ele>
        <time>2012-08-16T07:06:59Z</time>
      </trkpt>
      <trkpt lat="48.9557" lon="7.61372">
        <ele>427</ele>
        <time>2012-08-16T07:07:32Z</time>
      </trkpt>
      <trkpt lat="48.9553" lon="7.61373">
        <ele>429.8</ele>
        <time>2012-08-16T07:08:15Z</time>
      </trkpt>
      <trkpt lat="48.9555" lon="7.61302">
        <ele>439.9</ele>
        <time>2012-08-16T07:09:06Z</time>
      </trkpt>
      <trkpt lat="48.95559" lon="7.61211">
        <ele>452.9</ele>
        <time>2012-08-16T07:10:06Z</time>
      </trkpt>
      <trkpt lat="48.95554" lon="7.61141">
        <ele>461.6</ele>
        <time>2012-08-16T07:10:49Z</time>
      </trkpt>
      <trkpt lat="48.95524" lon="7.61094">
        <ele>467.3</ele>
        <time>2012-08-16T07:11:25Z</time>
      </trkpt>
      <trkpt lat="48.95485" lon="7.6104">
        <ele>475</ele>
        <time>2012-08-16T07:12:06Z</time>
      </trkpt>
      <trkpt lat="48.9544" lon="7.60978">
        <ele>478.9</ele>
        <time>2012-08-16T07:12:54Z</time>
      </trkpt>
      <trkpt lat="48.95389" lon="7.60922">
        <ele>480.8</ele>
        <time>2012-08-16T07:13:41Z</time>
      </trkpt>
      <trkpt lat="48.95335" lon="7.60896">
        <ele>480.3</ele>
        <time>2012-08-16T07:14:19Z</time>
      </trkpt>
      <trkpt lat="48.95286" lon="7.60861">
        <ele>477.9</ele>
        <time>2012-08-16T07:14:59Z</time>
      </trkpt>
      <trkpt lat="48.9522" lon="7.60813">
        <ele>472.6</ele>
        <time>2012-08-16T07:15:54Z</time>
      </trkpt>
      <trkpt lat="48.95169" lon="7.60765">
        <ele>476.5</ele>
        <time>2012-08-16T07:16:32Z</time>
      </trkpt>
      <trkpt lat="48.95125" lon="7.60731">
        <ele>469.3</ele>
        <time>2012-08-16T07:17:05Z</time>
      </trkpt>
      <trkpt lat="48.95082" lon="7.60678">
        <ele>472.1</ele>
        <time>2012-08-16T07:19:23Z</time>
      </trkpt>
      <trkpt lat="48.9505" lon="7.60625">
        <ele>472.1</ele>
        <time>2012-08-16T07:19:56Z</time>
      </trkpt>
      <trkpt lat="48.95011" lon="7.60586">
        <ele>470.7</ele>
        <time>2012-08-16T07:20:29Z</time>
      </trkpt>
      <trkpt lat="48.94967" lon="7.60557">
        <ele>470.2</ele>
        <time>2012-08-16T07:21:02Z</time>
      </trkpt>
      <trkpt lat="48.94922" lon="7.60542">
        <ele>461.6</ele>
        <time>2012-08-16T07:21:39Z</time>
      </trkpt>
      <trkpt lat="48.94876" lon="7.60552">
        <ele>458.2</ele>
        <time>2012-08-16T07:22:13Z</time>
      </trkpt>
      <trkpt lat="48.94828" lon="7.60546">
        <ele>450</ele>
        <time>2012-08-16T07:22:50Z</time>
      </trkpt>
      <trkpt lat="48.94786" lon="7.60504">
        <ele>459.2</ele>
        <time>2012-08-16T07:23:33Z</time>
      </trkpt>
      <trkpt lat="48.94736" lon="7.60472">
        <ele>471.7</ele>
        <time>2012-08-16T07:24:19Z</time>
      </trkpt>
      <trkpt lat="48.94714" lon="7.60405">
        <ele>490.4</ele>
        <time>2012-08-16T07:25:06Z</time>
      </trkpt>
      <trkpt lat="48.94667" lon="7.6036">
        <ele>498.6</ele>
        <time>2012-08-16T07:25:54Z</time>
      </trkpt>
      <trkpt lat="48.94626" lon="7.60275">
        <ele>511.1</ele>
        <time>2012-08-16T07:26:52Z</time>
      </trkpt>
      <trkpt lat="48.9461" lon="7.60176">
        <ele>523.6</ele>
        <time>2012-08-16T07:27:53Z</time>
      </trkpt>
      <trkpt lat="48.94607" lon="7.60079">
        <ele>526.9</ele>
        <time>2012-08-16T07:28:50Z</time>
      </trkpt>
      <trkpt lat="48.94647" lon="7.60059">
        <ele>532.7</ele>
        <time>2012-08-16T07:29:40Z</time>
      </trkpt>
      <trkpt lat="48.94691" lon="7.60042">
        <ele>533.7</ele>
        <time>2012-08-16T07:30:18Z</time>
      </trkpt>
      <trkpt lat="48.94705" lon="7.59969">
        <ele>531.7</ele>
        <time>2012-08-16T07:30:55Z</time>
      </trkpt>
      <trkpt lat="48.94718" lon="7.59901">
        <ele>537.5</ele>
        <time>2012-08-16T07:31:31Z</time>
      </trkpt>
      <trkpt lat="48.94728" lon="7.59865">
        <ele>539.4</ele>
        <time>2012-08-16T07:33:58Z</time>
      </trkpt>
      <trkpt lat="48.94758" lon="7.59812">
        <ele>531.3</ele>
        <time>2012-08-16T07:34:35Z</time>
      </trkpt>
      <trkpt lat="48.9478" lon="7.5975">
        <ele>528.4</ele>
        <time>2012-08-16T07:35:10Z</time>
      </trkpt>
      <trkpt lat="48.94802" lon="7.5969">
        <ele>527.4</ele>
        <time>2012-08-16T07:35:49Z</time>
      </trkpt>
      <trkpt lat="48.94826" lon="7.59629">
        <ele>507.7</ele>
        <time>2012-08-16T07:36:29Z</time>
      </trkpt>
      <trkpt lat="48.94837" lon="7.59557">
        <ele>495.7</ele>
        <time>2012-08-16T07:37:14Z</time>
      </trkpt>
      <trkpt lat="48.9482" lon="7.59486">
        <ele>485.6</ele>
        <time>2012-08-16T07:38:00Z</time>
      </trkpt>
      <trkpt lat="48.94824" lon="7.59412">
        <ele>489</ele>
        <time>2012-08-16T07:38:39Z</time>
      </trkpt>
      <trkpt lat="48.94849" lon="7.5935">
        <ele>490.9</ele>
        <time>2012-08-16T07:39:15Z</time>
      </trkpt>
      <trkpt lat="48.94867" lon="7.59287">
        <ele>494.3</ele>
        <time>2012-08-16T07:39:48Z</time>
      </trkpt>
      <trkpt lat="48.94889" lon="7.59228">
        <ele>489</ele>
        <time>2012-08-16T07:40:21Z</time>
      </trkpt>
      <trkpt lat="48.94928" lon="7.59178">
        <ele>483.2</ele>
        <time>2012-08-16T07:41:00Z</time>
      </trkpt>
      <trkpt lat="48.94952" lon="7.59113">
        <ele>479.8</ele>
        <time>2012-08-16T07:41:35Z</time>
      </trkpt>
      <trkpt lat="48.94965" lon="7.59039">
        <ele>474.1</ele>
        <time>2012-08-16T07:42:13Z</time>
      </trkpt>
      <trkpt lat="48.94968" lon="7.58963">
        <ele>469.7</ele>
        <time>2012-08-16T07:42:51Z</time>
      </trkpt>
      <trkpt lat="48.95014" lon="7.58941">
        <ele>466.4</ele>
        <time>2012-08-16T07:43:28Z</time>
      </trkpt>
      <trkpt lat="48.9506" lon="7.58916">
        <ele>464.9</ele>
        <time>2012-08-16T07:44:03Z</time>
      </trkpt>
      <trkpt lat="48.95109" lon="7.58883">
        <ele>462.1</ele>
        <time>2012-08-16T07:44:43Z</time>
      </trkpt>
      <trkpt lat="48.95155" lon="7.58858">
        <ele>461.1</ele>
        <time>2012-08-16T07:45:17Z</time>
      </trkpt>
      <trkpt lat="48.95197" lon="7.58827">
        <ele>461.1</ele>
        <time>2012-08-16T07:45:56Z</time>
      </trkpt>
      <trkpt lat="48.95241" lon="7.58794">
        <ele>462.5</ele>
        <time>2012-08-16T07:46:31Z</time>
      </trkpt>
      <trkpt lat="48.95281" lon="7.58758">
        <ele>464</ele>
        <time>2012-08-16T07:47:04Z</time>
      </trkpt>
      <trkpt lat="48.95317" lon="7.58711">
        <ele>463</ele>
        <time>2012-08-16T07:47:38Z</time>
      </trkpt>
      <trkpt lat="48.95357" lon="7.58669">
        <ele>463.5</ele>
        <time>2012-08-16T07:48:14Z</time>
      </trkpt>
      <trkpt lat="48.95393" lon="7.58619">
        <ele>462.5</ele>
        <time>2012-08-16T07:48:48Z</time>
      </trkpt>
      <trkpt lat="48.95419" lon="7.58559">
        <ele>453.9</ele>
        <time>2012-08-16T07:50:15Z</time>
      </trkpt>
      <trkpt lat="48.95426" lon="7.58504">
        <ele>456.3</ele>
        <time>2012-08-16T07:51:20Z</time>
      </trkpt>
      <trkpt lat="48.95441" lon="7.58433">
        <ele>459.2</ele>
        <time>2012-08-16T07:51:57Z</time>
      </trkpt>
      <trkpt lat="48.95438" lon="7.58359">
        <ele>461.1</ele>
        <time>2012-08-16T07:52:32Z</time>
      </trkpt>
      <trkpt lat="48.95434" lon="7.58286">
        <ele>463.5</ele>
        <time>2012-08-16T07:53:08Z</time>
      </trkpt>
      <trkpt lat="48.95431" lon="7.58214">
        <ele>462.1</ele>
        <time>2012-08-16T07:53:41Z</time>
      </trkpt>
      <trkpt lat="48.95421" lon="7.58148">
        <ele>460.6</ele>
        <time>2012-08-16T07:54:16Z</time>
      </trkpt>
      <trkpt lat="48.95403" lon="7.58078">
        <ele>457.7</ele>
        <time>2012-08-16T07:54:52Z</time>
      </trkpt>
      <trkpt lat="48.95392" lon="7.58005">
        <ele>455.3</ele>
        <time>2012-08-16T07:55:27Z</time>
      </trkpt>
      <trkpt lat="48.95384" lon="7.57928">
        <ele>454.4</ele>
        <time>2012-08-16T07:56:04Z</time>
      </trkpt>
      <trkpt lat="48.95373" lon="7.57857">
        <ele>443.8</ele>
        <time>2012-08-16T07:57:05Z</time>
      </trkpt>
      <trkpt lat="48.95337" lon="7.57793">
        <ele>436.6</ele>
        <time>2012-08-16T07:57:48Z</time>
      </trkpt>
      <trkpt lat="48.95335" lon="7.57732">
        <ele>437.5</ele>
        <time>2012-08-16T07:58:33Z</time>
      </trkpt>
      <trkpt lat="48.95372" lon="7.57671">
        <ele>454.4</ele>
        <time>2012-08-16T08:00:15Z</time>
      </trkpt>
      <trkpt lat="48.95416" lon="7.57616">
        <ele>452</ele>
        <time>2012-08-16T08:01:04Z</time>
      </trkpt>
      <trkpt lat="48.95439" lon="7.57547">
        <ele>452.4</ele>
        <time>2012-08-16T08:01:43Z</time>
      </trkpt>
      <trkpt lat="48.95442" lon="7.57476">
        <ele>457.2</ele>
        <time>2012-08-16T08:02:23Z</time>
      </trkpt>
      <trkpt lat="48.95451" lon="7.57401">
        <ele>467.8</ele>
        <time>2012-08-16T08:03:04Z</time>
      </trkpt>
      <trkpt lat="48.95446" lon="7.57326">
        <ele>468.3</ele>
        <time>2012-08-16T08:03:41Z</time>
      </trkpt>
      <trkpt lat="48.95448" lon="7.57249">
        <ele>468.3</ele>
        <time>2012-08-16T08:04:19Z</time>
      </trkpt>
      <trkpt lat="48.9545" lon="7.57177">
        <ele>472.6</ele>
        <time>2012-08-16T08:04:54Z</time>
      </trkpt>
      <trkpt lat="48.95443" lon="7.57107">
        <ele>472.6</ele>
        <time>2012-08-16T08:05:27Z</time>
      </trkpt>
      <trkpt lat="48.95448" lon="7.57039">
        <ele>465.4</ele>
        <time>2012-08-16T08:06:05Z</time>
      </trkpt>
      <trkpt lat="48.9547" lon="7.56964">
        <ele>458.7</ele>
        <time>2012-08-16T08:06:46Z</time>
      </trkpt>
      <trkpt lat="48.95497" lon="7.569">
        <ele>465.4</ele>
        <time>2012-08-16T08:07:20Z</time>
      </trkpt>
      <trkpt lat="48.95517" lon="7.56835">
        <ele>457.7</ele>
        <time>2012-08-16T08:07:51Z</time>
      </trkpt>
      <trkpt lat="48.95502" lon="7.5677">
        <ele>456.3</ele>
        <time>2012-08-16T08:08:25Z</time>
      </trkpt>
      <trkpt lat="48.95487" lon="7.56704">
        <ele>451.5</ele>
        <time>2012-08-16T08:09:03Z</time>
      </trkpt>
      <trkpt lat="48.95456" lon="7.5664">
        <ele>451.5</ele>
        <time>2012-08-16T08:11:02Z</time>
      </trkpt>
      <trkpt lat="48.95433" lon="7.56578">
        <ele>444.3</ele>
        <time>2012-08-16T08:11:41Z</time>
      </trkpt>
      <trkpt lat="48.95405" lon="7.56521">
        <ele>436.1</ele>
        <time>2012-08-16T08:12:28Z</time>
      </trkpt>
      <trkpt lat="48.95378" lon="7.56463">
        <ele>426.5</ele>
        <time>2012-08-16T08:13:09Z</time>
      </trkpt>
      <trkpt lat="48.95341" lon="7.5642">
        <ele>411.1</ele>
        <time>2012-08-16T08:13:49Z</time>
      </trkpt>
      <trkpt lat="48.95309" lon="7.56371">
        <ele>402.9</ele>
        <time>2012-08-16T08:14:29Z</time>
      </trkpt>
      <trkpt lat="48.95267" lon="7.56338">
        <ele>393.3</ele>
        <time>2012-08-16T08:15:07Z</time>
      </trkpt>
      <trkpt lat="48.95229" lon="7.56295">
        <ele>389.5</ele>
        <time>2012-08-16T08:15:42Z</time>
      </trkpt>
      <trkpt lat="48.952" lon="7.5625">
        <ele>383.2</ele>
        <time>2012-08-16T08:16:18Z</time>
      </trkpt>
      <trkpt lat="48.95168" lon="7.56202">
        <ele>382.3</ele>
        <time>2012-08-16T08:17:01Z</time>
      </trkpt>
      <trkpt lat="48.95157" lon="7.56159">
        <ele>375.1</ele>
        <time>2012-08-16T08:17:50Z</time>
      </trkpt>
      <trkpt lat="48.95129" lon="7.56113">
        <ele>367.4</ele>
        <time>2012-08-16T08:19:46Z</time>
      </trkpt>
      <trkpt lat="48.95092" lon="7.56065">
        <ele>359.2</ele>
        <time>2012-08-16T08:20:25Z</time>
      </trkpt>
      <trkpt lat="48.9507" lon="7.56007">
        <ele>352</ele>
        <time>2012-08-16T08:21:17Z</time>
      </trkpt>
      <trkpt lat="48.95052" lon="7.55947">
        <ele>339</ele>
        <time>2012-08-16T08:22:24Z</time>
      </trkpt>
      <trkpt lat="48.9502" lon="7.55886">
        <ele>330.4</ele>
        <time>2012-08-16T08:23:10Z</time>
      </trkpt>
      <trkpt lat="48.9499" lon="7.55829">
        <ele>326</ele>
        <time>2012-08-16T08:23:45Z</time>
      </trkpt>
      <trkpt lat="48.94968" lon="7.55769">
        <ele>322.2</ele>
        <time>2012-08-16T08:24:24Z</time>
      </trkpt>
      <trkpt lat="48.94946" lon="7.5571">
        <ele>310.6</ele>
        <time>2012-08-16T08:25:04Z</time>
      </trkpt>
      <trkpt lat="48.94929" lon="7.55643">
        <ele>308.7</ele>
        <time>2012-08-16T08:25:45Z</time>
      </trkpt>
      <trkpt lat="48.94913" lon="7.55575">
        <ele>303.9</ele>
        <time>2012-08-16T08:26:20Z</time>
      </trkpt>
      <trkpt lat="48.94907" lon="7.55498">
        <ele>298.1</ele>
        <time>2012-08-16T08:27:00Z</time>
      </trkpt>
      <trkpt lat="48.94888" lon="7.55429">
        <ele>293.3</ele>
        <time>2012-08-16T08:27:38Z</time>
      </trkpt>
      <trkpt lat="48.9489" lon="7.55354">
        <ele>291.4</ele>
        <time>2012-08-16T08:28:15Z</time>
      </trkpt>
      <trkpt lat="48.94897" lon="7.5528">
        <ele>286.1</ele>
        <time>2012-08-16T08:28:59Z</time>
      </trkpt>
      <trkpt lat="48.94913" lon="7.55204">
        <ele>277</ele>
        <time>2012-08-16T08:29:44Z</time>
      </trkpt>
      <trkpt lat="48.94917" lon="7.55128">
        <ele>270.7</ele>
        <time>2012-08-16T08:30:32Z</time>
      </trkpt>
      <trkpt lat="48.94918" lon="7.55051">
        <ele>260.2</ele>
        <time>2012-08-16T08:31:19Z</time>
      </trkpt>
      <trkpt lat="48.94884" lon="7.54998">
        <ele>250.6</ele>
        <time>2012-08-16T08:32:03Z</time>
      </trkpt>
      <trkpt lat="48.94914" lon="7.54953">
        <ele>226.5</ele>
        <time>2012-08-16T08:33:35Z</time>
      </trkpt>
      <trkpt lat="48.94925" lon="7.54921">
        <ele>215.5</ele>
        <time>2012-08-16T08:34:41Z</time>
      </trkpt>
      <trkpt lat="48.94953" lon="7.54882">
        <ele>209.2</ele>
        <time>2012-08-16T08:35:25Z</time>
      </trkpt>
      <trkpt lat="48.94979" lon="7.54826">
        <ele>207.8</ele>
        <time>2012-08-16T08:35:59Z</time>
      </trkpt>
      <trkpt lat="48.94987" lon="7.54761">
        <ele>204.4</ele>
        <time>2012-08-16T08:36:30Z</time>
      </trkpt>
      <trkpt lat="48.94988" lon="7.54694">
        <ele>202.5</ele>
        <time>2012-08-16T08:37:02Z</time>
      </trkpt>
      <trkpt lat="48.94991" lon="7.54625">
        <ele>203.5</ele>
        <time>2012-08-16T08:37:34Z</time>
      </trkpt>
      <trkpt lat="48.94985" lon="7.54557">
        <ele>199.1</ele>
        <time>2012-08-16T08:38:10Z</time>
      </trkpt>
      <trkpt lat="48.94992" lon="7.54486">
        <ele>201.5</ele>
        <time>2012-08-16T08:38:44Z</time>
      </trkpt>
      <trkpt lat="48.95011" lon="7.54425">
        <ele>203.5</ele>
        <time>2012-08-16T08:39:16Z</time>
      </trkpt>
      <trkpt lat="48.9503" lon="7.54374">
        <ele>205.9</ele>
        <time>2012-08-16T08:39:59Z</time>
      </trkpt>
      <trkpt lat="48.95004" lon="7.54434">
        <ele>207.8</ele>
        <time>2012-08-16T08:40:33Z</time>
      </trkpt>
      <trkpt lat="48.94986" lon="7.54496">
        <ele>208.7</ele>
        <time>2012-08-16T08:41:06Z</time>
      </trkpt>
      <trkpt lat="48.94972" lon="7.54548">
        <ele>205.4</ele>
        <time>2012-08-16T08:41:41Z</time>
      </trkpt>
      <trkpt lat="48.94953" lon="7.545">
        <ele>206.3</ele>
        <time>2012-08-16T08:42:22Z</time>
      </trkpt>
      <trkpt lat="48.94969" lon="7.54453">
        <ele>203.9</ele>
        <time>2012-08-16T08:47:40Z</time>
      </trkpt>
      <trkpt lat="48.9498" lon="7.54395">
        <ele>203.9</ele>
        <time>2012-08-16T08:48:17Z</time>
      </trkpt>
      <trkpt lat="48.94973" lon="7.54331">
        <ele>202</ele>
        <time>2012-08-16T08:48:50Z</time>
      </trkpt>
      <trkpt lat="48.94978" lon="7.54263">
        <ele>202.5</ele>
        <time>2012-08-16T08:49:23Z</time>
      </trkpt>
      <trkpt lat="48.94965" lon="7.54199">
        <ele>203</ele>
        <time>2012-08-16T08:50:01Z</time>
      </trkpt>
      <trkpt lat="48.94972" lon="7.5415">
        <ele>204.4</ele>
        <time>2012-08-16T08:54:52Z</time>
      </trkpt>
      <trkpt lat="48.9501" lon="7.5412">
        <ele>204.4</ele>
        <time>2012-08-16T08:55:49Z</time>
      </trkpt>
      <trkpt lat="48.95049" lon="7.54114">
        <ele>206.3</ele>
        <time>2012-08-16T08:56:19Z</time>
      </trkpt>
      <trkpt lat="48.95093" lon="7.541">
        <ele>204.4</ele>
        <time>2012-08-16T08:56:51Z</time>
      </trkpt>
      <trkpt lat="48.95138" lon="7.54087">
        <ele>205.4</ele>
        <time>2012-08-16T08:57:30Z</time>
      </trkpt>
      <trkpt lat="48.95183" lon="7.54051">
        <ele>199.1</ele>
        <time>2012-08-16T08:58:20Z</time>
      </trkpt>
      <trkpt lat="48.95229" lon="7.54009">
        <ele>192.4</ele>
        <time>2012-08-16T08:59:01Z</time>
      </trkpt>
      <trkpt lat="48.9527" lon="7.53955">
        <ele>199.1</ele>
        <time>2012-08-16T08:59:38Z</time>
      </trkpt>
      <trkpt lat="48.95262" lon="7.53891">
        <ele>204.4</ele>
        <time>2012-08-16T09:00:11Z</time>
      </trkpt>
      <trkpt lat="48.95236" lon="7.53837">
        <ele>205.4</ele>
        <time>2012-08-16T09:00:42Z</time>
      </trkpt>
      <trkpt lat="48.9522" lon="7.5378">
        <ele>206.8</ele>
        <time>2012-08-16T09:01:11Z</time>
      </trkpt>
      <trkpt lat="48.95204" lon="7.53716">
        <ele>210.7</ele>
        <time>2012-08-16T09:01:43Z</time>
      </trkpt>
      <trkpt lat="48.95161" lon="7.53695">
        <ele>208.3</ele>
        <time>2012-08-16T09:02:21Z</time>
      </trkpt>
      <trkpt lat="48.95114" lon="7.53678">
        <ele>193.8</ele>
        <time>2012-08-16T09:03:04Z</time>
      </trkpt>
      <trkpt lat="48.95072" lon="7.53633">
        <ele>208.7</ele>
        <time>2012-08-16T09:07:00Z</time>
      </trkpt>
      <trkpt lat="48.95031" lon="7.53597">
        <ele>222.2</ele>
        <time>2012-08-16T09:08:19Z</time>
      </trkpt>
      <trkpt lat="48.94997" lon="7.53544">
        <ele>229.9</ele>
        <time>2012-08-16T09:19:21Z</time>
      </trkpt>
      <trkpt lat="48.94965" lon="7.53479">
        <ele>240.9</ele>
        <time>2012-08-16T09:20:08Z</time>
      </trkpt>
      <trkpt lat="48.94932" lon="7.53413">
        <ele>247.2</ele>
        <time>2012-08-16T09:20:53Z</time>
      </trkpt>
      <trkpt lat="48.94904" lon="7.53331">
        <ele>250.6</ele>
        <time>2012-08-16T09:21:58Z</time>
      </trkpt>
      <trkpt lat="48.94876" lon="7.53251">
        <ele>254.4</ele>
        <time>2012-08-16T09:23:06Z</time>
      </trkpt>
      <trkpt lat="48.94843" lon="7.53164">
        <ele>252</ele>
        <time>2012-08-16T09:23:59Z</time>
      </trkpt>
      <trkpt lat="48.94812" lon="7.53076">
        <ele>260.7</ele>
        <time>2012-08-16T09:24:57Z</time>
      </trkpt>
      <trkpt lat="48.94759" lon="7.53094">
        <ele>275.6</ele>
        <time>2012-08-16T09:25:41Z</time>
      </trkpt>
      <trkpt lat="48.9471" lon="7.53117">
        <ele>278.4</ele>
        <time>2012-08-16T09:26:28Z</time>
      </trkpt>
      <trkpt lat="48.94677" lon="7.53053">
        <ele>287.1</ele>
        <time>2012-08-16T09:27:10Z</time>
      </trkpt>
      <trkpt lat="48.94648" lon="7.52977">
        <ele>295.3</ele>
        <time>2012-08-16T09:27:58Z</time>
      </trkpt>
      <trkpt lat="48.94625" lon="7.52905">
        <ele>303.4</ele>
        <time>2012-08-16T09:28:39Z</time>
      </trkpt>
      <trkpt lat="48.94605" lon="7.52827">
        <ele>306.8</ele>
        <time>2012-08-16T09:29:48Z</time>
      </trkpt>
      <trkpt lat="48.94558" lon="7.52739">
        <ele>318.3</ele>
        <time>2012-08-16T09:30:56Z</time>
      </trkpt>
      <trkpt lat="48.94517" lon="7.5266">
        <ele>323.1</ele>
        <time>2012-08-16T09:31:48Z</time>
      </trkpt>
      <trkpt lat="48.94482" lon="7.52564">
        <ele>340.4</ele>
        <time>2012-08-16T09:32:45Z</time>
      </trkpt>
      <trkpt lat="48.94469" lon="7.52509">
        <ele>354.4</ele>
        <time>2012-08-16T09:33:30Z</time>
      </trkpt>
      <trkpt lat="48.94449" lon="7.52455">
        <ele>360.6</ele>
        <time>2012-08-16T09:34:12Z</time>
      </trkpt>
      <trkpt lat="48.94433" lon="7.5239">
        <ele>353.4</ele>
        <time>2012-08-16T09:34:44Z</time>
      </trkpt>
      <trkpt lat="48.94405" lon="7.52334">
        <ele>352</ele>
        <time>2012-08-16T09:35:31Z</time>
      </trkpt>
      <trkpt lat="48.94358" lon="7.52317">
        <ele>351</ele>
        <time>2012-08-16T09:36:05Z</time>
      </trkpt>
      <trkpt lat="48.94297" lon="7.52308">
        <ele>360.2</ele>
        <time>2012-08-16T09:36:53Z</time>
      </trkpt>
      <trkpt lat="48.94234" lon="7.52301">
        <ele>377</ele>
        <time>2012-08-16T09:37:39Z</time>
      </trkpt>
      <trkpt lat="48.94178" lon="7.52314">
        <ele>378.4</ele>
        <time>2012-08-16T09:38:19Z</time>
      </trkpt>
      <trkpt lat="48.94125" lon="7.52302">
        <ele>387.1</ele>
        <time>2012-08-16T09:39:00Z</time>
      </trkpt>
      <trkpt lat="48.94072" lon="7.52249">
        <ele>397.2</ele>
        <time>2012-08-16T09:39:49Z</time>
      </trkpt>
      <trkpt lat="48.94022" lon="7.52186">
        <ele>396.7</ele>
        <time>2012-08-16T09:40:32Z</time>
      </trkpt>
      <trkpt lat="48.94011" lon="7.5211">
        <ele>398.1</ele>
        <time>2012-08-16T09:41:10Z</time>
      </trkpt>
      <trkpt lat="48.94006" lon="7.52021">
        <ele>391.9</ele>
        <time>2012-08-16T09:41:52Z</time>
      </trkpt>
      <trkpt lat="48.94001" lon="7.51934">
        <ele>383.7</ele>
        <time>2012-08-16T09:42:27Z</time>
      </trkpt>
      <trkpt lat="48.94006" lon="7.51861">
        <ele>384.2</ele>
        <time>2012-08-16T09:43:01Z</time>
      </trkpt>
      <trkpt lat="48.94022" lon="7.51791">
        <ele>388.5</ele>
        <time>2012-08-16T09:43:34Z</time>
      </trkpt>
      <trkpt lat="48.94043" lon="7.5173">
        <ele>385.1</ele>
        <time>2012-08-16T09:44:08Z</time>
      </trkpt>
      <trkpt lat="48.9407" lon="7.51665">
        <ele>388</ele>
        <time>2012-08-16T09:44:45Z</time>
      </trkpt>
      <trkpt lat="48.94098" lon="7.51592">
        <ele>392.4</ele>
        <time>2012-08-16T09:45:31Z</time>
      </trkpt>
      <trkpt lat="48.94127" lon="7.51561">
        <ele>392.4</ele>
        <time>2012-08-16T09:46:20Z</time>
      </trkpt>
      <trkpt lat="48.94163" lon="7.51511">
        <ele>391.9</ele>
        <time>2012-08-16T09:46:53Z</time>
      </trkpt>
      <trkpt lat="48.94198" lon="7.51463">
        <ele>390.9</ele>
        <time>2012-08-16T09:47:25Z</time>
      </trkpt>
      <trkpt lat="48.94233" lon="7.51416">
        <ele>391.4</ele>
        <time>2012-08-16T09:47:58Z</time>
      </trkpt>
      <trkpt lat="48.94277" lon="7.51383">
        <ele>390</ele>
        <time>2012-08-16T09:48:31Z</time>
      </trkpt>
      <trkpt lat="48.94311" lon="7.51336">
        <ele>397.6</ele>
        <time>2012-08-16T09:49:01Z</time>
      </trkpt>
      <trkpt lat="48.94338" lon="7.51283">
        <ele>390.9</ele>
        <time>2012-08-16T09:49:32Z</time>
      </trkpt>
      <trkpt lat="48.94346" lon="7.51215">
        <ele>388</ele>
        <time>2012-08-16T09:50:04Z</time>
      </trkpt>
      <trkpt lat="48.94327" lon="7.51147">
        <ele>383.2</ele>
        <time>2012-08-16T09:50:39Z</time>
      </trkpt>
      <trkpt lat="48.94285" lon="7.511">
        <ele>382.3</ele>
        <time>2012-08-16T09:51:24Z</time>
      </trkpt>
      <trkpt lat="48.94238" lon="7.5106">
        <ele>376.5</ele>
        <time>2012-08-16T09:52:05Z</time>
      </trkpt>
      <trkpt lat="48.94196" lon="7.5099">
        <ele>363</ele>
        <time>2012-08-16T09:52:56Z</time>
      </trkpt>
      <trkpt lat="48.94199" lon="7.50916">
        <ele>354.4</ele>
        <time>2012-08-16T09:53:52Z</time>
      </trkpt>
      <trkpt lat="48.94205" lon="7.50842">
        <ele>361.6</ele>
        <time>2012-08-16T09:54:30Z</time>
      </trkpt>
      <trkpt lat="48.94227" lon="7.50777">
        <ele>357.7</ele>
        <time>2012-08-16T09:55:01Z</time>
      </trkpt>
      <trkpt lat="48.94227" lon="7.50783">
        <ele>345.3</ele>
        <time>2012-08-16T09:55:39Z</time>
      </trkpt>
      <trkpt lat="48.94249" lon="7.50733">
        <ele>339</ele>
        <time>2012-08-16T09:56:16Z</time>
      </trkpt>
      <trkpt lat="48.94236" lon="7.50667">
        <ele>344.8</ele>
        <time>2012-08-16T09:56:44Z</time>
      </trkpt>
      <trkpt lat="48.9422" lon="7.50595">
        <ele>341.4</ele>
        <time>2012-08-16T09:57:27Z</time>
      </trkpt>
      <trkpt lat="48.94162" lon="7.5056">
        <ele>344.3</ele>
        <time>2012-08-16T09:58:21Z</time>
      </trkpt>
      <trkpt lat="48.94088" lon="7.50546">
        <ele>340</ele>
        <time>2012-08-16T09:59:11Z</time>
      </trkpt>
      <trkpt lat="48.94033" lon="7.50518">
        <ele>331.3</ele>
        <time>2012-08-16T09:59:52Z</time>
      </trkpt>
      <trkpt lat="48.93978" lon="7.50517">
        <ele>315.4</ele>
        <time>2012-08-16T10:00:27Z</time>
      </trkpt>
      <trkpt lat="48.93932" lon="7.50524">
        <ele>302</ele>
        <time>2012-08-16T10:00:58Z</time>
      </trkpt>
      <trkpt lat="48.93883" lon="7.50491">
        <ele>297.7</ele>
        <time>2012-08-16T10:01:38Z</time>
      </trkpt>
      <trkpt lat="48.93826" lon="7.50427">
        <ele>319.3</ele>
        <time>2012-08-16T10:02:33Z</time>
      </trkpt>
      <trkpt lat="48.93748" lon="7.5034">
        <ele>315</ele>
        <time>2012-08-16T10:03:38Z</time>
      </trkpt>
      <trkpt lat="48.93698" lon="7.50316">
        <ele>309.7</ele>
        <time>2012-08-16T10:04:12Z</time>
      </trkpt>
      <trkpt lat="48.93654" lon="7.50278">
        <ele>304.4</ele>
        <time>2012-08-16T10:04:48Z</time>
      </trkpt>
      <trkpt lat="48.936" lon="7.50236">
        <ele>289</ele>
        <time>2012-08-16T10:05:34Z</time>
      </trkpt>
      <trkpt lat="48.9356" lon="7.50192">
        <ele>284.2</ele>
        <time>2012-08-16T10:06:09Z</time>
      </trkpt>
      <trkpt lat="48.93523" lon="7.50129">
        <ele>282.3</ele>
        <time>2012-08-16T10:06:57Z</time>
      </trkpt>
      <trkpt lat="48.93426" lon="7.4998">
        <ele>254.9</ele>
        <time>2012-08-16T10:08:32Z</time>
      </trkpt>
      <trkpt lat="48.93359" lon="7.49874">
        <ele>256.3</ele>
        <time>2012-08-16T10:09:45Z</time>
      </trkpt>
      <trkpt lat="48.93333" lon="7.49778">
        <ele>286.1</ele>
        <time>2012-08-16T10:10:38Z</time>
      </trkpt>
      <trkpt lat="48.93323" lon="7.4968">
        <ele>279.4</ele>
        <time>2012-08-16T10:11:18Z</time>
      </trkpt>
      <trkpt lat="48.93308" lon="7.49582">
        <ele>270.7</ele>
        <time>2012-08-16T10:11:49Z</time>
      </trkpt>
      <trkpt lat="48.93313" lon="7.49509">
        <ele>267.4</ele>
        <time>2012-08-16T10:12:25Z</time>
      </trkpt>
      <trkpt lat="48.93305" lon="7.49441">
        <ele>246.2</ele>
        <time>2012-08-16T10:13:09Z</time>
      </trkpt>
      <trkpt lat="48.93295" lon="7.49331">
        <ele>248.2</ele>
        <time>2012-08-16T10:18:03Z</time>
      </trkpt>
      <trkpt lat="48.93258" lon="7.4925">
        <ele>233.7</ele>
        <time>2012-08-16T10:18:55Z</time>
      </trkpt>
      <trkpt lat="48.93218" lon="7.49187">
        <ele>237.6</ele>
        <time>2012-08-16T10:19:35Z</time>
      </trkpt>
      <trkpt lat="48.93156" lon="7.49083">
        <ele>265.5</ele>
        <time>2012-08-16T10:20:48Z</time>
      </trkpt>
      <trkpt lat="48.9312" lon="7.49006">
        <ele>267.9</ele>
        <time>2012-08-16T10:21:26Z</time>
      </trkpt>
      <trkpt lat="48.93083" lon="7.48919">
        <ele>277</ele>
        <time>2012-08-16T10:22:15Z</time>
      </trkpt>
      <trkpt lat="48.93039" lon="7.48841">
        <ele>283.2</ele>
        <time>2012-08-16T10:23:03Z</time>
      </trkpt>
      <trkpt lat="48.92994" lon="7.48754">
        <ele>303.9</ele>
        <time>2012-08-16T10:23:56Z</time>
      </trkpt>
      <trkpt lat="48.92952" lon="7.4867">
        <ele>312.6</ele>
        <time>2012-08-16T10:24:39Z</time>
      </trkpt>
      <trkpt lat="48.92892" lon="7.48637">
        <ele>307.3</ele>
        <time>2012-08-16T10:25:14Z</time>
      </trkpt>
      <trkpt lat="48.92837" lon="7.48638">
        <ele>301</ele>
        <time>2012-08-16T10:25:53Z</time>
      </trkpt>
      <trkpt lat="48.92778" lon="7.4861">
        <ele>298.6</ele>
        <time>2012-08-16T10:26:39Z</time>
      </trkpt>
      <trkpt lat="48.92705" lon="7.4859">
        <ele>299.6</ele>
        <time>2012-08-16T10:27:32Z</time>
      </trkpt>
      <trkpt lat="48.92646" lon="7.48586">
        <ele>297.7</ele>
        <time>2012-08-16T10:28:04Z</time>
      </trkpt>
      <trkpt lat="48.92603" lon="7.48605">
        <ele>290.9</ele>
        <time>2012-08-16T10:28:38Z</time>
      </trkpt>
      <trkpt lat="48.92548" lon="7.48631">
        <ele>282.3</ele>
        <time>2012-08-16T10:29:09Z</time>
      </trkpt>
      <trkpt lat="48.92503" lon="7.48643">
        <ele>282.3</ele>
        <time>2012-08-16T10:29:40Z</time>
      </trkpt>
      <trkpt lat="48.92458" lon="7.4865">
        <ele>282.8</ele>
        <time>2012-08-16T10:30:11Z</time>
      </trkpt>
      <trkpt lat="48.92428" lon="7.48601">
        <ele>299.6</ele>
        <time>2012-08-16T10:31:04Z</time>
      </trkpt>
      <trkpt lat="48.92398" lon="7.4854">
        <ele>317.4</ele>
        <time>2012-08-16T10:31:48Z</time>
      </trkpt>
      <trkpt lat="48.92369" lon="7.48483">
        <ele>321.2</ele>
        <time>2012-08-16T10:32:43Z</time>
      </trkpt>
      <trkpt lat="48.92344" lon="7.48422">
        <ele>322.2</ele>
        <time>2012-08-16T10:33:18Z</time>
      </trkpt>
      <trkpt lat="48.9232" lon="7.48361">
        <ele>325.5</ele>
        <time>2012-08-16T10:33:51Z</time>
      </trkpt>
      <trkpt lat="48.92288" lon="7.4832">
        <ele>337.1</ele>
        <time>2012-08-16T10:34:44Z</time>
      </trkpt>
      <trkpt lat="48.92254" lon="7.48259">
        <ele>352.5</ele>
        <time>2012-08-16T10:35:30Z</time>
      </trkpt>
      <trkpt lat="48.92242" lon="7.48186">
        <ele>342.4</ele>
        <time>2012-08-16T10:38:53Z</time>
      </trkpt>
      <trkpt lat="48.92203" lon="7.48167">
        <ele>346.7</ele>
        <time>2012-08-16T10:39:35Z</time>
      </trkpt>
      <trkpt lat="48.92161" lon="7.48191">
        <ele>347.2</ele>
        <time>2012-08-16T10:40:57Z</time>
      </trkpt>
      <trkpt lat="48.92111" lon="7.48188">
        <ele>351</ele>
        <time>2012-08-16T10:43:00Z</time>
      </trkpt>
      <trkpt lat="48.92095" lon="7.48214">
        <ele>344.3</ele>
        <time>2012-08-16T10:43:44Z</time>
      </trkpt>
      <trkpt lat="48.92127" lon="7.48208">
        <ele>301</ele>
        <time>2012-08-16T10:49:55Z</time>
      </trkpt>
      <trkpt lat="48.92093" lon="7.48218">
        <ele>345.7</ele>
        <time>2012-08-16T10:56:56Z</time>
      </trkpt>
      <trkpt lat="48.9216" lon="7.48101">
        <ele>475.5</ele>
        <time>2012-08-16T12:11:29Z</time>
      </trkpt>
      <trkpt lat="48.92091" lon="7.48268">
        <ele>342.8</ele>
        <time>2012-08-16T12:13:01Z</time>
      </trkpt>
      <trkpt lat="48.92098" lon="7.48334">
        <ele>345.3</ele>
        <time>2012-08-16T12:13:36Z</time>
      </trkpt>
      <trkpt lat="48.921" lon="7.484">
        <ele>348.1</ele>
        <time>2012-08-16T12:14:08Z</time>
      </trkpt>
      <trkpt lat="48.92116" lon="7.48462">
        <ele>352.5</ele>
        <time>2012-08-16T12:14:41Z</time>
      </trkpt>
      <trkpt lat="48.92127" lon="7.48507">
        <ele>359.2</ele>
        <time>2012-08-16T12:15:29Z</time>
      </trkpt>
      <trkpt lat="48.92166" lon="7.48565">
        <ele>382.3</ele>
        <time>2012-08-16T12:16:29Z</time>
      </trkpt>
      <trkpt lat="48.92186" lon="7.48653">
        <ele>397.6</ele>
        <time>2012-08-16T12:17:24Z</time>
      </trkpt>
      <trkpt lat="48.9219" lon="7.48737">
        <ele>414</ele>
        <time>2012-08-16T12:18:14Z</time>
      </trkpt>
      <trkpt lat="48.92174" lon="7.48793">
        <ele>416.9</ele>
        <time>2012-08-16T12:19:00Z</time>
      </trkpt>
      <trkpt lat="48.92128" lon="7.48814">
        <ele>409.7</ele>
        <time>2012-08-16T12:19:32Z</time>
      </trkpt>
      <trkpt lat="48.92091" lon="7.48786">
        <ele>398.6</ele>
        <time>2012-08-16T12:20:07Z</time>
      </trkpt>
      <trkpt lat="48.92071" lon="7.48724">
        <ele>391.4</ele>
        <time>2012-08-16T12:20:39Z</time>
      </trkpt>
      <trkpt lat="48.92064" lon="7.48691">
        <ele>387.5</ele>
        <time>2012-08-16T12:21:56Z</time>
      </trkpt>
      <trkpt lat="48.92056" lon="7.4866">
        <ele>389.5</ele>
        <time>2012-08-16T12:23:57Z</time>
      </trkpt>
      <trkpt lat="48.92057" lon="7.48617">
        <ele>381.3</ele>
        <time>2012-08-16T12:25:56Z</time>
      </trkpt>
      <trkpt lat="48.92075" lon="7.48557">
        <ele>371.7</ele>
        <time>2012-08-16T12:26:36Z</time>
      </trkpt>
      <trkpt lat="48.92102" lon="7.48513">
        <ele>358.7</ele>
        <time>2012-08-16T12:27:16Z</time>
      </trkpt>
      <trkpt lat="48.92132" lon="7.48464">
        <ele>356.8</ele>
        <time>2012-08-16T12:27:51Z</time>
      </trkpt>
      <trkpt lat="48.92146" lon="7.48404">
        <ele>358.7</ele>
        <time>2012-08-16T12:28:24Z</time>
      </trkpt>
      <trkpt lat="48.9214" lon="7.48338">
        <ele>359.2</ele>
        <time>2012-08-16T12:29:02Z</time>
      </trkpt>
      <trkpt lat="48.92137" lon="7.48317">
        <ele>356.8</ele>
        <time>2012-08-16T12:29:50Z</time>
      </trkpt>
      <trkpt lat="48.92129" lon="7.48251">
        <ele>355.8</ele>
        <time>2012-08-16T12:30:24Z</time>
      </trkpt>
      <trkpt lat="48.92112" lon="7.48192">
        <ele>353.4</ele>
        <time>2012-08-16T12:30:58Z</time>
      </trkpt>
      <trkpt lat="48.92082" lon="7.4815">
        <ele>348.1</ele>
        <time>2012-08-16T12:31:35Z</time>
      </trkpt>
      <trkpt lat="48.92069" lon="7.48086">
        <ele>346.2</ele>
        <time>2012-08-16T12:32:07Z</time>
      </trkpt>
      <trkpt lat="48.92063" lon="7.48018">
        <ele>346.7</ele>
        <time>2012-08-16T12:32:39Z</time>
      </trkpt>
      <trkpt lat="48.92036" lon="7.47975">
        <ele>341.4</ele>
        <time>2012-08-16T12:33:18Z</time>
      </trkpt>
      <trkpt lat="48.92022" lon="7.47912">
        <ele>337.1</ele>
        <time>2012-08-16T12:33:59Z</time>
      </trkpt>
      <trkpt lat="48.9198" lon="7.47889">
        <ele>331.3</ele>
        <time>2012-08-16T12:34:35Z</time>
      </trkpt>
      <trkpt lat="48.91943" lon="7.47853">
        <ele>326.5</ele>
        <time>2012-08-16T12:35:11Z</time>
      </trkpt>
      <trkpt lat="48.91906" lon="7.4781">
        <ele>321.2</ele>
        <time>2012-08-16T12:35:51Z</time>
      </trkpt>
      <trkpt lat="48.91911" lon="7.47725">
        <ele>325.5</ele>
        <time>2012-08-16T12:36:44Z</time>
      </trkpt>
      <trkpt lat="48.91926" lon="7.47594">
        <ele>340.9</ele>
        <time>2012-08-16T12:37:52Z</time>
      </trkpt>
      <trkpt lat="48.91961" lon="7.47501">
        <ele>337.1</ele>
        <time>2012-08-16T12:38:45Z</time>
      </trkpt>
      <trkpt lat="48.92017" lon="7.47457">
        <ele>332.3</ele>
        <time>2012-08-16T12:40:01Z</time>
      </trkpt>
      <trkpt lat="48.92074" lon="7.4745">
        <ele>336.6</ele>
        <time>2012-08-16T12:40:59Z</time>
      </trkpt>
      <trkpt lat="48.92079" lon="7.47377">
        <ele>330.4</ele>
        <time>2012-08-16T12:41:41Z</time>
      </trkpt>
      <trkpt lat="48.9212" lon="7.4731">
        <ele>327</ele>
        <time>2012-08-16T12:42:27Z</time>
      </trkpt>
      <trkpt lat="48.92133" lon="7.47137">
        <ele>321.7</ele>
        <time>2012-08-16T12:44:56Z</time>
      </trkpt>
      <trkpt lat="48.92158" lon="7.47014">
        <ele>327.5</ele>
        <time>2012-08-16T12:45:58Z</time>
      </trkpt>
      <trkpt lat="48.92111" lon="7.46947">
        <ele>329.9</ele>
        <time>2012-08-16T12:47:33Z</time>
      </trkpt>
      <trkpt lat="48.92054" lon="7.46892">
        <ele>331.3</ele>
        <time>2012-08-16T12:48:24Z</time>
      </trkpt>
      <trkpt lat="48.91983" lon="7.469">
        <ele>335.6</ele>
        <time>2012-08-16T12:49:26Z</time>
      </trkpt>
      <trkpt lat="48.91933" lon="7.46862">
        <ele>335.6</ele>
        <time>2012-08-16T12:50:11Z</time>
      </trkpt>
      <trkpt lat="48.91881" lon="7.46807">
        <ele>329.4</ele>
        <time>2012-08-16T12:50:52Z</time>
      </trkpt>
      <trkpt lat="48.91849" lon="7.46754">
        <ele>326</ele>
        <time>2012-08-16T12:51:28Z</time>
      </trkpt>
      <trkpt lat="48.91836" lon="7.46688">
        <ele>330.4</ele>
        <time>2012-08-16T12:52:18Z</time>
      </trkpt>
      <trkpt lat="48.91814" lon="7.46605">
        <ele>335.2</ele>
        <time>2012-08-16T12:53:05Z</time>
      </trkpt>
      <trkpt lat="48.91799" lon="7.46533">
        <ele>338</ele>
        <time>2012-08-16T12:53:48Z</time>
      </trkpt>
      <trkpt lat="48.91777" lon="7.46444">
        <ele>341.4</ele>
        <time>2012-08-16T12:54:28Z</time>
      </trkpt>
      <trkpt lat="48.91742" lon="7.46385">
        <ele>349.1</ele>
        <time>2012-08-16T12:55:37Z</time>
      </trkpt>
      <trkpt lat="48.91666" lon="7.46351">
        <ele>351.5</ele>
        <time>2012-08-16T12:56:44Z</time>
      </trkpt>
      <trkpt lat="48.91634" lon="7.46308">
        <ele>353.9</ele>
        <time>2012-08-16T12:57:27Z</time>
      </trkpt>
      <trkpt lat="48.91647" lon="7.46242">
        <ele>354.4</ele>
        <time>2012-08-16T12:58:05Z</time>
      </trkpt>
      <trkpt lat="48.91672" lon="7.4617">
        <ele>359.2</ele>
        <time>2012-08-16T12:58:43Z</time>
      </trkpt>
      <trkpt lat="48.91701" lon="7.46095">
        <ele>362.6</ele>
        <time>2012-08-16T12:59:23Z</time>
      </trkpt>
      <trkpt lat="48.91738" lon="7.46021">
        <ele>356.8</ele>
        <time>2012-08-16T13:00:04Z</time>
      </trkpt>
      <trkpt lat="48.9176" lon="7.45945">
        <ele>355.8</ele>
        <time>2012-08-16T13:00:40Z</time>
      </trkpt>
      <trkpt lat="48.91775" lon="7.45872">
        <ele>360.6</ele>
        <time>2012-08-16T13:01:14Z</time>
      </trkpt>
      <trkpt lat="48.91805" lon="7.45811">
        <ele>373.1</ele>
        <time>2012-08-16T13:01:51Z</time>
      </trkpt>
      <trkpt lat="48.91821" lon="7.4573">
        <ele>369.3</ele>
        <time>2012-08-16T13:02:40Z</time>
      </trkpt>
      <trkpt lat="48.91845" lon="7.45659">
        <ele>356.8</ele>
        <time>2012-08-16T13:03:20Z</time>
      </trkpt>
      <trkpt lat="48.9185" lon="7.45587">
        <ele>356.8</ele>
        <time>2012-08-16T13:03:56Z</time>
      </trkpt>
      <trkpt lat="48.91836" lon="7.45491">
        <ele>368.3</ele>
        <time>2012-08-16T13:04:43Z</time>
      </trkpt>
      <trkpt lat="48.91821" lon="7.45398">
        <ele>356.8</ele>
        <time>2012-08-16T13:05:53Z</time>
      </trkpt>
      <trkpt lat="48.91816" lon="7.45331">
        <ele>338.5</ele>
        <time>2012-08-16T13:06:32Z</time>
      </trkpt>
      <trkpt lat="48.91805" lon="7.45239">
        <ele>332.8</ele>
        <time>2012-08-16T13:07:16Z</time>
      </trkpt>
      <trkpt lat="48.91794" lon="7.45153">
        <ele>326</ele>
        <time>2012-08-16T13:07:52Z</time>
      </trkpt>
      <trkpt lat="48.91787" lon="7.4506">
        <ele>327.9</ele>
        <time>2012-08-16T13:08:32Z</time>
      </trkpt>
      <trkpt lat="48.91781" lon="7.44975">
        <ele>334.7</ele>
        <time>2012-08-16T13:09:10Z</time>
      </trkpt>
      <trkpt lat="48.91774" lon="7.44896">
        <ele>344.8</ele>
        <time>2012-08-16T13:09:46Z</time>
      </trkpt>
      <trkpt lat="48.9177" lon="7.44827">
        <ele>340</ele>
        <time>2012-08-16T13:10:23Z</time>
      </trkpt>
      <trkpt lat="48.91767" lon="7.44756">
        <ele>327.9</ele>
        <time>2012-08-16T13:11:00Z</time>
      </trkpt>
      <trkpt lat="48.91759" lon="7.4467">
        <ele>329.4</ele>
        <time>2012-08-16T13:11:38Z</time>
      </trkpt>
      <trkpt lat="48.91753" lon="7.44584">
        <ele>329.4</ele>
        <time>2012-08-16T13:12:15Z</time>
      </trkpt>
      <trkpt lat="48.91751" lon="7.44499">
        <ele>324.6</ele>
        <time>2012-08-16T13:12:54Z</time>
      </trkpt>
      <trkpt lat="48.91737" lon="7.44412">
        <ele>321.7</ele>
        <time>2012-08-16T13:13:42Z</time>
      </trkpt>
      <trkpt lat="48.91708" lon="7.44276">
        <ele>311.1</ele>
        <time>2012-08-16T13:15:15Z</time>
      </trkpt>
      <trkpt lat="48.91684" lon="7.44152">
        <ele>284.7</ele>
        <time>2012-08-16T13:16:19Z</time>
      </trkpt>
      <trkpt lat="48.91646" lon="7.44076">
        <ele>262.6</ele>
        <time>2012-08-16T13:17:09Z</time>
      </trkpt>
      <trkpt lat="48.91607" lon="7.44012">
        <ele>248.6</ele>
        <time>2012-08-16T13:17:48Z</time>
      </trkpt>
      <trkpt lat="48.91569" lon="7.43959">
        <ele>244.8</ele>
        <time>2012-08-16T13:18:27Z</time>
      </trkpt>
      <trkpt lat="48.91531" lon="7.43906">
        <ele>239</ele>
        <time>2012-08-16T13:19:07Z</time>
      </trkpt>
      <trkpt lat="48.91469" lon="7.43821">
        <ele>204.9</ele>
        <time>2012-08-16T13:20:30Z</time>
      </trkpt>
      <trkpt lat="48.91415" lon="7.4374">
        <ele>197.2</ele>
        <time>2012-08-16T13:21:14Z</time>
      </trkpt>
      <trkpt lat="48.91374" lon="7.43675">
        <ele>218.4</ele>
        <time>2012-08-16T13:21:53Z</time>
      </trkpt>
      <trkpt lat="48.9134" lon="7.43607">
        <ele>218.8</ele>
        <time>2012-08-16T13:22:37Z</time>
      </trkpt>
      <trkpt lat="48.91311" lon="7.43528">
        <ele>204.4</ele>
        <time>2012-08-16T13:23:24Z</time>
      </trkpt>
      <trkpt lat="48.9127" lon="7.43469">
        <ele>212.1</ele>
        <time>2012-08-16T13:24:03Z</time>
      </trkpt>
      <trkpt lat="48.91226" lon="7.4341">
        <ele>212.1</ele>
        <time>2012-08-16T13:24:49Z</time>
      </trkpt>
      <trkpt lat="48.91174" lon="7.43337">
        <ele>204.9</ele>
        <time>2012-08-16T13:25:42Z</time>
      </trkpt>
      <trkpt lat="48.9114" lon="7.43264">
        <ele>199.6</ele>
        <time>2012-08-16T13:26:20Z</time>
      </trkpt>
      <trkpt lat="48.91105" lon="7.43193">
        <ele>194.8</ele>
        <time>2012-08-16T13:27:06Z</time>
      </trkpt>
      <trkpt lat="48.91081" lon="7.43118">
        <ele>192.4</ele>
        <time>2012-08-16T13:27:45Z</time>
      </trkpt>
      <trkpt lat="48.91097" lon="7.43041">
        <ele>213.1</ele>
        <time>2012-08-16T13:28:24Z</time>
      </trkpt>
      <trkpt lat="48.91112" lon="7.42972">
        <ele>214.5</ele>
        <time>2012-08-16T13:29:01Z</time>
      </trkpt>
      <trkpt lat="48.91131" lon="7.42907">
        <ele>213.1</ele>
        <time>2012-08-16T13:29:34Z</time>
      </trkpt>
      <trkpt lat="48.91158" lon="7.42868">
        <ele>212.6</ele>
        <time>2012-08-16T13:30:22Z</time>
      </trkpt>
      <trkpt lat="48.91151" lon="7.42837">
        <ele>213.6</ele>
        <time>2012-08-16T13:36:09Z</time>
      </trkpt>
      <trkpt lat="48.9117" lon="7.42777">
        <ele>219.8</ele>
        <time>2012-08-16T13:36:46Z</time>
      </trkpt>
      <trkpt lat="48.9117" lon="7.42713">
        <ele>216</ele>
        <time>2012-08-16T13:37:20Z</time>
      </trkpt>
      <trkpt lat="48.91131" lon="7.4274">
        <ele>213.6</ele>
        <time>2012-08-16T13:37:53Z</time>
      </trkpt>
      <trkpt lat="48.91097" lon="7.42717">
        <ele>211.6</ele>
        <time>2012-08-16T13:38:26Z</time>
      </trkpt>
      <trkpt lat="48.91074" lon="7.42659">
        <ele>210.2</ele>
        <time>2012-08-16T13:38:59Z</time>
      </trkpt>
      <trkpt lat="48.91054" lon="7.42601">
        <ele>208.7</ele>
        <time>2012-08-16T13:39:31Z</time>
      </trkpt>
      <trkpt lat="48.91034" lon="7.42542">
        <ele>207.8</ele>
        <time>2012-08-16T13:40:04Z</time>
      </trkpt>
      <trkpt lat="48.91029" lon="7.42476">
        <ele>206.3</ele>
        <time>2012-08-16T13:40:51Z</time>
      </trkpt>
      <trkpt lat="48.91035" lon="7.42432">
        <ele>206.8</ele>
        <time>2012-08-16T13:41:41Z</time>
      </trkpt>
      <trkpt lat="48.91041" lon="7.42384">
        <ele>203</ele>
        <time>2012-08-16T13:43:55Z</time>
      </trkpt>
      <trkpt lat="48.91063" lon="7.42338">
        <ele>201.5</ele>
        <time>2012-08-16T13:45:44Z</time>
      </trkpt>
      <trkpt lat="48.91073" lon="7.42268">
        <ele>203.9</ele>
        <time>2012-08-16T13:46:20Z</time>
      </trkpt>
      <trkpt lat="48.91089" lon="7.42198">
        <ele>204.9</ele>
        <time>2012-08-16T13:47:01Z</time>
      </trkpt>
      <trkpt lat="48.911" lon="7.42192">
        <ele>207.8</ele>
        <time>2012-08-16T13:47:21Z</time>
      </trkpt>
      <trkpt lat="48.91098" lon="7.42189">
        <ele>204.4</ele>
        <time>2012-08-16T13:58:55Z</time>
      </trkpt>
      <trkpt lat="48.91072" lon="7.42149">
        <ele>200.6</ele>
        <time>2012-08-16T13:59:58Z</time>
      </trkpt>
      <trkpt lat="48.91042" lon="7.42103">
        <ele>201.5</ele>
        <time>2012-08-16T14:00:31Z</time>
      </trkpt>
      <trkpt lat="48.91015" lon="7.4205">
        <ele>199.6</ele>
        <time>2012-08-16T14:01:05Z</time>
      </trkpt>
      <trkpt lat="48.90997" lon="7.42009">
        <ele>202.5</ele>
        <time>2012-08-16T14:03:56Z</time>
      </trkpt>
      <trkpt lat="48.91014" lon="7.42035">
        <ele>203</ele>
        <time>2012-08-16T14:04:33Z</time>
      </trkpt>
      <trkpt lat="48.91034" lon="7.41979">
        <ele>201.5</ele>
        <time>2012-08-16T14:05:12Z</time>
      </trkpt>
      <trkpt lat="48.91044" lon="7.41915">
        <ele>204.4</ele>
        <time>2012-08-16T14:05:45Z</time>
      </trkpt>
      <trkpt lat="48.91053" lon="7.41847">
        <ele>206.8</ele>
        <time>2012-08-16T14:06:25Z</time>
      </trkpt>
      <trkpt lat="48.91044" lon="7.41783">
        <ele>206.8</ele>
        <time>2012-08-16T14:06:58Z</time>
      </trkpt>
      <trkpt lat="48.91007" lon="7.41747">
        <ele>210.2</ele>
        <time>2012-08-16T14:07:31Z</time>
      </trkpt>
      <trkpt lat="48.90964" lon="7.41737">
        <ele>211.1</ele>
        <time>2012-08-16T14:08:05Z</time>
      </trkpt>
      <trkpt lat="48.90928" lon="7.41746">
        <ele>214</ele>
        <time>2012-08-16T14:12:18Z</time>
      </trkpt>
      <trkpt lat="48.90893" lon="7.41726">
        <ele>215</ele>
        <time>2012-08-16T14:13:03Z</time>
      </trkpt>
      <trkpt lat="48.90847" lon="7.41714">
        <ele>217.9</ele>
        <time>2012-08-16T14:13:39Z</time>
      </trkpt>
      <trkpt lat="48.90801" lon="7.41707">
        <ele>223.6</ele>
        <time>2012-08-16T14:14:31Z</time>
      </trkpt>
      <trkpt lat="48.90756" lon="7.41698">
        <ele>224.1</ele>
        <time>2012-08-16T14:15:07Z</time>
      </trkpt>
      <trkpt lat="48.9071" lon="7.41693">
        <ele>223.2</ele>
        <time>2012-08-16T14:15:41Z</time>
      </trkpt>
      <trkpt lat="48.90671" lon="7.41663">
        <ele>231.3</ele>
        <time>2012-08-16T14:16:18Z</time>
      </trkpt>
      <trkpt lat="48.90632" lon="7.4161">
        <ele>240</ele>
        <time>2012-08-16T14:18:27Z</time>
      </trkpt>
      <trkpt lat="48.90611" lon="7.41547">
        <ele>247.2</ele>
        <time>2012-08-16T14:19:05Z</time>
      </trkpt>
      <trkpt lat="48.90599" lon="7.41479">
        <ele>260.7</ele>
        <time>2012-08-16T14:19:44Z</time>
      </trkpt>
      <trkpt lat="48.90588" lon="7.41406">
        <ele>257.8</ele>
        <time>2012-08-16T14:20:20Z</time>
      </trkpt>
      <trkpt lat="48.90557" lon="7.41359">
        <ele>253</ele>
        <time>2012-08-16T14:20:54Z</time>
      </trkpt>
      <trkpt lat="48.90532" lon="7.41299">
        <ele>254.9</ele>
        <time>2012-08-16T14:21:27Z</time>
      </trkpt>
      <trkpt lat="48.90509" lon="7.41242">
        <ele>254.9</ele>
        <time>2012-08-16T14:21:59Z</time>
      </trkpt>
      <trkpt lat="48.90475" lon="7.41202">
        <ele>260.2</ele>
        <time>2012-08-16T14:22:37Z</time>
      </trkpt>
      <trkpt lat="48.90476" lon="7.41187">
        <ele>263.1</ele>
        <time>2012-08-16T14:23:21Z</time>
      </trkpt>
      <trkpt lat="48.90472" lon="7.41179">
        <ele>257.3</ele>
        <time>2012-08-16T14:24:02Z</time>
      </trkpt>
      <trkpt lat="48.90499" lon="7.41215">
        <ele>259.7</ele>
        <time>2012-08-16T14:24:41Z</time>
      </trkpt>
      <trkpt lat="48.90524" lon="7.41275">
        <ele>254.9</ele>
        <time>2012-08-16T14:25:27Z</time>
      </trkpt>
      <trkpt lat="48.90549" lon="7.41336">
        <ele>256.3</ele>
        <time>2012-08-16T14:26:06Z</time>
      </trkpt>
      <trkpt lat="48.90585" lon="7.41393">
        <ele>253.4</ele>
        <time>2012-08-16T14:26:46Z</time>
      </trkpt>
      <trkpt lat="48.90593" lon="7.41332">
        <ele>254.4</ele>
        <time>2012-08-16T14:27:29Z</time>
      </trkpt>
      <trkpt lat="48.90596" lon="7.41253">
        <ele>254.4</ele>
        <time>2012-08-16T14:28:08Z</time>
      </trkpt>
      <trkpt lat="48.90581" lon="7.41183">
        <ele>250.1</ele>
        <time>2012-08-16T14:28:42Z</time>
      </trkpt>
      <trkpt lat="48.90557" lon="7.41119">
        <ele>260.7</ele>
        <time>2012-08-16T14:29:19Z</time>
      </trkpt>
      <trkpt lat="48.90534" lon="7.41056">
        <ele>255.4</ele>
        <time>2012-08-16T14:29:53Z</time>
      </trkpt>
      <trkpt lat="48.90512" lon="7.40992">
        <ele>251</ele>
        <time>2012-08-16T14:30:26Z</time>
      </trkpt>
      <trkpt lat="48.90502" lon="7.40924">
        <ele>250.6</ele>
        <time>2012-08-16T14:31:01Z</time>
      </trkpt>
      <trkpt lat="48.90499" lon="7.40852">
        <ele>246.2</ele>
        <time>2012-08-16T14:31:38Z</time>
      </trkpt>
      <trkpt lat="48.90479" lon="7.40783">
        <ele>248.2</ele>
        <time>2012-08-16T14:32:18Z</time>
      </trkpt>
      <trkpt lat="48.90442" lon="7.40733">
        <ele>267.4</ele>
        <time>2012-08-16T14:33:13Z</time>
      </trkpt>
      <trkpt lat="48.9038" lon="7.40719">
        <ele>276.5</ele>
        <time>2012-08-16T14:34:01Z</time>
      </trkpt>
      <trkpt lat="48.90291" lon="7.40717">
        <ele>292.9</ele>
        <time>2012-08-16T14:35:11Z</time>
      </trkpt>
      <trkpt lat="48.9023" lon="7.40686">
        <ele>300.5</ele>
        <time>2012-08-16T14:36:02Z</time>
      </trkpt>
      <trkpt lat="48.90167" lon="7.40654">
        <ele>312.6</ele>
        <time>2012-08-16T14:36:53Z</time>
      </trkpt>
      <trkpt lat="48.90131" lon="7.40595">
        <ele>324.1</ele>
        <time>2012-08-16T14:37:34Z</time>
      </trkpt>
      <trkpt lat="48.90103" lon="7.40506">
        <ele>340.4</ele>
        <time>2012-08-16T14:38:23Z</time>
      </trkpt>
      <trkpt lat="48.90052" lon="7.40435">
        <ele>324.1</ele>
        <time>2012-08-16T14:39:04Z</time>
      </trkpt>
      <trkpt lat="48.90012" lon="7.40358">
        <ele>330.4</ele>
        <time>2012-08-16T14:40:07Z</time>
      </trkpt>
      <trkpt lat="48.8994" lon="7.40317">
        <ele>330.4</ele>
        <time>2012-08-16T14:41:12Z</time>
      </trkpt>
      <trkpt lat="48.89893" lon="7.40266">
        <ele>360.2</ele>
        <time>2012-08-16T14:42:17Z</time>
      </trkpt>
      <trkpt lat="48.89815" lon="7.40165">
        <ele>402.4</ele>
        <time>2012-08-16T14:43:49Z</time>
      </trkpt>
      <trkpt lat="48.89781" lon="7.40095">
        <ele>401.5</ele>
        <time>2012-08-16T14:44:29Z</time>
      </trkpt>
      <trkpt lat="48.89714" lon="7.39994">
        <ele>405.8</ele>
        <time>2012-08-16T14:45:40Z</time>
      </trkpt>
      <trkpt lat="48.89671" lon="7.39912">
        <ele>405.3</ele>
        <time>2012-08-16T14:46:30Z</time>
      </trkpt>
      <trkpt lat="48.89634" lon="7.3981">
        <ele>427.9</ele>
        <time>2012-08-16T14:47:35Z</time>
      </trkpt>
      <trkpt lat="48.89599" lon="7.39747">
        <ele>413.5</ele>
        <time>2012-08-16T14:48:11Z</time>
      </trkpt>
      <trkpt lat="48.89555" lon="7.3966">
        <ele>397.6</ele>
        <time>2012-08-16T14:49:01Z</time>
      </trkpt>
      <trkpt lat="48.89482" lon="7.39514">
        <ele>337.1</ele>
        <time>2012-08-16T14:50:13Z</time>
      </trkpt>
      <trkpt lat="48.89526" lon="7.39343">
        <ele>331.3</ele>
        <time>2012-08-16T14:51:58Z</time>
      </trkpt>
      <trkpt lat="48.89458" lon="7.39385">
        <ele>352.5</ele>
        <time>2012-08-16T14:54:45Z</time>
      </trkpt>
      <trkpt lat="48.89378" lon="7.39415">
        <ele>351</ele>
        <time>2012-08-16T14:55:57Z</time>
      </trkpt>
      <trkpt lat="48.89331" lon="7.3939">
        <ele>346.7</ele>
        <time>2012-08-16T14:56:43Z</time>
      </trkpt>
      <trkpt lat="48.89296" lon="7.39329">
        <ele>352.9</ele>
        <time>2012-08-16T14:57:36Z</time>
      </trkpt>
      <trkpt lat="48.89192" lon="7.39227">
        <ele>291.4</ele>
        <time>2012-08-16T14:58:32Z</time>
      </trkpt>
      <trkpt lat="48.89143" lon="7.39154">
        <ele>278</ele>
        <time>2012-08-16T14:59:24Z</time>
      </trkpt>
      <trkpt lat="48.89097" lon="7.39085">
        <ele>291.9</ele>
        <time>2012-08-16T15:00:10Z</time>
      </trkpt>
      <trkpt lat="48.89076" lon="7.39004">
        <ele>296.2</ele>
        <time>2012-08-16T15:00:51Z</time>
      </trkpt>
      <trkpt lat="48.89056" lon="7.38908">
        <ele>300.5</ele>
        <time>2012-08-16T15:01:44Z</time>
      </trkpt>
      <trkpt lat="48.89015" lon="7.38845">
        <ele>302</ele>
        <time>2012-08-16T15:02:37Z</time>
      </trkpt>
      <trkpt lat="48.88967" lon="7.38802">
        <ele>288.5</ele>
        <time>2012-08-16T15:03:16Z</time>
      </trkpt>
      <trkpt lat="48.88905" lon="7.38805">
        <ele>281.3</ele>
        <time>2012-08-16T15:03:56Z</time>
      </trkpt>
      <trkpt lat="48.88844" lon="7.38806">
        <ele>295.3</ele>
        <time>2012-08-16T15:04:52Z</time>
      </trkpt>
      <trkpt lat="48.88773" lon="7.38766">
        <ele>297.2</ele>
        <time>2012-08-16T15:05:54Z</time>
      </trkpt>
      <trkpt lat="48.88722" lon="7.38716">
        <ele>294.8</ele>
        <time>2012-08-16T15:06:35Z</time>
      </trkpt>
      <trkpt lat="48.8868" lon="7.38661">
        <ele>290.5</ele>
        <time>2012-08-16T15:07:18Z</time>
      </trkpt>
      <trkpt lat="48.88626" lon="7.38617">
        <ele>288.5</ele>
        <time>2012-08-16T15:07:57Z</time>
      </trkpt>
      <trkpt lat="48.88576" lon="7.38573">
        <ele>289.5</ele>
        <time>2012-08-16T15:08:36Z</time>
      </trkpt>
      <trkpt lat="48.88522" lon="7.38542">
        <ele>284.7</ele>
        <time>2012-08-16T15:09:09Z</time>
      </trkpt>
      <trkpt lat="48.88482" lon="7.38492">
        <ele>282.3</ele>
        <time>2012-08-16T15:09:44Z</time>
      </trkpt>
      <trkpt lat="48.8844" lon="7.38439">
        <ele>281.3</ele>
        <time>2012-08-16T15:10:23Z</time>
      </trkpt>
      <trkpt lat="48.88424" lon="7.3836">
        <ele>284.7</ele>
        <time>2012-08-16T15:11:13Z</time>
      </trkpt>
      <trkpt lat="48.88386" lon="7.38286">
        <ele>273.2</ele>
        <time>2012-08-16T15:11:53Z</time>
      </trkpt>
      <trkpt lat="48.88353" lon="7.38234">
        <ele>266.4</ele>
        <time>2012-08-16T15:12:27Z</time>
      </trkpt>
      <trkpt lat="48.88313" lon="7.38183">
        <ele>277</ele>
        <time>2012-08-16T15:13:10Z</time>
      </trkpt>
      <trkpt lat="48.88271" lon="7.38133">
        <ele>289.5</ele>
        <time>2012-08-16T15:13:47Z</time>
      </trkpt>
      <trkpt lat="48.88229" lon="7.38074">
        <ele>286.6</ele>
        <time>2012-08-16T15:14:20Z</time>
      </trkpt>
      <trkpt lat="48.88193" lon="7.38015">
        <ele>282.8</ele>
        <time>2012-08-16T15:14:54Z</time>
      </trkpt>
      <trkpt lat="48.8816" lon="7.37959">
        <ele>288.1</ele>
        <time>2012-08-16T15:15:28Z</time>
      </trkpt>
      <trkpt lat="48.88133" lon="7.37902">
        <ele>288.1</ele>
        <time>2012-08-16T15:16:01Z</time>
      </trkpt>
      <trkpt lat="48.88093" lon="7.37848">
        <ele>286.6</ele>
        <time>2012-08-16T15:16:34Z</time>
      </trkpt>
      <trkpt lat="48.88055" lon="7.37803">
        <ele>292.9</ele>
        <time>2012-08-16T15:17:12Z</time>
      </trkpt>
      <trkpt lat="48.88014" lon="7.37756">
        <ele>292.9</ele>
        <time>2012-08-16T15:17:47Z</time>
      </trkpt>
      <trkpt lat="48.87969" lon="7.37725">
        <ele>289.5</ele>
        <time>2012-08-16T15:18:23Z</time>
      </trkpt>
      <trkpt lat="48.87922" lon="7.37696">
        <ele>287.1</ele>
        <time>2012-08-16T15:18:55Z</time>
      </trkpt>
      <trkpt lat="48.87879" lon="7.37653">
        <ele>286.1</ele>
        <time>2012-08-16T15:19:31Z</time>
      </trkpt>
      <trkpt lat="48.87838" lon="7.37621">
        <ele>286.6</ele>
        <time>2012-08-16T15:20:01Z</time>
      </trkpt>
      <trkpt lat="48.87789" lon="7.37587">
        <ele>275.6</ele>
        <time>2012-08-16T15:20:38Z</time>
      </trkpt>
      <trkpt lat="48.87753" lon="7.37532">
        <ele>265.5</ele>
        <time>2012-08-16T15:21:10Z</time>
      </trkpt>
      <trkpt lat="48.87728" lon="7.37472">
        <ele>258.7</ele>
        <time>2012-08-16T15:21:40Z</time>
      </trkpt>
      <trkpt lat="48.87707" lon="7.37408">
        <ele>257.3</ele>
        <time>2012-08-16T15:22:11Z</time>
      </trkpt>
      <trkpt lat="48.87697" lon="7.37337">
        <ele>257.3</ele>
        <time>2012-08-16T15:22:44Z</time>
      </trkpt>
      <trkpt lat="48.87685" lon="7.37267">
        <ele>255.4</ele>
        <time>2012-08-16T15:23:16Z</time>
      </trkpt>
      <trkpt lat="48.87682" lon="7.37206">
        <ele>249.6</ele>
        <time>2012-08-16T15:32:06Z</time>
      </trkpt>
      <trkpt lat="48.87682" lon="7.37137">
        <ele>248.6</ele>
        <time>2012-08-16T15:32:41Z</time>
      </trkpt>
      <trkpt lat="48.87675" lon="7.37071">
        <ele>248.6</ele>
        <time>2012-08-16T15:33:14Z</time>
      </trkpt>
      <trkpt lat="48.87668" lon="7.37005">
        <ele>246.2</ele>
        <time>2012-08-16T15:33:49Z</time>
      </trkpt>
      <trkpt lat="48.87661" lon="7.36936">
        <ele>244.8</ele>
        <time>2012-08-16T15:34:21Z</time>
      </trkpt>
      <trkpt lat="48.87642" lon="7.36877">
        <ele>243.8</ele>
        <time>2012-08-16T15:34:53Z</time>
      </trkpt>
      <trkpt lat="48.8761" lon="7.36826">
        <ele>240.9</ele>
        <time>2012-08-16T15:35:26Z</time>
      </trkpt>
      <trkpt lat="48.87591" lon="7.36766">
        <ele>237.1</ele>
        <time>2012-08-16T15:36:00Z</time>
      </trkpt>
      <trkpt lat="48.87584" lon="7.36699">
        <ele>240</ele>
        <time>2012-08-16T15:36:35Z</time>
      </trkpt>
      <trkpt lat="48.8758" lon="7.36631">
        <ele>240.9</ele>
        <time>2012-08-16T15:37:09Z</time>
      </trkpt>
      <trkpt lat="48.87576" lon="7.36561">
        <ele>242.4</ele>
        <time>2012-08-16T15:37:42Z</time>
      </trkpt>
      <trkpt lat="48.87566" lon="7.36493">
        <ele>240.5</ele>
        <time>2012-08-16T15:38:14Z</time>
      </trkpt>
      <trkpt lat="48.87552" lon="7.36427">
        <ele>237.1</ele>
        <time>2012-08-16T15:38:46Z</time>
      </trkpt>
      <trkpt lat="48.87549" lon="7.36359">
        <ele>239</ele>
        <time>2012-08-16T15:39:19Z</time>
      </trkpt>
      <trkpt lat="48.87551" lon="7.3629">
        <ele>238.5</ele>
        <time>2012-08-16T15:39:51Z</time>
      </trkpt>
      <trkpt lat="48.87563" lon="7.36229">
        <ele>235.2</ele>
        <time>2012-08-16T15:42:28Z</time>
      </trkpt>
      <trkpt lat="48.87563" lon="7.36162">
        <ele>238.5</ele>
        <time>2012-08-16T15:43:02Z</time>
      </trkpt>
      <trkpt lat="48.87566" lon="7.36094">
        <ele>241.9</ele>
        <time>2012-08-16T15:43:34Z</time>
      </trkpt>
      <trkpt lat="48.87568" lon="7.36024">
        <ele>241.4</ele>
        <time>2012-08-16T15:44:07Z</time>
      </trkpt>
      <trkpt lat="48.87551" lon="7.35957">
        <ele>238.5</ele>
        <time>2012-08-16T15:44:40Z</time>
      </trkpt>
      <trkpt lat="48.87515" lon="7.35985">
        <ele>234.7</ele>
        <time>2012-08-16T15:45:11Z</time>
      </trkpt>
      <trkpt lat="48.87511" lon="7.35938">
        <ele>235.7</ele>
        <time>2012-08-16T15:45:45Z</time>
      </trkpt>
      <trkpt lat="48.87505" lon="7.35869">
        <ele>237.6</ele>
        <time>2012-08-16T15:46:18Z</time>
      </trkpt>
      <trkpt lat="48.87497" lon="7.35802">
        <ele>237.6</ele>
        <time>2012-08-16T15:46:51Z</time>
      </trkpt>
      <trkpt lat="48.8749" lon="7.35735">
        <ele>238.5</ele>
        <time>2012-08-16T15:47:27Z</time>
      </trkpt>
      <trkpt lat="48.87482" lon="7.35667">
        <ele>239.5</ele>
        <time>2012-08-16T15:48:02Z</time>
      </trkpt>
      <trkpt lat="48.8748" lon="7.35599">
        <ele>240.5</ele>
        <time>2012-08-16T15:48:41Z</time>
      </trkpt>
      <trkpt lat="48.87476" lon="7.3553">
        <ele>240.9</ele>
        <time>2012-08-16T15:49:15Z</time>
      </trkpt>
      <trkpt lat="48.8746" lon="7.35467">
        <ele>245.3</ele>
        <time>2012-08-16T15:49:57Z</time>
      </trkpt>
      <trkpt lat="48.87419" lon="7.35454">
        <ele>254.4</ele>
        <time>2012-08-16T15:50:37Z</time>
      </trkpt>
      <trkpt lat="48.8737" lon="7.35462">
        <ele>267.9</ele>
        <time>2012-08-16T15:51:19Z</time>
      </trkpt>
      <trkpt lat="48.87321" lon="7.35454">
        <ele>276</ele>
        <time>2012-08-16T15:51:54Z</time>
      </trkpt>
      <trkpt lat="48.87273" lon="7.35447">
        <ele>276.5</ele>
        <time>2012-08-16T15:52:30Z</time>
      </trkpt>
      <trkpt lat="48.87244" lon="7.35398">
        <ele>290.9</ele>
        <time>2012-08-16T15:53:06Z</time>
      </trkpt>
      <trkpt lat="48.87232" lon="7.35327">
        <ele>316.9</ele>
        <time>2012-08-16T15:53:44Z</time>
      </trkpt>
      <trkpt lat="48.87206" lon="7.35265">
        <ele>315</ele>
        <time>2012-08-16T15:55:29Z</time>
      </trkpt>
      <trkpt lat="48.87182" lon="7.35199">
        <ele>308.7</ele>
        <time>2012-08-16T15:56:05Z</time>
      </trkpt>
      <trkpt lat="48.87149" lon="7.35141">
        <ele>313</ele>
        <time>2012-08-16T15:56:40Z</time>
      </trkpt>
      <trkpt lat="48.87135" lon="7.35073">
        <ele>332.3</ele>
        <time>2012-08-16T15:57:18Z</time>
      </trkpt>
      <trkpt lat="48.87124" lon="7.34996">
        <ele>349.6</ele>
        <time>2012-08-16T15:57:52Z</time>
      </trkpt>
      <trkpt lat="48.87104" lon="7.34931">
        <ele>359.2</ele>
        <time>2012-08-16T15:58:27Z</time>
      </trkpt>
      <trkpt lat="48.87078" lon="7.34863">
        <ele>367.8</ele>
        <time>2012-08-16T15:59:07Z</time>
      </trkpt>
      <trkpt lat="48.8705" lon="7.34806">
        <ele>373.6</ele>
        <time>2012-08-16T15:59:39Z</time>
      </trkpt>
      <trkpt lat="48.8703" lon="7.34737">
        <ele>374.1</ele>
        <time>2012-08-16T16:00:13Z</time>
      </trkpt>
      <trkpt lat="48.87011" lon="7.34669">
        <ele>369.8</ele>
        <time>2012-08-16T16:00:48Z</time>
      </trkpt>
      <trkpt lat="48.86991" lon="7.34606">
        <ele>371.2</ele>
        <time>2012-08-16T16:01:25Z</time>
      </trkpt>
      <trkpt lat="48.86977" lon="7.34538">
        <ele>368.3</ele>
        <time>2012-08-16T16:02:02Z</time>
      </trkpt>
      <trkpt lat="48.86957" lon="7.34471">
        <ele>366.9</ele>
        <time>2012-08-16T16:02:40Z</time>
      </trkpt>
      <trkpt lat="48.86941" lon="7.34404">
        <ele>377.9</ele>
        <time>2012-08-16T16:03:16Z</time>
      </trkpt>
      <trkpt lat="48.86935" lon="7.3433">
        <ele>384.7</ele>
        <time>2012-08-16T16:03:54Z</time>
      </trkpt>
      <trkpt lat="48.86918" lon="7.34255">
        <ele>388</ele>
        <time>2012-08-16T16:04:29Z</time>
      </trkpt>
      <trkpt lat="48.869" lon="7.34188">
        <ele>386.6</ele>
        <time>2012-08-16T16:05:04Z</time>
      </trkpt>
      <trkpt lat="48.86882" lon="7.3412">
        <ele>388</ele>
        <time>2012-08-16T16:05:38Z</time>
      </trkpt>
      <trkpt lat="48.86864" lon="7.34054">
        <ele>378.9</ele>
        <time>2012-08-16T16:06:32Z</time>
      </trkpt>
      <trkpt lat="48.86837" lon="7.33991">
        <ele>369.3</ele>
        <time>2012-08-16T16:07:16Z</time>
      </trkpt>
      <trkpt lat="48.86817" lon="7.33934">
        <ele>364.5</ele>
        <time>2012-08-16T16:08:29Z</time>
      </trkpt>
      <trkpt lat="48.86794" lon="7.33877">
        <ele>354.4</ele>
        <time>2012-08-16T16:09:33Z</time>
      </trkpt>
      <trkpt lat="48.86779" lon="7.3382">
        <ele>354.4</ele>
        <time>2012-08-16T16:10:16Z</time>
      </trkpt>
      <trkpt lat="48.86755" lon="7.33761">
        <ele>351.5</ele>
        <time>2012-08-16T16:10:48Z</time>
      </trkpt>
      <trkpt lat="48.86726" lon="7.33708">
        <ele>355.3</ele>
        <time>2012-08-16T16:11:20Z</time>
      </trkpt>
      <trkpt lat="48.86694" lon="7.33658">
        <ele>358.2</ele>
        <time>2012-08-16T16:11:52Z</time>
      </trkpt>
      <trkpt lat="48.86651" lon="7.3364">
        <ele>364.5</ele>
        <time>2012-08-16T16:12:30Z</time>
      </trkpt>
      <trkpt lat="48.86605" lon="7.33628">
        <ele>367.8</ele>
        <time>2012-08-16T16:13:05Z</time>
      </trkpt>
      <trkpt lat="48.86568" lon="7.33591">
        <ele>369.3</ele>
        <time>2012-08-16T16:13:36Z</time>
      </trkpt>
      <trkpt lat="48.86534" lon="7.33548">
        <ele>372.2</ele>
        <time>2012-08-16T16:14:11Z</time>
      </trkpt>
      <trkpt lat="48.86493" lon="7.33516">
        <ele>369.8</ele>
        <time>2012-08-16T16:14:44Z</time>
      </trkpt>
      <trkpt lat="48.86449" lon="7.3349">
        <ele>377</ele>
        <time>2012-08-16T16:15:22Z</time>
      </trkpt>
      <trkpt lat="48.86396" lon="7.33488">
        <ele>392.8</ele>
        <time>2012-08-16T16:16:06Z</time>
      </trkpt>
      <trkpt lat="48.86343" lon="7.33488">
        <ele>383.7</ele>
        <time>2012-08-16T16:16:39Z</time>
      </trkpt>
      <trkpt lat="48.86295" lon="7.33499">
        <ele>374.6</ele>
        <time>2012-08-16T16:17:09Z</time>
      </trkpt>
      <trkpt lat="48.86248" lon="7.33517">
        <ele>372.6</ele>
        <time>2012-08-16T16:17:41Z</time>
      </trkpt>
      <trkpt lat="48.86203" lon="7.33517">
        <ele>372.6</ele>
        <time>2012-08-16T16:18:12Z</time>
      </trkpt>
      <trkpt lat="48.86159" lon="7.33496">
        <ele>369.3</ele>
        <time>2012-08-16T16:18:44Z</time>
      </trkpt>
      <trkpt lat="48.8612" lon="7.33499">
        <ele>376</ele>
        <time>2012-08-16T16:19:25Z</time>
      </trkpt>
      <trkpt lat="48.8607" lon="7.33515">
        <ele>380.3</ele>
        <time>2012-08-16T16:20:02Z</time>
      </trkpt>
      <trkpt lat="48.86053" lon="7.33465">
        <ele>386.6</ele>
        <time>2012-08-16T16:20:36Z</time>
      </trkpt>
      <trkpt lat="48.86051" lon="7.33396">
        <ele>387.5</ele>
        <time>2012-08-16T16:21:08Z</time>
      </trkpt>
      <trkpt lat="48.86045" lon="7.33327">
        <ele>390</ele>
        <time>2012-08-16T16:21:40Z</time>
      </trkpt>
      <trkpt lat="48.8603" lon="7.33261">
        <ele>402.9</ele>
        <time>2012-08-16T16:22:15Z</time>
      </trkpt>
      <trkpt lat="48.86012" lon="7.33198">
        <ele>405.3</ele>
        <time>2012-08-16T16:22:56Z</time>
      </trkpt>
      <trkpt lat="48.85996" lon="7.3315">
        <ele>403.4</ele>
        <time>2012-08-16T16:27:10Z</time>
      </trkpt>
      <trkpt lat="48.85979" lon="7.33085">
        <ele>416.9</ele>
        <time>2012-08-16T16:27:45Z</time>
      </trkpt>
      <trkpt lat="48.85974" lon="7.33015">
        <ele>437.1</ele>
        <time>2012-08-16T16:28:21Z</time>
      </trkpt>
      <trkpt lat="48.85965" lon="7.32942">
        <ele>436.1</ele>
        <time>2012-08-16T16:28:55Z</time>
      </trkpt>
      <trkpt lat="48.8595" lon="7.32873">
        <ele>433.2</ele>
        <time>2012-08-16T16:29:28Z</time>
      </trkpt>
      <trkpt lat="48.85937" lon="7.32803">
        <ele>423.1</ele>
        <time>2012-08-16T16:30:02Z</time>
      </trkpt>
      <trkpt lat="48.8593" lon="7.32733">
        <ele>400.5</ele>
        <time>2012-08-16T16:30:38Z</time>
      </trkpt>
      <trkpt lat="48.85907" lon="7.32675">
        <ele>398.6</ele>
        <time>2012-08-16T16:31:10Z</time>
      </trkpt>
      <trkpt lat="48.85897" lon="7.32609">
        <ele>399.1</ele>
        <time>2012-08-16T16:31:43Z</time>
      </trkpt>
      <trkpt lat="48.85896" lon="7.32541">
        <ele>390.4</ele>
        <time>2012-08-16T16:32:16Z</time>
      </trkpt>
      <trkpt lat="48.859" lon="7.32472">
        <ele>392.4</ele>
        <time>2012-08-16T16:32:51Z</time>
      </trkpt>
      <trkpt lat="48.85916" lon="7.32409">
        <ele>390</ele>
        <time>2012-08-16T16:33:27Z</time>
      </trkpt>
      <trkpt lat="48.85948" lon="7.32408">
        <ele>384.7</ele>
        <time>2012-08-16T16:34:00Z</time>
      </trkpt>
      <trkpt lat="48.85945" lon="7.32342">
        <ele>385.6</ele>
        <time>2012-08-16T16:34:38Z</time>
      </trkpt>
      <trkpt lat="48.85936" lon="7.32275">
        <ele>382.3</ele>
        <time>2012-08-16T16:35:16Z</time>
      </trkpt>
      <trkpt lat="48.85931" lon="7.32205">
        <ele>380.8</ele>
        <time>2012-08-16T16:35:54Z</time>
      </trkpt>
      <trkpt lat="48.85938" lon="7.32136">
        <ele>385.6</ele>
        <time>2012-08-16T16:36:33Z</time>
      </trkpt>
      <trkpt lat="48.85914" lon="7.32094">
        <ele>373.1</ele>
        <time>2012-08-16T16:37:42Z</time>
      </trkpt>
      <trkpt lat="48.85869" lon="7.32086">
        <ele>367.8</ele>
        <time>2012-08-16T16:39:02Z</time>
      </trkpt>
      <trkpt lat="48.85828" lon="7.32066">
        <ele>352.9</ele>
        <time>2012-08-16T16:39:35Z</time>
      </trkpt>
      <trkpt lat="48.85784" lon="7.32076">
        <ele>351</ele>
        <time>2012-08-16T16:40:16Z</time>
      </trkpt>
      <trkpt lat="48.85795" lon="7.32068">
        <ele>351.5</ele>
        <time>2012-08-16T16:45:19Z</time>
      </trkpt>
      <trkpt lat="48.85766" lon="7.32033">
        <ele>348.1</ele>
        <time>2012-08-16T16:48:08Z</time>
      </trkpt>
      <trkpt lat="48.85733" lon="7.31986">
        <ele>347.2</ele>
        <time>2012-08-16T16:48:42Z</time>
      </trkpt>
      <trkpt lat="48.8569" lon="7.31986">
        <ele>351.5</ele>
        <time>2012-08-16T16:52:48Z</time>
      </trkpt>
      <trkpt lat="48.85652" lon="7.31971">
        <ele>357.3</ele>
        <time>2012-08-16T16:53:56Z</time>
      </trkpt>
      <trkpt lat="48.85654" lon="7.31909">
        <ele>360.2</ele>
        <time>2012-08-16T16:54:33Z</time>
      </trkpt>
      <trkpt lat="48.85668" lon="7.31873">
        <ele>360.2</ele>
        <time>2012-08-16T16:56:12Z</time>
      </trkpt>
      <trkpt lat="48.85665" lon="7.31806">
        <ele>361.1</ele>
        <time>2012-08-16T16:56:47Z</time>
      </trkpt>
      <trkpt lat="48.85653" lon="7.31745">
        <ele>360.6</ele>
        <time>2012-08-16T16:57:23Z</time>
      </trkpt>
      <trkpt lat="48.85638" lon="7.31724">
        <ele>357.7</ele>
        <time>2012-08-16T16:58:05Z</time>
      </trkpt>
      <trkpt lat="48.85667" lon="7.31714">
        <ele>357.3</ele>
        <time>2012-08-16T16:58:51Z</time>
      </trkpt>
      <trkpt lat="48.85681" lon="7.31651">
        <ele>354.4</ele>
        <time>2012-08-16T16:59:26Z</time>
      </trkpt>
      <trkpt lat="48.85689" lon="7.31586">
        <ele>354.4</ele>
        <time>2012-08-16T17:00:01Z</time>
      </trkpt>
      <trkpt lat="48.85687" lon="7.31518">
        <ele>355.3</ele>
        <time>2012-08-16T17:00:40Z</time>
      </trkpt>
      <trkpt lat="48.85703" lon="7.3146">
        <ele>353.4</ele>
        <time>2012-08-16T17:01:16Z</time>
      </trkpt>
      <trkpt lat="48.85706" lon="7.31481">
        <ele>346.7</ele>
        <time>2012-08-16T17:02:36Z</time>
      </trkpt>
      <trkpt lat="48.8569" lon="7.31485">
        <ele>345.3</ele>
        <time>2012-08-16T17:03:17Z</time>
      </trkpt>
      <trkpt lat="48.85671" lon="7.31543">
        <ele>345.3</ele>
        <time>2012-08-16T17:03:53Z</time>
      </trkpt>
      <trkpt lat="48.85655" lon="7.31606">
        <ele>346.2</ele>
        <time>2012-08-16T17:04:26Z</time>
      </trkpt>
      <trkpt lat="48.85645" lon="7.31672">
        <ele>347.7</ele>
        <time>2012-08-16T17:04:59Z</time>
      </trkpt>
      <trkpt lat="48.85655" lon="7.31728">
        <ele>353.9</ele>
        <time>2012-08-16T17:05:35Z</time>
      </trkpt>
      <trkpt lat="48.85657" lon="7.31785">
        <ele>355.3</ele>
        <time>2012-08-16T17:08:29Z</time>
      </trkpt>
      <trkpt lat="48.85671" lon="7.31839">
        <ele>356.8</ele>
        <time>2012-08-16T17:09:07Z</time>
      </trkpt>
      <trkpt lat="48.85671" lon="7.31896">
        <ele>357.7</ele>
        <time>2012-08-16T17:11:40Z</time>
      </trkpt>
      <trkpt lat="48.85698" lon="7.31875">
        <ele>362.6</ele>
        <time>2012-08-16T17:12:40Z</time>
      </trkpt>
      <trkpt lat="48.85657" lon="7.31898">
        <ele>360.6</ele>
        <time>2012-08-16T17:13:18Z</time>
      </trkpt>
      <trkpt lat="48.85624" lon="7.3194">
        <ele>361.6</ele>
        <time>2012-08-16T17:14:02Z</time>
      </trkpt>
      <trkpt lat="48.85578" lon="7.31956">
        <ele>365</ele>
        <time>2012-08-16T17:14:36Z</time>
      </trkpt>
      <trkpt lat="48.85531" lon="7.31951">
        <ele>365.4</ele>
        <time>2012-08-16T17:15:09Z</time>
      </trkpt>
      <trkpt lat="48.85485" lon="7.31959">
        <ele>365</ele>
        <time>2012-08-16T17:15:41Z</time>
      </trkpt>
      <trkpt lat="48.85441" lon="7.31957">
        <ele>367.8</ele>
        <time>2012-08-16T17:16:15Z</time>
      </trkpt>
      <trkpt lat="48.85422" lon="7.31892">
        <ele>371.7</ele>
        <time>2012-08-16T17:16:48Z</time>
      </trkpt>
      <trkpt lat="48.85404" lon="7.31828">
        <ele>375.5</ele>
        <time>2012-08-16T17:17:20Z</time>
      </trkpt>
      <trkpt lat="48.85384" lon="7.3176">
        <ele>379.9</ele>
        <time>2012-08-16T17:17:54Z</time>
      </trkpt>
      <trkpt lat="48.85369" lon="7.31691">
        <ele>383.7</ele>
        <time>2012-08-16T17:18:30Z</time>
      </trkpt>
      <trkpt lat="48.8535" lon="7.31627">
        <ele>385.6</ele>
        <time>2012-08-16T17:19:07Z</time>
      </trkpt>
      <trkpt lat="48.85324" lon="7.31561">
        <ele>385.6</ele>
        <time>2012-08-16T17:19:40Z</time>
      </trkpt>
      <trkpt lat="48.85291" lon="7.31512">
        <ele>385.6</ele>
        <time>2012-08-16T17:20:17Z</time>
      </trkpt>
      <trkpt lat="48.85233" lon="7.31466">
        <ele>379.9</ele>
        <time>2012-08-16T17:21:08Z</time>
      </trkpt>
      <trkpt lat="48.85181" lon="7.31427">
        <ele>381.8</ele>
        <time>2012-08-16T17:21:41Z</time>
      </trkpt>
      <trkpt lat="48.85135" lon="7.31401">
        <ele>379.4</ele>
        <time>2012-08-16T17:22:15Z</time>
      </trkpt>
      <trkpt lat="48.8509" lon="7.31387">
        <ele>375.5</ele>
        <time>2012-08-16T17:22:46Z</time>
      </trkpt>
      <trkpt lat="48.85046" lon="7.31379">
        <ele>369.3</ele>
        <time>2012-08-16T17:23:21Z</time>
      </trkpt>
      <trkpt lat="48.85001" lon="7.31363">
        <ele>368.3</ele>
        <time>2012-08-16T17:23:55Z</time>
      </trkpt>
      <trkpt lat="48.84954" lon="7.31355">
        <ele>366.9</ele>
        <time>2012-08-16T17:24:26Z</time>
      </trkpt>
      <trkpt lat="48.84912" lon="7.31329">
        <ele>366.4</ele>
        <time>2012-08-16T17:24:58Z</time>
      </trkpt>
      <trkpt lat="48.84872" lon="7.31294">
        <ele>368.3</ele>
        <time>2012-08-16T17:25:29Z</time>
      </trkpt>
      <trkpt lat="48.84828" lon="7.31267">
        <ele>370.2</ele>
        <time>2012-08-16T17:26:04Z</time>
      </trkpt>
      <trkpt lat="48.84779" lon="7.3127">
        <ele>368.3</ele>
        <time>2012-08-16T17:26:39Z</time>
      </trkpt>
      <trkpt lat="48.84736" lon="7.31281">
        <ele>360.2</ele>
        <time>2012-08-16T17:27:13Z</time>
      </trkpt>
      <trkpt lat="48.84707" lon="7.31228">
        <ele>360.2</ele>
        <time>2012-08-16T17:27:49Z</time>
      </trkpt>
      <trkpt lat="48.8472" lon="7.31181">
        <ele>355.8</ele>
        <time>2012-08-16T17:28:32Z</time>
      </trkpt>
      <trkpt lat="48.84743" lon="7.31149">
        <ele>346.2</ele>
        <time>2012-08-16T17:29:18Z</time>
      </trkpt>
      <trkpt lat="48.84706" lon="7.31144">
        <ele>337.1</ele>
        <time>2012-08-16T17:30:05Z</time>
      </trkpt>
      <trkpt lat="48.84673" lon="7.31168">
        <ele>325.5</ele>
        <time>2012-08-16T17:31:06Z</time>
      </trkpt>
      <trkpt lat="48.84631" lon="7.31248">
        <ele>316.4</ele>
        <time>2012-08-16T17:32:22Z</time>
      </trkpt>
      <trkpt lat="48.84611" lon="7.3133">
        <ele>308.2</ele>
        <time>2012-08-16T17:33:24Z</time>
      </trkpt>
      <trkpt lat="48.84605" lon="7.31407">
        <ele>300.5</ele>
        <time>2012-08-16T17:34:07Z</time>
      </trkpt>
      <trkpt lat="48.84599" lon="7.31479">
        <ele>302</ele>
        <time>2012-08-16T17:35:04Z</time>
      </trkpt>
      <trkpt lat="48.84605" lon="7.31552">
        <ele>293.3</ele>
        <time>2012-08-16T17:35:42Z</time>
      </trkpt>
      <trkpt lat="48.84585" lon="7.31581">
        <ele>282.3</ele>
        <time>2012-08-16T17:36:50Z</time>
      </trkpt>
      <trkpt lat="48.84587" lon="7.31637">
        <ele>279.4</ele>
        <time>2012-08-16T17:37:44Z</time>
      </trkpt>
      <trkpt lat="48.84614" lon="7.31711">
        <ele>283.7</ele>
        <time>2012-08-16T17:38:28Z</time>
      </trkpt>
      <trkpt lat="48.84625" lon="7.31768">
        <ele>259.2</ele>
        <time>2012-08-16T17:40:48Z</time>
      </trkpt>
      <trkpt lat="48.84583" lon="7.31773">
        <ele>252.5</ele>
        <time>2012-08-16T17:41:22Z</time>
      </trkpt>
      <trkpt lat="48.84537" lon="7.3179">
        <ele>234.7</ele>
        <time>2012-08-16T17:41:55Z</time>
      </trkpt>
      <trkpt lat="48.84516" lon="7.3184">
        <ele>234.2</ele>
        <time>2012-08-16T17:42:50Z</time>
      </trkpt>
      <trkpt lat="48.84536" lon="7.31855">
        <ele>231.3</ele>
        <time>2012-08-16T17:45:52Z</time>
      </trkpt>
      <trkpt lat="48.84564" lon="7.31905">
        <ele>233.7</ele>
        <time>2012-08-16T17:46:25Z</time>
      </trkpt>
      <trkpt lat="48.8459" lon="7.31958">
        <ele>235.7</ele>
        <time>2012-08-16T17:46:59Z</time>
      </trkpt>
      <trkpt lat="48.84619" lon="7.31991">
        <ele>232.3</ele>
        <time>2012-08-16T17:47:38Z</time>
      </trkpt>
      <trkpt lat="48.84621" lon="7.31988">
        <ele>228</ele>
        <time>2012-08-16T17:48:45Z</time>
      </trkpt>
      <trkpt lat="48.84598" lon="7.3194">
        <ele>228</ele>
        <time>2012-08-16T17:49:23Z</time>
      </trkpt>
      <trkpt lat="48.84593" lon="7.31941">
        <ele>231.8</ele>
        <time>2012-08-16T17:52:15Z</time>
      </trkpt>
      <trkpt lat="48.84599" lon="7.31938">
        <ele>228</ele>
        <time>2012-08-17T07:31:04Z</time>
      </trkpt>
      <trkpt lat="48.84579" lon="7.31888">
        <ele>221.7</ele>
        <time>2012-08-17T07:32:33Z</time>
      </trkpt>
      <trkpt lat="48.84552" lon="7.31835">
        <ele>221.2</ele>
        <time>2012-08-17T07:33:15Z</time>
      </trkpt>
      <trkpt lat="48.84514" lon="7.31828">
        <ele>218.4</ele>
        <time>2012-08-17T07:33:51Z</time>
      </trkpt>
      <trkpt lat="48.84482" lon="7.31791">
        <ele>226</ele>
        <time>2012-08-17T07:34:27Z</time>
      </trkpt>
      <trkpt lat="48.84456" lon="7.31736">
        <ele>227.5</ele>
        <time>2012-08-17T07:35:09Z</time>
      </trkpt>
      <trkpt lat="48.84418" lon="7.31698">
        <ele>228</ele>
        <time>2012-08-17T07:35:42Z</time>
      </trkpt>
      <trkpt lat="48.84383" lon="7.31657">
        <ele>227</ele>
        <time>2012-08-17T07:36:14Z</time>
      </trkpt>
      <trkpt lat="48.84349" lon="7.31618">
        <ele>224.6</ele>
        <time>2012-08-17T07:36:53Z</time>
      </trkpt>
      <trkpt lat="48.84333" lon="7.31562">
        <ele>222.2</ele>
        <time>2012-08-17T07:38:15Z</time>
      </trkpt>
      <trkpt lat="48.84312" lon="7.31502">
        <ele>222.2</ele>
        <time>2012-08-17T07:38:48Z</time>
      </trkpt>
      <trkpt lat="48.84314" lon="7.31438">
        <ele>223.2</ele>
        <time>2012-08-17T07:39:25Z</time>
      </trkpt>
      <trkpt lat="48.84306" lon="7.31408">
        <ele>223.2</ele>
        <time>2012-08-17T07:40:09Z</time>
      </trkpt>
      <trkpt lat="48.84257" lon="7.31339">
        <ele>234.2</ele>
        <time>2012-08-17T07:41:17Z</time>
      </trkpt>
      <trkpt lat="48.84205" lon="7.31289">
        <ele>248.6</ele>
        <time>2012-08-17T07:42:10Z</time>
      </trkpt>
      <trkpt lat="48.84156" lon="7.31232">
        <ele>256.8</ele>
        <time>2012-08-17T07:42:56Z</time>
      </trkpt>
      <trkpt lat="48.8411" lon="7.31182">
        <ele>262.6</ele>
        <time>2012-08-17T07:43:35Z</time>
      </trkpt>
      <trkpt lat="48.84066" lon="7.31132">
        <ele>265</ele>
        <time>2012-08-17T07:44:14Z</time>
      </trkpt>
      <trkpt lat="48.84047" lon="7.31055">
        <ele>253</ele>
        <time>2012-08-17T07:44:49Z</time>
      </trkpt>
      <trkpt lat="48.84027" lon="7.30992">
        <ele>255.4</ele>
        <time>2012-08-17T07:45:25Z</time>
      </trkpt>
      <trkpt lat="48.83996" lon="7.30947">
        <ele>259.7</ele>
        <time>2012-08-17T07:46:04Z</time>
      </trkpt>
      <trkpt lat="48.83944" lon="7.30967">
        <ele>266.4</ele>
        <time>2012-08-17T07:46:43Z</time>
      </trkpt>
      <trkpt lat="48.83901" lon="7.30953">
        <ele>266.9</ele>
        <time>2012-08-17T07:47:19Z</time>
      </trkpt>
      <trkpt lat="48.83853" lon="7.30914">
        <ele>261.1</ele>
        <time>2012-08-17T07:47:58Z</time>
      </trkpt>
      <trkpt lat="48.83817" lon="7.30868">
        <ele>266.9</ele>
        <time>2012-08-17T07:48:36Z</time>
      </trkpt>
      <trkpt lat="48.83792" lon="7.30808">
        <ele>270.7</ele>
        <time>2012-08-17T07:49:14Z</time>
      </trkpt>
      <trkpt lat="48.8379" lon="7.30744">
        <ele>270.7</ele>
        <time>2012-08-17T07:49:49Z</time>
      </trkpt>
      <trkpt lat="48.83808" lon="7.3068">
        <ele>278</ele>
        <time>2012-08-17T07:50:25Z</time>
      </trkpt>
      <trkpt lat="48.83809" lon="7.30604">
        <ele>298.1</ele>
        <time>2012-08-17T07:51:07Z</time>
      </trkpt>
      <trkpt lat="48.83809" lon="7.30517">
        <ele>307.8</ele>
        <time>2012-08-17T07:51:52Z</time>
      </trkpt>
      <trkpt lat="48.83819" lon="7.30437">
        <ele>331.3</ele>
        <time>2012-08-17T07:52:34Z</time>
      </trkpt>
      <trkpt lat="48.83829" lon="7.30366">
        <ele>327</ele>
        <time>2012-08-17T07:53:28Z</time>
      </trkpt>
      <trkpt lat="48.83843" lon="7.30289">
        <ele>323.6</ele>
        <time>2012-08-17T07:54:07Z</time>
      </trkpt>
      <trkpt lat="48.83865" lon="7.30211">
        <ele>329.9</ele>
        <time>2012-08-17T07:54:55Z</time>
      </trkpt>
      <trkpt lat="48.83902" lon="7.30129">
        <ele>331.3</ele>
        <time>2012-08-17T07:55:52Z</time>
      </trkpt>
      <trkpt lat="48.83916" lon="7.30025">
        <ele>340.9</ele>
        <time>2012-08-17T07:56:43Z</time>
      </trkpt>
      <trkpt lat="48.83903" lon="7.2995">
        <ele>360.6</ele>
        <time>2012-08-17T07:57:26Z</time>
      </trkpt>
      <trkpt lat="48.83868" lon="7.29847">
        <ele>362.1</ele>
        <time>2012-08-17T07:58:45Z</time>
      </trkpt>
      <trkpt lat="48.83809" lon="7.29824">
        <ele>357.7</ele>
        <time>2012-08-17T07:59:37Z</time>
      </trkpt>
      <trkpt lat="48.83753" lon="7.29809">
        <ele>358.2</ele>
        <time>2012-08-17T08:00:20Z</time>
      </trkpt>
      <trkpt lat="48.83701" lon="7.29804">
        <ele>358.2</ele>
        <time>2012-08-17T08:01:02Z</time>
      </trkpt>
      <trkpt lat="48.83645" lon="7.29819">
        <ele>364</ele>
        <time>2012-08-17T08:01:43Z</time>
      </trkpt>
      <trkpt lat="48.83602" lon="7.29813">
        <ele>369.8</ele>
        <time>2012-08-17T08:02:29Z</time>
      </trkpt>
      <trkpt lat="48.83604" lon="7.29736">
        <ele>377.9</ele>
        <time>2012-08-17T08:03:16Z</time>
      </trkpt>
      <trkpt lat="48.83565" lon="7.29676">
        <ele>377.5</ele>
        <time>2012-08-17T08:03:55Z</time>
      </trkpt>
      <trkpt lat="48.83528" lon="7.29633">
        <ele>373.6</ele>
        <time>2012-08-17T08:04:29Z</time>
      </trkpt>
      <trkpt lat="48.83495" lon="7.29579">
        <ele>372.2</ele>
        <time>2012-08-17T08:05:03Z</time>
      </trkpt>
      <trkpt lat="48.83457" lon="7.29532">
        <ele>370.2</ele>
        <time>2012-08-17T08:05:39Z</time>
      </trkpt>
      <trkpt lat="48.83416" lon="7.29495">
        <ele>366.9</ele>
        <time>2012-08-17T08:06:14Z</time>
      </trkpt>
      <trkpt lat="48.8338" lon="7.29458">
        <ele>360.6</ele>
        <time>2012-08-17T08:06:48Z</time>
      </trkpt>
      <trkpt lat="48.83349" lon="7.29419">
        <ele>354.4</ele>
        <time>2012-08-17T08:08:04Z</time>
      </trkpt>
      <trkpt lat="48.83328" lon="7.29366">
        <ele>352</ele>
        <time>2012-08-17T08:08:39Z</time>
      </trkpt>
      <trkpt lat="48.8331" lon="7.29312">
        <ele>347.7</ele>
        <time>2012-08-17T08:09:42Z</time>
      </trkpt>
      <trkpt lat="48.83298" lon="7.29254">
        <ele>350.5</ele>
        <time>2012-08-17T08:10:25Z</time>
      </trkpt>
      <trkpt lat="48.83267" lon="7.29198">
        <ele>346.2</ele>
        <time>2012-08-17T08:11:02Z</time>
      </trkpt>
      <trkpt lat="48.83261" lon="7.29134">
        <ele>342.4</ele>
        <time>2012-08-17T08:11:37Z</time>
      </trkpt>
      <trkpt lat="48.83216" lon="7.29126">
        <ele>336.6</ele>
        <time>2012-08-17T08:12:14Z</time>
      </trkpt>
      <trkpt lat="48.83212" lon="7.29125">
        <ele>335.6</ele>
        <time>2012-08-17T08:12:37Z</time>
      </trkpt>
      <trkpt lat="48.82052" lon="7.28161">
        <ele>188.6</ele>
        <time>2012-08-17T09:47:58Z</time>
      </trkpt>
      <trkpt lat="48.82025" lon="7.28087">
        <ele>214.5</ele>
        <time>2012-08-17T09:49:55Z</time>
      </trkpt>
      <trkpt lat="48.82054" lon="7.28119">
        <ele>213.1</ele>
        <time>2012-08-17T09:50:14Z</time>
      </trkpt>
      <trkpt lat="48.8198" lon="7.28055">
        <ele>213.6</ele>
        <time>2012-08-17T09:51:34Z</time>
      </trkpt>
      <trkpt lat="48.82016" lon="7.28078">
        <ele>213.1</ele>
        <time>2012-08-17T09:52:07Z</time>
      </trkpt>
      <trkpt lat="48.82037" lon="7.28132">
        <ele>211.6</ele>
        <time>2012-08-17T09:52:39Z</time>
      </trkpt>
      <trkpt lat="48.82027" lon="7.28186">
        <ele>214.5</ele>
        <time>2012-08-17T09:53:08Z</time>
      </trkpt>
      <trkpt lat="48.81983" lon="7.28184">
        <ele>212.6</ele>
        <time>2012-08-17T09:53:41Z</time>
      </trkpt>
      <trkpt lat="48.81939" lon="7.2818">
        <ele>204.9</ele>
        <time>2012-08-17T09:54:14Z</time>
      </trkpt>
      <trkpt lat="48.81891" lon="7.28183">
        <ele>206.3</ele>
        <time>2012-08-17T09:55:05Z</time>
      </trkpt>
      <trkpt lat="48.81844" lon="7.28195">
        <ele>215.5</ele>
        <time>2012-08-17T09:55:37Z</time>
      </trkpt>
      <trkpt lat="48.81805" lon="7.28226">
        <ele>216.4</ele>
        <time>2012-08-17T09:56:06Z</time>
      </trkpt>
      <trkpt lat="48.81767" lon="7.28256">
        <ele>209.7</ele>
        <time>2012-08-17T09:56:38Z</time>
      </trkpt>
      <trkpt lat="48.81731" lon="7.28298">
        <ele>211.1</ele>
        <time>2012-08-17T09:57:08Z</time>
      </trkpt>
      <trkpt lat="48.817" lon="7.28342">
        <ele>209.2</ele>
        <time>2012-08-17T09:57:36Z</time>
      </trkpt>
      <trkpt lat="48.81674" lon="7.28392">
        <ele>207.8</ele>
        <time>2012-08-17T09:58:05Z</time>
      </trkpt>
      <trkpt lat="48.81655" lon="7.28451">
        <ele>209.2</ele>
        <time>2012-08-17T09:58:34Z</time>
      </trkpt>
      <trkpt lat="48.81614" lon="7.28448">
        <ele>207.3</ele>
        <time>2012-08-17T09:59:06Z</time>
      </trkpt>
      <trkpt lat="48.8157" lon="7.28429">
        <ele>212.1</ele>
        <time>2012-08-17T09:59:39Z</time>
      </trkpt>
      <trkpt lat="48.81539" lon="7.28438">
        <ele>214</ele>
        <time>2012-08-17T10:00:09Z</time>
      </trkpt>
      <trkpt lat="48.81516" lon="7.2849">
        <ele>225.6</ele>
        <time>2012-08-17T10:00:40Z</time>
      </trkpt>
      <trkpt lat="48.81478" lon="7.28529">
        <ele>241.9</ele>
        <time>2012-08-17T10:01:07Z</time>
      </trkpt>
      <trkpt lat="48.81442" lon="7.28563">
        <ele>250.6</ele>
        <time>2012-08-17T10:01:31Z</time>
      </trkpt>
      <trkpt lat="48.81418" lon="7.28616">
        <ele>247.2</ele>
        <time>2012-08-17T10:02:12Z</time>
      </trkpt>
      <trkpt lat="48.81353" lon="7.2866">
        <ele>242.4</ele>
        <time>2012-08-17T10:02:55Z</time>
      </trkpt>
      <trkpt lat="48.8131" lon="7.28702">
        <ele>237.6</ele>
        <time>2012-08-17T10:03:29Z</time>
      </trkpt>
      <trkpt lat="48.81275" lon="7.2871">
        <ele>234.2</ele>
        <time>2012-08-17T10:04:01Z</time>
      </trkpt>
      <trkpt lat="48.81249" lon="7.28737">
        <ele>242.4</ele>
        <time>2012-08-17T10:04:56Z</time>
      </trkpt>
      <trkpt lat="48.81202" lon="7.28777">
        <ele>253</ele>
        <time>2012-08-17T10:05:24Z</time>
      </trkpt>
      <trkpt lat="48.81169" lon="7.28826">
        <ele>248.6</ele>
        <time>2012-08-17T10:05:52Z</time>
      </trkpt>
      <trkpt lat="48.81145" lon="7.28881">
        <ele>245.8</ele>
        <time>2012-08-17T10:06:21Z</time>
      </trkpt>
      <trkpt lat="48.81118" lon="7.28936">
        <ele>236.6</ele>
        <time>2012-08-17T10:06:55Z</time>
      </trkpt>
      <trkpt lat="48.81079" lon="7.28983">
        <ele>235.7</ele>
        <time>2012-08-17T10:07:33Z</time>
      </trkpt>
      <trkpt lat="48.81033" lon="7.29029">
        <ele>233.3</ele>
        <time>2012-08-17T10:08:08Z</time>
      </trkpt>
      <trkpt lat="48.80998" lon="7.29079">
        <ele>240.5</ele>
        <time>2012-08-17T10:08:47Z</time>
      </trkpt>
      <trkpt lat="48.80943" lon="7.29116">
        <ele>243.8</ele>
        <time>2012-08-17T10:09:16Z</time>
      </trkpt>
      <trkpt lat="48.80906" lon="7.2916">
        <ele>232.3</ele>
        <time>2012-08-17T10:09:54Z</time>
      </trkpt>
      <trkpt lat="48.80871" lon="7.29213">
        <ele>221.2</ele>
        <time>2012-08-17T10:10:29Z</time>
      </trkpt>
      <trkpt lat="48.8083" lon="7.2925">
        <ele>216</ele>
        <time>2012-08-17T10:11:01Z</time>
      </trkpt>
      <trkpt lat="48.80777" lon="7.29311">
        <ele>217.4</ele>
        <time>2012-08-17T10:11:59Z</time>
      </trkpt>
      <trkpt lat="48.80722" lon="7.29358">
        <ele>216.9</ele>
        <time>2012-08-17T10:12:32Z</time>
      </trkpt>
      <trkpt lat="48.80669" lon="7.29397">
        <ele>225.1</ele>
        <time>2012-08-17T10:13:19Z</time>
      </trkpt>
      <trkpt lat="48.80633" lon="7.29457">
        <ele>240.9</ele>
        <time>2012-08-17T10:14:02Z</time>
      </trkpt>
      <trkpt lat="48.80613" lon="7.29541">
        <ele>269.3</ele>
        <time>2012-08-17T10:14:48Z</time>
      </trkpt>
      <trkpt lat="48.80575" lon="7.29608">
        <ele>287.1</ele>
        <time>2012-08-17T10:15:24Z</time>
      </trkpt>
      <trkpt lat="48.80546" lon="7.29678">
        <ele>303.9</ele>
        <time>2012-08-17T10:15:59Z</time>
      </trkpt>
      <trkpt lat="48.80535" lon="7.29743">
        <ele>328.4</ele>
        <time>2012-08-17T10:16:36Z</time>
      </trkpt>
      <trkpt lat="48.80495" lon="7.29823">
        <ele>357.3</ele>
        <time>2012-08-17T10:17:15Z</time>
      </trkpt>
      <trkpt lat="48.80458" lon="7.29897">
        <ele>371.7</ele>
        <time>2012-08-17T10:17:52Z</time>
      </trkpt>
      <trkpt lat="48.80418" lon="7.29949">
        <ele>377.9</ele>
        <time>2012-08-17T10:18:22Z</time>
      </trkpt>
      <trkpt lat="48.8038" lon="7.30006">
        <ele>382.7</ele>
        <time>2012-08-17T10:18:51Z</time>
      </trkpt>
      <trkpt lat="48.804" lon="7.30098">
        <ele>292.9</ele>
        <time>2012-08-17T10:19:40Z</time>
      </trkpt>
      <trkpt lat="48.80384" lon="7.30166">
        <ele>227</ele>
        <time>2012-08-17T10:23:12Z</time>
      </trkpt>
      <trkpt lat="48.8034" lon="7.30208">
        <ele>236.1</ele>
        <time>2012-08-17T10:23:47Z</time>
      </trkpt>
      <trkpt lat="48.80303" lon="7.3026">
        <ele>248.2</ele>
        <time>2012-08-17T10:24:24Z</time>
      </trkpt>
      <trkpt lat="48.80291" lon="7.30333">
        <ele>249.1</ele>
        <time>2012-08-17T10:25:04Z</time>
      </trkpt>
      <trkpt lat="48.80267" lon="7.30423">
        <ele>261.6</ele>
        <time>2012-08-17T10:25:53Z</time>
      </trkpt>
      <trkpt lat="48.80225" lon="7.30546">
        <ele>272.2</ele>
        <time>2012-08-17T10:26:56Z</time>
      </trkpt>
      <trkpt lat="48.80179" lon="7.30629">
        <ele>275.6</ele>
        <time>2012-08-17T10:27:35Z</time>
      </trkpt>
      <trkpt lat="48.80133" lon="7.30683">
        <ele>270.3</ele>
        <time>2012-08-17T10:28:14Z</time>
      </trkpt>
      <trkpt lat="48.8006" lon="7.30733">
        <ele>250.6</ele>
        <time>2012-08-17T10:29:22Z</time>
      </trkpt>
      <trkpt lat="48.80011" lon="7.30794">
        <ele>243.4</ele>
        <time>2012-08-17T10:30:02Z</time>
      </trkpt>
      <trkpt lat="48.79968" lon="7.3085">
        <ele>251.5</ele>
        <time>2012-08-17T10:30:43Z</time>
      </trkpt>
      <trkpt lat="48.79938" lon="7.3091">
        <ele>229.4</ele>
        <time>2012-08-17T10:31:20Z</time>
      </trkpt>
      <trkpt lat="48.79889" lon="7.30898">
        <ele>219.8</ele>
        <time>2012-08-17T10:31:57Z</time>
      </trkpt>
      <trkpt lat="48.79867" lon="7.30824">
        <ele>210.7</ele>
        <time>2012-08-17T10:32:34Z</time>
      </trkpt>
      <trkpt lat="48.79836" lon="7.30774">
        <ele>204.4</ele>
        <time>2012-08-17T10:33:09Z</time>
      </trkpt>
      <trkpt lat="48.79824" lon="7.30836">
        <ele>213.6</ele>
        <time>2012-08-17T10:33:47Z</time>
      </trkpt>
      <trkpt lat="48.79807" lon="7.30907">
        <ele>211.6</ele>
        <time>2012-08-17T10:34:23Z</time>
      </trkpt>
      <trkpt lat="48.79802" lon="7.30975">
        <ele>208.3</ele>
        <time>2012-08-17T10:34:55Z</time>
      </trkpt>
      <trkpt lat="48.79817" lon="7.3104">
        <ele>202.5</ele>
        <time>2012-08-17T10:35:26Z</time>
      </trkpt>
      <trkpt lat="48.79846" lon="7.31093">
        <ele>199.6</ele>
        <time>2012-08-17T10:35:57Z</time>
      </trkpt>
      <trkpt lat="48.79885" lon="7.31111">
        <ele>197.7</ele>
        <time>2012-08-17T10:36:31Z</time>
      </trkpt>
      <trkpt lat="48.79925" lon="7.31075">
        <ele>201.5</ele>
        <time>2012-08-17T10:37:03Z</time>
      </trkpt>
      <trkpt lat="48.7995" lon="7.31086">
        <ele>204.9</ele>
        <time>2012-08-17T10:39:09Z</time>
      </trkpt>
      <trkpt lat="48.79947" lon="7.31093">
        <ele>203.9</ele>
        <time>2012-08-17T10:39:37Z</time>
      </trkpt>
      <trkpt lat="48.79972" lon="7.3095">
        <ele>176.1</ele>
        <time>2012-08-17T11:53:32Z</time>
      </trkpt>
      <trkpt lat="48.79927" lon="7.31073">
        <ele>201.5</ele>
        <time>2012-08-17T11:54:54Z</time>
      </trkpt>
      <trkpt lat="48.79889" lon="7.31105">
        <ele>198.2</ele>
        <time>2012-08-17T11:55:30Z</time>
      </trkpt>
      <trkpt lat="48.79858" lon="7.31131">
        <ele>199.1</ele>
        <time>2012-08-17T11:56:09Z</time>
      </trkpt>
      <trkpt lat="48.79822" lon="7.31168">
        <ele>200.6</ele>
        <time>2012-08-17T11:56:42Z</time>
      </trkpt>
      <trkpt lat="48.79809" lon="7.31231">
        <ele>202.5</ele>
        <time>2012-08-17T11:57:15Z</time>
      </trkpt>
      <trkpt lat="48.79778" lon="7.31276">
        <ele>209.2</ele>
        <time>2012-08-17T11:58:09Z</time>
      </trkpt>
      <trkpt lat="48.79728" lon="7.31279">
        <ele>213.1</ele>
        <time>2012-08-17T11:59:02Z</time>
      </trkpt>
      <trkpt lat="48.7968" lon="7.31257">
        <ele>219.8</ele>
        <time>2012-08-17T12:00:04Z</time>
      </trkpt>
      <trkpt lat="48.79635" lon="7.31235">
        <ele>228.9</ele>
        <time>2012-08-17T12:00:52Z</time>
      </trkpt>
      <trkpt lat="48.79591" lon="7.31208">
        <ele>238.1</ele>
        <time>2012-08-17T12:01:38Z</time>
      </trkpt>
      <trkpt lat="48.79539" lon="7.31199">
        <ele>248.2</ele>
        <time>2012-08-17T12:02:38Z</time>
      </trkpt>
      <trkpt lat="48.79489" lon="7.31223">
        <ele>261.6</ele>
        <time>2012-08-17T12:03:31Z</time>
      </trkpt>
      <trkpt lat="48.79436" lon="7.31227">
        <ele>275.6</ele>
        <time>2012-08-17T12:04:34Z</time>
      </trkpt>
      <trkpt lat="48.7939" lon="7.31213">
        <ele>283.2</ele>
        <time>2012-08-17T12:05:15Z</time>
      </trkpt>
      <trkpt lat="48.79341" lon="7.31198">
        <ele>295.3</ele>
        <time>2012-08-17T12:06:24Z</time>
      </trkpt>
      <trkpt lat="48.79296" lon="7.3119">
        <ele>303</ele>
        <time>2012-08-17T12:07:00Z</time>
      </trkpt>
      <trkpt lat="48.7925" lon="7.31186">
        <ele>308.7</ele>
        <time>2012-08-17T12:07:37Z</time>
      </trkpt>
      <trkpt lat="48.79205" lon="7.31202">
        <ele>315.9</ele>
        <time>2012-08-17T12:08:17Z</time>
      </trkpt>
      <trkpt lat="48.79162" lon="7.31221">
        <ele>319.3</ele>
        <time>2012-08-17T12:08:49Z</time>
      </trkpt>
      <trkpt lat="48.79117" lon="7.31241">
        <ele>316.9</ele>
        <time>2012-08-17T12:09:24Z</time>
      </trkpt>
      <trkpt lat="48.79066" lon="7.31239">
        <ele>318.3</ele>
        <time>2012-08-17T12:10:05Z</time>
      </trkpt>
      <trkpt lat="48.79019" lon="7.31242">
        <ele>324.6</ele>
        <time>2012-08-17T12:10:44Z</time>
      </trkpt>
      <trkpt lat="48.78966" lon="7.31239">
        <ele>326.5</ele>
        <time>2012-08-17T12:11:19Z</time>
      </trkpt>
      <trkpt lat="48.78923" lon="7.31255">
        <ele>342.4</ele>
        <time>2012-08-17T12:11:57Z</time>
      </trkpt>
      <trkpt lat="48.78875" lon="7.31271">
        <ele>342.8</ele>
        <time>2012-08-17T12:12:30Z</time>
      </trkpt>
      <trkpt lat="48.78832" lon="7.31283">
        <ele>350.1</ele>
        <time>2012-08-17T12:13:03Z</time>
      </trkpt>
      <trkpt lat="48.78784" lon="7.31292">
        <ele>352</ele>
        <time>2012-08-17T12:13:40Z</time>
      </trkpt>
      <trkpt lat="48.78739" lon="7.31287">
        <ele>348.6</ele>
        <time>2012-08-17T12:14:12Z</time>
      </trkpt>
      <trkpt lat="48.78697" lon="7.31288">
        <ele>348.1</ele>
        <time>2012-08-17T12:14:44Z</time>
      </trkpt>
      <trkpt lat="48.7865" lon="7.31289">
        <ele>344.8</ele>
        <time>2012-08-17T12:15:17Z</time>
      </trkpt>
      <trkpt lat="48.78605" lon="7.31286">
        <ele>337.6</ele>
        <time>2012-08-17T12:15:48Z</time>
      </trkpt>
      <trkpt lat="48.78566" lon="7.31256">
        <ele>332.8</ele>
        <time>2012-08-17T12:16:19Z</time>
      </trkpt>
      <trkpt lat="48.78534" lon="7.31213">
        <ele>330.4</ele>
        <time>2012-08-17T12:16:50Z</time>
      </trkpt>
      <trkpt lat="48.78497" lon="7.31176">
        <ele>330.8</ele>
        <time>2012-08-17T12:17:23Z</time>
      </trkpt>
      <trkpt lat="48.78452" lon="7.31146">
        <ele>332.8</ele>
        <time>2012-08-17T12:18:03Z</time>
      </trkpt>
      <trkpt lat="48.78394" lon="7.31132">
        <ele>333.2</ele>
        <time>2012-08-17T12:18:48Z</time>
      </trkpt>
      <trkpt lat="48.78339" lon="7.31118">
        <ele>327.9</ele>
        <time>2012-08-17T12:19:21Z</time>
      </trkpt>
      <trkpt lat="48.78291" lon="7.31102">
        <ele>323.6</ele>
        <time>2012-08-17T12:19:52Z</time>
      </trkpt>
      <trkpt lat="48.78249" lon="7.31094">
        <ele>331.3</ele>
        <time>2012-08-17T12:20:25Z</time>
      </trkpt>
      <trkpt lat="48.78207" lon="7.31112">
        <ele>340.9</ele>
        <time>2012-08-17T12:20:59Z</time>
      </trkpt>
      <trkpt lat="48.78165" lon="7.31155">
        <ele>345.7</ele>
        <time>2012-08-17T12:21:35Z</time>
      </trkpt>
      <trkpt lat="48.78143" lon="7.31218">
        <ele>341.9</ele>
        <time>2012-08-17T12:22:03Z</time>
      </trkpt>
      <trkpt lat="48.78129" lon="7.31276">
        <ele>342.4</ele>
        <time>2012-08-17T12:22:30Z</time>
      </trkpt>
      <trkpt lat="48.78115" lon="7.31329">
        <ele>357.7</ele>
        <time>2012-08-17T12:22:58Z</time>
      </trkpt>
      <trkpt lat="48.78076" lon="7.31372">
        <ele>352.5</ele>
        <time>2012-08-17T12:23:27Z</time>
      </trkpt>
      <trkpt lat="48.78035" lon="7.31411">
        <ele>347.2</ele>
        <time>2012-08-17T12:23:57Z</time>
      </trkpt>
      <trkpt lat="48.78001" lon="7.31454">
        <ele>350.5</ele>
        <time>2012-08-17T12:24:28Z</time>
      </trkpt>
      <trkpt lat="48.77969" lon="7.31499">
        <ele>361.1</ele>
        <time>2012-08-17T12:25:01Z</time>
      </trkpt>
      <trkpt lat="48.77931" lon="7.3154">
        <ele>357.7</ele>
        <time>2012-08-17T12:25:29Z</time>
      </trkpt>
      <trkpt lat="48.77903" lon="7.31589">
        <ele>347.2</ele>
        <time>2012-08-17T12:25:56Z</time>
      </trkpt>
      <trkpt lat="48.77869" lon="7.31627">
        <ele>344.8</ele>
        <time>2012-08-17T12:26:22Z</time>
      </trkpt>
      <trkpt lat="48.77816" lon="7.31639">
        <ele>334.7</ele>
        <time>2012-08-17T12:26:55Z</time>
      </trkpt>
      <trkpt lat="48.77771" lon="7.31627">
        <ele>337.6</ele>
        <time>2012-08-17T12:27:25Z</time>
      </trkpt>
      <trkpt lat="48.77726" lon="7.31605">
        <ele>337.6</ele>
        <time>2012-08-17T12:27:55Z</time>
      </trkpt>
      <trkpt lat="48.77686" lon="7.31576">
        <ele>336.6</ele>
        <time>2012-08-17T12:28:23Z</time>
      </trkpt>
      <trkpt lat="48.77651" lon="7.31539">
        <ele>336.1</ele>
        <time>2012-08-17T12:28:52Z</time>
      </trkpt>
      <trkpt lat="48.77613" lon="7.31506">
        <ele>334.7</ele>
        <time>2012-08-17T12:29:23Z</time>
      </trkpt>
      <trkpt lat="48.77575" lon="7.31468">
        <ele>332.8</ele>
        <time>2012-08-17T12:29:54Z</time>
      </trkpt>
      <trkpt lat="48.77544" lon="7.31422">
        <ele>339.5</ele>
        <time>2012-08-17T12:30:25Z</time>
      </trkpt>
      <trkpt lat="48.77505" lon="7.31392">
        <ele>343.3</ele>
        <time>2012-08-17T12:30:55Z</time>
      </trkpt>
      <trkpt lat="48.7746" lon="7.3138">
        <ele>344.8</ele>
        <time>2012-08-17T12:31:25Z</time>
      </trkpt>
      <trkpt lat="48.77416" lon="7.31369">
        <ele>348.6</ele>
        <time>2012-08-17T12:32:01Z</time>
      </trkpt>
      <trkpt lat="48.77368" lon="7.31378">
        <ele>348.1</ele>
        <time>2012-08-17T12:45:05Z</time>
      </trkpt>
      <trkpt lat="48.77323" lon="7.31376">
        <ele>346.7</ele>
        <time>2012-08-17T12:45:41Z</time>
      </trkpt>
      <trkpt lat="48.77287" lon="7.31363">
        <ele>350.1</ele>
        <time>2012-08-17T12:46:49Z</time>
      </trkpt>
      <trkpt lat="48.77243" lon="7.31361">
        <ele>353.4</ele>
        <time>2012-08-17T12:47:23Z</time>
      </trkpt>
      <trkpt lat="48.77197" lon="7.31359">
        <ele>357.3</ele>
        <time>2012-08-17T12:47:56Z</time>
      </trkpt>
      <trkpt lat="48.77152" lon="7.31361">
        <ele>360.6</ele>
        <time>2012-08-17T12:48:28Z</time>
      </trkpt>
      <trkpt lat="48.77107" lon="7.31364">
        <ele>363.5</ele>
        <time>2012-08-17T12:49:01Z</time>
      </trkpt>
      <trkpt lat="48.7706" lon="7.3137">
        <ele>369.8</ele>
        <time>2012-08-17T12:49:38Z</time>
      </trkpt>
      <trkpt lat="48.77014" lon="7.31388">
        <ele>368.8</ele>
        <time>2012-08-17T12:50:09Z</time>
      </trkpt>
      <trkpt lat="48.76975" lon="7.31415">
        <ele>368.3</ele>
        <time>2012-08-17T12:50:41Z</time>
      </trkpt>
      <trkpt lat="48.7694" lon="7.31453">
        <ele>370.7</ele>
        <time>2012-08-17T12:51:11Z</time>
      </trkpt>
      <trkpt lat="48.76904" lon="7.31492">
        <ele>372.6</ele>
        <time>2012-08-17T12:51:42Z</time>
      </trkpt>
      <trkpt lat="48.76868" lon="7.31533">
        <ele>377</ele>
        <time>2012-08-17T12:52:13Z</time>
      </trkpt>
      <trkpt lat="48.76836" lon="7.31577">
        <ele>378.4</ele>
        <time>2012-08-17T12:53:15Z</time>
      </trkpt>
      <trkpt lat="48.76802" lon="7.31623">
        <ele>379.9</ele>
        <time>2012-08-17T12:53:46Z</time>
      </trkpt>
      <trkpt lat="48.7677" lon="7.31671">
        <ele>382.7</ele>
        <time>2012-08-17T12:54:19Z</time>
      </trkpt>
      <trkpt lat="48.76748" lon="7.31726">
        <ele>383.7</ele>
        <time>2012-08-17T12:54:50Z</time>
      </trkpt>
      <trkpt lat="48.76734" lon="7.31787">
        <ele>390.9</ele>
        <time>2012-08-17T12:55:26Z</time>
      </trkpt>
      <trkpt lat="48.76732" lon="7.31861">
        <ele>401</ele>
        <time>2012-08-17T12:56:03Z</time>
      </trkpt>
      <trkpt lat="48.76724" lon="7.31933">
        <ele>412.5</ele>
        <time>2012-08-17T12:56:38Z</time>
      </trkpt>
      <trkpt lat="48.76699" lon="7.32003">
        <ele>416.4</ele>
        <time>2012-08-17T12:57:19Z</time>
      </trkpt>
      <trkpt lat="48.76666" lon="7.32065">
        <ele>423.6</ele>
        <time>2012-08-17T12:57:55Z</time>
      </trkpt>
      <trkpt lat="48.7663" lon="7.32044">
        <ele>416.9</ele>
        <time>2012-08-17T12:58:50Z</time>
      </trkpt>
      <trkpt lat="48.76587" lon="7.32004">
        <ele>412.5</ele>
        <time>2012-08-17T12:59:29Z</time>
      </trkpt>
      <trkpt lat="48.76545" lon="7.31987">
        <ele>404.9</ele>
        <time>2012-08-17T13:00:04Z</time>
      </trkpt>
      <trkpt lat="48.76519" lon="7.31934">
        <ele>400.5</ele>
        <time>2012-08-17T13:00:34Z</time>
      </trkpt>
      <trkpt lat="48.76492" lon="7.31881">
        <ele>401.5</ele>
        <time>2012-08-17T13:01:06Z</time>
      </trkpt>
      <trkpt lat="48.76458" lon="7.31882">
        <ele>402.4</ele>
        <time>2012-08-17T13:01:38Z</time>
      </trkpt>
      <trkpt lat="48.76421" lon="7.31922">
        <ele>408.7</ele>
        <time>2012-08-17T13:02:12Z</time>
      </trkpt>
      <trkpt lat="48.76383" lon="7.31971">
        <ele>413</ele>
        <time>2012-08-17T13:02:47Z</time>
      </trkpt>
      <trkpt lat="48.76349" lon="7.32029">
        <ele>423.6</ele>
        <time>2012-08-17T13:03:29Z</time>
      </trkpt>
      <trkpt lat="48.76307" lon="7.32086">
        <ele>429.8</ele>
        <time>2012-08-17T13:04:06Z</time>
      </trkpt>
      <trkpt lat="48.76262" lon="7.32143">
        <ele>443.3</ele>
        <time>2012-08-17T13:04:52Z</time>
      </trkpt>
      <trkpt lat="48.76202" lon="7.32168">
        <ele>432.3</ele>
        <time>2012-08-17T13:05:38Z</time>
      </trkpt>
      <trkpt lat="48.76143" lon="7.32181">
        <ele>426</ele>
        <time>2012-08-17T13:06:20Z</time>
      </trkpt>
      <trkpt lat="48.76085" lon="7.32219">
        <ele>430.3</ele>
        <time>2012-08-17T13:07:08Z</time>
      </trkpt>
      <trkpt lat="48.76035" lon="7.32249">
        <ele>425</ele>
        <time>2012-08-17T13:07:43Z</time>
      </trkpt>
      <trkpt lat="48.75996" lon="7.32291">
        <ele>424.6</ele>
        <time>2012-08-17T13:08:23Z</time>
      </trkpt>
      <trkpt lat="48.75984" lon="7.32361">
        <ele>425</ele>
        <time>2012-08-17T13:08:58Z</time>
      </trkpt>
      <trkpt lat="48.75957" lon="7.32421">
        <ele>423.6</ele>
        <time>2012-08-17T13:09:34Z</time>
      </trkpt>
      <trkpt lat="48.75915" lon="7.32479">
        <ele>423.6</ele>
        <time>2012-08-17T13:10:19Z</time>
      </trkpt>
      <trkpt lat="48.75862" lon="7.32538">
        <ele>427.4</ele>
        <time>2012-08-17T13:11:04Z</time>
      </trkpt>
      <trkpt lat="48.75814" lon="7.32593">
        <ele>429.8</ele>
        <time>2012-08-17T13:11:46Z</time>
      </trkpt>
      <trkpt lat="48.75764" lon="7.32651">
        <ele>427.9</ele>
        <time>2012-08-17T13:12:30Z</time>
      </trkpt>
      <trkpt lat="48.75704" lon="7.32676">
        <ele>419.3</ele>
        <time>2012-08-17T13:13:14Z</time>
      </trkpt>
      <trkpt lat="48.75648" lon="7.32697">
        <ele>416.9</ele>
        <time>2012-08-17T13:14:00Z</time>
      </trkpt>
      <trkpt lat="48.75618" lon="7.32753">
        <ele>421.2</ele>
        <time>2012-08-17T13:14:33Z</time>
      </trkpt>
      <trkpt lat="48.75588" lon="7.32805">
        <ele>426.5</ele>
        <time>2012-08-17T13:15:07Z</time>
      </trkpt>
      <trkpt lat="48.75553" lon="7.32854">
        <ele>429.4</ele>
        <time>2012-08-17T13:15:41Z</time>
      </trkpt>
      <trkpt lat="48.75521" lon="7.32902">
        <ele>430.3</ele>
        <time>2012-08-17T13:16:15Z</time>
      </trkpt>
      <trkpt lat="48.75493" lon="7.32958">
        <ele>429.4</ele>
        <time>2012-08-17T13:16:49Z</time>
      </trkpt>
      <trkpt lat="48.75447" lon="7.32978">
        <ele>429.4</ele>
        <time>2012-08-17T13:17:29Z</time>
      </trkpt>
      <trkpt lat="48.75405" lon="7.33002">
        <ele>429.8</ele>
        <time>2012-08-17T13:18:02Z</time>
      </trkpt>
      <trkpt lat="48.75378" lon="7.33058">
        <ele>440.9</ele>
        <time>2012-08-17T13:18:44Z</time>
      </trkpt>
      <trkpt lat="48.75331" lon="7.33097">
        <ele>437.1</ele>
        <time>2012-08-17T13:19:19Z</time>
      </trkpt>
      <trkpt lat="48.7529" lon="7.33167">
        <ele>442.8</ele>
        <time>2012-08-17T13:20:12Z</time>
      </trkpt>
      <trkpt lat="48.75272" lon="7.33249">
        <ele>452.9</ele>
        <time>2012-08-17T13:20:55Z</time>
      </trkpt>
      <trkpt lat="48.75217" lon="7.3332">
        <ele>449.6</ele>
        <time>2012-08-17T13:22:00Z</time>
      </trkpt>
      <trkpt lat="48.75177" lon="7.3336">
        <ele>429.4</ele>
        <time>2012-08-17T13:22:48Z</time>
      </trkpt>
      <trkpt lat="48.75158" lon="7.33429">
        <ele>424.1</ele>
        <time>2012-08-17T13:23:27Z</time>
      </trkpt>
      <trkpt lat="48.75142" lon="7.33494">
        <ele>415.4</ele>
        <time>2012-08-17T13:24:05Z</time>
      </trkpt>
      <trkpt lat="48.75121" lon="7.3356">
        <ele>411.1</ele>
        <time>2012-08-17T13:24:42Z</time>
      </trkpt>
      <trkpt lat="48.75097" lon="7.33618">
        <ele>410.1</ele>
        <time>2012-08-17T13:25:19Z</time>
      </trkpt>
      <trkpt lat="48.7508" lon="7.33686">
        <ele>400.5</ele>
        <time>2012-08-17T13:25:54Z</time>
      </trkpt>
      <trkpt lat="48.75045" lon="7.33733">
        <ele>390</ele>
        <time>2012-08-17T13:26:40Z</time>
      </trkpt>
      <trkpt lat="48.75" lon="7.3377">
        <ele>377.9</ele>
        <time>2012-08-17T13:27:16Z</time>
      </trkpt>
      <trkpt lat="48.74968" lon="7.33828">
        <ele>378.4</ele>
        <time>2012-08-17T13:27:54Z</time>
      </trkpt>
      <trkpt lat="48.74941" lon="7.3389">
        <ele>377.5</ele>
        <time>2012-08-17T13:28:44Z</time>
      </trkpt>
      <trkpt lat="48.74915" lon="7.33946">
        <ele>355.8</ele>
        <time>2012-08-17T13:29:45Z</time>
      </trkpt>
      <trkpt lat="48.74896" lon="7.34007">
        <ele>343.3</ele>
        <time>2012-08-17T13:30:23Z</time>
      </trkpt>
      <trkpt lat="48.74872" lon="7.34059">
        <ele>327.5</ele>
        <time>2012-08-17T13:31:51Z</time>
      </trkpt>
      <trkpt lat="48.74855" lon="7.34125">
        <ele>322.7</ele>
        <time>2012-08-17T13:32:43Z</time>
      </trkpt>
      <trkpt lat="48.7484" lon="7.34194">
        <ele>325.5</ele>
        <time>2012-08-17T13:33:22Z</time>
      </trkpt>
      <trkpt lat="48.7482" lon="7.34261">
        <ele>329.9</ele>
        <time>2012-08-17T13:34:00Z</time>
      </trkpt>
      <trkpt lat="48.74794" lon="7.34315">
        <ele>330.4</ele>
        <time>2012-08-17T13:34:35Z</time>
      </trkpt>
      <trkpt lat="48.74752" lon="7.34353">
        <ele>333.7</ele>
        <time>2012-08-17T13:35:22Z</time>
      </trkpt>
      <trkpt lat="48.74711" lon="7.34397">
        <ele>330.4</ele>
        <time>2012-08-17T13:36:03Z</time>
      </trkpt>
      <trkpt lat="48.74667" lon="7.34437">
        <ele>336.6</ele>
        <time>2012-08-17T13:36:43Z</time>
      </trkpt>
      <trkpt lat="48.74623" lon="7.3449">
        <ele>348.1</ele>
        <time>2012-08-17T13:37:28Z</time>
      </trkpt>
      <trkpt lat="48.74627" lon="7.3444">
        <ele>338.5</ele>
        <time>2012-08-17T13:38:14Z</time>
      </trkpt>
      <trkpt lat="48.74647" lon="7.34369">
        <ele>318.8</ele>
        <time>2012-08-17T13:38:56Z</time>
      </trkpt>
      <trkpt lat="48.74655" lon="7.34302">
        <ele>295.3</ele>
        <time>2012-08-17T13:39:36Z</time>
      </trkpt>
      <trkpt lat="48.74623" lon="7.34319">
        <ele>298.1</ele>
        <time>2012-08-17T13:40:10Z</time>
      </trkpt>
      <trkpt lat="48.74586" lon="7.34364">
        <ele>316.4</ele>
        <time>2012-08-17T13:40:45Z</time>
      </trkpt>
      <trkpt lat="48.74555" lon="7.34423">
        <ele>356.8</ele>
        <time>2012-08-17T13:41:19Z</time>
      </trkpt>
      <trkpt lat="48.7453" lon="7.34485">
        <ele>367.4</ele>
        <time>2012-08-17T13:41:52Z</time>
      </trkpt>
      <trkpt lat="48.74527" lon="7.34544">
        <ele>324.6</ele>
        <time>2012-08-17T13:42:25Z</time>
      </trkpt>
      <trkpt lat="48.74525" lon="7.34615">
        <ele>290.9</ele>
        <time>2012-08-17T13:42:59Z</time>
      </trkpt>
      <trkpt lat="48.74522" lon="7.34682">
        <ele>265.9</ele>
        <time>2012-08-17T13:43:34Z</time>
      </trkpt>
      <trkpt lat="48.74519" lon="7.34752">
        <ele>258.3</ele>
        <time>2012-08-17T13:44:07Z</time>
      </trkpt>
      <trkpt lat="48.74514" lon="7.3482">
        <ele>249.1</ele>
        <time>2012-08-17T13:44:40Z</time>
      </trkpt>
      <trkpt lat="48.74511" lon="7.34888">
        <ele>218.8</ele>
        <time>2012-08-17T13:45:13Z</time>
      </trkpt>
      <trkpt lat="48.74507" lon="7.34957">
        <ele>215</ele>
        <time>2012-08-17T13:45:45Z</time>
      </trkpt>
      <trkpt lat="48.74503" lon="7.35025">
        <ele>207.3</ele>
        <time>2012-08-17T13:46:24Z</time>
      </trkpt>
      <trkpt lat="48.74514" lon="7.35053">
        <ele>202.5</ele>
        <time>2012-08-17T13:49:50Z</time>
      </trkpt>
      <trkpt lat="48.74538" lon="7.3511">
        <ele>199.6</ele>
        <time>2012-08-17T13:50:33Z</time>
      </trkpt>
      <trkpt lat="48.7456" lon="7.3517">
        <ele>200.1</ele>
        <time>2012-08-17T13:51:07Z</time>
      </trkpt>
      <trkpt lat="48.74588" lon="7.35226">
        <ele>198.6</ele>
        <time>2012-08-17T13:51:41Z</time>
      </trkpt>
      <trkpt lat="48.74606" lon="7.35288">
        <ele>195.3</ele>
        <time>2012-08-17T13:52:13Z</time>
      </trkpt>
      <trkpt lat="48.74599" lon="7.35352">
        <ele>199.6</ele>
        <time>2012-08-17T13:52:45Z</time>
      </trkpt>
      <trkpt lat="48.74583" lon="7.35416">
        <ele>195.3</ele>
        <time>2012-08-17T13:53:18Z</time>
      </trkpt>
      <trkpt lat="48.7457" lon="7.35482">
        <ele>194.3</ele>
        <time>2012-08-17T13:53:50Z</time>
      </trkpt>
      <trkpt lat="48.74559" lon="7.35546">
        <ele>198.6</ele>
        <time>2012-08-17T13:54:24Z</time>
      </trkpt>
      <trkpt lat="48.74512" lon="7.35571">
        <ele>196.7</ele>
        <time>2012-08-17T13:54:58Z</time>
      </trkpt>
      <trkpt lat="48.74471" lon="7.35589">
        <ele>196.2</ele>
        <time>2012-08-17T13:55:31Z</time>
      </trkpt>
      <trkpt lat="48.74428" lon="7.35614">
        <ele>197.2</ele>
        <time>2012-08-17T13:56:04Z</time>
      </trkpt>
      <trkpt lat="48.74391" lon="7.35649">
        <ele>194.8</ele>
        <time>2012-08-17T13:56:36Z</time>
      </trkpt>
      <trkpt lat="48.74365" lon="7.35691">
        <ele>193.4</ele>
        <time>2012-08-17T13:57:26Z</time>
      </trkpt>
      <trkpt lat="48.74365" lon="7.35761">
        <ele>191.9</ele>
        <time>2012-08-17T13:57:59Z</time>
      </trkpt>
      <trkpt lat="48.74364" lon="7.35829">
        <ele>192.4</ele>
        <time>2012-08-17T13:58:32Z</time>
      </trkpt>
      <trkpt lat="48.74366" lon="7.35857">
        <ele>188.1</ele>
        <time>2012-08-17T13:59:19Z</time>
      </trkpt>
      <trkpt lat="48.74468" lon="7.36214">
        <ele>190</ele>
        <time>2012-08-18T06:01:04Z</time>
      </trkpt>
      <trkpt lat="48.74431" lon="7.36164">
        <ele>199.1</ele>
        <time>2012-08-18T06:02:20Z</time>
      </trkpt>
      <trkpt lat="48.74402" lon="7.36112">
        <ele>203.5</ele>
        <time>2012-08-18T06:02:56Z</time>
      </trkpt>
      <trkpt lat="48.74356" lon="7.36077">
        <ele>203.5</ele>
        <time>2012-08-18T06:03:30Z</time>
      </trkpt>
      <trkpt lat="48.74323" lon="7.36032">
        <ele>200.6</ele>
        <time>2012-08-18T06:04:06Z</time>
      </trkpt>
      <trkpt lat="48.74277" lon="7.36015">
        <ele>207.3</ele>
        <time>2012-08-18T06:04:45Z</time>
      </trkpt>
      <trkpt lat="48.74238" lon="7.36057">
        <ele>221.7</ele>
        <time>2012-08-18T06:05:16Z</time>
      </trkpt>
      <trkpt lat="48.74212" lon="7.36113">
        <ele>210.7</ele>
        <time>2012-08-18T06:05:50Z</time>
      </trkpt>
      <trkpt lat="48.74181" lon="7.36097">
        <ele>201.5</ele>
        <time>2012-08-18T06:06:54Z</time>
      </trkpt>
      <trkpt lat="48.74156" lon="7.36044">
        <ele>201.1</ele>
        <time>2012-08-18T06:07:26Z</time>
      </trkpt>
      <trkpt lat="48.7414" lon="7.36018">
        <ele>198.2</ele>
        <time>2012-08-18T06:10:17Z</time>
      </trkpt>
      <trkpt lat="48.74118" lon="7.35976">
        <ele>200.1</ele>
        <time>2012-08-18T06:11:41Z</time>
      </trkpt>
      <trkpt lat="48.74092" lon="7.35918">
        <ele>201.1</ele>
        <time>2012-08-18T06:12:15Z</time>
      </trkpt>
      <trkpt lat="48.74083" lon="7.35854">
        <ele>203.9</ele>
        <time>2012-08-18T06:12:47Z</time>
      </trkpt>
      <trkpt lat="48.74081" lon="7.35794">
        <ele>207.3</ele>
        <time>2012-08-18T06:13:38Z</time>
      </trkpt>
      <trkpt lat="48.74059" lon="7.35841">
        <ele>213.1</ele>
        <time>2012-08-18T06:14:23Z</time>
      </trkpt>
      <trkpt lat="48.74024" lon="7.35885">
        <ele>214</ele>
        <time>2012-08-18T06:17:39Z</time>
      </trkpt>
      <trkpt lat="48.73992" lon="7.35932">
        <ele>217.9</ele>
        <time>2012-08-18T06:18:12Z</time>
      </trkpt>
      <trkpt lat="48.73959" lon="7.35976">
        <ele>219.3</ele>
        <time>2012-08-18T06:18:44Z</time>
      </trkpt>
      <trkpt lat="48.7393" lon="7.36027">
        <ele>221.7</ele>
        <time>2012-08-18T06:19:18Z</time>
      </trkpt>
      <trkpt lat="48.73897" lon="7.36019">
        <ele>225.1</ele>
        <time>2012-08-18T06:20:13Z</time>
      </trkpt>
      <trkpt lat="48.73858" lon="7.35981">
        <ele>227</ele>
        <time>2012-08-18T06:20:46Z</time>
      </trkpt>
      <trkpt lat="48.73824" lon="7.35937">
        <ele>234.2</ele>
        <time>2012-08-18T06:21:20Z</time>
      </trkpt>
      <trkpt lat="48.73794" lon="7.35888">
        <ele>234.7</ele>
        <time>2012-08-18T06:21:53Z</time>
      </trkpt>
      <trkpt lat="48.73783" lon="7.35824">
        <ele>234.7</ele>
        <time>2012-08-18T06:22:26Z</time>
      </trkpt>
      <trkpt lat="48.73764" lon="7.35767">
        <ele>238.5</ele>
        <time>2012-08-18T06:23:13Z</time>
      </trkpt>
      <trkpt lat="48.73727" lon="7.35763">
        <ele>241.4</ele>
        <time>2012-08-18T06:23:56Z</time>
      </trkpt>
      <trkpt lat="48.73692" lon="7.35801">
        <ele>242.4</ele>
        <time>2012-08-18T06:24:30Z</time>
      </trkpt>
      <trkpt lat="48.73655" lon="7.35839">
        <ele>245.8</ele>
        <time>2012-08-18T06:25:03Z</time>
      </trkpt>
      <trkpt lat="48.7361" lon="7.3585">
        <ele>245.8</ele>
        <time>2012-08-18T06:25:40Z</time>
      </trkpt>
      <trkpt lat="48.73569" lon="7.35823">
        <ele>250.1</ele>
        <time>2012-08-18T06:26:14Z</time>
      </trkpt>
      <trkpt lat="48.73535" lon="7.35781">
        <ele>253</ele>
        <time>2012-08-18T06:26:47Z</time>
      </trkpt>
      <trkpt lat="48.7351" lon="7.35725">
        <ele>255.8</ele>
        <time>2012-08-18T06:27:20Z</time>
      </trkpt>
      <trkpt lat="48.73489" lon="7.35667">
        <ele>255.8</ele>
        <time>2012-08-18T06:27:52Z</time>
      </trkpt>
      <trkpt lat="48.73469" lon="7.35608">
        <ele>255.8</ele>
        <time>2012-08-18T06:28:24Z</time>
      </trkpt>
      <trkpt lat="48.7345" lon="7.35547">
        <ele>256.8</ele>
        <time>2012-08-18T06:28:56Z</time>
      </trkpt>
      <trkpt lat="48.73428" lon="7.35488">
        <ele>256.8</ele>
        <time>2012-08-18T06:29:29Z</time>
      </trkpt>
      <trkpt lat="48.73409" lon="7.35427">
        <ele>258.3</ele>
        <time>2012-08-18T06:30:02Z</time>
      </trkpt>
      <trkpt lat="48.7339" lon="7.35365">
        <ele>258.7</ele>
        <time>2012-08-18T06:30:36Z</time>
      </trkpt>
      <trkpt lat="48.73376" lon="7.35302">
        <ele>256.3</ele>
        <time>2012-08-18T06:31:09Z</time>
      </trkpt>
      <trkpt lat="48.73367" lon="7.35236">
        <ele>256.3</ele>
        <time>2012-08-18T06:31:43Z</time>
      </trkpt>
      <trkpt lat="48.73369" lon="7.35167">
        <ele>259.7</ele>
        <time>2012-08-18T06:32:18Z</time>
      </trkpt>
      <trkpt lat="48.73376" lon="7.35101">
        <ele>262.1</ele>
        <time>2012-08-18T06:32:53Z</time>
      </trkpt>
      <trkpt lat="48.73372" lon="7.35036">
        <ele>263.5</ele>
        <time>2012-08-18T06:33:27Z</time>
      </trkpt>
      <trkpt lat="48.73332" lon="7.35003">
        <ele>266.4</ele>
        <time>2012-08-18T06:34:05Z</time>
      </trkpt>
      <trkpt lat="48.73293" lon="7.34971">
        <ele>267.9</ele>
        <time>2012-08-18T06:34:39Z</time>
      </trkpt>
      <trkpt lat="48.73285" lon="7.34932">
        <ele>274.1</ele>
        <time>2012-08-18T06:35:19Z</time>
      </trkpt>
      <trkpt lat="48.7332" lon="7.34888">
        <ele>283.7</ele>
        <time>2012-08-18T06:36:02Z</time>
      </trkpt>
      <trkpt lat="48.73345" lon="7.34817">
        <ele>294.8</ele>
        <time>2012-08-18T06:36:50Z</time>
      </trkpt>
      <trkpt lat="48.73316" lon="7.34762">
        <ele>302</ele>
        <time>2012-08-18T06:37:36Z</time>
      </trkpt>
      <trkpt lat="48.73283" lon="7.34711">
        <ele>304.9</ele>
        <time>2012-08-18T06:38:19Z</time>
      </trkpt>
      <trkpt lat="48.73249" lon="7.34662">
        <ele>311.1</ele>
        <time>2012-08-18T06:39:03Z</time>
      </trkpt>
      <trkpt lat="48.73206" lon="7.34628">
        <ele>319.8</ele>
        <time>2012-08-18T06:39:45Z</time>
      </trkpt>
      <trkpt lat="48.73166" lon="7.34587">
        <ele>324.6</ele>
        <time>2012-08-18T06:40:34Z</time>
      </trkpt>
      <trkpt lat="48.73135" lon="7.34536">
        <ele>332.3</ele>
        <time>2012-08-18T06:41:21Z</time>
      </trkpt>
      <trkpt lat="48.73097" lon="7.34497">
        <ele>343.3</ele>
        <time>2012-08-18T06:42:10Z</time>
      </trkpt>
      <trkpt lat="48.73055" lon="7.34465">
        <ele>350.1</ele>
        <time>2012-08-18T06:42:52Z</time>
      </trkpt>
      <trkpt lat="48.7302" lon="7.34418">
        <ele>359.7</ele>
        <time>2012-08-18T06:43:34Z</time>
      </trkpt>
      <trkpt lat="48.72975" lon="7.34385">
        <ele>369.3</ele>
        <time>2012-08-18T06:44:22Z</time>
      </trkpt>
      <trkpt lat="48.72932" lon="7.34354">
        <ele>370.2</ele>
        <time>2012-08-18T06:45:09Z</time>
      </trkpt>
      <trkpt lat="48.72886" lon="7.34338">
        <ele>377</ele>
        <time>2012-08-18T06:45:59Z</time>
      </trkpt>
      <trkpt lat="48.72847" lon="7.34371">
        <ele>380.8</ele>
        <time>2012-08-18T06:46:44Z</time>
      </trkpt>
      <trkpt lat="48.72798" lon="7.34351">
        <ele>379.9</ele>
        <time>2012-08-18T06:47:27Z</time>
      </trkpt>
      <trkpt lat="48.72786" lon="7.34282">
        <ele>386.1</ele>
        <time>2012-08-18T06:48:13Z</time>
      </trkpt>
      <trkpt lat="48.72763" lon="7.34218">
        <ele>392.4</ele>
        <time>2012-08-18T06:48:56Z</time>
      </trkpt>
      <trkpt lat="48.72739" lon="7.34156">
        <ele>400.5</ele>
        <time>2012-08-18T06:49:42Z</time>
      </trkpt>
      <trkpt lat="48.72716" lon="7.34092">
        <ele>408.7</ele>
        <time>2012-08-18T06:50:27Z</time>
      </trkpt>
      <trkpt lat="48.7269" lon="7.3403">
        <ele>417.3</ele>
        <time>2012-08-18T06:51:13Z</time>
      </trkpt>
      <trkpt lat="48.7267" lon="7.34009">
        <ele>425.5</ele>
        <time>2012-08-18T06:52:12Z</time>
      </trkpt>
      <trkpt lat="48.7265" lon="7.34065">
        <ele>429.4</ele>
        <time>2012-08-18T06:53:59Z</time>
      </trkpt>
      <trkpt lat="48.72602" lon="7.34031">
        <ele>439.5</ele>
        <time>2012-08-18T06:54:45Z</time>
      </trkpt>
      <trkpt lat="48.7256" lon="7.33992">
        <ele>453.9</ele>
        <time>2012-08-18T06:55:30Z</time>
      </trkpt>
      <trkpt lat="48.72566" lon="7.33952">
        <ele>451</ele>
        <time>2012-08-18T06:56:23Z</time>
      </trkpt>
      <trkpt lat="48.72549" lon="7.33886">
        <ele>458.7</ele>
        <time>2012-08-18T06:57:05Z</time>
      </trkpt>
      <trkpt lat="48.72522" lon="7.33828">
        <ele>463</ele>
        <time>2012-08-18T06:57:48Z</time>
      </trkpt>
      <trkpt lat="48.72489" lon="7.33775">
        <ele>457.7</ele>
        <time>2012-08-18T06:58:25Z</time>
      </trkpt>
      <trkpt lat="48.72447" lon="7.33729">
        <ele>457.7</ele>
        <time>2012-08-18T06:59:13Z</time>
      </trkpt>
      <trkpt lat="48.72403" lon="7.3374">
        <ele>464.9</ele>
        <time>2012-08-18T07:01:34Z</time>
      </trkpt>
      <trkpt lat="48.72459" lon="7.33774">
        <ele>472.1</ele>
        <time>2012-08-18T07:02:54Z</time>
      </trkpt>
      <trkpt lat="48.72482" lon="7.33844">
        <ele>456.8</ele>
        <time>2012-08-18T07:04:14Z</time>
      </trkpt>
      <trkpt lat="48.72503" lon="7.33853">
        <ele>450.5</ele>
        <time>2012-08-18T07:05:48Z</time>
      </trkpt>
      <trkpt lat="48.72466" lon="7.33819">
        <ele>454.4</ele>
        <time>2012-08-18T07:06:41Z</time>
      </trkpt>
      <trkpt lat="48.72444" lon="7.33795">
        <ele>464</ele>
        <time>2012-08-18T07:08:25Z</time>
      </trkpt>
      <trkpt lat="48.72418" lon="7.33769">
        <ele>463.5</ele>
        <time>2012-08-18T07:12:52Z</time>
      </trkpt>
      <trkpt lat="48.72381" lon="7.33736">
        <ele>463.5</ele>
        <time>2012-08-18T07:13:38Z</time>
      </trkpt>
      <trkpt lat="48.72407" lon="7.3376">
        <ele>464.9</ele>
        <time>2012-08-18T07:20:06Z</time>
      </trkpt>
      <trkpt lat="48.72445" lon="7.33797">
        <ele>462.5</ele>
        <time>2012-08-18T07:20:56Z</time>
      </trkpt>
      <trkpt lat="48.7247" lon="7.33834">
        <ele>444.7</ele>
        <time>2012-08-18T07:22:25Z</time>
      </trkpt>
      <trkpt lat="48.72459" lon="7.33834">
        <ele>441.4</ele>
        <time>2012-08-18T07:23:13Z</time>
      </trkpt>
      <trkpt lat="48.72444" lon="7.33844">
        <ele>440.4</ele>
        <time>2012-08-18T07:26:00Z</time>
      </trkpt>
      <trkpt lat="48.72413" lon="7.33808">
        <ele>443.3</ele>
        <time>2012-08-18T07:28:13Z</time>
      </trkpt>
      <trkpt lat="48.72375" lon="7.33768">
        <ele>452</ele>
        <time>2012-08-18T07:28:52Z</time>
      </trkpt>
      <trkpt lat="48.72352" lon="7.33714">
        <ele>452.9</ele>
        <time>2012-08-18T07:29:36Z</time>
      </trkpt>
      <trkpt lat="48.72326" lon="7.33693">
        <ele>460.6</ele>
        <time>2012-08-18T07:30:32Z</time>
      </trkpt>
      <trkpt lat="48.72281" lon="7.33663">
        <ele>471.7</ele>
        <time>2012-08-18T07:31:18Z</time>
      </trkpt>
      <trkpt lat="48.72237" lon="7.33632">
        <ele>458.7</ele>
        <time>2012-08-18T07:32:03Z</time>
      </trkpt>
      <trkpt lat="48.7219" lon="7.33613">
        <ele>458.7</ele>
        <time>2012-08-18T07:32:42Z</time>
      </trkpt>
      <trkpt lat="48.72143" lon="7.33585">
        <ele>457.2</ele>
        <time>2012-08-18T07:33:21Z</time>
      </trkpt>
      <trkpt lat="48.7211" lon="7.33531">
        <ele>454.8</ele>
        <time>2012-08-18T07:33:57Z</time>
      </trkpt>
      <trkpt lat="48.72066" lon="7.33513">
        <ele>457.2</ele>
        <time>2012-08-18T07:34:35Z</time>
      </trkpt>
      <trkpt lat="48.72027" lon="7.33473">
        <ele>455.3</ele>
        <time>2012-08-18T07:35:13Z</time>
      </trkpt>
      <trkpt lat="48.7199" lon="7.33439">
        <ele>456.3</ele>
        <time>2012-08-18T07:35:51Z</time>
      </trkpt>
      <trkpt lat="48.71946" lon="7.33426">
        <ele>461.6</ele>
        <time>2012-08-18T07:36:33Z</time>
      </trkpt>
      <trkpt lat="48.71896" lon="7.33411">
        <ele>469.3</ele>
        <time>2012-08-18T07:37:12Z</time>
      </trkpt>
      <trkpt lat="48.71847" lon="7.33395">
        <ele>481.8</ele>
        <time>2012-08-18T07:37:47Z</time>
      </trkpt>
      <trkpt lat="48.71805" lon="7.33357">
        <ele>489.9</ele>
        <time>2012-08-18T07:38:24Z</time>
      </trkpt>
      <trkpt lat="48.71763" lon="7.33325">
        <ele>493.8</ele>
        <time>2012-08-18T07:39:00Z</time>
      </trkpt>
      <trkpt lat="48.71728" lon="7.33273">
        <ele>481.8</ele>
        <time>2012-08-18T07:39:39Z</time>
      </trkpt>
      <trkpt lat="48.71683" lon="7.33244">
        <ele>467.8</ele>
        <time>2012-08-18T07:40:21Z</time>
      </trkpt>
      <trkpt lat="48.71641" lon="7.33211">
        <ele>462.1</ele>
        <time>2012-08-18T07:41:00Z</time>
      </trkpt>
      <trkpt lat="48.716" lon="7.33175">
        <ele>465.9</ele>
        <time>2012-08-18T07:41:38Z</time>
      </trkpt>
      <trkpt lat="48.7155" lon="7.33146">
        <ele>466.9</ele>
        <time>2012-08-18T07:42:19Z</time>
      </trkpt>
      <trkpt lat="48.71499" lon="7.33123">
        <ele>463</ele>
        <time>2012-08-18T07:43:02Z</time>
      </trkpt>
      <trkpt lat="48.71446" lon="7.33122">
        <ele>464</ele>
        <time>2012-08-18T07:44:03Z</time>
      </trkpt>
      <trkpt lat="48.71397" lon="7.33126">
        <ele>461.1</ele>
        <time>2012-08-18T07:44:41Z</time>
      </trkpt>
      <trkpt lat="48.71346" lon="7.33132">
        <ele>457.7</ele>
        <time>2012-08-18T07:45:23Z</time>
      </trkpt>
      <trkpt lat="48.71297" lon="7.33149">
        <ele>454.8</ele>
        <time>2012-08-18T07:46:03Z</time>
      </trkpt>
      <trkpt lat="48.71247" lon="7.33135">
        <ele>455.3</ele>
        <time>2012-08-18T07:46:43Z</time>
      </trkpt>
      <trkpt lat="48.71202" lon="7.33163">
        <ele>446.7</ele>
        <time>2012-08-18T07:47:24Z</time>
      </trkpt>
      <trkpt lat="48.71156" lon="7.33165">
        <ele>444.7</ele>
        <time>2012-08-18T07:47:59Z</time>
      </trkpt>
      <trkpt lat="48.71128" lon="7.33113">
        <ele>443.8</ele>
        <time>2012-08-18T07:48:51Z</time>
      </trkpt>
      <trkpt lat="48.711" lon="7.3306">
        <ele>455.3</ele>
        <time>2012-08-18T07:49:32Z</time>
      </trkpt>
      <trkpt lat="48.7107" lon="7.32999">
        <ele>459.2</ele>
        <time>2012-08-18T07:50:11Z</time>
      </trkpt>
      <trkpt lat="48.71039" lon="7.32943">
        <ele>457.7</ele>
        <time>2012-08-18T07:50:49Z</time>
      </trkpt>
      <trkpt lat="48.71004" lon="7.32904">
        <ele>460.1</ele>
        <time>2012-08-18T07:51:28Z</time>
      </trkpt>
      <trkpt lat="48.70962" lon="7.32878">
        <ele>467.3</ele>
        <time>2012-08-18T07:52:16Z</time>
      </trkpt>
      <trkpt lat="48.70916" lon="7.32862">
        <ele>472.1</ele>
        <time>2012-08-18T07:52:58Z</time>
      </trkpt>
      <trkpt lat="48.70866" lon="7.32839">
        <ele>477</ele>
        <time>2012-08-18T07:53:49Z</time>
      </trkpt>
      <trkpt lat="48.7082" lon="7.32832">
        <ele>481.8</ele>
        <time>2012-08-18T07:54:46Z</time>
      </trkpt>
      <trkpt lat="48.70777" lon="7.32824">
        <ele>495.2</ele>
        <time>2012-08-18T07:55:37Z</time>
      </trkpt>
      <trkpt lat="48.70737" lon="7.32794">
        <ele>510.1</ele>
        <time>2012-08-18T07:56:30Z</time>
      </trkpt>
      <trkpt lat="48.70732" lon="7.32767">
        <ele>521.7</ele>
        <time>2012-08-18T07:57:17Z</time>
      </trkpt>
      <trkpt lat="48.70727" lon="7.32722">
        <ele>532.7</ele>
        <time>2012-08-18T07:58:11Z</time>
      </trkpt>
      <trkpt lat="48.70723" lon="7.32644">
        <ele>546.2</ele>
        <time>2012-08-18T07:59:09Z</time>
      </trkpt>
      <trkpt lat="48.70706" lon="7.32587">
        <ele>557.7</ele>
        <time>2012-08-18T08:00:25Z</time>
      </trkpt>
      <trkpt lat="48.70691" lon="7.32528">
        <ele>554.3</ele>
        <time>2012-08-18T08:12:56Z</time>
      </trkpt>
      <trkpt lat="48.70651" lon="7.32555">
        <ele>555.3</ele>
        <time>2012-08-18T08:13:42Z</time>
      </trkpt>
      <trkpt lat="48.70598" lon="7.32565">
        <ele>556.3</ele>
        <time>2012-08-18T08:14:22Z</time>
      </trkpt>
      <trkpt lat="48.70555" lon="7.32586">
        <ele>557.2</ele>
        <time>2012-08-18T08:15:06Z</time>
      </trkpt>
      <trkpt lat="48.7051" lon="7.32641">
        <ele>552.4</ele>
        <time>2012-08-18T08:16:02Z</time>
      </trkpt>
      <trkpt lat="48.70453" lon="7.32686">
        <ele>544.7</ele>
        <time>2012-08-18T08:16:47Z</time>
      </trkpt>
      <trkpt lat="48.70408" lon="7.3267">
        <ele>539</ele>
        <time>2012-08-18T08:17:29Z</time>
      </trkpt>
      <trkpt lat="48.70359" lon="7.32643">
        <ele>541.4</ele>
        <time>2012-08-18T08:18:06Z</time>
      </trkpt>
      <trkpt lat="48.70313" lon="7.32629">
        <ele>542.8</ele>
        <time>2012-08-18T08:18:44Z</time>
      </trkpt>
      <trkpt lat="48.70291" lon="7.32598">
        <ele>535.1</ele>
        <time>2012-08-18T08:19:30Z</time>
      </trkpt>
      <trkpt lat="48.7033" lon="7.32555">
        <ele>542.3</ele>
        <time>2012-08-18T08:20:10Z</time>
      </trkpt>
      <trkpt lat="48.70329" lon="7.32538">
        <ele>551</ele>
        <time>2012-08-18T08:20:53Z</time>
      </trkpt>
      <trkpt lat="48.70269" lon="7.32552">
        <ele>525.5</ele>
        <time>2012-08-18T08:22:13Z</time>
      </trkpt>
      <trkpt lat="48.70227" lon="7.32612">
        <ele>511.6</ele>
        <time>2012-08-18T08:23:15Z</time>
      </trkpt>
      <trkpt lat="48.70172" lon="7.32644">
        <ele>505.8</ele>
        <time>2012-08-18T08:24:17Z</time>
      </trkpt>
      <trkpt lat="48.7012" lon="7.32742">
        <ele>500</ele>
        <time>2012-08-18T08:25:46Z</time>
      </trkpt>
      <trkpt lat="48.70103" lon="7.32786">
        <ele>468.8</ele>
        <time>2012-08-18T08:26:41Z</time>
      </trkpt>
      <trkpt lat="48.70049" lon="7.32768">
        <ele>464.5</ele>
        <time>2012-08-18T08:27:29Z</time>
      </trkpt>
      <trkpt lat="48.69981" lon="7.32785">
        <ele>457.2</ele>
        <time>2012-08-18T08:30:23Z</time>
      </trkpt>
      <trkpt lat="48.69927" lon="7.32779">
        <ele>453.9</ele>
        <time>2012-08-18T08:31:15Z</time>
      </trkpt>
      <trkpt lat="48.69869" lon="7.32769">
        <ele>446.7</ele>
        <time>2012-08-18T08:32:08Z</time>
      </trkpt>
      <trkpt lat="48.69812" lon="7.32735">
        <ele>442.8</ele>
        <time>2012-08-18T08:32:56Z</time>
      </trkpt>
      <trkpt lat="48.69763" lon="7.32742">
        <ele>431.3</ele>
        <time>2012-08-18T08:33:43Z</time>
      </trkpt>
      <trkpt lat="48.69722" lon="7.32736">
        <ele>419.3</ele>
        <time>2012-08-18T08:34:53Z</time>
      </trkpt>
      <trkpt lat="48.69693" lon="7.32691">
        <ele>410.1</ele>
        <time>2012-08-18T08:35:35Z</time>
      </trkpt>
      <trkpt lat="48.6966" lon="7.32652">
        <ele>402.9</ele>
        <time>2012-08-18T08:36:12Z</time>
      </trkpt>
      <trkpt lat="48.69619" lon="7.32646">
        <ele>397.2</ele>
        <time>2012-08-18T08:36:48Z</time>
      </trkpt>
      <trkpt lat="48.69582" lon="7.32658">
        <ele>391.9</ele>
        <time>2012-08-18T08:39:07Z</time>
      </trkpt>
      <trkpt lat="48.6954" lon="7.32651">
        <ele>395.7</ele>
        <time>2012-08-18T08:39:45Z</time>
      </trkpt>
      <trkpt lat="48.69495" lon="7.32633">
        <ele>407.3</ele>
        <time>2012-08-18T08:40:30Z</time>
      </trkpt>
      <trkpt lat="48.69442" lon="7.32623">
        <ele>421.7</ele>
        <time>2012-08-18T08:41:26Z</time>
      </trkpt>
      <trkpt lat="48.69386" lon="7.32619">
        <ele>427</ele>
        <time>2012-08-18T08:42:12Z</time>
      </trkpt>
      <trkpt lat="48.69311" lon="7.32591">
        <ele>441.9</ele>
        <time>2012-08-18T08:43:22Z</time>
      </trkpt>
      <trkpt lat="48.69264" lon="7.32546">
        <ele>444.7</ele>
        <time>2012-08-18T08:44:07Z</time>
      </trkpt>
      <trkpt lat="48.69222" lon="7.32495">
        <ele>441.9</ele>
        <time>2012-08-18T08:44:48Z</time>
      </trkpt>
      <trkpt lat="48.69191" lon="7.32439">
        <ele>440.4</ele>
        <time>2012-08-18T08:45:28Z</time>
      </trkpt>
      <trkpt lat="48.69155" lon="7.32394">
        <ele>442.3</ele>
        <time>2012-08-18T08:46:13Z</time>
      </trkpt>
      <trkpt lat="48.69109" lon="7.32335">
        <ele>454.4</ele>
        <time>2012-08-18T08:47:09Z</time>
      </trkpt>
      <trkpt lat="48.69061" lon="7.32284">
        <ele>459.6</ele>
        <time>2012-08-18T08:47:56Z</time>
      </trkpt>
      <trkpt lat="48.69022" lon="7.32243">
        <ele>457.7</ele>
        <time>2012-08-18T08:48:40Z</time>
      </trkpt>
      <trkpt lat="48.68973" lon="7.32211">
        <ele>461.1</ele>
        <time>2012-08-18T08:49:24Z</time>
      </trkpt>
      <trkpt lat="48.68926" lon="7.32167">
        <ele>464</ele>
        <time>2012-08-18T08:50:07Z</time>
      </trkpt>
      <trkpt lat="48.68893" lon="7.32117">
        <ele>466.9</ele>
        <time>2012-08-18T08:50:48Z</time>
      </trkpt>
      <trkpt lat="48.68848" lon="7.32065">
        <ele>467.3</ele>
        <time>2012-08-18T08:51:38Z</time>
      </trkpt>
      <trkpt lat="48.68813" lon="7.32009">
        <ele>465.4</ele>
        <time>2012-08-18T08:52:22Z</time>
      </trkpt>
      <trkpt lat="48.68782" lon="7.31949">
        <ele>465.9</ele>
        <time>2012-08-18T08:53:08Z</time>
      </trkpt>
      <trkpt lat="48.68753" lon="7.31891">
        <ele>469.7</ele>
        <time>2012-08-18T08:53:51Z</time>
      </trkpt>
      <trkpt lat="48.68721" lon="7.31833">
        <ele>476</ele>
        <time>2012-08-18T08:54:35Z</time>
      </trkpt>
      <trkpt lat="48.6869" lon="7.31769">
        <ele>472.6</ele>
        <time>2012-08-18T08:55:13Z</time>
      </trkpt>
      <trkpt lat="48.6867" lon="7.31706">
        <ele>475</ele>
        <time>2012-08-18T08:55:49Z</time>
      </trkpt>
      <trkpt lat="48.68648" lon="7.31653">
        <ele>474.5</ele>
        <time>2012-08-18T08:56:32Z</time>
      </trkpt>
      <trkpt lat="48.68618" lon="7.31582">
        <ele>486.1</ele>
        <time>2012-08-18T08:57:21Z</time>
      </trkpt>
      <trkpt lat="48.68575" lon="7.31547">
        <ele>485.6</ele>
        <time>2012-08-18T08:58:13Z</time>
      </trkpt>
      <trkpt lat="48.68526" lon="7.31529">
        <ele>485.6</ele>
        <time>2012-08-18T08:58:58Z</time>
      </trkpt>
      <trkpt lat="48.68479" lon="7.31517">
        <ele>489.4</ele>
        <time>2012-08-18T08:59:44Z</time>
      </trkpt>
      <trkpt lat="48.68433" lon="7.31486">
        <ele>500.5</ele>
        <time>2012-08-18T09:00:30Z</time>
      </trkpt>
      <trkpt lat="48.68382" lon="7.31444">
        <ele>508.2</ele>
        <time>2012-08-18T09:01:19Z</time>
      </trkpt>
      <trkpt lat="48.68335" lon="7.31403">
        <ele>508.7</ele>
        <time>2012-08-18T09:02:06Z</time>
      </trkpt>
      <trkpt lat="48.68292" lon="7.31359">
        <ele>505.3</ele>
        <time>2012-08-18T09:02:56Z</time>
      </trkpt>
      <trkpt lat="48.68248" lon="7.31322">
        <ele>496.2</ele>
        <time>2012-08-18T09:03:35Z</time>
      </trkpt>
      <trkpt lat="48.68219" lon="7.31267">
        <ele>495.2</ele>
        <time>2012-08-18T09:04:16Z</time>
      </trkpt>
      <trkpt lat="48.6819" lon="7.31213">
        <ele>492.3</ele>
        <time>2012-08-18T09:04:57Z</time>
      </trkpt>
      <trkpt lat="48.68159" lon="7.31166">
        <ele>494.3</ele>
        <time>2012-08-18T09:05:36Z</time>
      </trkpt>
      <trkpt lat="48.68124" lon="7.31126">
        <ele>498.6</ele>
        <time>2012-08-18T09:07:01Z</time>
      </trkpt>
      <trkpt lat="48.6808" lon="7.31091">
        <ele>501.9</ele>
        <time>2012-08-18T09:07:43Z</time>
      </trkpt>
      <trkpt lat="48.68047" lon="7.3103">
        <ele>514.4</ele>
        <time>2012-08-18T09:08:25Z</time>
      </trkpt>
      <trkpt lat="48.68039" lon="7.30963">
        <ele>513.5</ele>
        <time>2012-08-18T09:09:03Z</time>
      </trkpt>
      <trkpt lat="48.68054" lon="7.30885">
        <ele>515.4</ele>
        <time>2012-08-18T09:09:55Z</time>
      </trkpt>
      <trkpt lat="48.68069" lon="7.30809">
        <ele>509.6</ele>
        <time>2012-08-18T09:10:37Z</time>
      </trkpt>
      <trkpt lat="48.68071" lon="7.30728">
        <ele>514.4</ele>
        <time>2012-08-18T09:11:17Z</time>
      </trkpt>
      <trkpt lat="48.68064" lon="7.30655">
        <ele>518.8</ele>
        <time>2012-08-18T09:11:55Z</time>
      </trkpt>
      <trkpt lat="48.68048" lon="7.30586">
        <ele>525.5</ele>
        <time>2012-08-18T09:12:37Z</time>
      </trkpt>
      <trkpt lat="48.68024" lon="7.30515">
        <ele>526.5</ele>
        <time>2012-08-18T09:13:18Z</time>
      </trkpt>
      <trkpt lat="48.67997" lon="7.30449">
        <ele>530.8</ele>
        <time>2012-08-18T09:13:58Z</time>
      </trkpt>
      <trkpt lat="48.67964" lon="7.30383">
        <ele>529.3</ele>
        <time>2012-08-18T09:14:42Z</time>
      </trkpt>
      <trkpt lat="48.67935" lon="7.30319">
        <ele>523.6</ele>
        <time>2012-08-18T09:15:25Z</time>
      </trkpt>
      <trkpt lat="48.67906" lon="7.30261">
        <ele>521.2</ele>
        <time>2012-08-18T09:16:06Z</time>
      </trkpt>
      <trkpt lat="48.67873" lon="7.30202">
        <ele>523.1</ele>
        <time>2012-08-18T09:16:47Z</time>
      </trkpt>
      <trkpt lat="48.67848" lon="7.30138">
        <ele>523.1</ele>
        <time>2012-08-18T09:17:30Z</time>
      </trkpt>
      <trkpt lat="48.67821" lon="7.30078">
        <ele>505.8</ele>
        <time>2012-08-18T09:20:22Z</time>
      </trkpt>
      <trkpt lat="48.67804" lon="7.30018">
        <ele>504.8</ele>
        <time>2012-08-18T09:20:55Z</time>
      </trkpt>
      <trkpt lat="48.67802" lon="7.30038">
        <ele>501.9</ele>
        <time>2012-08-18T09:21:47Z</time>
      </trkpt>
      <trkpt lat="48.67796" lon="7.29977">
        <ele>514.4</ele>
        <time>2012-08-18T09:22:25Z</time>
      </trkpt>
      <trkpt lat="48.67764" lon="7.29919">
        <ele>517.3</ele>
        <time>2012-08-18T09:23:05Z</time>
      </trkpt>
      <trkpt lat="48.67734" lon="7.29864">
        <ele>540.9</ele>
        <time>2012-08-18T09:23:53Z</time>
      </trkpt>
      <trkpt lat="48.67705" lon="7.29788">
        <ele>567.3</ele>
        <time>2012-08-18T09:24:44Z</time>
      </trkpt>
      <trkpt lat="48.67703" lon="7.29712">
        <ele>591.8</ele>
        <time>2012-08-18T09:25:27Z</time>
      </trkpt>
      <trkpt lat="48.67729" lon="7.2965">
        <ele>609.6</ele>
        <time>2012-08-18T09:26:04Z</time>
      </trkpt>
      <trkpt lat="48.67735" lon="7.29587">
        <ele>575</ele>
        <time>2012-08-18T09:26:38Z</time>
      </trkpt>
      <trkpt lat="48.67729" lon="7.29505">
        <ele>542.3</ele>
        <time>2012-08-18T09:27:15Z</time>
      </trkpt>
      <trkpt lat="48.67724" lon="7.29419">
        <ele>513.5</ele>
        <time>2012-08-18T09:29:41Z</time>
      </trkpt>
      <trkpt lat="48.67743" lon="7.29356">
        <ele>519.7</ele>
        <time>2012-08-18T09:30:30Z</time>
      </trkpt>
      <trkpt lat="48.67759" lon="7.29299">
        <ele>520.7</ele>
        <time>2012-08-18T09:31:14Z</time>
      </trkpt>
      <trkpt lat="48.67782" lon="7.29228">
        <ele>526.9</ele>
        <time>2012-08-18T09:32:16Z</time>
      </trkpt>
      <trkpt lat="48.67765" lon="7.29161">
        <ele>534.1</ele>
        <time>2012-08-18T09:33:02Z</time>
      </trkpt>
      <trkpt lat="48.67725" lon="7.29125">
        <ele>538</ele>
        <time>2012-08-18T09:33:42Z</time>
      </trkpt>
      <trkpt lat="48.67673" lon="7.29095">
        <ele>541.4</ele>
        <time>2012-08-18T09:34:33Z</time>
      </trkpt>
      <trkpt lat="48.67618" lon="7.29086">
        <ele>545.2</ele>
        <time>2012-08-18T09:35:19Z</time>
      </trkpt>
      <trkpt lat="48.67562" lon="7.29091">
        <ele>545.2</ele>
        <time>2012-08-18T09:36:06Z</time>
      </trkpt>
      <trkpt lat="48.67498" lon="7.29093">
        <ele>548.1</ele>
        <time>2012-08-18T09:37:00Z</time>
      </trkpt>
      <trkpt lat="48.67423" lon="7.29047">
        <ele>544.7</ele>
        <time>2012-08-18T09:37:58Z</time>
      </trkpt>
      <trkpt lat="48.67388" lon="7.2899">
        <ele>536.6</ele>
        <time>2012-08-18T09:38:39Z</time>
      </trkpt>
      <trkpt lat="48.67357" lon="7.28928">
        <ele>527.4</ele>
        <time>2012-08-18T09:42:40Z</time>
      </trkpt>
      <trkpt lat="48.67331" lon="7.28877">
        <ele>520.7</ele>
        <time>2012-08-18T09:43:58Z</time>
      </trkpt>
      <trkpt lat="48.67287" lon="7.28856">
        <ele>521.2</ele>
        <time>2012-08-18T09:44:47Z</time>
      </trkpt>
      <trkpt lat="48.67239" lon="7.28825">
        <ele>528.4</ele>
        <time>2012-08-18T09:45:32Z</time>
      </trkpt>
      <trkpt lat="48.67171" lon="7.28799">
        <ele>535.1</ele>
        <time>2012-08-18T09:46:34Z</time>
      </trkpt>
      <trkpt lat="48.67095" lon="7.28768">
        <ele>534.1</ele>
        <time>2012-08-18T09:47:42Z</time>
      </trkpt>
      <trkpt lat="48.67022" lon="7.28753">
        <ele>520.7</ele>
        <time>2012-08-18T09:48:43Z</time>
      </trkpt>
      <trkpt lat="48.66965" lon="7.2875">
        <ele>524.1</ele>
        <time>2012-08-18T09:49:29Z</time>
      </trkpt>
      <trkpt lat="48.66897" lon="7.28689">
        <ele>523.1</ele>
        <time>2012-08-18T09:50:39Z</time>
      </trkpt>
      <trkpt lat="48.6685" lon="7.28581">
        <ele>526</ele>
        <time>2012-08-18T09:52:03Z</time>
      </trkpt>
      <trkpt lat="48.66816" lon="7.28507">
        <ele>535.1</ele>
        <time>2012-08-18T09:52:56Z</time>
      </trkpt>
      <trkpt lat="48.6677" lon="7.28464">
        <ele>541.8</ele>
        <time>2012-08-18T09:53:46Z</time>
      </trkpt>
      <trkpt lat="48.66719" lon="7.28436">
        <ele>543.3</ele>
        <time>2012-08-18T09:54:38Z</time>
      </trkpt>
      <trkpt lat="48.66665" lon="7.28408">
        <ele>547.6</ele>
        <time>2012-08-18T09:55:26Z</time>
      </trkpt>
      <trkpt lat="48.66611" lon="7.28389">
        <ele>549.5</ele>
        <time>2012-08-18T09:56:16Z</time>
      </trkpt>
      <trkpt lat="48.66558" lon="7.28364">
        <ele>551.5</ele>
        <time>2012-08-18T09:57:01Z</time>
      </trkpt>
      <trkpt lat="48.66507" lon="7.2834">
        <ele>552.9</ele>
        <time>2012-08-18T09:58:01Z</time>
      </trkpt>
      <trkpt lat="48.66514" lon="7.28335">
        <ele>558.7</ele>
        <time>2012-08-18T10:01:36Z</time>
      </trkpt>
      <trkpt lat="48.66555" lon="7.28356">
        <ele>563.5</ele>
        <time>2012-08-18T10:02:13Z</time>
      </trkpt>
      <trkpt lat="48.66583" lon="7.28377">
        <ele>548.1</ele>
        <time>2012-08-18T10:06:21Z</time>
      </trkpt>
      <trkpt lat="48.6658" lon="7.28323">
        <ele>538.5</ele>
        <time>2012-08-18T10:07:10Z</time>
      </trkpt>
      <trkpt lat="48.66561" lon="7.28265">
        <ele>531.3</ele>
        <time>2012-08-18T10:07:56Z</time>
      </trkpt>
      <trkpt lat="48.66524" lon="7.28213">
        <ele>535.6</ele>
        <time>2012-08-18T10:08:41Z</time>
      </trkpt>
      <trkpt lat="48.66491" lon="7.2815">
        <ele>536.1</ele>
        <time>2012-08-18T10:09:29Z</time>
      </trkpt>
      <trkpt lat="48.66463" lon="7.28072">
        <ele>538.5</ele>
        <time>2012-08-18T10:10:12Z</time>
      </trkpt>
      <trkpt lat="48.66434" lon="7.28005">
        <ele>534.6</ele>
        <time>2012-08-18T10:10:56Z</time>
      </trkpt>
      <trkpt lat="48.66393" lon="7.27945">
        <ele>539.9</ele>
        <time>2012-08-18T10:11:40Z</time>
      </trkpt>
      <trkpt lat="48.66359" lon="7.27884">
        <ele>540.4</ele>
        <time>2012-08-18T10:12:18Z</time>
      </trkpt>
      <trkpt lat="48.66308" lon="7.27882">
        <ele>539.4</ele>
        <time>2012-08-18T10:13:09Z</time>
      </trkpt>
      <trkpt lat="48.66229" lon="7.27918">
        <ele>558.2</ele>
        <time>2012-08-18T10:14:17Z</time>
      </trkpt>
      <trkpt lat="48.66142" lon="7.2793">
        <ele>567.3</ele>
        <time>2012-08-18T10:15:10Z</time>
      </trkpt>
      <trkpt lat="48.66091" lon="7.27962">
        <ele>559.6</ele>
        <time>2012-08-18T10:15:52Z</time>
      </trkpt>
      <trkpt lat="48.66053" lon="7.27913">
        <ele>542.8</ele>
        <time>2012-08-18T10:16:44Z</time>
      </trkpt>
      <trkpt lat="48.65981" lon="7.27845">
        <ele>523.6</ele>
        <time>2012-08-18T10:17:54Z</time>
      </trkpt>
      <trkpt lat="48.65928" lon="7.27804">
        <ele>531.3</ele>
        <time>2012-08-18T10:18:37Z</time>
      </trkpt>
      <trkpt lat="48.65893" lon="7.27731">
        <ele>525.5</ele>
        <time>2012-08-18T10:19:30Z</time>
      </trkpt>
      <trkpt lat="48.65875" lon="7.27659">
        <ele>519.7</ele>
        <time>2012-08-18T10:20:12Z</time>
      </trkpt>
      <trkpt lat="48.65897" lon="7.27598">
        <ele>510.1</ele>
        <time>2012-08-18T10:21:01Z</time>
      </trkpt>
      <trkpt lat="48.65926" lon="7.27539">
        <ele>514.4</ele>
        <time>2012-08-18T10:21:54Z</time>
      </trkpt>
      <trkpt lat="48.65903" lon="7.27485">
        <ele>505.8</ele>
        <time>2012-08-18T10:23:22Z</time>
      </trkpt>
      <trkpt lat="48.65836" lon="7.27461">
        <ele>519.2</ele>
        <time>2012-08-18T10:24:15Z</time>
      </trkpt>
      <trkpt lat="48.6576" lon="7.27471">
        <ele>495.2</ele>
        <time>2012-08-18T10:25:45Z</time>
      </trkpt>
      <trkpt lat="48.6572" lon="7.27542">
        <ele>509.6</ele>
        <time>2012-08-18T10:27:11Z</time>
      </trkpt>
      <trkpt lat="48.65704" lon="7.27479">
        <ele>482.7</ele>
        <time>2012-08-18T10:28:47Z</time>
      </trkpt>
      <trkpt lat="48.65687" lon="7.27412">
        <ele>484.2</ele>
        <time>2012-08-18T10:29:43Z</time>
      </trkpt>
      <trkpt lat="48.65664" lon="7.2734">
        <ele>487.5</ele>
        <time>2012-08-18T10:30:42Z</time>
      </trkpt>
      <trkpt lat="48.65608" lon="7.27276">
        <ele>502.4</ele>
        <time>2012-08-18T10:32:04Z</time>
      </trkpt>
      <trkpt lat="48.65543" lon="7.27242">
        <ele>516.4</ele>
        <time>2012-08-18T10:33:11Z</time>
      </trkpt>
      <trkpt lat="48.65491" lon="7.2723">
        <ele>527.4</ele>
        <time>2012-08-18T10:34:37Z</time>
      </trkpt>
      <trkpt lat="48.65454" lon="7.27194">
        <ele>536.1</ele>
        <time>2012-08-18T10:35:26Z</time>
      </trkpt>
      <trkpt lat="48.65422" lon="7.27156">
        <ele>546.6</ele>
        <time>2012-08-18T10:36:41Z</time>
      </trkpt>
      <trkpt lat="48.65403" lon="7.27141">
        <ele>551.9</ele>
        <time>2012-08-18T10:40:04Z</time>
      </trkpt>
      <trkpt lat="48.65417" lon="7.27101">
        <ele>548.6</ele>
        <time>2012-08-18T10:41:32Z</time>
      </trkpt>
      <trkpt lat="48.65445" lon="7.27049">
        <ele>546.6</ele>
        <time>2012-08-18T10:42:07Z</time>
      </trkpt>
      <trkpt lat="48.65439" lon="7.27001">
        <ele>555.3</ele>
        <time>2012-08-18T10:42:49Z</time>
      </trkpt>
      <trkpt lat="48.65433" lon="7.26944">
        <ele>558.7</ele>
        <time>2012-08-18T10:43:42Z</time>
      </trkpt>
      <trkpt lat="48.65468" lon="7.26903">
        <ele>561.5</ele>
        <time>2012-08-18T10:44:22Z</time>
      </trkpt>
      <trkpt lat="48.65482" lon="7.26861">
        <ele>560.1</ele>
        <time>2012-08-18T10:45:18Z</time>
      </trkpt>
      <trkpt lat="48.65487" lon="7.26867">
        <ele>557.7</ele>
        <time>2012-08-18T10:46:08Z</time>
      </trkpt>
      <trkpt lat="48.65481" lon="7.26872">
        <ele>566.8</ele>
        <time>2012-08-18T11:26:49Z</time>
      </trkpt>
      <trkpt lat="48.65482" lon="7.26869">
        <ele>563.5</ele>
        <time>2012-08-18T11:27:27Z</time>
      </trkpt>
      <trkpt lat="48.65551" lon="7.26849">
        <ele>611.5</ele>
        <time>2012-08-18T12:19:04Z</time>
      </trkpt>
      <trkpt lat="48.65452" lon="7.26922">
        <ele>560.1</ele>
        <time>2012-08-18T12:20:38Z</time>
      </trkpt>
      <trkpt lat="48.65416" lon="7.26958">
        <ele>566.4</ele>
        <time>2012-08-18T12:22:46Z</time>
      </trkpt>
      <trkpt lat="48.65377" lon="7.26989">
        <ele>569.2</ele>
        <time>2012-08-18T12:23:28Z</time>
      </trkpt>
      <trkpt lat="48.65342" lon="7.27024">
        <ele>574.5</ele>
        <time>2012-08-18T12:24:01Z</time>
      </trkpt>
      <trkpt lat="48.65304" lon="7.27065">
        <ele>576.4</ele>
        <time>2012-08-18T12:24:35Z</time>
      </trkpt>
      <trkpt lat="48.65269" lon="7.27106">
        <ele>579.8</ele>
        <time>2012-08-18T12:25:08Z</time>
      </trkpt>
      <trkpt lat="48.65235" lon="7.27146">
        <ele>581.7</ele>
        <time>2012-08-18T12:25:42Z</time>
      </trkpt>
      <trkpt lat="48.652" lon="7.27186">
        <ele>584.6</ele>
        <time>2012-08-18T12:26:17Z</time>
      </trkpt>
      <trkpt lat="48.65164" lon="7.27223">
        <ele>590.4</ele>
        <time>2012-08-18T12:26:52Z</time>
      </trkpt>
      <trkpt lat="48.65129" lon="7.27266">
        <ele>595.7</ele>
        <time>2012-08-18T12:27:29Z</time>
      </trkpt>
      <trkpt lat="48.65095" lon="7.27305">
        <ele>600.5</ele>
        <time>2012-08-18T12:28:06Z</time>
      </trkpt>
      <trkpt lat="48.65063" lon="7.27351">
        <ele>605.3</ele>
        <time>2012-08-18T12:28:42Z</time>
      </trkpt>
      <trkpt lat="48.65037" lon="7.27403">
        <ele>608.7</ele>
        <time>2012-08-18T12:29:15Z</time>
      </trkpt>
      <trkpt lat="48.65011" lon="7.27458">
        <ele>612.5</ele>
        <time>2012-08-18T12:29:48Z</time>
      </trkpt>
      <trkpt lat="48.64983" lon="7.2751">
        <ele>613</ele>
        <time>2012-08-18T12:30:22Z</time>
      </trkpt>
      <trkpt lat="48.64942" lon="7.27548">
        <ele>611.5</ele>
        <time>2012-08-18T12:30:55Z</time>
      </trkpt>
      <trkpt lat="48.64896" lon="7.27563">
        <ele>612</ele>
        <time>2012-08-18T12:31:27Z</time>
      </trkpt>
      <trkpt lat="48.64851" lon="7.27568">
        <ele>614.4</ele>
        <time>2012-08-18T12:32:00Z</time>
      </trkpt>
      <trkpt lat="48.64807" lon="7.27572">
        <ele>614.4</ele>
        <time>2012-08-18T12:32:31Z</time>
      </trkpt>
      <trkpt lat="48.64764" lon="7.27585">
        <ele>616.3</ele>
        <time>2012-08-18T12:33:03Z</time>
      </trkpt>
      <trkpt lat="48.6472" lon="7.276">
        <ele>619.2</ele>
        <time>2012-08-18T12:33:36Z</time>
      </trkpt>
      <trkpt lat="48.64676" lon="7.27601">
        <ele>623.6</ele>
        <time>2012-08-18T12:34:10Z</time>
      </trkpt>
      <trkpt lat="48.64631" lon="7.27623">
        <ele>628.4</ele>
        <time>2012-08-18T12:34:45Z</time>
      </trkpt>
      <trkpt lat="48.64603" lon="7.27604">
        <ele>628.8</ele>
        <time>2012-08-18T12:35:39Z</time>
      </trkpt>
      <trkpt lat="48.64589" lon="7.2754">
        <ele>623.1</ele>
        <time>2012-08-18T12:36:13Z</time>
      </trkpt>
      <trkpt lat="48.64549" lon="7.27526">
        <ele>630.3</ele>
        <time>2012-08-18T12:37:10Z</time>
      </trkpt>
      <trkpt lat="48.64438" lon="7.27543">
        <ele>641.3</ele>
        <time>2012-08-18T12:38:52Z</time>
      </trkpt>
      <trkpt lat="48.64393" lon="7.27577">
        <ele>651.4</ele>
        <time>2012-08-18T12:39:37Z</time>
      </trkpt>
      <trkpt lat="48.64344" lon="7.27618">
        <ele>657.2</ele>
        <time>2012-08-18T12:40:23Z</time>
      </trkpt>
      <trkpt lat="48.64303" lon="7.27664">
        <ele>660.6</ele>
        <time>2012-08-18T12:41:03Z</time>
      </trkpt>
      <trkpt lat="48.64262" lon="7.27721">
        <ele>666.8</ele>
        <time>2012-08-18T12:41:49Z</time>
      </trkpt>
      <trkpt lat="48.64212" lon="7.27773">
        <ele>671.6</ele>
        <time>2012-08-18T12:42:38Z</time>
      </trkpt>
      <trkpt lat="48.64167" lon="7.27824">
        <ele>679.3</ele>
        <time>2012-08-18T12:43:27Z</time>
      </trkpt>
      <trkpt lat="48.64128" lon="7.27868">
        <ele>689.4</ele>
        <time>2012-08-18T12:44:38Z</time>
      </trkpt>
      <trkpt lat="48.64116" lon="7.27885">
        <ele>686</ele>
        <time>2012-08-18T12:45:43Z</time>
      </trkpt>
      <trkpt lat="48.6406" lon="7.27911">
        <ele>692.8</ele>
        <time>2012-08-18T12:46:35Z</time>
      </trkpt>
      <trkpt lat="48.64009" lon="7.2793">
        <ele>691.3</ele>
        <time>2012-08-18T12:47:13Z</time>
      </trkpt>
      <trkpt lat="48.63933" lon="7.27951">
        <ele>694.7</ele>
        <time>2012-08-18T12:48:30Z</time>
      </trkpt>
      <trkpt lat="48.63878" lon="7.27916">
        <ele>708.1</ele>
        <time>2012-08-18T12:49:21Z</time>
      </trkpt>
      <trkpt lat="48.63823" lon="7.27889">
        <ele>713.9</ele>
        <time>2012-08-18T12:50:09Z</time>
      </trkpt>
      <trkpt lat="48.63779" lon="7.27853">
        <ele>718.7</ele>
        <time>2012-08-18T12:53:40Z</time>
      </trkpt>
      <trkpt lat="48.63748" lon="7.27809">
        <ele>722.1</ele>
        <time>2012-08-18T12:54:15Z</time>
      </trkpt>
      <trkpt lat="48.63711" lon="7.27792">
        <ele>728.3</ele>
        <time>2012-08-18T12:55:04Z</time>
      </trkpt>
      <trkpt lat="48.6372" lon="7.2786">
        <ele>739.9</ele>
        <time>2012-08-18T12:55:42Z</time>
      </trkpt>
      <trkpt lat="48.63731" lon="7.27929">
        <ele>743.2</ele>
        <time>2012-08-18T12:56:23Z</time>
      </trkpt>
      <trkpt lat="48.63745" lon="7.28002">
        <ele>746.1</ele>
        <time>2012-08-18T12:57:04Z</time>
      </trkpt>
      <trkpt lat="48.63758" lon="7.28073">
        <ele>754.3</ele>
        <time>2012-08-18T12:57:47Z</time>
      </trkpt>
      <trkpt lat="48.63781" lon="7.28143">
        <ele>750</ele>
        <time>2012-08-18T12:58:28Z</time>
      </trkpt>
      <trkpt lat="48.6381" lon="7.28202">
        <ele>740.4</ele>
        <time>2012-08-18T13:01:00Z</time>
      </trkpt>
      <trkpt lat="48.63866" lon="7.28212">
        <ele>739.4</ele>
        <time>2012-08-18T13:01:48Z</time>
      </trkpt>
      <trkpt lat="48.63904" lon="7.28185">
        <ele>726.9</ele>
        <time>2012-08-18T13:03:39Z</time>
      </trkpt>
      <trkpt lat="48.63948" lon="7.28151">
        <ele>724.5</ele>
        <time>2012-08-18T13:04:19Z</time>
      </trkpt>
      <trkpt lat="48.64" lon="7.2813">
        <ele>731.2</ele>
        <time>2012-08-18T13:05:05Z</time>
      </trkpt>
      <trkpt lat="48.64053" lon="7.28105">
        <ele>731.7</ele>
        <time>2012-08-18T13:05:49Z</time>
      </trkpt>
      <trkpt lat="48.6411" lon="7.28104">
        <ele>725.9</ele>
        <time>2012-08-18T13:06:33Z</time>
      </trkpt>
      <trkpt lat="48.64159" lon="7.28101">
        <ele>717.8</ele>
        <time>2012-08-18T13:07:11Z</time>
      </trkpt>
      <trkpt lat="48.64205" lon="7.28104">
        <ele>723.5</ele>
        <time>2012-08-18T13:07:49Z</time>
      </trkpt>
      <trkpt lat="48.6425" lon="7.28126">
        <ele>719.7</ele>
        <time>2012-08-18T13:08:26Z</time>
      </trkpt>
      <trkpt lat="48.64288" lon="7.28164">
        <ele>715.8</ele>
        <time>2012-08-18T13:09:05Z</time>
      </trkpt>
      <trkpt lat="48.64314" lon="7.28211">
        <ele>714.4</ele>
        <time>2012-08-18T13:09:42Z</time>
      </trkpt>
      <trkpt lat="48.6429" lon="7.28257">
        <ele>716.3</ele>
        <time>2012-08-18T13:10:23Z</time>
      </trkpt>
      <trkpt lat="48.64269" lon="7.28314">
        <ele>712</ele>
        <time>2012-08-18T13:10:59Z</time>
      </trkpt>
      <trkpt lat="48.64297" lon="7.28374">
        <ele>703.8</ele>
        <time>2012-08-18T13:11:43Z</time>
      </trkpt>
      <trkpt lat="48.64303" lon="7.28388">
        <ele>704.3</ele>
        <time>2012-08-18T13:12:31Z</time>
      </trkpt>
      <trkpt lat="48.64289" lon="7.28334">
        <ele>700.5</ele>
        <time>2012-08-18T13:13:23Z</time>
      </trkpt>
      <trkpt lat="48.64303" lon="7.28395">
        <ele>698.5</ele>
        <time>2012-08-18T13:15:36Z</time>
      </trkpt>
      <trkpt lat="48.64311" lon="7.28464">
        <ele>708.1</ele>
        <time>2012-08-18T13:16:13Z</time>
      </trkpt>
      <trkpt lat="48.64306" lon="7.28545">
        <ele>712.5</ele>
        <time>2012-08-18T13:16:56Z</time>
      </trkpt>
      <trkpt lat="48.643" lon="7.28624">
        <ele>714.9</ele>
        <time>2012-08-18T13:17:34Z</time>
      </trkpt>
      <trkpt lat="48.64307" lon="7.28702">
        <ele>713.4</ele>
        <time>2012-08-18T13:18:40Z</time>
      </trkpt>
      <trkpt lat="48.64322" lon="7.28772">
        <ele>733.1</ele>
        <time>2012-08-18T13:19:19Z</time>
      </trkpt>
      <trkpt lat="48.64344" lon="7.28839">
        <ele>728.3</ele>
        <time>2012-08-18T13:19:55Z</time>
      </trkpt>
      <trkpt lat="48.64376" lon="7.28895">
        <ele>719.2</ele>
        <time>2012-08-18T13:20:31Z</time>
      </trkpt>
      <trkpt lat="48.64417" lon="7.28934">
        <ele>707.2</ele>
        <time>2012-08-18T13:21:05Z</time>
      </trkpt>
      <trkpt lat="48.64452" lon="7.28977">
        <ele>706.2</ele>
        <time>2012-08-18T13:21:39Z</time>
      </trkpt>
      <trkpt lat="48.64491" lon="7.29016">
        <ele>710.6</ele>
        <time>2012-08-18T13:22:15Z</time>
      </trkpt>
      <trkpt lat="48.64521" lon="7.29072">
        <ele>714.9</ele>
        <time>2012-08-18T13:22:50Z</time>
      </trkpt>
      <trkpt lat="48.64551" lon="7.29127">
        <ele>708.1</ele>
        <time>2012-08-18T13:23:24Z</time>
      </trkpt>
      <trkpt lat="48.64586" lon="7.29171">
        <ele>697.6</ele>
        <time>2012-08-18T13:23:57Z</time>
      </trkpt>
      <trkpt lat="48.64629" lon="7.29194">
        <ele>689.9</ele>
        <time>2012-08-18T13:24:32Z</time>
      </trkpt>
      <trkpt lat="48.64663" lon="7.29238">
        <ele>691.8</ele>
        <time>2012-08-18T13:25:06Z</time>
      </trkpt>
      <trkpt lat="48.6468" lon="7.29302">
        <ele>692.8</ele>
        <time>2012-08-18T13:25:40Z</time>
      </trkpt>
      <trkpt lat="48.64707" lon="7.29357">
        <ele>687</ele>
        <time>2012-08-18T13:26:17Z</time>
      </trkpt>
      <trkpt lat="48.64708" lon="7.29408">
        <ele>684.1</ele>
        <time>2012-08-18T13:27:00Z</time>
      </trkpt>
      <trkpt lat="48.6468" lon="7.2946">
        <ele>681.7</ele>
        <time>2012-08-18T13:27:34Z</time>
      </trkpt>
      <trkpt lat="48.64652" lon="7.29514">
        <ele>683.2</ele>
        <time>2012-08-18T13:28:12Z</time>
      </trkpt>
      <trkpt lat="48.64622" lon="7.29567">
        <ele>692.3</ele>
        <time>2012-08-18T13:28:51Z</time>
      </trkpt>
      <trkpt lat="48.6459" lon="7.29626">
        <ele>694.7</ele>
        <time>2012-08-18T13:29:31Z</time>
      </trkpt>
      <trkpt lat="48.64562" lon="7.2968">
        <ele>691.8</ele>
        <time>2012-08-18T13:30:16Z</time>
      </trkpt>
      <trkpt lat="48.64533" lon="7.29735">
        <ele>695.7</ele>
        <time>2012-08-18T13:30:55Z</time>
      </trkpt>
      <trkpt lat="48.64502" lon="7.29794">
        <ele>693.7</ele>
        <time>2012-08-18T13:31:39Z</time>
      </trkpt>
      <trkpt lat="48.64478" lon="7.29856">
        <ele>694.2</ele>
        <time>2012-08-18T13:33:02Z</time>
      </trkpt>
      <trkpt lat="48.64453" lon="7.2992">
        <ele>688.9</ele>
        <time>2012-08-18T13:34:09Z</time>
      </trkpt>
      <trkpt lat="48.64477" lon="7.29961">
        <ele>672.6</ele>
        <time>2012-08-18T13:35:14Z</time>
      </trkpt>
      <trkpt lat="48.64528" lon="7.2998">
        <ele>646.1</ele>
        <time>2012-08-18T13:35:51Z</time>
      </trkpt>
      <trkpt lat="48.64573" lon="7.29965">
        <ele>635.6</ele>
        <time>2012-08-18T13:36:33Z</time>
      </trkpt>
      <trkpt lat="48.64573" lon="7.29967">
        <ele>637.5</ele>
        <time>2012-08-18T13:40:43Z</time>
      </trkpt>
      <trkpt lat="48.64538" lon="7.30001">
        <ele>643.7</ele>
        <time>2012-08-18T13:41:16Z</time>
      </trkpt>
      <trkpt lat="48.64494" lon="7.30015">
        <ele>635.6</ele>
        <time>2012-08-18T13:41:52Z</time>
      </trkpt>
      <trkpt lat="48.64444" lon="7.30009">
        <ele>630.3</ele>
        <time>2012-08-18T13:42:31Z</time>
      </trkpt>
      <trkpt lat="48.64399" lon="7.2997">
        <ele>618.3</ele>
        <time>2012-08-18T13:43:06Z</time>
      </trkpt>
      <trkpt lat="48.64366" lon="7.29919">
        <ele>593.3</ele>
        <time>2012-08-18T13:43:41Z</time>
      </trkpt>
      <trkpt lat="48.64348" lon="7.29857">
        <ele>581.3</ele>
        <time>2012-08-18T13:44:15Z</time>
      </trkpt>
      <trkpt lat="48.64341" lon="7.29789">
        <ele>573.6</ele>
        <time>2012-08-18T13:44:50Z</time>
      </trkpt>
      <trkpt lat="48.6434" lon="7.29719">
        <ele>562</ele>
        <time>2012-08-18T13:45:24Z</time>
      </trkpt>
      <trkpt lat="48.64341" lon="7.2965">
        <ele>551</ele>
        <time>2012-08-18T13:45:58Z</time>
      </trkpt>
      <trkpt lat="48.64337" lon="7.2958">
        <ele>545.7</ele>
        <time>2012-08-18T13:46:32Z</time>
      </trkpt>
      <trkpt lat="48.64342" lon="7.2951">
        <ele>547.1</ele>
        <time>2012-08-18T13:47:06Z</time>
      </trkpt>
      <trkpt lat="48.64346" lon="7.2944">
        <ele>553.4</ele>
        <time>2012-08-18T13:47:41Z</time>
      </trkpt>
      <trkpt lat="48.6434" lon="7.29372">
        <ele>552.9</ele>
        <time>2012-08-18T13:48:17Z</time>
      </trkpt>
      <trkpt lat="48.64285" lon="7.29415">
        <ele>594.2</ele>
        <time>2012-08-18T13:50:21Z</time>
      </trkpt>
      <trkpt lat="48.64228" lon="7.29519">
        <ele>594.7</ele>
        <time>2012-08-18T13:52:32Z</time>
      </trkpt>
      <trkpt lat="48.64179" lon="7.29518">
        <ele>603.8</ele>
        <time>2012-08-18T13:53:15Z</time>
      </trkpt>
      <trkpt lat="48.64132" lon="7.29554">
        <ele>613</ele>
        <time>2012-08-18T13:53:56Z</time>
      </trkpt>
      <trkpt lat="48.64082" lon="7.29593">
        <ele>601.4</ele>
        <time>2012-08-18T13:54:39Z</time>
      </trkpt>
      <trkpt lat="48.64037" lon="7.29635">
        <ele>586.5</ele>
        <time>2012-08-18T13:55:17Z</time>
      </trkpt>
      <trkpt lat="48.64033" lon="7.29647">
        <ele>563</ele>
        <time>2012-08-18T13:56:08Z</time>
      </trkpt>
      <trkpt lat="48.64079" lon="7.29628">
        <ele>527.4</ele>
        <time>2012-08-18T13:56:45Z</time>
      </trkpt>
      <trkpt lat="48.64123" lon="7.29615">
        <ele>514.9</ele>
        <time>2012-08-18T13:57:22Z</time>
      </trkpt>
      <trkpt lat="48.64168" lon="7.29615">
        <ele>511.6</ele>
        <time>2012-08-18T13:58:00Z</time>
      </trkpt>
      <trkpt lat="48.64172" lon="7.29709">
        <ele>507.2</ele>
        <time>2012-08-18T13:59:13Z</time>
      </trkpt>
      <trkpt lat="48.6413" lon="7.29814">
        <ele>497.6</ele>
        <time>2012-08-18T14:05:59Z</time>
      </trkpt>
      <trkpt lat="48.64122" lon="7.29895">
        <ele>487</ele>
        <time>2012-08-18T14:06:49Z</time>
      </trkpt>
      <trkpt lat="48.64084" lon="7.29997">
        <ele>463.5</ele>
        <time>2012-08-18T14:08:00Z</time>
      </trkpt>
      <trkpt lat="48.64072" lon="7.30088">
        <ele>458.7</ele>
        <time>2012-08-18T14:08:47Z</time>
      </trkpt>
      <trkpt lat="48.64057" lon="7.3019">
        <ele>453.4</ele>
        <time>2012-08-18T14:09:46Z</time>
      </trkpt>
      <trkpt lat="48.64046" lon="7.30339">
        <ele>433.7</ele>
        <time>2012-08-18T14:11:17Z</time>
      </trkpt>
      <trkpt lat="48.63994" lon="7.30401">
        <ele>427.9</ele>
        <time>2012-08-18T14:12:17Z</time>
      </trkpt>
      <trkpt lat="48.63928" lon="7.30436">
        <ele>413</ele>
        <time>2012-08-18T14:13:27Z</time>
      </trkpt>
      <trkpt lat="48.63829" lon="7.30446">
        <ele>393.3</ele>
        <time>2012-08-18T14:14:57Z</time>
      </trkpt>
      <trkpt lat="48.63754" lon="7.3044">
        <ele>394.8</ele>
        <time>2012-08-18T14:16:05Z</time>
      </trkpt>
      <trkpt lat="48.63699" lon="7.3045">
        <ele>393.3</ele>
        <time>2012-08-18T14:17:05Z</time>
      </trkpt>
      <trkpt lat="48.63652" lon="7.30463">
        <ele>387.1</ele>
        <time>2012-08-18T14:17:43Z</time>
      </trkpt>
      <trkpt lat="48.63606" lon="7.30473">
        <ele>382.7</ele>
        <time>2012-08-18T14:18:20Z</time>
      </trkpt>
      <trkpt lat="48.63564" lon="7.30493">
        <ele>377.5</ele>
        <time>2012-08-18T14:18:57Z</time>
      </trkpt>
      <trkpt lat="48.63529" lon="7.30532">
        <ele>373.6</ele>
        <time>2012-08-18T14:19:34Z</time>
      </trkpt>
      <trkpt lat="48.6349" lon="7.30551">
        <ele>369.3</ele>
        <time>2012-08-18T14:20:25Z</time>
      </trkpt>
      <trkpt lat="48.63446" lon="7.30567">
        <ele>368.8</ele>
        <time>2012-08-18T14:21:01Z</time>
      </trkpt>
      <trkpt lat="48.63419" lon="7.30537">
        <ele>373.1</ele>
        <time>2012-08-18T14:32:00Z</time>
      </trkpt>
      <trkpt lat="48.63387" lon="7.30485">
        <ele>386.6</ele>
        <time>2012-08-18T14:33:04Z</time>
      </trkpt>
      <trkpt lat="48.63334" lon="7.30433">
        <ele>392.4</ele>
        <time>2012-08-18T14:34:09Z</time>
      </trkpt>
      <trkpt lat="48.63274" lon="7.30431">
        <ele>398.6</ele>
        <time>2012-08-18T14:35:14Z</time>
      </trkpt>
      <trkpt lat="48.63199" lon="7.30438">
        <ele>411.1</ele>
        <time>2012-08-18T14:36:27Z</time>
      </trkpt>
      <trkpt lat="48.63135" lon="7.30461">
        <ele>412.5</ele>
        <time>2012-08-18T14:37:28Z</time>
      </trkpt>
      <trkpt lat="48.63073" lon="7.30484">
        <ele>419.3</ele>
        <time>2012-08-18T14:38:21Z</time>
      </trkpt>
      <trkpt lat="48.63013" lon="7.30505">
        <ele>432.3</ele>
        <time>2012-08-18T14:39:16Z</time>
      </trkpt>
      <trkpt lat="48.62959" lon="7.30534">
        <ele>437.1</ele>
        <time>2012-08-18T14:40:05Z</time>
      </trkpt>
      <trkpt lat="48.629" lon="7.30549">
        <ele>443.8</ele>
        <time>2012-08-18T14:40:54Z</time>
      </trkpt>
      <trkpt lat="48.62838" lon="7.3055">
        <ele>451.5</ele>
        <time>2012-08-18T14:41:57Z</time>
      </trkpt>
      <trkpt lat="48.62768" lon="7.30517">
        <ele>459.2</ele>
        <time>2012-08-18T14:42:58Z</time>
      </trkpt>
      <trkpt lat="48.62717" lon="7.30479">
        <ele>462.1</ele>
        <time>2012-08-18T14:43:46Z</time>
      </trkpt>
      <trkpt lat="48.62687" lon="7.30426">
        <ele>461.1</ele>
        <time>2012-08-18T14:44:23Z</time>
      </trkpt>
      <trkpt lat="48.6266" lon="7.30422">
        <ele>462.5</ele>
        <time>2012-08-18T14:45:18Z</time>
      </trkpt>
      <trkpt lat="48.62655" lon="7.3042">
        <ele>458.2</ele>
        <time>2012-08-18T14:54:43Z</time>
      </trkpt>
      <trkpt lat="48.62618" lon="7.30435">
        <ele>460.6</ele>
        <time>2012-08-18T14:55:25Z</time>
      </trkpt>
      <trkpt lat="48.62575" lon="7.30443">
        <ele>458.7</ele>
        <time>2012-08-18T14:55:57Z</time>
      </trkpt>
      <trkpt lat="48.62531" lon="7.30455">
        <ele>455.3</ele>
        <time>2012-08-18T14:56:30Z</time>
      </trkpt>
      <trkpt lat="48.62488" lon="7.30469">
        <ele>458.7</ele>
        <time>2012-08-18T14:57:05Z</time>
      </trkpt>
      <trkpt lat="48.62449" lon="7.30505">
        <ele>457.2</ele>
        <time>2012-08-18T14:57:38Z</time>
      </trkpt>
      <trkpt lat="48.62417" lon="7.30542">
        <ele>459.6</ele>
        <time>2012-08-18T14:58:15Z</time>
      </trkpt>
      <trkpt lat="48.62385" lon="7.30578">
        <ele>465.9</ele>
        <time>2012-08-18T14:58:48Z</time>
      </trkpt>
      <trkpt lat="48.62347" lon="7.30608">
        <ele>469.3</ele>
        <time>2012-08-18T14:59:22Z</time>
      </trkpt>
      <trkpt lat="48.62336" lon="7.30634">
        <ele>469.3</ele>
        <time>2012-08-18T15:03:09Z</time>
      </trkpt>
      <trkpt lat="48.62311" lon="7.3069">
        <ele>464.5</ele>
        <time>2012-08-18T15:03:42Z</time>
      </trkpt>
      <trkpt lat="48.62286" lon="7.30711">
        <ele>460.1</ele>
        <time>2012-08-18T15:04:35Z</time>
      </trkpt>
      <trkpt lat="48.62288" lon="7.3082">
        <ele>464.5</ele>
        <time>2012-08-18T15:27:55Z</time>
      </trkpt>
      <trkpt lat="48.62287" lon="7.30771">
        <ele>458.2</ele>
        <time>2012-08-18T15:32:42Z</time>
      </trkpt>
      <trkpt lat="48.62305" lon="7.30711">
        <ele>452.9</ele>
        <time>2012-08-18T15:33:16Z</time>
      </trkpt>
      <trkpt lat="48.62329" lon="7.30652">
        <ele>455.8</ele>
        <time>2012-08-18T15:33:51Z</time>
      </trkpt>
      <trkpt lat="48.62335" lon="7.30595">
        <ele>462.5</ele>
        <time>2012-08-18T15:34:52Z</time>
      </trkpt>
      <trkpt lat="48.62303" lon="7.30562">
        <ele>465.9</ele>
        <time>2012-08-18T15:35:29Z</time>
      </trkpt>
      <trkpt lat="48.62268" lon="7.30516">
        <ele>469.3</ele>
        <time>2012-08-18T15:36:15Z</time>
      </trkpt>
      <trkpt lat="48.62242" lon="7.30462">
        <ele>482.7</ele>
        <time>2012-08-18T15:37:00Z</time>
      </trkpt>
      <trkpt lat="48.62213" lon="7.30409">
        <ele>495.2</ele>
        <time>2012-08-18T15:37:47Z</time>
      </trkpt>
      <trkpt lat="48.62186" lon="7.30348">
        <ele>519.2</ele>
        <time>2012-08-18T15:40:47Z</time>
      </trkpt>
      <trkpt lat="48.62109" lon="7.30261">
        <ele>538</ele>
        <time>2012-08-18T15:42:14Z</time>
      </trkpt>
      <trkpt lat="48.62065" lon="7.30178">
        <ele>558.2</ele>
        <time>2012-08-18T15:43:15Z</time>
      </trkpt>
      <trkpt lat="48.62025" lon="7.30087">
        <ele>571.6</ele>
        <time>2012-08-18T15:44:55Z</time>
      </trkpt>
      <trkpt lat="48.61995" lon="7.29986">
        <ele>586.1</ele>
        <time>2012-08-18T15:46:09Z</time>
      </trkpt>
      <trkpt lat="48.61951" lon="7.29925">
        <ele>594.2</ele>
        <time>2012-08-18T15:47:03Z</time>
      </trkpt>
      <trkpt lat="48.61887" lon="7.29928">
        <ele>591.3</ele>
        <time>2012-08-18T15:49:54Z</time>
      </trkpt>
      <trkpt lat="48.61835" lon="7.29911">
        <ele>580.3</ele>
        <time>2012-08-18T15:50:36Z</time>
      </trkpt>
      <trkpt lat="48.61778" lon="7.29878">
        <ele>589.9</ele>
        <time>2012-08-18T15:52:29Z</time>
      </trkpt>
      <trkpt lat="48.61739" lon="7.29841">
        <ele>593.8</ele>
        <time>2012-08-18T15:53:05Z</time>
      </trkpt>
      <trkpt lat="48.61703" lon="7.29803">
        <ele>599.5</ele>
        <time>2012-08-18T15:53:40Z</time>
      </trkpt>
      <trkpt lat="48.61667" lon="7.29762">
        <ele>603.8</ele>
        <time>2012-08-18T15:54:14Z</time>
      </trkpt>
      <trkpt lat="48.61635" lon="7.29709">
        <ele>605.3</ele>
        <time>2012-08-18T15:54:53Z</time>
      </trkpt>
      <trkpt lat="48.61605" lon="7.2965">
        <ele>617.8</ele>
        <time>2012-08-18T15:55:32Z</time>
      </trkpt>
      <trkpt lat="48.61572" lon="7.29595">
        <ele>638.5</ele>
        <time>2012-08-18T15:56:13Z</time>
      </trkpt>
      <trkpt lat="48.61548" lon="7.29531">
        <ele>660.1</ele>
        <time>2012-08-18T15:56:51Z</time>
      </trkpt>
      <trkpt lat="48.61515" lon="7.2948">
        <ele>675.9</ele>
        <time>2012-08-18T15:57:30Z</time>
      </trkpt>
      <trkpt lat="48.6149" lon="7.29418">
        <ele>677.4</ele>
        <time>2012-08-18T15:58:07Z</time>
      </trkpt>
      <trkpt lat="48.61459" lon="7.29365">
        <ele>685.1</ele>
        <time>2012-08-18T15:58:44Z</time>
      </trkpt>
      <trkpt lat="48.61436" lon="7.29298">
        <ele>689.9</ele>
        <time>2012-08-18T15:59:26Z</time>
      </trkpt>
      <trkpt lat="48.61414" lon="7.29231">
        <ele>700</ele>
        <time>2012-08-18T16:00:07Z</time>
      </trkpt>
      <trkpt lat="48.61391" lon="7.29162">
        <ele>696.6</ele>
        <time>2012-08-18T16:00:46Z</time>
      </trkpt>
      <trkpt lat="48.61368" lon="7.29098">
        <ele>701.4</ele>
        <time>2012-08-18T16:01:25Z</time>
      </trkpt>
      <trkpt lat="48.61341" lon="7.29035">
        <ele>713</ele>
        <time>2012-08-18T16:02:07Z</time>
      </trkpt>
      <trkpt lat="48.61317" lon="7.28966">
        <ele>694.2</ele>
        <time>2012-08-18T16:02:43Z</time>
      </trkpt>
      <trkpt lat="48.61286" lon="7.28913">
        <ele>688</ele>
        <time>2012-08-18T16:03:20Z</time>
      </trkpt>
      <trkpt lat="48.61262" lon="7.28853">
        <ele>685.1</ele>
        <time>2012-08-18T16:04:02Z</time>
      </trkpt>
      <trkpt lat="48.6125" lon="7.28831">
        <ele>653.8</ele>
        <time>2012-08-18T16:05:32Z</time>
      </trkpt>
      <trkpt lat="48.61224" lon="7.28862">
        <ele>645.2</ele>
        <time>2012-08-18T16:06:26Z</time>
      </trkpt>
      <trkpt lat="48.61206" lon="7.28933">
        <ele>649</ele>
        <time>2012-08-18T16:07:14Z</time>
      </trkpt>
      <trkpt lat="48.6118" lon="7.2901">
        <ele>653.8</ele>
        <time>2012-08-18T16:08:16Z</time>
      </trkpt>
      <trkpt lat="48.61151" lon="7.29082">
        <ele>656.7</ele>
        <time>2012-08-18T16:09:11Z</time>
      </trkpt>
      <trkpt lat="48.6112" lon="7.29162">
        <ele>663.4</ele>
        <time>2012-08-18T16:10:13Z</time>
      </trkpt>
      <trkpt lat="48.6108" lon="7.2926">
        <ele>680.3</ele>
        <time>2012-08-18T16:11:57Z</time>
      </trkpt>
      <trkpt lat="48.61036" lon="7.29338">
        <ele>697.1</ele>
        <time>2012-08-18T16:12:56Z</time>
      </trkpt>
      <trkpt lat="48.60984" lon="7.29382">
        <ele>707.7</ele>
        <time>2012-08-18T16:13:55Z</time>
      </trkpt>
      <trkpt lat="48.60912" lon="7.29398">
        <ele>717.3</ele>
        <time>2012-08-18T16:15:22Z</time>
      </trkpt>
      <trkpt lat="48.60871" lon="7.29374">
        <ele>699.5</ele>
        <time>2012-08-18T16:16:02Z</time>
      </trkpt>
      <trkpt lat="48.60829" lon="7.29351">
        <ele>708.1</ele>
        <time>2012-08-18T16:16:47Z</time>
      </trkpt>
      <trkpt lat="48.60788" lon="7.29325">
        <ele>713</ele>
        <time>2012-08-18T16:19:33Z</time>
      </trkpt>
      <trkpt lat="48.60742" lon="7.29298">
        <ele>709.1</ele>
        <time>2012-08-18T16:20:18Z</time>
      </trkpt>
      <trkpt lat="48.60695" lon="7.29287">
        <ele>705.7</ele>
        <time>2012-08-18T16:21:02Z</time>
      </trkpt>
      <trkpt lat="48.60649" lon="7.29284">
        <ele>706.7</ele>
        <time>2012-08-18T16:21:46Z</time>
      </trkpt>
      <trkpt lat="48.60603" lon="7.29283">
        <ele>697.1</ele>
        <time>2012-08-18T16:22:27Z</time>
      </trkpt>
      <trkpt lat="48.6056" lon="7.29299">
        <ele>696.6</ele>
        <time>2012-08-18T16:23:07Z</time>
      </trkpt>
      <trkpt lat="48.60522" lon="7.29342">
        <ele>709.6</ele>
        <time>2012-08-18T16:23:55Z</time>
      </trkpt>
      <trkpt lat="48.60481" lon="7.2936">
        <ele>710.1</ele>
        <time>2012-08-18T16:25:08Z</time>
      </trkpt>
      <trkpt lat="48.60434" lon="7.29351">
        <ele>717.8</ele>
        <time>2012-08-18T16:25:55Z</time>
      </trkpt>
      <trkpt lat="48.6039" lon="7.29336">
        <ele>728.3</ele>
        <time>2012-08-18T16:26:52Z</time>
      </trkpt>
      <trkpt lat="48.60355" lon="7.29304">
        <ele>729.8</ele>
        <time>2012-08-18T16:29:05Z</time>
      </trkpt>
      <trkpt lat="48.60318" lon="7.29264">
        <ele>733.1</ele>
        <time>2012-08-18T16:29:48Z</time>
      </trkpt>
      <trkpt lat="48.60276" lon="7.29245">
        <ele>737.9</ele>
        <time>2012-08-18T16:30:32Z</time>
      </trkpt>
      <trkpt lat="48.60299" lon="7.29201">
        <ele>739.4</ele>
        <time>2012-08-18T16:31:40Z</time>
      </trkpt>
      <trkpt lat="48.60258" lon="7.29215">
        <ele>746.6</ele>
        <time>2012-08-18T16:32:45Z</time>
      </trkpt>
      <trkpt lat="48.60214" lon="7.29251">
        <ele>750.9</ele>
        <time>2012-08-18T16:33:29Z</time>
      </trkpt>
      <trkpt lat="48.60178" lon="7.29287">
        <ele>754.8</ele>
        <time>2012-08-18T16:34:19Z</time>
      </trkpt>
      <trkpt lat="48.60187" lon="7.29349">
        <ele>755.7</ele>
        <time>2012-08-18T16:35:05Z</time>
      </trkpt>
      <trkpt lat="48.60212" lon="7.29406">
        <ele>764.9</ele>
        <time>2012-08-18T16:35:49Z</time>
      </trkpt>
      <trkpt lat="48.60235" lon="7.29465">
        <ele>771.1</ele>
        <time>2012-08-18T16:36:36Z</time>
      </trkpt>
      <trkpt lat="48.60242" lon="7.29532">
        <ele>778.3</ele>
        <time>2012-08-18T16:37:22Z</time>
      </trkpt>
      <trkpt lat="48.60241" lon="7.296">
        <ele>786</ele>
        <time>2012-08-18T16:38:09Z</time>
      </trkpt>
      <trkpt lat="48.60229" lon="7.29662">
        <ele>793.7</ele>
        <time>2012-08-18T16:40:02Z</time>
      </trkpt>
      <trkpt lat="48.60191" lon="7.29704">
        <ele>800.9</ele>
        <time>2012-08-18T16:40:52Z</time>
      </trkpt>
      <trkpt lat="48.60148" lon="7.29724">
        <ele>807.6</ele>
        <time>2012-08-18T16:41:32Z</time>
      </trkpt>
      <trkpt lat="48.60104" lon="7.29706">
        <ele>809.1</ele>
        <time>2012-08-18T16:42:11Z</time>
      </trkpt>
      <trkpt lat="48.60064" lon="7.29678">
        <ele>811.5</ele>
        <time>2012-08-18T16:42:49Z</time>
      </trkpt>
      <trkpt lat="48.60019" lon="7.29652">
        <ele>816.8</ele>
        <time>2012-08-18T16:43:30Z</time>
      </trkpt>
      <trkpt lat="48.5998" lon="7.29614">
        <ele>821.6</ele>
        <time>2012-08-18T16:44:12Z</time>
      </trkpt>
      <trkpt lat="48.59941" lon="7.29578">
        <ele>824</ele>
        <time>2012-08-18T16:44:52Z</time>
      </trkpt>
      <trkpt lat="48.59902" lon="7.29539">
        <ele>828.3</ele>
        <time>2012-08-18T16:45:34Z</time>
      </trkpt>
      <trkpt lat="48.59869" lon="7.29491">
        <ele>828.3</ele>
        <time>2012-08-18T16:46:12Z</time>
      </trkpt>
      <trkpt lat="48.59824" lon="7.29487">
        <ele>830.2</ele>
        <time>2012-08-18T16:46:49Z</time>
      </trkpt>
      <trkpt lat="48.59779" lon="7.29504">
        <ele>829.8</ele>
        <time>2012-08-18T16:47:36Z</time>
      </trkpt>
      <trkpt lat="48.59748" lon="7.29551">
        <ele>831.7</ele>
        <time>2012-08-18T16:48:13Z</time>
      </trkpt>
      <trkpt lat="48.59717" lon="7.29601">
        <ele>834.6</ele>
        <time>2012-08-18T16:48:51Z</time>
      </trkpt>
      <trkpt lat="48.59687" lon="7.29653">
        <ele>835</ele>
        <time>2012-08-18T16:49:31Z</time>
      </trkpt>
      <trkpt lat="48.59654" lon="7.29699">
        <ele>837.4</ele>
        <time>2012-08-18T16:50:08Z</time>
      </trkpt>
      <trkpt lat="48.59617" lon="7.29738">
        <ele>838.9</ele>
        <time>2012-08-18T16:50:47Z</time>
      </trkpt>
      <trkpt lat="48.59577" lon="7.29769">
        <ele>840.3</ele>
        <time>2012-08-18T16:51:23Z</time>
      </trkpt>
      <trkpt lat="48.59534" lon="7.29791">
        <ele>842.7</ele>
        <time>2012-08-18T16:52:02Z</time>
      </trkpt>
      <trkpt lat="48.59493" lon="7.29821">
        <ele>845.6</ele>
        <time>2012-08-18T16:52:40Z</time>
      </trkpt>
      <trkpt lat="48.59458" lon="7.29864">
        <ele>847.1</ele>
        <time>2012-08-18T16:53:18Z</time>
      </trkpt>
      <trkpt lat="48.59429" lon="7.29915">
        <ele>849.9</ele>
        <time>2012-08-18T16:53:57Z</time>
      </trkpt>
      <trkpt lat="48.59409" lon="7.29975">
        <ele>851.4</ele>
        <time>2012-08-18T16:54:34Z</time>
      </trkpt>
      <trkpt lat="48.59393" lon="7.30038">
        <ele>854.3</ele>
        <time>2012-08-18T16:55:12Z</time>
      </trkpt>
      <trkpt lat="48.59379" lon="7.30104">
        <ele>856.2</ele>
        <time>2012-08-18T16:55:51Z</time>
      </trkpt>
      <trkpt lat="48.59361" lon="7.30166">
        <ele>859.6</ele>
        <time>2012-08-18T16:56:29Z</time>
      </trkpt>
      <trkpt lat="48.59338" lon="7.30222">
        <ele>861.5</ele>
        <time>2012-08-18T16:57:06Z</time>
      </trkpt>
      <trkpt lat="48.59305" lon="7.3027">
        <ele>862.4</ele>
        <time>2012-08-18T16:57:43Z</time>
      </trkpt>
      <trkpt lat="48.59278" lon="7.30328">
        <ele>863.9</ele>
        <time>2012-08-18T16:58:21Z</time>
      </trkpt>
      <trkpt lat="48.59255" lon="7.30385">
        <ele>864.4</ele>
        <time>2012-08-18T17:00:04Z</time>
      </trkpt>
      <trkpt lat="48.59231" lon="7.30442">
        <ele>864.4</ele>
        <time>2012-08-18T17:01:11Z</time>
      </trkpt>
      <trkpt lat="48.59217" lon="7.30467">
        <ele>863.9</ele>
        <time>2012-08-18T17:04:58Z</time>
      </trkpt>
      <trkpt lat="48.59194" lon="7.30527">
        <ele>864.4</ele>
        <time>2012-08-18T17:05:35Z</time>
      </trkpt>
      <trkpt lat="48.59161" lon="7.3057">
        <ele>860</ele>
        <time>2012-08-18T17:06:13Z</time>
      </trkpt>
      <trkpt lat="48.59122" lon="7.30538">
        <ele>860.5</ele>
        <time>2012-08-18T17:06:56Z</time>
      </trkpt>
      <trkpt lat="48.59092" lon="7.30507">
        <ele>860.5</ele>
        <time>2012-08-18T17:07:53Z</time>
      </trkpt>
      <trkpt lat="48.59084" lon="7.30542">
        <ele>854.3</ele>
        <time>2012-08-18T17:08:59Z</time>
      </trkpt>
      <trkpt lat="48.59041" lon="7.30516">
        <ele>849.5</ele>
        <time>2012-08-18T17:09:42Z</time>
      </trkpt>
      <trkpt lat="48.59021" lon="7.30508">
        <ele>847.5</ele>
        <time>2012-08-18T17:10:04Z</time>
      </trkpt>
      <trkpt lat="48.59059" lon="7.29481">
        <ele>841.8</ele>
        <time>2012-08-18T17:25:13Z</time>
      </trkpt>
      <trkpt lat="48.5905" lon="7.29485">
        <ele>862</ele>
        <time>2012-08-18T17:26:09Z</time>
      </trkpt>
      <trkpt lat="48.59058" lon="7.29472">
        <ele>847.5</ele>
        <time>2012-08-18T17:27:38Z</time>
      </trkpt>
      <trkpt lat="48.5904" lon="7.29411">
        <ele>868.2</ele>
        <time>2012-08-18T17:28:39Z</time>
      </trkpt>
      <trkpt lat="48.59062" lon="7.29352">
        <ele>872.1</ele>
        <time>2012-08-18T17:29:18Z</time>
      </trkpt>
      <trkpt lat="48.59106" lon="7.29327">
        <ele>870.6</ele>
        <time>2012-08-18T17:29:54Z</time>
      </trkpt>
      <trkpt lat="48.59149" lon="7.29309">
        <ele>871.6</ele>
        <time>2012-08-18T17:30:29Z</time>
      </trkpt>
      <trkpt lat="48.59195" lon="7.29291">
        <ele>872.1</ele>
        <time>2012-08-18T17:31:05Z</time>
      </trkpt>
      <trkpt lat="48.5924" lon="7.2928">
        <ele>871.1</ele>
        <time>2012-08-18T17:31:39Z</time>
      </trkpt>
      <trkpt lat="48.59285" lon="7.29262">
        <ele>870.1</ele>
        <time>2012-08-18T17:32:12Z</time>
      </trkpt>
      <trkpt lat="48.59326" lon="7.29244">
        <ele>873</ele>
        <time>2012-08-18T17:32:46Z</time>
      </trkpt>
      <trkpt lat="48.59367" lon="7.29213">
        <ele>876.4</ele>
        <time>2012-08-18T17:33:22Z</time>
      </trkpt>
      <trkpt lat="48.59405" lon="7.29174">
        <ele>881.7</ele>
        <time>2012-08-18T17:33:57Z</time>
      </trkpt>
      <trkpt lat="48.5944" lon="7.2913">
        <ele>882.6</ele>
        <time>2012-08-18T17:34:32Z</time>
      </trkpt>
      <trkpt lat="48.59468" lon="7.29073">
        <ele>874.5</ele>
        <time>2012-08-18T17:35:07Z</time>
      </trkpt>
      <trkpt lat="48.59484" lon="7.29011">
        <ele>870.6</ele>
        <time>2012-08-18T17:35:43Z</time>
      </trkpt>
      <trkpt lat="48.59488" lon="7.28944">
        <ele>869.2</ele>
        <time>2012-08-18T17:36:21Z</time>
      </trkpt>
      <trkpt lat="48.59468" lon="7.28883">
        <ele>875.4</ele>
        <time>2012-08-18T17:36:58Z</time>
      </trkpt>
      <trkpt lat="48.59446" lon="7.28824">
        <ele>877.8</ele>
        <time>2012-08-18T17:37:36Z</time>
      </trkpt>
      <trkpt lat="48.59427" lon="7.28764">
        <ele>883.1</ele>
        <time>2012-08-18T17:42:26Z</time>
      </trkpt>
      <trkpt lat="48.59407" lon="7.287">
        <ele>886.5</ele>
        <time>2012-08-18T17:43:00Z</time>
      </trkpt>
      <trkpt lat="48.59389" lon="7.28637">
        <ele>889.4</ele>
        <time>2012-08-18T17:43:37Z</time>
      </trkpt>
      <trkpt lat="48.59378" lon="7.28563">
        <ele>891.3</ele>
        <time>2012-08-18T17:44:12Z</time>
      </trkpt>
      <trkpt lat="48.59366" lon="7.28494">
        <ele>888.4</ele>
        <time>2012-08-18T17:44:48Z</time>
      </trkpt>
      <trkpt lat="48.5935" lon="7.28429">
        <ele>888.4</ele>
        <time>2012-08-18T17:45:23Z</time>
      </trkpt>
      <trkpt lat="48.59331" lon="7.2837">
        <ele>887.9</ele>
        <time>2012-08-18T17:45:56Z</time>
      </trkpt>
      <trkpt lat="48.59306" lon="7.28316">
        <ele>890.8</ele>
        <time>2012-08-18T17:46:36Z</time>
      </trkpt>
      <trkpt lat="48.59265" lon="7.28285">
        <ele>888.4</ele>
        <time>2012-08-18T17:47:50Z</time>
      </trkpt>
      <trkpt lat="48.59218" lon="7.28241">
        <ele>875.4</ele>
        <time>2012-08-18T17:48:35Z</time>
      </trkpt>
      <trkpt lat="48.59174" lon="7.28185">
        <ele>869.2</ele>
        <time>2012-08-18T17:49:34Z</time>
      </trkpt>
      <trkpt lat="48.59132" lon="7.28127">
        <ele>861</ele>
        <time>2012-08-18T17:50:33Z</time>
      </trkpt>
      <trkpt lat="48.59053" lon="7.28069">
        <ele>861.5</ele>
        <time>2012-08-18T17:52:15Z</time>
      </trkpt>
      <trkpt lat="48.58967" lon="7.28084">
        <ele>936</ele>
        <time>2012-08-18T17:54:33Z</time>
      </trkpt>
      <trkpt lat="48.58898" lon="7.28132">
        <ele>923</ele>
        <time>2012-08-18T17:55:59Z</time>
      </trkpt>
      <trkpt lat="48.58797" lon="7.28159">
        <ele>874.5</ele>
        <time>2012-08-18T17:57:55Z</time>
      </trkpt>
      <trkpt lat="48.58741" lon="7.28165">
        <ele>840.3</ele>
        <time>2012-08-18T17:58:34Z</time>
      </trkpt>
      <trkpt lat="48.58679" lon="7.28159">
        <ele>807.2</ele>
        <time>2012-08-18T17:59:18Z</time>
      </trkpt>
      <trkpt lat="48.58596" lon="7.28142">
        <ele>778.3</ele>
        <time>2012-08-18T18:00:56Z</time>
      </trkpt>
      <trkpt lat="48.5858" lon="7.28223">
        <ele>747.6</ele>
        <time>2012-08-18T18:03:02Z</time>
      </trkpt>
      <trkpt lat="48.58671" lon="7.28281">
        <ele>731.7</ele>
        <time>2012-08-18T18:05:09Z</time>
      </trkpt>
      <trkpt lat="48.58755" lon="7.28333">
        <ele>726.4</ele>
        <time>2012-08-18T18:06:29Z</time>
      </trkpt>
      <trkpt lat="48.58823" lon="7.28371">
        <ele>718.2</ele>
        <time>2012-08-18T18:07:37Z</time>
      </trkpt>
      <trkpt lat="48.5886" lon="7.28424">
        <ele>701.4</ele>
        <time>2012-08-18T18:08:35Z</time>
      </trkpt>
      <trkpt lat="48.58922" lon="7.2856">
        <ele>685.6</ele>
        <time>2012-08-18T18:10:23Z</time>
      </trkpt>
      <trkpt lat="48.58891" lon="7.28632">
        <ele>683.2</ele>
        <time>2012-08-18T18:11:16Z</time>
      </trkpt>
      <trkpt lat="48.5883" lon="7.28627">
        <ele>663.9</ele>
        <time>2012-08-18T18:12:37Z</time>
      </trkpt>
      <trkpt lat="48.58783" lon="7.28662">
        <ele>649.5</ele>
        <time>2012-08-18T18:13:19Z</time>
      </trkpt>
      <trkpt lat="48.58738" lon="7.287">
        <ele>638</ele>
        <time>2012-08-18T18:14:05Z</time>
      </trkpt>
      <trkpt lat="48.5869" lon="7.28725">
        <ele>629.3</ele>
        <time>2012-08-18T18:14:47Z</time>
      </trkpt>
      <trkpt lat="48.58661" lon="7.28786">
        <ele>622.6</ele>
        <time>2012-08-18T18:15:41Z</time>
      </trkpt>
      <trkpt lat="48.5865" lon="7.28857">
        <ele>617.8</ele>
        <time>2012-08-18T18:16:39Z</time>
      </trkpt>
      <trkpt lat="48.58616" lon="7.28872">
        <ele>610.6</ele>
        <time>2012-08-18T18:20:16Z</time>
      </trkpt>
      <trkpt lat="48.5867" lon="7.2883">
        <ele>607.7</ele>
        <time>2012-08-19T06:14:34Z</time>
      </trkpt>
      <trkpt lat="48.58659" lon="7.28819">
        <ele>609.1</ele>
        <time>2012-08-19T06:15:12Z</time>
      </trkpt>
      <trkpt lat="48.58681" lon="7.28764">
        <ele>603.4</ele>
        <time>2012-08-19T06:16:59Z</time>
      </trkpt>
      <trkpt lat="48.58689" lon="7.28685">
        <ele>600</ele>
        <time>2012-08-19T06:18:12Z</time>
      </trkpt>
      <trkpt lat="48.58664" lon="7.28613">
        <ele>601.4</ele>
        <time>2012-08-19T06:18:53Z</time>
      </trkpt>
      <trkpt lat="48.58622" lon="7.28562">
        <ele>617.8</ele>
        <time>2012-08-19T06:19:38Z</time>
      </trkpt>
      <trkpt lat="48.5857" lon="7.28548">
        <ele>614.4</ele>
        <time>2012-08-19T06:20:14Z</time>
      </trkpt>
      <trkpt lat="48.5852" lon="7.28554">
        <ele>615.9</ele>
        <time>2012-08-19T06:20:49Z</time>
      </trkpt>
      <trkpt lat="48.58473" lon="7.28583">
        <ele>619.2</ele>
        <time>2012-08-19T06:21:29Z</time>
      </trkpt>
      <trkpt lat="48.58427" lon="7.28589">
        <ele>617.3</ele>
        <time>2012-08-19T06:22:04Z</time>
      </trkpt>
      <trkpt lat="48.5839" lon="7.28545">
        <ele>613.5</ele>
        <time>2012-08-19T06:22:39Z</time>
      </trkpt>
      <trkpt lat="48.58358" lon="7.28492">
        <ele>610.6</ele>
        <time>2012-08-19T06:23:20Z</time>
      </trkpt>
      <trkpt lat="48.58278" lon="7.28399">
        <ele>609.6</ele>
        <time>2012-08-19T06:24:52Z</time>
      </trkpt>
      <trkpt lat="48.58209" lon="7.28343">
        <ele>614.4</ele>
        <time>2012-08-19T06:25:51Z</time>
      </trkpt>
      <trkpt lat="48.58125" lon="7.28289">
        <ele>594.7</ele>
        <time>2012-08-19T06:27:12Z</time>
      </trkpt>
      <trkpt lat="48.58053" lon="7.28307">
        <ele>575</ele>
        <time>2012-08-19T06:28:12Z</time>
      </trkpt>
      <trkpt lat="48.57995" lon="7.28299">
        <ele>570.7</ele>
        <time>2012-08-19T06:29:00Z</time>
      </trkpt>
      <trkpt lat="48.57949" lon="7.28278">
        <ele>551.9</ele>
        <time>2012-08-19T06:36:52Z</time>
      </trkpt>
      <trkpt lat="48.57995" lon="7.28201">
        <ele>549.1</ele>
        <time>2012-08-19T06:37:51Z</time>
      </trkpt>
      <trkpt lat="48.58039" lon="7.28146">
        <ele>565.4</ele>
        <time>2012-08-19T06:38:43Z</time>
      </trkpt>
      <trkpt lat="48.57969" lon="7.2815">
        <ele>565.4</ele>
        <time>2012-08-19T06:39:47Z</time>
      </trkpt>
      <trkpt lat="48.579" lon="7.28169">
        <ele>563.5</ele>
        <time>2012-08-19T06:40:43Z</time>
      </trkpt>
      <trkpt lat="48.57894" lon="7.28097">
        <ele>560.6</ele>
        <time>2012-08-19T06:41:44Z</time>
      </trkpt>
      <trkpt lat="48.57888" lon="7.28004">
        <ele>569.2</ele>
        <time>2012-08-19T06:42:39Z</time>
      </trkpt>
      <trkpt lat="48.57848" lon="7.28029">
        <ele>557.2</ele>
        <time>2012-08-19T06:43:18Z</time>
      </trkpt>
      <trkpt lat="48.57782" lon="7.28031">
        <ele>553.9</ele>
        <time>2012-08-19T06:44:22Z</time>
      </trkpt>
      <trkpt lat="48.57722" lon="7.27994">
        <ele>558.2</ele>
        <time>2012-08-19T06:46:35Z</time>
      </trkpt>
      <trkpt lat="48.57723" lon="7.27904">
        <ele>557.7</ele>
        <time>2012-08-19T06:47:25Z</time>
      </trkpt>
      <trkpt lat="48.57759" lon="7.27863">
        <ele>553.9</ele>
        <time>2012-08-19T06:48:03Z</time>
      </trkpt>
      <trkpt lat="48.57791" lon="7.2782">
        <ele>553.9</ele>
        <time>2012-08-19T06:48:39Z</time>
      </trkpt>
      <trkpt lat="48.57798" lon="7.27757">
        <ele>551.5</ele>
        <time>2012-08-19T06:49:13Z</time>
      </trkpt>
      <trkpt lat="48.57787" lon="7.27692">
        <ele>549.5</ele>
        <time>2012-08-19T06:49:47Z</time>
      </trkpt>
      <trkpt lat="48.5778" lon="7.27627">
        <ele>552.4</ele>
        <time>2012-08-19T06:50:22Z</time>
      </trkpt>
      <trkpt lat="48.57753" lon="7.27568">
        <ele>566.8</ele>
        <time>2012-08-19T06:51:04Z</time>
      </trkpt>
      <trkpt lat="48.57722" lon="7.27512">
        <ele>560.6</ele>
        <time>2012-08-19T06:51:44Z</time>
      </trkpt>
      <trkpt lat="48.57672" lon="7.27452">
        <ele>556.3</ele>
        <time>2012-08-19T06:52:38Z</time>
      </trkpt>
      <trkpt lat="48.5764" lon="7.27394">
        <ele>553.9</ele>
        <time>2012-08-19T06:53:39Z</time>
      </trkpt>
      <trkpt lat="48.5764" lon="7.27258">
        <ele>554.3</ele>
        <time>2012-08-19T06:55:15Z</time>
      </trkpt>
      <trkpt lat="48.57606" lon="7.27164">
        <ele>558.2</ele>
        <time>2012-08-19T06:56:35Z</time>
      </trkpt>
      <trkpt lat="48.57546" lon="7.27143">
        <ele>556.7</ele>
        <time>2012-08-19T06:57:31Z</time>
      </trkpt>
      <trkpt lat="48.57481" lon="7.27088">
        <ele>550</ele>
        <time>2012-08-19T06:58:39Z</time>
      </trkpt>
      <trkpt lat="48.57382" lon="7.2706">
        <ele>530.8</ele>
        <time>2012-08-19T07:00:16Z</time>
      </trkpt>
      <trkpt lat="48.57327" lon="7.27058">
        <ele>513</ele>
        <time>2012-08-19T07:01:13Z</time>
      </trkpt>
      <trkpt lat="48.57287" lon="7.27056">
        <ele>513.5</ele>
        <time>2012-08-19T07:01:54Z</time>
      </trkpt>
      <trkpt lat="48.57212" lon="7.27051">
        <ele>502.4</ele>
        <time>2012-08-19T07:03:29Z</time>
      </trkpt>
      <trkpt lat="48.57127" lon="7.26941">
        <ele>461.6</ele>
        <time>2012-08-19T07:06:11Z</time>
      </trkpt>
      <trkpt lat="48.57073" lon="7.26894">
        <ele>462.1</ele>
        <time>2012-08-19T07:07:36Z</time>
      </trkpt>
      <trkpt lat="48.56953" lon="7.26838">
        <ele>429.4</ele>
        <time>2012-08-19T07:10:01Z</time>
      </trkpt>
      <trkpt lat="48.56901" lon="7.26853">
        <ele>402.9</ele>
        <time>2012-08-19T07:11:15Z</time>
      </trkpt>
      <trkpt lat="48.5691" lon="7.26879">
        <ele>396.2</ele>
        <time>2012-08-19T07:15:35Z</time>
      </trkpt>
      <trkpt lat="48.56931" lon="7.26943">
        <ele>393.8</ele>
        <time>2012-08-19T07:16:16Z</time>
      </trkpt>
      <trkpt lat="48.56947" lon="7.27005">
        <ele>396.2</ele>
        <time>2012-08-19T07:16:56Z</time>
      </trkpt>
      <trkpt lat="48.56969" lon="7.27068">
        <ele>399.6</ele>
        <time>2012-08-19T07:17:37Z</time>
      </trkpt>
      <trkpt lat="48.57" lon="7.27162">
        <ele>401</ele>
        <time>2012-08-19T07:18:32Z</time>
      </trkpt>
      <trkpt lat="48.57013" lon="7.27254">
        <ele>384.2</ele>
        <time>2012-08-19T07:19:17Z</time>
      </trkpt>
      <trkpt lat="48.5701" lon="7.27325">
        <ele>377</ele>
        <time>2012-08-19T07:19:57Z</time>
      </trkpt>
      <trkpt lat="48.57002" lon="7.27412">
        <ele>377</ele>
        <time>2012-08-19T07:20:49Z</time>
      </trkpt>
      <trkpt lat="48.56999" lon="7.27507">
        <ele>375.1</ele>
        <time>2012-08-19T07:21:36Z</time>
      </trkpt>
      <trkpt lat="48.56987" lon="7.27601">
        <ele>379.4</ele>
        <time>2012-08-19T07:22:26Z</time>
      </trkpt>
      <trkpt lat="48.5699" lon="7.27679">
        <ele>381.3</ele>
        <time>2012-08-19T07:23:05Z</time>
      </trkpt>
      <trkpt lat="48.56995" lon="7.27757">
        <ele>377</ele>
        <time>2012-08-19T07:23:41Z</time>
      </trkpt>
      <trkpt lat="48.57016" lon="7.27861">
        <ele>389</ele>
        <time>2012-08-19T07:24:48Z</time>
      </trkpt>
      <trkpt lat="48.57032" lon="7.27951">
        <ele>375.5</ele>
        <time>2012-08-19T07:25:25Z</time>
      </trkpt>
      <trkpt lat="48.57034" lon="7.28018">
        <ele>369.8</ele>
        <time>2012-08-19T07:26:01Z</time>
      </trkpt>
      <trkpt lat="48.57036" lon="7.28089">
        <ele>371.2</ele>
        <time>2012-08-19T07:26:41Z</time>
      </trkpt>
      <trkpt lat="48.57042" lon="7.28163">
        <ele>367.4</ele>
        <time>2012-08-19T07:27:19Z</time>
      </trkpt>
      <trkpt lat="48.57021" lon="7.28233">
        <ele>370.7</ele>
        <time>2012-08-19T07:27:59Z</time>
      </trkpt>
      <trkpt lat="48.5698" lon="7.28292">
        <ele>365.9</ele>
        <time>2012-08-19T07:28:42Z</time>
      </trkpt>
      <trkpt lat="48.56941" lon="7.28346">
        <ele>371.2</ele>
        <time>2012-08-19T07:29:19Z</time>
      </trkpt>
      <trkpt lat="48.56928" lon="7.28418">
        <ele>368.8</ele>
        <time>2012-08-19T07:30:00Z</time>
      </trkpt>
      <trkpt lat="48.56933" lon="7.28497">
        <ele>359.7</ele>
        <time>2012-08-19T07:30:36Z</time>
      </trkpt>
      <trkpt lat="48.56931" lon="7.28566">
        <ele>357.7</ele>
        <time>2012-08-19T07:31:19Z</time>
      </trkpt>
      <trkpt lat="48.56901" lon="7.28619">
        <ele>361.1</ele>
        <time>2012-08-19T07:33:05Z</time>
      </trkpt>
      <trkpt lat="48.5687" lon="7.28668">
        <ele>365.9</ele>
        <time>2012-08-19T07:33:50Z</time>
      </trkpt>
      <trkpt lat="48.56833" lon="7.28713">
        <ele>377</ele>
        <time>2012-08-19T07:34:27Z</time>
      </trkpt>
      <trkpt lat="48.56798" lon="7.28758">
        <ele>396.7</ele>
        <time>2012-08-19T07:35:05Z</time>
      </trkpt>
      <trkpt lat="48.56759" lon="7.28809">
        <ele>418.8</ele>
        <time>2012-08-19T07:35:45Z</time>
      </trkpt>
      <trkpt lat="48.56724" lon="7.28877">
        <ele>424.6</ele>
        <time>2012-08-19T07:36:28Z</time>
      </trkpt>
      <trkpt lat="48.56696" lon="7.28933">
        <ele>404.4</ele>
        <time>2012-08-19T07:37:12Z</time>
      </trkpt>
      <trkpt lat="48.56669" lon="7.28994">
        <ele>384.7</ele>
        <time>2012-08-19T07:37:57Z</time>
      </trkpt>
      <trkpt lat="48.56629" lon="7.2907">
        <ele>375.5</ele>
        <time>2012-08-19T07:38:58Z</time>
      </trkpt>
      <trkpt lat="48.56592" lon="7.29159">
        <ele>375.5</ele>
        <time>2012-08-19T07:40:14Z</time>
      </trkpt>
      <trkpt lat="48.56568" lon="7.29241">
        <ele>386.6</ele>
        <time>2012-08-19T07:41:03Z</time>
      </trkpt>
      <trkpt lat="48.56533" lon="7.29305">
        <ele>391.4</ele>
        <time>2012-08-19T07:41:51Z</time>
      </trkpt>
      <trkpt lat="48.56513" lon="7.29423">
        <ele>379.4</ele>
        <time>2012-08-19T07:43:07Z</time>
      </trkpt>
      <trkpt lat="48.56509" lon="7.29541">
        <ele>367.8</ele>
        <time>2012-08-19T07:44:04Z</time>
      </trkpt>
      <trkpt lat="48.56488" lon="7.29629">
        <ele>352</ele>
        <time>2012-08-19T07:44:56Z</time>
      </trkpt>
      <trkpt lat="48.56486" lon="7.29752">
        <ele>363.5</ele>
        <time>2012-08-19T07:46:13Z</time>
      </trkpt>
      <trkpt lat="48.56459" lon="7.29853">
        <ele>342.8</ele>
        <time>2012-08-19T07:47:06Z</time>
      </trkpt>
      <trkpt lat="48.56437" lon="7.29917">
        <ele>348.1</ele>
        <time>2012-08-19T07:47:40Z</time>
      </trkpt>
      <trkpt lat="48.56418" lon="7.29994">
        <ele>358.2</ele>
        <time>2012-08-19T07:48:30Z</time>
      </trkpt>
      <trkpt lat="48.56425" lon="7.30068">
        <ele>350.5</ele>
        <time>2012-08-19T07:49:18Z</time>
      </trkpt>
      <trkpt lat="48.56433" lon="7.30141">
        <ele>349.1</ele>
        <time>2012-08-19T07:50:01Z</time>
      </trkpt>
      <trkpt lat="48.56445" lon="7.30215">
        <ele>345.7</ele>
        <time>2012-08-19T07:50:42Z</time>
      </trkpt>
      <trkpt lat="48.56455" lon="7.30287">
        <ele>344.3</ele>
        <time>2012-08-19T07:51:24Z</time>
      </trkpt>
      <trkpt lat="48.56416" lon="7.30357">
        <ele>336.1</ele>
        <time>2012-08-19T07:52:45Z</time>
      </trkpt>
      <trkpt lat="48.5637" lon="7.30376">
        <ele>331.8</ele>
        <time>2012-08-19T07:53:27Z</time>
      </trkpt>
      <trkpt lat="48.56322" lon="7.30417">
        <ele>338.5</ele>
        <time>2012-08-19T07:54:20Z</time>
      </trkpt>
      <trkpt lat="48.56257" lon="7.30456">
        <ele>341.4</ele>
        <time>2012-08-19T07:55:25Z</time>
      </trkpt>
      <trkpt lat="48.56205" lon="7.30535">
        <ele>345.3</ele>
        <time>2012-08-19T07:56:37Z</time>
      </trkpt>
      <trkpt lat="48.56157" lon="7.30614">
        <ele>364.5</ele>
        <time>2012-08-19T07:57:30Z</time>
      </trkpt>
      <trkpt lat="48.56102" lon="7.3066">
        <ele>368.8</ele>
        <time>2012-08-19T07:58:34Z</time>
      </trkpt>
      <trkpt lat="48.56043" lon="7.30674">
        <ele>349.1</ele>
        <time>2012-08-19T07:59:42Z</time>
      </trkpt>
      <trkpt lat="48.5599" lon="7.30729">
        <ele>342.4</ele>
        <time>2012-08-19T08:00:41Z</time>
      </trkpt>
      <trkpt lat="48.55951" lon="7.30766">
        <ele>323.6</ele>
        <time>2012-08-19T08:01:42Z</time>
      </trkpt>
      <trkpt lat="48.55911" lon="7.30773">
        <ele>314</ele>
        <time>2012-08-19T08:02:23Z</time>
      </trkpt>
      <trkpt lat="48.55844" lon="7.30805">
        <ele>323.1</ele>
        <time>2012-08-19T08:03:47Z</time>
      </trkpt>
      <trkpt lat="48.55788" lon="7.30858">
        <ele>344.8</ele>
        <time>2012-08-19T08:04:40Z</time>
      </trkpt>
      <trkpt lat="48.55748" lon="7.30921">
        <ele>363</ele>
        <time>2012-08-19T08:05:22Z</time>
      </trkpt>
      <trkpt lat="48.55708" lon="7.3098">
        <ele>378.9</ele>
        <time>2012-08-19T08:06:00Z</time>
      </trkpt>
      <trkpt lat="48.55663" lon="7.31034">
        <ele>390.9</ele>
        <time>2012-08-19T08:06:44Z</time>
      </trkpt>
      <trkpt lat="48.55614" lon="7.31083">
        <ele>394.3</ele>
        <time>2012-08-19T08:07:26Z</time>
      </trkpt>
      <trkpt lat="48.55561" lon="7.31077">
        <ele>370.7</ele>
        <time>2012-08-19T08:08:19Z</time>
      </trkpt>
      <trkpt lat="48.55517" lon="7.31158">
        <ele>359.2</ele>
        <time>2012-08-19T08:09:23Z</time>
      </trkpt>
      <trkpt lat="48.55434" lon="7.31247">
        <ele>357.3</ele>
        <time>2012-08-19T08:10:57Z</time>
      </trkpt>
      <trkpt lat="48.55373" lon="7.31311">
        <ele>364.5</ele>
        <time>2012-08-19T08:11:46Z</time>
      </trkpt>
      <trkpt lat="48.55325" lon="7.3136">
        <ele>361.1</ele>
        <time>2012-08-19T08:12:30Z</time>
      </trkpt>
      <trkpt lat="48.55275" lon="7.31418">
        <ele>357.3</ele>
        <time>2012-08-19T08:13:20Z</time>
      </trkpt>
      <trkpt lat="48.55231" lon="7.31469">
        <ele>345.7</ele>
        <time>2012-08-19T08:14:06Z</time>
      </trkpt>
      <trkpt lat="48.55192" lon="7.31522">
        <ele>337.6</ele>
        <time>2012-08-19T08:14:45Z</time>
      </trkpt>
      <trkpt lat="48.55158" lon="7.3157">
        <ele>328.9</ele>
        <time>2012-08-19T08:15:22Z</time>
      </trkpt>
      <trkpt lat="48.55121" lon="7.31615">
        <ele>328.4</ele>
        <time>2012-08-19T08:16:01Z</time>
      </trkpt>
      <trkpt lat="48.55087" lon="7.31657">
        <ele>320.3</ele>
        <time>2012-08-19T08:16:38Z</time>
      </trkpt>
      <trkpt lat="48.55051" lon="7.31708">
        <ele>317.9</ele>
        <time>2012-08-19T08:17:27Z</time>
      </trkpt>
      <trkpt lat="48.55012" lon="7.31746">
        <ele>311.6</ele>
        <time>2012-08-19T08:18:04Z</time>
      </trkpt>
      <trkpt lat="48.54968" lon="7.31796">
        <ele>306.3</ele>
        <time>2012-08-19T08:18:57Z</time>
      </trkpt>
      <trkpt lat="48.54957" lon="7.31866">
        <ele>302.5</ele>
        <time>2012-08-19T08:19:37Z</time>
      </trkpt>
      <trkpt lat="48.5497" lon="7.31932">
        <ele>294.3</ele>
        <time>2012-08-19T08:20:16Z</time>
      </trkpt>
      <trkpt lat="48.54988" lon="7.31982">
        <ele>287.6</ele>
        <time>2012-08-19T08:21:02Z</time>
      </trkpt>
      <trkpt lat="48.54952" lon="7.31948">
        <ele>289.5</ele>
        <time>2012-08-19T08:21:47Z</time>
      </trkpt>
      <trkpt lat="48.5491" lon="7.31978">
        <ele>293.8</ele>
        <time>2012-08-19T08:22:25Z</time>
      </trkpt>
      <trkpt lat="48.54864" lon="7.31987">
        <ele>301</ele>
        <time>2012-08-19T08:23:10Z</time>
      </trkpt>
      <trkpt lat="48.54817" lon="7.3197">
        <ele>303.9</ele>
        <time>2012-08-19T08:23:50Z</time>
      </trkpt>
      <trkpt lat="48.54779" lon="7.31934">
        <ele>306.3</ele>
        <time>2012-08-19T08:24:27Z</time>
      </trkpt>
      <trkpt lat="48.54742" lon="7.31895">
        <ele>308.7</ele>
        <time>2012-08-19T08:25:06Z</time>
      </trkpt>
      <trkpt lat="48.54698" lon="7.31883">
        <ele>313</ele>
        <time>2012-08-19T08:25:43Z</time>
      </trkpt>
      <trkpt lat="48.54657" lon="7.31893">
        <ele>315.9</ele>
        <time>2012-08-19T08:26:22Z</time>
      </trkpt>
      <trkpt lat="48.54662" lon="7.31959">
        <ele>319.8</ele>
        <time>2012-08-19T08:27:00Z</time>
      </trkpt>
      <trkpt lat="48.54689" lon="7.32028">
        <ele>329.4</ele>
        <time>2012-08-19T08:27:54Z</time>
      </trkpt>
      <trkpt lat="48.54719" lon="7.32166">
        <ele>332.8</ele>
        <time>2012-08-19T08:29:21Z</time>
      </trkpt>
      <trkpt lat="48.54756" lon="7.32276">
        <ele>330.8</ele>
        <time>2012-08-19T08:30:28Z</time>
      </trkpt>
      <trkpt lat="48.54708" lon="7.324">
        <ele>308.7</ele>
        <time>2012-08-19T08:31:57Z</time>
      </trkpt>
      <trkpt lat="48.54625" lon="7.32504">
        <ele>309.7</ele>
        <time>2012-08-19T08:33:41Z</time>
      </trkpt>
      <trkpt lat="48.54568" lon="7.32601">
        <ele>301.5</ele>
        <time>2012-08-19T08:34:57Z</time>
      </trkpt>
      <trkpt lat="48.5446" lon="7.32576">
        <ele>312.1</ele>
        <time>2012-08-19T08:38:09Z</time>
      </trkpt>
      <trkpt lat="48.54427" lon="7.32491">
        <ele>318.3</ele>
        <time>2012-08-19T08:39:13Z</time>
      </trkpt>
      <trkpt lat="48.54273" lon="7.32625">
        <ele>311.6</ele>
        <time>2012-08-19T08:42:22Z</time>
      </trkpt>
      <trkpt lat="48.54208" lon="7.32574">
        <ele>315.9</ele>
        <time>2012-08-19T08:43:17Z</time>
      </trkpt>
      <trkpt lat="48.54005" lon="7.32523">
        <ele>332.8</ele>
        <time>2012-08-19T08:46:31Z</time>
      </trkpt>
      <trkpt lat="48.53949" lon="7.3247">
        <ele>326.5</ele>
        <time>2012-08-19T08:47:19Z</time>
      </trkpt>
      <trkpt lat="48.53919" lon="7.32389">
        <ele>307.8</ele>
        <time>2012-08-19T08:48:07Z</time>
      </trkpt>
      <trkpt lat="48.53861" lon="7.32338">
        <ele>319.3</ele>
        <time>2012-08-19T08:49:19Z</time>
      </trkpt>
      <trkpt lat="48.53695" lon="7.3237">
        <ele>328.9</ele>
        <time>2012-08-19T08:51:45Z</time>
      </trkpt>
      <trkpt lat="48.53463" lon="7.32444">
        <ele>323.1</ele>
        <time>2012-08-19T08:55:20Z</time>
      </trkpt>
      <trkpt lat="48.53412" lon="7.32512">
        <ele>291.9</ele>
        <time>2012-08-19T08:56:06Z</time>
      </trkpt>
      <trkpt lat="48.5337" lon="7.32546">
        <ele>285.2</ele>
        <time>2012-08-19T08:56:47Z</time>
      </trkpt>
      <trkpt lat="48.53325" lon="7.3257">
        <ele>278.9</ele>
        <time>2012-08-19T08:57:25Z</time>
      </trkpt>
      <trkpt lat="48.53279" lon="7.32579">
        <ele>273.6</ele>
        <time>2012-08-19T08:58:06Z</time>
      </trkpt>
      <trkpt lat="48.53237" lon="7.3259">
        <ele>268.8</ele>
        <time>2012-08-19T08:59:02Z</time>
      </trkpt>
      <trkpt lat="48.53193" lon="7.32595">
        <ele>265.5</ele>
        <time>2012-08-19T08:59:40Z</time>
      </trkpt>
      <trkpt lat="48.53149" lon="7.32587">
        <ele>265</ele>
        <time>2012-08-19T09:00:19Z</time>
      </trkpt>
      <trkpt lat="48.53112" lon="7.32548">
        <ele>263.5</ele>
        <time>2012-08-19T09:00:57Z</time>
      </trkpt>
      <trkpt lat="48.53095" lon="7.32484">
        <ele>263.1</ele>
        <time>2012-08-19T09:01:34Z</time>
      </trkpt>
      <trkpt lat="48.53083" lon="7.32416">
        <ele>264</ele>
        <time>2012-08-19T09:02:11Z</time>
      </trkpt>
      <trkpt lat="48.53061" lon="7.32355">
        <ele>263.1</ele>
        <time>2012-08-19T09:02:50Z</time>
      </trkpt>
      <trkpt lat="48.53025" lon="7.32317">
        <ele>263.5</ele>
        <time>2012-08-19T09:03:28Z</time>
      </trkpt>
      <trkpt lat="48.52978" lon="7.32316">
        <ele>257.8</ele>
        <time>2012-08-19T09:04:10Z</time>
      </trkpt>
      <trkpt lat="48.52936" lon="7.32347">
        <ele>257.3</ele>
        <time>2012-08-19T09:04:47Z</time>
      </trkpt>
      <trkpt lat="48.52898" lon="7.32324">
        <ele>255.8</ele>
        <time>2012-08-19T09:05:23Z</time>
      </trkpt>
      <trkpt lat="48.52849" lon="7.32288">
        <ele>252</ele>
        <time>2012-08-19T09:06:19Z</time>
      </trkpt>
      <trkpt lat="48.52801" lon="7.32281">
        <ele>248.2</ele>
        <time>2012-08-19T09:07:32Z</time>
      </trkpt>
      <trkpt lat="48.52776" lon="7.32334">
        <ele>253.9</ele>
        <time>2012-08-19T09:08:10Z</time>
      </trkpt>
      <trkpt lat="48.52744" lon="7.32378">
        <ele>258.7</ele>
        <time>2012-08-19T09:12:36Z</time>
      </trkpt>
      <trkpt lat="48.52709" lon="7.32436">
        <ele>265</ele>
        <time>2012-08-19T09:13:32Z</time>
      </trkpt>
      <trkpt lat="48.52687" lon="7.32467">
        <ele>257.8</ele>
        <time>2012-08-19T09:14:38Z</time>
      </trkpt>
      <trkpt lat="48.52666" lon="7.32407">
        <ele>257.3</ele>
        <time>2012-08-19T09:18:03Z</time>
      </trkpt>
      <trkpt lat="48.52663" lon="7.32402">
        <ele>255.8</ele>
        <time>2012-08-19T09:19:27Z</time>
      </trkpt>
      <trkpt lat="48.47752" lon="7.22158">
        <ele>255.8</ele>
        <time>2012-08-20T06:28:52Z</time>
      </trkpt>
      <trkpt lat="48.47744" lon="7.22201">
        <ele>255.8</ele>
        <time>2012-08-20T06:29:40Z</time>
      </trkpt>
      <trkpt lat="48.47718" lon="7.22261">
        <ele>389</ele>
        <time>2012-08-20T06:30:17Z</time>
      </trkpt>
      <trkpt lat="48.47681" lon="7.22308">
        <ele>407.3</ele>
        <time>2012-08-20T06:30:55Z</time>
      </trkpt>
      <trkpt lat="48.47637" lon="7.22331">
        <ele>409.2</ele>
        <time>2012-08-20T06:31:32Z</time>
      </trkpt>
      <trkpt lat="48.47592" lon="7.22335">
        <ele>408.7</ele>
        <time>2012-08-20T06:32:07Z</time>
      </trkpt>
      <trkpt lat="48.47545" lon="7.22328">
        <ele>408.2</ele>
        <time>2012-08-20T06:32:48Z</time>
      </trkpt>
      <trkpt lat="48.47496" lon="7.22315">
        <ele>403.9</ele>
        <time>2012-08-20T06:33:27Z</time>
      </trkpt>
      <trkpt lat="48.47447" lon="7.22315">
        <ele>399.6</ele>
        <time>2012-08-20T06:34:04Z</time>
      </trkpt>
      <trkpt lat="48.474" lon="7.22318">
        <ele>404.4</ele>
        <time>2012-08-20T06:34:42Z</time>
      </trkpt>
      <trkpt lat="48.4736" lon="7.22352">
        <ele>413.5</ele>
        <time>2012-08-20T06:35:51Z</time>
      </trkpt>
      <trkpt lat="48.47321" lon="7.22385">
        <ele>425.5</ele>
        <time>2012-08-20T06:36:36Z</time>
      </trkpt>
      <trkpt lat="48.4727" lon="7.22382">
        <ele>442.3</ele>
        <time>2012-08-20T06:37:26Z</time>
      </trkpt>
      <trkpt lat="48.47169" lon="7.22411">
        <ele>467.3</ele>
        <time>2012-08-20T06:39:20Z</time>
      </trkpt>
      <trkpt lat="48.47073" lon="7.22365">
        <ele>477.9</ele>
        <time>2012-08-20T06:40:56Z</time>
      </trkpt>
      <trkpt lat="48.47011" lon="7.22272">
        <ele>497.6</ele>
        <time>2012-08-20T06:42:27Z</time>
      </trkpt>
      <trkpt lat="48.46941" lon="7.22273">
        <ele>500</ele>
        <time>2012-08-20T06:43:28Z</time>
      </trkpt>
      <trkpt lat="48.469" lon="7.22322">
        <ele>500</ele>
        <time>2012-08-20T06:44:12Z</time>
      </trkpt>
      <trkpt lat="48.46853" lon="7.22362">
        <ele>499.1</ele>
        <time>2012-08-20T06:44:55Z</time>
      </trkpt>
      <trkpt lat="48.46828" lon="7.22424">
        <ele>503.9</ele>
        <time>2012-08-20T06:45:35Z</time>
      </trkpt>
      <trkpt lat="48.46813" lon="7.22493">
        <ele>507.2</ele>
        <time>2012-08-20T06:46:15Z</time>
      </trkpt>
      <trkpt lat="48.46785" lon="7.22555">
        <ele>508.2</ele>
        <time>2012-08-20T06:46:58Z</time>
      </trkpt>
      <trkpt lat="48.46749" lon="7.22619">
        <ele>508.7</ele>
        <time>2012-08-20T06:47:42Z</time>
      </trkpt>
      <trkpt lat="48.46745" lon="7.22692">
        <ele>520.2</ele>
        <time>2012-08-20T06:48:32Z</time>
      </trkpt>
      <trkpt lat="48.46718" lon="7.22715">
        <ele>530.3</ele>
        <time>2012-08-20T06:49:20Z</time>
      </trkpt>
      <trkpt lat="48.46669" lon="7.22711">
        <ele>530.8</ele>
        <time>2012-08-20T06:50:03Z</time>
      </trkpt>
      <trkpt lat="48.46578" lon="7.2271">
        <ele>541.8</ele>
        <time>2012-08-20T06:51:30Z</time>
      </trkpt>
      <trkpt lat="48.46501" lon="7.22782">
        <ele>552.9</ele>
        <time>2012-08-20T06:53:05Z</time>
      </trkpt>
      <trkpt lat="48.46457" lon="7.22808">
        <ele>550.5</ele>
        <time>2012-08-20T06:53:41Z</time>
      </trkpt>
      <trkpt lat="48.4641" lon="7.22829">
        <ele>553.9</ele>
        <time>2012-08-20T06:54:21Z</time>
      </trkpt>
      <trkpt lat="48.46368" lon="7.22862">
        <ele>562</ele>
        <time>2012-08-20T06:54:59Z</time>
      </trkpt>
      <trkpt lat="48.46322" lon="7.22897">
        <ele>570.2</ele>
        <time>2012-08-20T06:55:43Z</time>
      </trkpt>
      <trkpt lat="48.46267" lon="7.2292">
        <ele>579.8</ele>
        <time>2012-08-20T06:56:33Z</time>
      </trkpt>
      <trkpt lat="48.46214" lon="7.22931">
        <ele>593.8</ele>
        <time>2012-08-20T06:57:20Z</time>
      </trkpt>
      <trkpt lat="48.46172" lon="7.22965">
        <ele>594.7</ele>
        <time>2012-08-20T06:57:57Z</time>
      </trkpt>
      <trkpt lat="48.46136" lon="7.23021">
        <ele>608.2</ele>
        <time>2012-08-20T06:58:44Z</time>
      </trkpt>
      <trkpt lat="48.4612" lon="7.23093">
        <ele>608.2</ele>
        <time>2012-08-20T06:59:24Z</time>
      </trkpt>
      <trkpt lat="48.46119" lon="7.23165">
        <ele>618.7</ele>
        <time>2012-08-20T07:00:09Z</time>
      </trkpt>
      <trkpt lat="48.46119" lon="7.23253">
        <ele>622.6</ele>
        <time>2012-08-20T07:05:22Z</time>
      </trkpt>
      <trkpt lat="48.46113" lon="7.23319">
        <ele>624.5</ele>
        <time>2012-08-20T07:06:06Z</time>
      </trkpt>
      <trkpt lat="48.46104" lon="7.23386">
        <ele>629.8</ele>
        <time>2012-08-20T07:06:45Z</time>
      </trkpt>
      <trkpt lat="48.46092" lon="7.2344">
        <ele>632.2</ele>
        <time>2012-08-20T07:10:46Z</time>
      </trkpt>
      <trkpt lat="48.46102" lon="7.23506">
        <ele>634.1</ele>
        <time>2012-08-20T07:11:31Z</time>
      </trkpt>
      <trkpt lat="48.46124" lon="7.23567">
        <ele>635.1</ele>
        <time>2012-08-20T07:12:12Z</time>
      </trkpt>
      <trkpt lat="48.46146" lon="7.23629">
        <ele>637</ele>
        <time>2012-08-20T07:12:53Z</time>
      </trkpt>
      <trkpt lat="48.46172" lon="7.23688">
        <ele>638.9</ele>
        <time>2012-08-20T07:13:34Z</time>
      </trkpt>
      <trkpt lat="48.46224" lon="7.23736">
        <ele>650.9</ele>
        <time>2012-08-20T07:15:08Z</time>
      </trkpt>
      <trkpt lat="48.46256" lon="7.23786">
        <ele>663.4</ele>
        <time>2012-08-20T07:15:46Z</time>
      </trkpt>
      <trkpt lat="48.46279" lon="7.23849">
        <ele>663.9</ele>
        <time>2012-08-20T07:16:26Z</time>
      </trkpt>
      <trkpt lat="48.46258" lon="7.23893">
        <ele>673.1</ele>
        <time>2012-08-20T07:17:06Z</time>
      </trkpt>
      <trkpt lat="48.4621" lon="7.23889">
        <ele>676.4</ele>
        <time>2012-08-20T07:17:45Z</time>
      </trkpt>
      <trkpt lat="48.46164" lon="7.23893">
        <ele>683.6</ele>
        <time>2012-08-20T07:18:24Z</time>
      </trkpt>
      <trkpt lat="48.46128" lon="7.2393">
        <ele>692.3</ele>
        <time>2012-08-20T07:19:01Z</time>
      </trkpt>
      <trkpt lat="48.46089" lon="7.23962">
        <ele>694.7</ele>
        <time>2012-08-20T07:19:37Z</time>
      </trkpt>
      <trkpt lat="48.46052" lon="7.24002">
        <ele>698.1</ele>
        <time>2012-08-20T07:20:13Z</time>
      </trkpt>
      <trkpt lat="48.46015" lon="7.2404">
        <ele>696.6</ele>
        <time>2012-08-20T07:20:48Z</time>
      </trkpt>
      <trkpt lat="48.45982" lon="7.2409">
        <ele>700.5</ele>
        <time>2012-08-20T07:21:21Z</time>
      </trkpt>
      <trkpt lat="48.45951" lon="7.24137">
        <ele>703.8</ele>
        <time>2012-08-20T07:21:55Z</time>
      </trkpt>
      <trkpt lat="48.45906" lon="7.24155">
        <ele>706.2</ele>
        <time>2012-08-20T07:22:31Z</time>
      </trkpt>
      <trkpt lat="48.4586" lon="7.2418">
        <ele>710.1</ele>
        <time>2012-08-20T07:23:09Z</time>
      </trkpt>
      <trkpt lat="48.45821" lon="7.24218">
        <ele>710.6</ele>
        <time>2012-08-20T07:23:44Z</time>
      </trkpt>
      <trkpt lat="48.45779" lon="7.24246">
        <ele>708.6</ele>
        <time>2012-08-20T07:24:20Z</time>
      </trkpt>
      <trkpt lat="48.45729" lon="7.24251">
        <ele>703.3</ele>
        <time>2012-08-20T07:24:59Z</time>
      </trkpt>
      <trkpt lat="48.45681" lon="7.24255">
        <ele>706.7</ele>
        <time>2012-08-20T07:25:37Z</time>
      </trkpt>
      <trkpt lat="48.45638" lon="7.2428">
        <ele>704.3</ele>
        <time>2012-08-20T07:26:12Z</time>
      </trkpt>
      <trkpt lat="48.45596" lon="7.243">
        <ele>701.4</ele>
        <time>2012-08-20T07:27:08Z</time>
      </trkpt>
      <trkpt lat="48.45551" lon="7.24315">
        <ele>704.3</ele>
        <time>2012-08-20T07:28:02Z</time>
      </trkpt>
      <trkpt lat="48.45505" lon="7.24324">
        <ele>703.8</ele>
        <time>2012-08-20T07:28:36Z</time>
      </trkpt>
      <trkpt lat="48.45459" lon="7.24326">
        <ele>703.3</ele>
        <time>2012-08-20T07:29:12Z</time>
      </trkpt>
      <trkpt lat="48.45412" lon="7.24316">
        <ele>704.3</ele>
        <time>2012-08-20T07:29:49Z</time>
      </trkpt>
      <trkpt lat="48.45415" lon="7.24333">
        <ele>700</ele>
        <time>2012-08-20T07:30:33Z</time>
      </trkpt>
      <trkpt lat="48.45457" lon="7.24371">
        <ele>701.4</ele>
        <time>2012-08-20T07:31:11Z</time>
      </trkpt>
      <trkpt lat="48.45501" lon="7.24407">
        <ele>710.1</ele>
        <time>2012-08-20T07:31:48Z</time>
      </trkpt>
      <trkpt lat="48.45509" lon="7.24464">
        <ele>716.8</ele>
        <time>2012-08-20T07:34:12Z</time>
      </trkpt>
      <trkpt lat="48.45495" lon="7.24531">
        <ele>725.9</ele>
        <time>2012-08-20T07:35:09Z</time>
      </trkpt>
      <trkpt lat="48.45463" lon="7.24641">
        <ele>739.9</ele>
        <time>2012-08-20T07:36:57Z</time>
      </trkpt>
      <trkpt lat="48.4544" lon="7.24738">
        <ele>751.4</ele>
        <time>2012-08-20T07:38:45Z</time>
      </trkpt>
      <trkpt lat="48.4542" lon="7.24846">
        <ele>765.8</ele>
        <time>2012-08-20T07:40:06Z</time>
      </trkpt>
      <trkpt lat="48.45393" lon="7.24961">
        <ele>784.6</ele>
        <time>2012-08-20T07:43:39Z</time>
      </trkpt>
      <trkpt lat="48.45397" lon="7.25027">
        <ele>788.4</ele>
        <time>2012-08-20T07:44:22Z</time>
      </trkpt>
      <trkpt lat="48.45408" lon="7.25094">
        <ele>788.4</ele>
        <time>2012-08-20T07:45:05Z</time>
      </trkpt>
      <trkpt lat="48.45418" lon="7.25161">
        <ele>792.3</ele>
        <time>2012-08-20T07:45:42Z</time>
      </trkpt>
      <trkpt lat="48.45431" lon="7.25225">
        <ele>787.9</ele>
        <time>2012-08-20T07:46:18Z</time>
      </trkpt>
      <trkpt lat="48.45447" lon="7.25289">
        <ele>786.5</ele>
        <time>2012-08-20T07:46:57Z</time>
      </trkpt>
      <trkpt lat="48.45458" lon="7.25285">
        <ele>793.7</ele>
        <time>2012-08-20T07:48:28Z</time>
      </trkpt>
      <trkpt lat="48.45503" lon="7.25338">
        <ele>804.8</ele>
        <time>2012-08-20T07:48:55Z</time>
      </trkpt>
      <trkpt lat="48.45457" lon="7.25306">
        <ele>804.8</ele>
        <time>2012-08-20T07:53:37Z</time>
      </trkpt>
      <trkpt lat="48.4543" lon="7.25333">
        <ele>798</ele>
        <time>2012-08-20T07:54:55Z</time>
      </trkpt>
      <trkpt lat="48.45416" lon="7.25269">
        <ele>800.4</ele>
        <time>2012-08-20T07:55:34Z</time>
      </trkpt>
      <trkpt lat="48.45399" lon="7.2528">
        <ele>801.4</ele>
        <time>2012-08-20T07:56:12Z</time>
      </trkpt>
      <trkpt lat="48.45398" lon="7.25348">
        <ele>804.3</ele>
        <time>2012-08-20T07:56:48Z</time>
      </trkpt>
      <trkpt lat="48.4538" lon="7.25413">
        <ele>808.6</ele>
        <time>2012-08-20T07:57:32Z</time>
      </trkpt>
      <trkpt lat="48.45399" lon="7.25361">
        <ele>809.1</ele>
        <time>2012-08-20T07:58:34Z</time>
      </trkpt>
      <trkpt lat="48.4539" lon="7.25427">
        <ele>810</ele>
        <time>2012-08-20T07:59:11Z</time>
      </trkpt>
      <trkpt lat="48.45356" lon="7.25473">
        <ele>812.5</ele>
        <time>2012-08-20T07:59:46Z</time>
      </trkpt>
      <trkpt lat="48.45319" lon="7.25505">
        <ele>817.7</ele>
        <time>2012-08-20T08:00:23Z</time>
      </trkpt>
      <trkpt lat="48.45276" lon="7.25524">
        <ele>819.7</ele>
        <time>2012-08-20T08:03:39Z</time>
      </trkpt>
      <trkpt lat="48.45221" lon="7.25533">
        <ele>821.1</ele>
        <time>2012-08-20T08:04:22Z</time>
      </trkpt>
      <trkpt lat="48.45169" lon="7.25532">
        <ele>832.6</ele>
        <time>2012-08-20T08:05:05Z</time>
      </trkpt>
      <trkpt lat="48.45118" lon="7.25557">
        <ele>833.6</ele>
        <time>2012-08-20T08:05:49Z</time>
      </trkpt>
      <trkpt lat="48.45058" lon="7.25615">
        <ele>820.1</ele>
        <time>2012-08-20T08:06:44Z</time>
      </trkpt>
      <trkpt lat="48.44993" lon="7.25665">
        <ele>807.2</ele>
        <time>2012-08-20T08:07:48Z</time>
      </trkpt>
      <trkpt lat="48.44906" lon="7.25774">
        <ele>801.4</ele>
        <time>2012-08-20T08:09:18Z</time>
      </trkpt>
      <trkpt lat="48.44851" lon="7.25644">
        <ele>849.9</ele>
        <time>2012-08-20T08:11:39Z</time>
      </trkpt>
      <trkpt lat="48.44821" lon="7.25689">
        <ele>852.3</ele>
        <time>2012-08-20T08:12:17Z</time>
      </trkpt>
      <trkpt lat="48.44773" lon="7.25718">
        <ele>857.6</ele>
        <time>2012-08-20T08:13:04Z</time>
      </trkpt>
      <trkpt lat="48.44751" lon="7.25754">
        <ele>862.9</ele>
        <time>2012-08-20T08:14:01Z</time>
      </trkpt>
      <trkpt lat="48.44766" lon="7.25833">
        <ele>865.3</ele>
        <time>2012-08-20T08:14:45Z</time>
      </trkpt>
      <trkpt lat="48.44785" lon="7.25896">
        <ele>871.1</ele>
        <time>2012-08-20T08:15:23Z</time>
      </trkpt>
      <trkpt lat="48.44802" lon="7.25972">
        <ele>882.6</ele>
        <time>2012-08-20T08:16:12Z</time>
      </trkpt>
      <trkpt lat="48.4482" lon="7.26044">
        <ele>895.6</ele>
        <time>2012-08-20T08:16:56Z</time>
      </trkpt>
      <trkpt lat="48.44845" lon="7.26118">
        <ele>893.7</ele>
        <time>2012-08-20T08:17:36Z</time>
      </trkpt>
      <trkpt lat="48.44865" lon="7.26187">
        <ele>889.4</ele>
        <time>2012-08-20T08:18:13Z</time>
      </trkpt>
      <trkpt lat="48.44884" lon="7.26269">
        <ele>895.6</ele>
        <time>2012-08-20T08:18:58Z</time>
      </trkpt>
      <trkpt lat="48.44895" lon="7.26343">
        <ele>908.6</ele>
        <time>2012-08-20T08:19:39Z</time>
      </trkpt>
      <trkpt lat="48.44914" lon="7.26422">
        <ele>910</ele>
        <time>2012-08-20T08:20:25Z</time>
      </trkpt>
      <trkpt lat="48.44923" lon="7.26497">
        <ele>910.5</ele>
        <time>2012-08-20T08:21:11Z</time>
      </trkpt>
      <trkpt lat="48.44965" lon="7.26695">
        <ele>936.5</ele>
        <time>2012-08-20T08:23:37Z</time>
      </trkpt>
      <trkpt lat="48.44992" lon="7.26861">
        <ele>944.2</ele>
        <time>2012-08-20T08:25:10Z</time>
      </trkpt>
      <trkpt lat="48.4499" lon="7.27001">
        <ele>957.6</ele>
        <time>2012-08-20T08:26:25Z</time>
      </trkpt>
      <trkpt lat="48.44982" lon="7.27117">
        <ele>951.8</ele>
        <time>2012-08-20T08:27:25Z</time>
      </trkpt>
      <trkpt lat="48.44961" lon="7.27254">
        <ele>950.4</ele>
        <time>2012-08-20T08:28:37Z</time>
      </trkpt>
      <trkpt lat="48.44953" lon="7.27361">
        <ele>953.8</ele>
        <time>2012-08-20T08:32:27Z</time>
      </trkpt>
      <trkpt lat="48.4494" lon="7.27463">
        <ele>949.4</ele>
        <time>2012-08-20T08:33:25Z</time>
      </trkpt>
      <trkpt lat="48.44938" lon="7.27553">
        <ele>948</ele>
        <time>2012-08-20T08:34:13Z</time>
      </trkpt>
      <trkpt lat="48.44934" lon="7.27713">
        <ele>970.1</ele>
        <time>2012-08-20T08:35:43Z</time>
      </trkpt>
      <trkpt lat="48.4492" lon="7.27799">
        <ele>974</ele>
        <time>2012-08-20T08:36:22Z</time>
      </trkpt>
      <trkpt lat="48.44874" lon="7.27853">
        <ele>977.8</ele>
        <time>2012-08-20T08:37:10Z</time>
      </trkpt>
      <trkpt lat="48.44795" lon="7.27975">
        <ele>1005.7</ele>
        <time>2012-08-20T08:38:40Z</time>
      </trkpt>
      <trkpt lat="48.4475" lon="7.28047">
        <ele>1002.8</ele>
        <time>2012-08-20T08:39:29Z</time>
      </trkpt>
      <trkpt lat="48.44737" lon="7.28124">
        <ele>994.6</ele>
        <time>2012-08-20T08:40:14Z</time>
      </trkpt>
      <trkpt lat="48.44748" lon="7.28192">
        <ele>993.7</ele>
        <time>2012-08-20T08:40:48Z</time>
      </trkpt>
      <trkpt lat="48.44767" lon="7.28243">
        <ele>993.7</ele>
        <time>2012-08-20T08:41:54Z</time>
      </trkpt>
      <trkpt lat="48.44738" lon="7.28275">
        <ele>998</ele>
        <time>2012-08-20T08:42:38Z</time>
      </trkpt>
      <trkpt lat="48.44688" lon="7.28373">
        <ele>1010.5</ele>
        <time>2012-08-20T08:44:00Z</time>
      </trkpt>
      <trkpt lat="48.4464" lon="7.28426">
        <ele>1013.8</ele>
        <time>2012-08-20T08:45:18Z</time>
      </trkpt>
      <trkpt lat="48.44617" lon="7.28447">
        <ele>1014.8</ele>
        <time>2012-08-20T08:52:32Z</time>
      </trkpt>
      <trkpt lat="48.44592" lon="7.28503">
        <ele>1012.4</ele>
        <time>2012-08-20T08:53:18Z</time>
      </trkpt>
      <trkpt lat="48.4456" lon="7.28541">
        <ele>1015.8</ele>
        <time>2012-08-20T08:53:59Z</time>
      </trkpt>
      <trkpt lat="48.44529" lon="7.28596">
        <ele>1019.1</ele>
        <time>2012-08-20T08:54:48Z</time>
      </trkpt>
      <trkpt lat="48.4446" lon="7.28588">
        <ele>1027.8</ele>
        <time>2012-08-20T08:55:50Z</time>
      </trkpt>
      <trkpt lat="48.44385" lon="7.2856">
        <ele>1030.2</ele>
        <time>2012-08-20T08:57:26Z</time>
      </trkpt>
      <trkpt lat="48.4434" lon="7.28589">
        <ele>1030.2</ele>
        <time>2012-08-20T08:58:07Z</time>
      </trkpt>
      <trkpt lat="48.44304" lon="7.28626">
        <ele>1026.3</ele>
        <time>2012-08-20T08:58:48Z</time>
      </trkpt>
      <trkpt lat="48.44277" lon="7.28689">
        <ele>1019.1</ele>
        <time>2012-08-20T08:59:31Z</time>
      </trkpt>
      <trkpt lat="48.4423" lon="7.28749">
        <ele>1011.4</ele>
        <time>2012-08-20T09:00:18Z</time>
      </trkpt>
      <trkpt lat="48.44192" lon="7.28808">
        <ele>1001.8</ele>
        <time>2012-08-20T09:00:58Z</time>
      </trkpt>
      <trkpt lat="48.44131" lon="7.28856">
        <ele>998.5</ele>
        <time>2012-08-20T09:01:55Z</time>
      </trkpt>
      <trkpt lat="48.44047" lon="7.28925">
        <ele>985</ele>
        <time>2012-08-20T09:03:07Z</time>
      </trkpt>
      <trkpt lat="48.43982" lon="7.28959">
        <ele>988.9</ele>
        <time>2012-08-20T09:03:52Z</time>
      </trkpt>
      <trkpt lat="48.43905" lon="7.29014">
        <ele>991.7</ele>
        <time>2012-08-20T09:04:57Z</time>
      </trkpt>
      <trkpt lat="48.43855" lon="7.29071">
        <ele>990.3</ele>
        <time>2012-08-20T09:05:37Z</time>
      </trkpt>
      <trkpt lat="48.43814" lon="7.29132">
        <ele>991.3</ele>
        <time>2012-08-20T09:06:16Z</time>
      </trkpt>
      <trkpt lat="48.43776" lon="7.29187">
        <ele>995.6</ele>
        <time>2012-08-20T09:06:50Z</time>
      </trkpt>
      <trkpt lat="48.43749" lon="7.29247">
        <ele>998</ele>
        <time>2012-08-20T09:07:22Z</time>
      </trkpt>
      <trkpt lat="48.4373" lon="7.29309">
        <ele>997</ele>
        <time>2012-08-20T09:07:54Z</time>
      </trkpt>
      <trkpt lat="48.43712" lon="7.29372">
        <ele>997</ele>
        <time>2012-08-20T09:08:26Z</time>
      </trkpt>
      <trkpt lat="48.43699" lon="7.29439">
        <ele>996.5</ele>
        <time>2012-08-20T09:08:58Z</time>
      </trkpt>
      <trkpt lat="48.43673" lon="7.29494">
        <ele>998.5</ele>
        <time>2012-08-20T09:09:31Z</time>
      </trkpt>
      <trkpt lat="48.43638" lon="7.29542">
        <ele>999.4</ele>
        <time>2012-08-20T09:10:07Z</time>
      </trkpt>
      <trkpt lat="48.43606" lon="7.29585">
        <ele>997.5</ele>
        <time>2012-08-20T09:12:45Z</time>
      </trkpt>
      <trkpt lat="48.43574" lon="7.29636">
        <ele>995.6</ele>
        <time>2012-08-20T09:13:20Z</time>
      </trkpt>
      <trkpt lat="48.43545" lon="7.29689">
        <ele>995.6</ele>
        <time>2012-08-20T09:14:11Z</time>
      </trkpt>
      <trkpt lat="48.43518" lon="7.29736">
        <ele>997.5</ele>
        <time>2012-08-20T09:14:49Z</time>
      </trkpt>
      <trkpt lat="48.43489" lon="7.2979">
        <ele>996.5</ele>
        <time>2012-08-20T09:15:21Z</time>
      </trkpt>
      <trkpt lat="48.43467" lon="7.29851">
        <ele>996.1</ele>
        <time>2012-08-20T09:15:53Z</time>
      </trkpt>
      <trkpt lat="48.43451" lon="7.29915">
        <ele>996.5</ele>
        <time>2012-08-20T09:16:25Z</time>
      </trkpt>
      <trkpt lat="48.43429" lon="7.29973">
        <ele>993.2</ele>
        <time>2012-08-20T09:16:58Z</time>
      </trkpt>
      <trkpt lat="48.43429" lon="7.30043">
        <ele>992.2</ele>
        <time>2012-08-20T09:17:41Z</time>
      </trkpt>
      <trkpt lat="48.43437" lon="7.30121">
        <ele>982.6</ele>
        <time>2012-08-20T09:18:23Z</time>
      </trkpt>
      <trkpt lat="48.43421" lon="7.30214">
        <ele>972.5</ele>
        <time>2012-08-20T09:19:15Z</time>
      </trkpt>
      <trkpt lat="48.43405" lon="7.30297">
        <ele>970.6</ele>
        <time>2012-08-20T09:20:00Z</time>
      </trkpt>
      <trkpt lat="48.43383" lon="7.30374">
        <ele>970.1</ele>
        <time>2012-08-20T09:20:40Z</time>
      </trkpt>
      <trkpt lat="48.43361" lon="7.30454">
        <ele>971.1</ele>
        <time>2012-08-20T09:21:31Z</time>
      </trkpt>
      <trkpt lat="48.43312" lon="7.30499">
        <ele>967.7</ele>
        <time>2012-08-20T09:22:18Z</time>
      </trkpt>
      <trkpt lat="48.43277" lon="7.30553">
        <ele>968.7</ele>
        <time>2012-08-20T09:22:53Z</time>
      </trkpt>
      <trkpt lat="48.43237" lon="7.30604">
        <ele>970.1</ele>
        <time>2012-08-20T09:23:32Z</time>
      </trkpt>
      <trkpt lat="48.43181" lon="7.30619">
        <ele>969.1</ele>
        <time>2012-08-20T09:24:13Z</time>
      </trkpt>
      <trkpt lat="48.43109" lon="7.30593">
        <ele>969.6</ele>
        <time>2012-08-20T09:25:09Z</time>
      </trkpt>
      <trkpt lat="48.43035" lon="7.30561">
        <ele>968.2</ele>
        <time>2012-08-20T09:26:10Z</time>
      </trkpt>
      <trkpt lat="48.42962" lon="7.30567">
        <ele>967.7</ele>
        <time>2012-08-20T09:27:01Z</time>
      </trkpt>
      <trkpt lat="48.42946" lon="7.30619">
        <ele>970.6</ele>
        <time>2012-08-20T09:27:40Z</time>
      </trkpt>
      <trkpt lat="48.42952" lon="7.30683">
        <ele>963.4</ele>
        <time>2012-08-20T09:28:17Z</time>
      </trkpt>
      <trkpt lat="48.42936" lon="7.30755">
        <ele>947.5</ele>
        <time>2012-08-20T09:28:55Z</time>
      </trkpt>
      <trkpt lat="48.4293" lon="7.30827">
        <ele>949</ele>
        <time>2012-08-20T09:29:30Z</time>
      </trkpt>
      <trkpt lat="48.42922" lon="7.30897">
        <ele>952.8</ele>
        <time>2012-08-20T09:30:05Z</time>
      </trkpt>
      <trkpt lat="48.42915" lon="7.30972">
        <ele>949.9</ele>
        <time>2012-08-20T09:30:43Z</time>
      </trkpt>
      <trkpt lat="48.42916" lon="7.3105">
        <ele>948</ele>
        <time>2012-08-20T09:31:18Z</time>
      </trkpt>
      <trkpt lat="48.42899" lon="7.31114">
        <ele>948.5</ele>
        <time>2012-08-20T09:31:52Z</time>
      </trkpt>
      <trkpt lat="48.42879" lon="7.31175">
        <ele>943.2</ele>
        <time>2012-08-20T09:32:23Z</time>
      </trkpt>
      <trkpt lat="48.42851" lon="7.31226">
        <ele>942.7</ele>
        <time>2012-08-20T09:32:54Z</time>
      </trkpt>
      <trkpt lat="48.42842" lon="7.31299">
        <ele>942.7</ele>
        <time>2012-08-20T09:33:27Z</time>
      </trkpt>
      <trkpt lat="48.42827" lon="7.31364">
        <ele>945.6</ele>
        <time>2012-08-20T09:34:00Z</time>
      </trkpt>
      <trkpt lat="48.42826" lon="7.31441">
        <ele>949</ele>
        <time>2012-08-20T09:34:34Z</time>
      </trkpt>
      <trkpt lat="48.42814" lon="7.31512">
        <ele>953.3</ele>
        <time>2012-08-20T09:36:41Z</time>
      </trkpt>
      <trkpt lat="48.42826" lon="7.31565">
        <ele>952.8</ele>
        <time>2012-08-20T09:37:56Z</time>
      </trkpt>
      <trkpt lat="48.42836" lon="7.31634">
        <ele>954.2</ele>
        <time>2012-08-20T09:38:30Z</time>
      </trkpt>
      <trkpt lat="48.42859" lon="7.31703">
        <ele>965.3</ele>
        <time>2012-08-20T09:39:13Z</time>
      </trkpt>
      <trkpt lat="48.42885" lon="7.3179">
        <ele>966.3</ele>
        <time>2012-08-20T09:39:54Z</time>
      </trkpt>
      <trkpt lat="48.429" lon="7.3186">
        <ele>963.4</ele>
        <time>2012-08-20T09:40:25Z</time>
      </trkpt>
      <trkpt lat="48.42904" lon="7.31908">
        <ele>961.5</ele>
        <time>2012-08-20T09:41:04Z</time>
      </trkpt>
      <trkpt lat="48.42903" lon="7.31973">
        <ele>959.5</ele>
        <time>2012-08-20T09:41:45Z</time>
      </trkpt>
      <trkpt lat="48.42903" lon="7.32044">
        <ele>959.5</ele>
        <time>2012-08-20T09:42:20Z</time>
      </trkpt>
      <trkpt lat="48.42899" lon="7.32116">
        <ele>957.6</ele>
        <time>2012-08-20T09:42:53Z</time>
      </trkpt>
      <trkpt lat="48.42895" lon="7.32186">
        <ele>954.7</ele>
        <time>2012-08-20T09:43:26Z</time>
      </trkpt>
      <trkpt lat="48.42872" lon="7.32246">
        <ele>952.3</ele>
        <time>2012-08-20T09:43:58Z</time>
      </trkpt>
      <trkpt lat="48.42862" lon="7.32315">
        <ele>958.1</ele>
        <time>2012-08-20T09:44:31Z</time>
      </trkpt>
      <trkpt lat="48.42845" lon="7.32377">
        <ele>956.2</ele>
        <time>2012-08-20T09:45:01Z</time>
      </trkpt>
      <trkpt lat="48.42825" lon="7.32436">
        <ele>959.1</ele>
        <time>2012-08-20T09:45:32Z</time>
      </trkpt>
      <trkpt lat="48.42797" lon="7.32488">
        <ele>958.6</ele>
        <time>2012-08-20T09:46:06Z</time>
      </trkpt>
      <trkpt lat="48.42768" lon="7.32538">
        <ele>952.8</ele>
        <time>2012-08-20T09:46:38Z</time>
      </trkpt>
      <trkpt lat="48.42739" lon="7.3259">
        <ele>952.8</ele>
        <time>2012-08-20T09:47:10Z</time>
      </trkpt>
      <trkpt lat="48.42713" lon="7.3265">
        <ele>956.2</ele>
        <time>2012-08-20T09:47:43Z</time>
      </trkpt>
      <trkpt lat="48.42687" lon="7.32709">
        <ele>956.2</ele>
        <time>2012-08-20T09:48:16Z</time>
      </trkpt>
      <trkpt lat="48.42669" lon="7.32775">
        <ele>955.2</ele>
        <time>2012-08-20T09:48:50Z</time>
      </trkpt>
      <trkpt lat="48.42654" lon="7.32812">
        <ele>961</ele>
        <time>2012-08-20T09:50:06Z</time>
      </trkpt>
      <trkpt lat="48.42647" lon="7.32777">
        <ele>917.7</ele>
        <time>2012-08-20T10:09:01Z</time>
      </trkpt>
      <trkpt lat="48.42657" lon="7.32888">
        <ele>986.9</ele>
        <time>2012-08-20T10:12:34Z</time>
      </trkpt>
      <trkpt lat="48.42651" lon="7.32959">
        <ele>1001.8</ele>
        <time>2012-08-20T10:13:16Z</time>
      </trkpt>
      <trkpt lat="48.42645" lon="7.33035">
        <ele>1009</ele>
        <time>2012-08-20T10:13:56Z</time>
      </trkpt>
      <trkpt lat="48.42649" lon="7.3311">
        <ele>1018.7</ele>
        <time>2012-08-20T10:14:35Z</time>
      </trkpt>
      <trkpt lat="48.42654" lon="7.33183">
        <ele>1022.5</ele>
        <time>2012-08-20T10:15:12Z</time>
      </trkpt>
      <trkpt lat="48.42676" lon="7.33258">
        <ele>1017.7</ele>
        <time>2012-08-20T10:16:01Z</time>
      </trkpt>
      <trkpt lat="48.42697" lon="7.33336">
        <ele>997</ele>
        <time>2012-08-20T10:16:39Z</time>
      </trkpt>
      <trkpt lat="48.42728" lon="7.33399">
        <ele>971.1</ele>
        <time>2012-08-20T10:17:20Z</time>
      </trkpt>
      <trkpt lat="48.42739" lon="7.33473">
        <ele>975.4</ele>
        <time>2012-08-20T10:18:02Z</time>
      </trkpt>
      <trkpt lat="48.42749" lon="7.33546">
        <ele>982.1</ele>
        <time>2012-08-20T10:18:42Z</time>
      </trkpt>
      <trkpt lat="48.42757" lon="7.33635">
        <ele>981.6</ele>
        <time>2012-08-20T10:19:28Z</time>
      </trkpt>
      <trkpt lat="48.42771" lon="7.33741">
        <ele>967.7</ele>
        <time>2012-08-20T10:20:50Z</time>
      </trkpt>
      <trkpt lat="48.42787" lon="7.33829">
        <ele>958.1</ele>
        <time>2012-08-20T10:21:39Z</time>
      </trkpt>
      <trkpt lat="48.42795" lon="7.33925">
        <ele>952.3</ele>
        <time>2012-08-20T10:22:25Z</time>
      </trkpt>
      <trkpt lat="48.42803" lon="7.34">
        <ele>949</ele>
        <time>2012-08-20T10:23:02Z</time>
      </trkpt>
      <trkpt lat="48.42814" lon="7.34068">
        <ele>949.9</ele>
        <time>2012-08-20T10:23:38Z</time>
      </trkpt>
      <trkpt lat="48.42823" lon="7.34154">
        <ele>951.8</ele>
        <time>2012-08-20T10:24:24Z</time>
      </trkpt>
      <trkpt lat="48.42823" lon="7.34228">
        <ele>954.7</ele>
        <time>2012-08-20T10:25:00Z</time>
      </trkpt>
      <trkpt lat="48.42828" lon="7.34298">
        <ele>958.1</ele>
        <time>2012-08-20T10:25:38Z</time>
      </trkpt>
      <trkpt lat="48.42839" lon="7.34376">
        <ele>945.6</ele>
        <time>2012-08-20T10:26:16Z</time>
      </trkpt>
      <trkpt lat="48.42858" lon="7.34451">
        <ele>936.5</ele>
        <time>2012-08-20T10:27:01Z</time>
      </trkpt>
      <trkpt lat="48.42889" lon="7.34521">
        <ele>927.3</ele>
        <time>2012-08-20T10:27:44Z</time>
      </trkpt>
      <trkpt lat="48.42893" lon="7.34605">
        <ele>918.7</ele>
        <time>2012-08-20T10:28:32Z</time>
      </trkpt>
      <trkpt lat="48.4289" lon="7.34686">
        <ele>902.8</ele>
        <time>2012-08-20T10:29:18Z</time>
      </trkpt>
      <trkpt lat="48.42879" lon="7.34767">
        <ele>897</ele>
        <time>2012-08-20T10:30:04Z</time>
      </trkpt>
      <trkpt lat="48.42851" lon="7.3484">
        <ele>889.4</ele>
        <time>2012-08-20T10:30:47Z</time>
      </trkpt>
      <trkpt lat="48.42824" lon="7.3492">
        <ele>881.2</ele>
        <time>2012-08-20T10:31:35Z</time>
      </trkpt>
      <trkpt lat="48.42805" lon="7.35">
        <ele>875.4</ele>
        <time>2012-08-20T10:32:23Z</time>
      </trkpt>
      <trkpt lat="48.42773" lon="7.35078">
        <ele>868.2</ele>
        <time>2012-08-20T10:33:07Z</time>
      </trkpt>
      <trkpt lat="48.42733" lon="7.35132">
        <ele>861</ele>
        <time>2012-08-20T10:33:50Z</time>
      </trkpt>
      <trkpt lat="48.42711" lon="7.35212">
        <ele>855.7</ele>
        <time>2012-08-20T10:34:34Z</time>
      </trkpt>
      <trkpt lat="48.42699" lon="7.35286">
        <ele>853.8</ele>
        <time>2012-08-20T10:35:14Z</time>
      </trkpt>
      <trkpt lat="48.42693" lon="7.35367">
        <ele>855.7</ele>
        <time>2012-08-20T10:35:54Z</time>
      </trkpt>
      <trkpt lat="48.4269" lon="7.35444">
        <ele>847.5</ele>
        <time>2012-08-20T10:36:40Z</time>
      </trkpt>
      <trkpt lat="48.42688" lon="7.35518">
        <ele>838.4</ele>
        <time>2012-08-20T10:37:18Z</time>
      </trkpt>
      <trkpt lat="48.42676" lon="7.35586">
        <ele>836</ele>
        <time>2012-08-20T10:37:55Z</time>
      </trkpt>
      <trkpt lat="48.42671" lon="7.3566">
        <ele>837.4</ele>
        <time>2012-08-20T10:38:32Z</time>
      </trkpt>
      <trkpt lat="48.42663" lon="7.35715">
        <ele>838.9</ele>
        <time>2012-08-20T10:39:31Z</time>
      </trkpt>
      <trkpt lat="48.42645" lon="7.35805">
        <ele>841.3</ele>
        <time>2012-08-20T10:40:22Z</time>
      </trkpt>
      <trkpt lat="48.42629" lon="7.35888">
        <ele>821.1</ele>
        <time>2012-08-20T10:41:02Z</time>
      </trkpt>
      <trkpt lat="48.42605" lon="7.35952">
        <ele>816.3</ele>
        <time>2012-08-20T10:41:42Z</time>
      </trkpt>
      <trkpt lat="48.4257" lon="7.36011">
        <ele>810</ele>
        <time>2012-08-20T10:42:24Z</time>
      </trkpt>
      <trkpt lat="48.42551" lon="7.36048">
        <ele>800.4</ele>
        <time>2012-08-20T10:50:57Z</time>
      </trkpt>
      <trkpt lat="48.42545" lon="7.36111">
        <ele>800</ele>
        <time>2012-08-20T10:51:34Z</time>
      </trkpt>
      <trkpt lat="48.42544" lon="7.36177">
        <ele>799.5</ele>
        <time>2012-08-20T10:52:10Z</time>
      </trkpt>
      <trkpt lat="48.42538" lon="7.36247">
        <ele>803.8</ele>
        <time>2012-08-20T10:52:47Z</time>
      </trkpt>
      <trkpt lat="48.42529" lon="7.36335">
        <ele>812</ele>
        <time>2012-08-20T10:53:38Z</time>
      </trkpt>
      <trkpt lat="48.42544" lon="7.36409">
        <ele>814.4</ele>
        <time>2012-08-20T10:54:22Z</time>
      </trkpt>
      <trkpt lat="48.42595" lon="7.36461">
        <ele>837.4</ele>
        <time>2012-08-20T10:55:21Z</time>
      </trkpt>
      <trkpt lat="48.42662" lon="7.36554">
        <ele>851.9</ele>
        <time>2012-08-20T10:56:35Z</time>
      </trkpt>
      <trkpt lat="48.42722" lon="7.36609">
        <ele>836.5</ele>
        <time>2012-08-20T10:57:34Z</time>
      </trkpt>
      <trkpt lat="48.42812" lon="7.36653">
        <ele>808.1</ele>
        <time>2012-08-20T10:58:48Z</time>
      </trkpt>
      <trkpt lat="48.42925" lon="7.36667">
        <ele>774</ele>
        <time>2012-08-20T11:00:17Z</time>
      </trkpt>
      <trkpt lat="48.42984" lon="7.36709">
        <ele>766.3</ele>
        <time>2012-08-20T11:03:05Z</time>
      </trkpt>
      <trkpt lat="48.42954" lon="7.36763">
        <ele>759.6</ele>
        <time>2012-08-20T11:03:52Z</time>
      </trkpt>
      <trkpt lat="48.42907" lon="7.36828">
        <ele>750.4</ele>
        <time>2012-08-20T11:04:47Z</time>
      </trkpt>
      <trkpt lat="48.42839" lon="7.36893">
        <ele>739.4</ele>
        <time>2012-08-20T11:05:53Z</time>
      </trkpt>
      <trkpt lat="48.42809" lon="7.36962">
        <ele>739.9</ele>
        <time>2012-08-20T11:06:43Z</time>
      </trkpt>
      <trkpt lat="48.42753" lon="7.37049">
        <ele>744.7</ele>
        <time>2012-08-20T11:07:49Z</time>
      </trkpt>
      <trkpt lat="48.42705" lon="7.37105">
        <ele>733.1</ele>
        <time>2012-08-20T11:08:27Z</time>
      </trkpt>
      <trkpt lat="48.42704" lon="7.37182">
        <ele>727.4</ele>
        <time>2012-08-20T11:09:10Z</time>
      </trkpt>
      <trkpt lat="48.42676" lon="7.37213">
        <ele>710.1</ele>
        <time>2012-08-20T11:10:13Z</time>
      </trkpt>
      <trkpt lat="48.42636" lon="7.37164">
        <ele>720.2</ele>
        <time>2012-08-20T11:11:03Z</time>
      </trkpt>
      <trkpt lat="48.42599" lon="7.37128">
        <ele>711</ele>
        <time>2012-08-20T11:11:42Z</time>
      </trkpt>
      <trkpt lat="48.42587" lon="7.37201">
        <ele>720.6</ele>
        <time>2012-08-20T11:12:28Z</time>
      </trkpt>
      <trkpt lat="48.42571" lon="7.37285">
        <ele>719.7</ele>
        <time>2012-08-20T11:13:16Z</time>
      </trkpt>
      <trkpt lat="48.42545" lon="7.37363">
        <ele>736</ele>
        <time>2012-08-20T11:14:04Z</time>
      </trkpt>
      <trkpt lat="48.42497" lon="7.37454">
        <ele>735.5</ele>
        <time>2012-08-20T11:15:08Z</time>
      </trkpt>
      <trkpt lat="48.42413" lon="7.37496">
        <ele>732.7</ele>
        <time>2012-08-20T11:16:20Z</time>
      </trkpt>
      <trkpt lat="48.42331" lon="7.37521">
        <ele>726.9</ele>
        <time>2012-08-20T11:17:21Z</time>
      </trkpt>
      <trkpt lat="48.42241" lon="7.37561">
        <ele>719.7</ele>
        <time>2012-08-20T11:20:09Z</time>
      </trkpt>
      <trkpt lat="48.42214" lon="7.37634">
        <ele>711.5</ele>
        <time>2012-08-20T11:21:01Z</time>
      </trkpt>
      <trkpt lat="48.4219" lon="7.37696">
        <ele>704.3</ele>
        <time>2012-08-20T11:21:38Z</time>
      </trkpt>
      <trkpt lat="48.42166" lon="7.37762">
        <ele>699.5</ele>
        <time>2012-08-20T11:22:17Z</time>
      </trkpt>
      <trkpt lat="48.42141" lon="7.37833">
        <ele>705.7</ele>
        <time>2012-08-20T11:22:58Z</time>
      </trkpt>
      <trkpt lat="48.42122" lon="7.37903">
        <ele>710.1</ele>
        <time>2012-08-20T11:23:35Z</time>
      </trkpt>
      <trkpt lat="48.42104" lon="7.37973">
        <ele>711</ele>
        <time>2012-08-20T11:24:11Z</time>
      </trkpt>
      <trkpt lat="48.42087" lon="7.38047">
        <ele>712.5</ele>
        <time>2012-08-20T11:24:48Z</time>
      </trkpt>
      <trkpt lat="48.42081" lon="7.38123">
        <ele>710.1</ele>
        <time>2012-08-20T11:25:26Z</time>
      </trkpt>
      <trkpt lat="48.42079" lon="7.38197">
        <ele>708.1</ele>
        <time>2012-08-20T11:26:00Z</time>
      </trkpt>
      <trkpt lat="48.42086" lon="7.38272">
        <ele>710.1</ele>
        <time>2012-08-20T11:26:40Z</time>
      </trkpt>
      <trkpt lat="48.421" lon="7.38342">
        <ele>705.3</ele>
        <time>2012-08-20T11:27:15Z</time>
      </trkpt>
      <trkpt lat="48.42118" lon="7.38407">
        <ele>711.5</ele>
        <time>2012-08-20T11:27:56Z</time>
      </trkpt>
      <trkpt lat="48.42124" lon="7.38493">
        <ele>715.4</ele>
        <time>2012-08-20T11:28:41Z</time>
      </trkpt>
      <trkpt lat="48.4213" lon="7.38576">
        <ele>716.8</ele>
        <time>2012-08-20T11:29:19Z</time>
      </trkpt>
      <trkpt lat="48.42113" lon="7.38652">
        <ele>720.2</ele>
        <time>2012-08-20T11:30:00Z</time>
      </trkpt>
      <trkpt lat="48.4209" lon="7.38702">
        <ele>726.9</ele>
        <time>2012-08-20T11:31:06Z</time>
      </trkpt>
      <trkpt lat="48.42058" lon="7.38764">
        <ele>725</ele>
        <time>2012-08-20T11:31:47Z</time>
      </trkpt>
      <trkpt lat="48.42024" lon="7.38821">
        <ele>725</ele>
        <time>2012-08-20T11:32:24Z</time>
      </trkpt>
      <trkpt lat="48.41996" lon="7.3888">
        <ele>724.5</ele>
        <time>2012-08-20T11:32:58Z</time>
      </trkpt>
      <trkpt lat="48.41976" lon="7.38954">
        <ele>729.8</ele>
        <time>2012-08-20T11:33:38Z</time>
      </trkpt>
      <trkpt lat="48.41981" lon="7.39058">
        <ele>727.9</ele>
        <time>2012-08-20T11:34:56Z</time>
      </trkpt>
      <trkpt lat="48.42056" lon="7.3911">
        <ele>759.6</ele>
        <time>2012-08-20T11:36:22Z</time>
      </trkpt>
      <trkpt lat="48.42129" lon="7.39148">
        <ele>792.7</ele>
        <time>2012-08-20T11:37:22Z</time>
      </trkpt>
      <trkpt lat="48.42191" lon="7.39195">
        <ele>828.8</ele>
        <time>2012-08-20T11:38:17Z</time>
      </trkpt>
      <trkpt lat="48.42237" lon="7.3925">
        <ele>835.5</ele>
        <time>2012-08-20T11:39:16Z</time>
      </trkpt>
      <trkpt lat="48.42252" lon="7.39313">
        <ele>837</ele>
        <time>2012-08-20T11:40:11Z</time>
      </trkpt>
      <trkpt lat="48.42264" lon="7.39488">
        <ele>792.3</ele>
        <time>2012-08-20T11:41:13Z</time>
      </trkpt>
      <trkpt lat="48.42265" lon="7.39586">
        <ele>755.7</ele>
        <time>2012-08-20T11:41:53Z</time>
      </trkpt>
      <trkpt lat="48.4226" lon="7.39672">
        <ele>746.6</ele>
        <time>2012-08-20T11:42:33Z</time>
      </trkpt>
      <trkpt lat="48.42259" lon="7.39746">
        <ele>739.4</ele>
        <time>2012-08-20T11:43:13Z</time>
      </trkpt>
      <trkpt lat="48.42264" lon="7.39823">
        <ele>745.6</ele>
        <time>2012-08-20T11:43:53Z</time>
      </trkpt>
      <trkpt lat="48.42277" lon="7.39902">
        <ele>740.4</ele>
        <time>2012-08-20T11:44:27Z</time>
      </trkpt>
      <trkpt lat="48.42288" lon="7.39969">
        <ele>735.1</ele>
        <time>2012-08-20T11:45:03Z</time>
      </trkpt>
      <trkpt lat="48.42316" lon="7.40029">
        <ele>749</ele>
        <time>2012-08-20T11:46:04Z</time>
      </trkpt>
      <trkpt lat="48.42346" lon="7.40075">
        <ele>766.8</ele>
        <time>2012-08-20T11:46:48Z</time>
      </trkpt>
      <trkpt lat="48.42394" lon="7.40081">
        <ele>769.2</ele>
        <time>2012-08-20T11:47:24Z</time>
      </trkpt>
      <trkpt lat="48.42434" lon="7.40046">
        <ele>766.3</ele>
        <time>2012-08-20T11:48:04Z</time>
      </trkpt>
      <trkpt lat="48.42478" lon="7.40001">
        <ele>760.5</ele>
        <time>2012-08-20T11:48:55Z</time>
      </trkpt>
      <trkpt lat="48.42527" lon="7.39948">
        <ele>763.9</ele>
        <time>2012-08-20T11:49:34Z</time>
      </trkpt>
      <trkpt lat="48.42578" lon="7.3995">
        <ele>775</ele>
        <time>2012-08-20T11:50:11Z</time>
      </trkpt>
      <trkpt lat="48.42625" lon="7.39998">
        <ele>797.6</ele>
        <time>2012-08-20T11:50:55Z</time>
      </trkpt>
      <trkpt lat="48.42673" lon="7.4006">
        <ele>812</ele>
        <time>2012-08-20T11:51:42Z</time>
      </trkpt>
      <trkpt lat="48.42719" lon="7.40108">
        <ele>807.6</ele>
        <time>2012-08-20T11:52:27Z</time>
      </trkpt>
      <trkpt lat="48.4277" lon="7.40109">
        <ele>802.4</ele>
        <time>2012-08-20T11:53:05Z</time>
      </trkpt>
      <trkpt lat="48.42811" lon="7.40067">
        <ele>787.9</ele>
        <time>2012-08-20T11:53:52Z</time>
      </trkpt>
      <trkpt lat="48.42861" lon="7.40019">
        <ele>787.9</ele>
        <time>2012-08-20T11:54:40Z</time>
      </trkpt>
      <trkpt lat="48.42916" lon="7.39992">
        <ele>790.8</ele>
        <time>2012-08-20T11:55:20Z</time>
      </trkpt>
      <trkpt lat="48.42973" lon="7.39989">
        <ele>796.6</ele>
        <time>2012-08-20T11:56:00Z</time>
      </trkpt>
      <trkpt lat="48.43028" lon="7.40034">
        <ele>816.8</ele>
        <time>2012-08-20T11:56:44Z</time>
      </trkpt>
      <trkpt lat="48.43086" lon="7.40088">
        <ele>826.9</ele>
        <time>2012-08-20T11:57:36Z</time>
      </trkpt>
      <trkpt lat="48.43141" lon="7.40112">
        <ele>822.5</ele>
        <time>2012-08-20T11:58:16Z</time>
      </trkpt>
      <trkpt lat="48.43195" lon="7.40121">
        <ele>813.9</ele>
        <time>2012-08-20T11:58:56Z</time>
      </trkpt>
      <trkpt lat="48.43251" lon="7.40165">
        <ele>818.7</ele>
        <time>2012-08-20T11:59:56Z</time>
      </trkpt>
      <trkpt lat="48.43324" lon="7.40217">
        <ele>809.1</ele>
        <time>2012-08-20T12:01:16Z</time>
      </trkpt>
      <trkpt lat="48.43389" lon="7.40202">
        <ele>799</ele>
        <time>2012-08-20T12:02:11Z</time>
      </trkpt>
      <trkpt lat="48.43458" lon="7.40229">
        <ele>792.7</ele>
        <time>2012-08-20T12:03:18Z</time>
      </trkpt>
      <trkpt lat="48.43533" lon="7.40287">
        <ele>788.4</ele>
        <time>2012-08-20T12:04:41Z</time>
      </trkpt>
      <trkpt lat="48.43585" lon="7.40339">
        <ele>794.2</ele>
        <time>2012-08-20T12:05:21Z</time>
      </trkpt>
      <trkpt lat="48.43714" lon="7.40412">
        <ele>789.4</ele>
        <time>2012-08-20T12:08:24Z</time>
      </trkpt>
      <trkpt lat="48.43732" lon="7.40491">
        <ele>799.5</ele>
        <time>2012-08-20T12:11:16Z</time>
      </trkpt>
      <trkpt lat="48.43769" lon="7.40539">
        <ele>782.7</ele>
        <time>2012-08-20T12:11:56Z</time>
      </trkpt>
      <trkpt lat="48.43803" lon="7.40559">
        <ele>772.1</ele>
        <time>2012-08-20T12:13:06Z</time>
      </trkpt>
      <trkpt lat="48.43807" lon="7.40482">
        <ele>762.5</ele>
        <time>2012-08-20T12:16:02Z</time>
      </trkpt>
      <trkpt lat="48.43817" lon="7.40484">
        <ele>780.2</ele>
        <time>2012-08-20T12:18:07Z</time>
      </trkpt>
      <trkpt lat="48.43786" lon="7.40542">
        <ele>780.7</ele>
        <time>2012-08-20T12:19:21Z</time>
      </trkpt>
      <trkpt lat="48.43742" lon="7.40507">
        <ele>782.2</ele>
        <time>2012-08-20T12:20:14Z</time>
      </trkpt>
      <trkpt lat="48.43748" lon="7.40449">
        <ele>781.2</ele>
        <time>2012-08-20T12:22:08Z</time>
      </trkpt>
      <trkpt lat="48.43742" lon="7.40394">
        <ele>767.3</ele>
        <time>2012-08-20T12:23:29Z</time>
      </trkpt>
      <trkpt lat="48.43662" lon="7.40388">
        <ele>772.6</ele>
        <time>2012-08-20T12:25:26Z</time>
      </trkpt>
      <trkpt lat="48.436" lon="7.40347">
        <ele>773</ele>
        <time>2012-08-20T12:26:25Z</time>
      </trkpt>
      <trkpt lat="48.43555" lon="7.40299">
        <ele>765.8</ele>
        <time>2012-08-20T12:27:03Z</time>
      </trkpt>
      <trkpt lat="48.43479" lon="7.40233">
        <ele>770.6</ele>
        <time>2012-08-20T12:28:32Z</time>
      </trkpt>
      <trkpt lat="48.43377" lon="7.40198">
        <ele>762.9</ele>
        <time>2012-08-20T12:30:09Z</time>
      </trkpt>
      <trkpt lat="48.43134" lon="7.40264">
        <ele>806.7</ele>
        <time>2012-08-20T12:34:59Z</time>
      </trkpt>
      <trkpt lat="48.43064" lon="7.40286">
        <ele>799</ele>
        <time>2012-08-20T12:40:25Z</time>
      </trkpt>
      <trkpt lat="48.42986" lon="7.40298">
        <ele>810.5</ele>
        <time>2012-08-20T12:41:43Z</time>
      </trkpt>
      <trkpt lat="48.42925" lon="7.40322">
        <ele>818.2</ele>
        <time>2012-08-20T12:42:31Z</time>
      </trkpt>
      <trkpt lat="48.4287" lon="7.4038">
        <ele>833.6</ele>
        <time>2012-08-20T12:43:27Z</time>
      </trkpt>
      <trkpt lat="48.42841" lon="7.40439">
        <ele>832.6</ele>
        <time>2012-08-20T12:44:01Z</time>
      </trkpt>
      <trkpt lat="48.42828" lon="7.40505">
        <ele>840.3</ele>
        <time>2012-08-20T12:44:37Z</time>
      </trkpt>
      <trkpt lat="48.42826" lon="7.40575">
        <ele>852.3</ele>
        <time>2012-08-20T12:45:12Z</time>
      </trkpt>
      <trkpt lat="48.42812" lon="7.40645">
        <ele>855.7</ele>
        <time>2012-08-20T12:45:55Z</time>
      </trkpt>
      <trkpt lat="48.42794" lon="7.40713">
        <ele>854.7</ele>
        <time>2012-08-20T12:46:37Z</time>
      </trkpt>
      <trkpt lat="48.42765" lon="7.40785">
        <ele>856.2</ele>
        <time>2012-08-20T12:47:19Z</time>
      </trkpt>
      <trkpt lat="48.42733" lon="7.4085">
        <ele>859.1</ele>
        <time>2012-08-20T12:47:57Z</time>
      </trkpt>
      <trkpt lat="48.42696" lon="7.40915">
        <ele>855.7</ele>
        <time>2012-08-20T12:48:39Z</time>
      </trkpt>
      <trkpt lat="48.4267" lon="7.40981">
        <ele>854.3</ele>
        <time>2012-08-20T12:49:20Z</time>
      </trkpt>
      <trkpt lat="48.42615" lon="7.4103">
        <ele>854.7</ele>
        <time>2012-08-20T12:50:06Z</time>
      </trkpt>
      <trkpt lat="48.42576" lon="7.41097">
        <ele>866.8</ele>
        <time>2012-08-20T12:50:59Z</time>
      </trkpt>
      <trkpt lat="48.42539" lon="7.41159">
        <ele>875.4</ele>
        <time>2012-08-20T12:51:47Z</time>
      </trkpt>
      <trkpt lat="48.42497" lon="7.4121">
        <ele>851.4</ele>
        <time>2012-08-20T12:52:52Z</time>
      </trkpt>
      <trkpt lat="48.42471" lon="7.41162">
        <ele>825.4</ele>
        <time>2012-08-20T12:54:00Z</time>
      </trkpt>
      <trkpt lat="48.4245" lon="7.41097">
        <ele>826.4</ele>
        <time>2012-08-20T12:54:39Z</time>
      </trkpt>
      <trkpt lat="48.42462" lon="7.41031">
        <ele>828.3</ele>
        <time>2012-08-20T12:55:09Z</time>
      </trkpt>
      <trkpt lat="48.42465" lon="7.40968">
        <ele>835</ele>
        <time>2012-08-20T12:55:47Z</time>
      </trkpt>
      <trkpt lat="48.42456" lon="7.40899">
        <ele>837.4</ele>
        <time>2012-08-20T12:56:20Z</time>
      </trkpt>
      <trkpt lat="48.42456" lon="7.40823">
        <ele>837.4</ele>
        <time>2012-08-20T12:57:04Z</time>
      </trkpt>
      <trkpt lat="48.42433" lon="7.40751">
        <ele>839.8</ele>
        <time>2012-08-20T12:57:41Z</time>
      </trkpt>
      <trkpt lat="48.42407" lon="7.40679">
        <ele>841.8</ele>
        <time>2012-08-20T12:58:23Z</time>
      </trkpt>
      <trkpt lat="48.42404" lon="7.4061">
        <ele>837.4</ele>
        <time>2012-08-20T12:59:10Z</time>
      </trkpt>
      <trkpt lat="48.42382" lon="7.40582">
        <ele>841.3</ele>
        <time>2012-08-20T12:59:54Z</time>
      </trkpt>
      <trkpt lat="48.42379" lon="7.4051">
        <ele>834.1</ele>
        <time>2012-08-20T13:00:41Z</time>
      </trkpt>
      <trkpt lat="48.42408" lon="7.40446">
        <ele>837</ele>
        <time>2012-08-20T13:01:17Z</time>
      </trkpt>
      <trkpt lat="48.42419" lon="7.40383">
        <ele>846.1</ele>
        <time>2012-08-20T13:01:52Z</time>
      </trkpt>
      <trkpt lat="48.42413" lon="7.40331">
        <ele>848.5</ele>
        <time>2012-08-20T13:02:39Z</time>
      </trkpt>
      <trkpt lat="48.42375" lon="7.40345">
        <ele>831.7</ele>
        <time>2012-08-20T13:03:23Z</time>
      </trkpt>
      <trkpt lat="48.42317" lon="7.40381">
        <ele>802.4</ele>
        <time>2012-08-20T13:04:10Z</time>
      </trkpt>
      <trkpt lat="48.42273" lon="7.4044">
        <ele>782.7</ele>
        <time>2012-08-20T13:04:52Z</time>
      </trkpt>
      <trkpt lat="48.42246" lon="7.40538">
        <ele>767.3</ele>
        <time>2012-08-20T13:06:57Z</time>
      </trkpt>
      <trkpt lat="48.42257" lon="7.40643">
        <ele>794.7</ele>
        <time>2012-08-20T13:07:57Z</time>
      </trkpt>
      <trkpt lat="48.42258" lon="7.40745">
        <ele>833.6</ele>
        <time>2012-08-20T13:08:46Z</time>
      </trkpt>
      <trkpt lat="48.42268" lon="7.40851">
        <ele>844.2</ele>
        <time>2012-08-20T13:10:32Z</time>
      </trkpt>
      <trkpt lat="48.42267" lon="7.40931">
        <ele>837</ele>
        <time>2012-08-20T13:11:20Z</time>
      </trkpt>
      <trkpt lat="48.42247" lon="7.41003">
        <ele>814.4</ele>
        <time>2012-08-20T13:12:04Z</time>
      </trkpt>
      <trkpt lat="48.42225" lon="7.41077">
        <ele>790.3</ele>
        <time>2012-08-20T13:12:43Z</time>
      </trkpt>
      <trkpt lat="48.42216" lon="7.41159">
        <ele>778.3</ele>
        <time>2012-08-20T13:13:24Z</time>
      </trkpt>
      <trkpt lat="48.42221" lon="7.41245">
        <ele>783.6</ele>
        <time>2012-08-20T13:14:08Z</time>
      </trkpt>
      <trkpt lat="48.42212" lon="7.41339">
        <ele>806.7</ele>
        <time>2012-08-20T13:14:55Z</time>
      </trkpt>
      <trkpt lat="48.42213" lon="7.41413">
        <ele>798</ele>
        <time>2012-08-20T13:15:33Z</time>
      </trkpt>
      <trkpt lat="48.42201" lon="7.41494">
        <ele>796.6</ele>
        <time>2012-08-20T13:16:11Z</time>
      </trkpt>
      <trkpt lat="48.42187" lon="7.41576">
        <ele>788.4</ele>
        <time>2012-08-20T13:16:52Z</time>
      </trkpt>
      <trkpt lat="48.4216" lon="7.41651">
        <ele>744.7</ele>
        <time>2012-08-20T13:17:33Z</time>
      </trkpt>
      <trkpt lat="48.42145" lon="7.41724">
        <ele>720.6</ele>
        <time>2012-08-20T13:18:48Z</time>
      </trkpt>
      <trkpt lat="48.42164" lon="7.41782">
        <ele>723.5</ele>
        <time>2012-08-20T13:19:23Z</time>
      </trkpt>
      <trkpt lat="48.42191" lon="7.4185">
        <ele>748.5</ele>
        <time>2012-08-20T13:20:04Z</time>
      </trkpt>
      <trkpt lat="48.42202" lon="7.41913">
        <ele>779.8</ele>
        <time>2012-08-20T13:20:45Z</time>
      </trkpt>
      <trkpt lat="48.42193" lon="7.41977">
        <ele>775.9</ele>
        <time>2012-08-20T13:21:24Z</time>
      </trkpt>
      <trkpt lat="48.42175" lon="7.42051">
        <ele>755.7</ele>
        <time>2012-08-20T13:22:03Z</time>
      </trkpt>
      <trkpt lat="48.42198" lon="7.42147">
        <ele>731.7</ele>
        <time>2012-08-20T13:23:00Z</time>
      </trkpt>
      <trkpt lat="48.4222" lon="7.42208">
        <ele>690.8</ele>
        <time>2012-08-20T13:23:40Z</time>
      </trkpt>
      <trkpt lat="48.422" lon="7.42262">
        <ele>652.9</ele>
        <time>2012-08-20T13:24:38Z</time>
      </trkpt>
      <trkpt lat="48.42162" lon="7.42304">
        <ele>629.3</ele>
        <time>2012-08-20T13:25:24Z</time>
      </trkpt>
      <trkpt lat="48.42116" lon="7.42352">
        <ele>620.7</ele>
        <time>2012-08-20T13:26:24Z</time>
      </trkpt>
      <trkpt lat="48.42064" lon="7.42394">
        <ele>613.9</ele>
        <time>2012-08-20T13:27:14Z</time>
      </trkpt>
      <trkpt lat="48.4202" lon="7.42352">
        <ele>606.7</ele>
        <time>2012-08-20T13:28:39Z</time>
      </trkpt>
      <trkpt lat="48.42007" lon="7.42342">
        <ele>609.1</ele>
        <time>2012-08-20T13:29:23Z</time>
      </trkpt>
      <trkpt lat="48.42044" lon="7.42365">
        <ele>625.5</ele>
        <time>2012-08-20T13:30:00Z</time>
      </trkpt>
      <trkpt lat="48.42083" lon="7.42368">
        <ele>635.6</ele>
        <time>2012-08-20T13:30:38Z</time>
      </trkpt>
      <trkpt lat="48.42125" lon="7.42332">
        <ele>636.5</ele>
        <time>2012-08-20T13:31:14Z</time>
      </trkpt>
      <trkpt lat="48.42162" lon="7.4229">
        <ele>620.2</ele>
        <time>2012-08-20T13:31:59Z</time>
      </trkpt>
      <trkpt lat="48.42202" lon="7.42252">
        <ele>623.1</ele>
        <time>2012-08-20T13:32:38Z</time>
      </trkpt>
      <trkpt lat="48.42249" lon="7.42264">
        <ele>641.8</ele>
        <time>2012-08-20T13:33:19Z</time>
      </trkpt>
      <trkpt lat="48.42273" lon="7.42323">
        <ele>660.6</ele>
        <time>2012-08-20T13:33:57Z</time>
      </trkpt>
      <trkpt lat="48.42251" lon="7.4239">
        <ele>662.5</ele>
        <time>2012-08-20T13:34:34Z</time>
      </trkpt>
      <trkpt lat="48.42208" lon="7.42437">
        <ele>633.6</ele>
        <time>2012-08-20T13:35:25Z</time>
      </trkpt>
      <trkpt lat="48.42166" lon="7.42496">
        <ele>629.3</ele>
        <time>2012-08-20T13:36:10Z</time>
      </trkpt>
      <trkpt lat="48.42119" lon="7.42534">
        <ele>610.6</ele>
        <time>2012-08-20T13:36:43Z</time>
      </trkpt>
      <trkpt lat="48.42075" lon="7.42572">
        <ele>601.4</ele>
        <time>2012-08-20T13:37:26Z</time>
      </trkpt>
      <trkpt lat="48.42019" lon="7.426">
        <ele>603.8</ele>
        <time>2012-08-20T13:38:01Z</time>
      </trkpt>
      <trkpt lat="48.41971" lon="7.42608">
        <ele>582.2</ele>
        <time>2012-08-20T13:38:35Z</time>
      </trkpt>
      <trkpt lat="48.41919" lon="7.42587">
        <ele>564</ele>
        <time>2012-08-20T13:39:12Z</time>
      </trkpt>
      <trkpt lat="48.41937" lon="7.4262">
        <ele>569.2</ele>
        <time>2012-08-20T13:39:46Z</time>
      </trkpt>
      <trkpt lat="48.41952" lon="7.42683">
        <ele>605.8</ele>
        <time>2012-08-20T13:40:24Z</time>
      </trkpt>
      <trkpt lat="48.41992" lon="7.4273">
        <ele>645.2</ele>
        <time>2012-08-20T13:41:04Z</time>
      </trkpt>
      <trkpt lat="48.42" lon="7.42782">
        <ele>695.2</ele>
        <time>2012-08-20T13:41:44Z</time>
      </trkpt>
      <trkpt lat="48.41951" lon="7.4281">
        <ele>690.4</ele>
        <time>2012-08-20T13:43:18Z</time>
      </trkpt>
      <trkpt lat="48.41901" lon="7.42814">
        <ele>617.3</ele>
        <time>2012-08-20T13:44:08Z</time>
      </trkpt>
      <trkpt lat="48.41838" lon="7.42791">
        <ele>538.5</ele>
        <time>2012-08-20T13:44:59Z</time>
      </trkpt>
      <trkpt lat="48.41864" lon="7.42846">
        <ele>545.2</ele>
        <time>2012-08-20T13:45:48Z</time>
      </trkpt>
      <trkpt lat="48.4188" lon="7.42893">
        <ele>564</ele>
        <time>2012-08-20T13:46:33Z</time>
      </trkpt>
      <trkpt lat="48.41826" lon="7.4291">
        <ele>529.8</ele>
        <time>2012-08-20T13:47:28Z</time>
      </trkpt>
      <trkpt lat="48.41726" lon="7.42886">
        <ele>466.9</ele>
        <time>2012-08-20T13:48:43Z</time>
      </trkpt>
      <trkpt lat="48.41684" lon="7.42931">
        <ele>455.3</ele>
        <time>2012-08-20T13:49:47Z</time>
      </trkpt>
      <trkpt lat="48.41671" lon="7.43034">
        <ele>482.2</ele>
        <time>2012-08-20T13:50:39Z</time>
      </trkpt>
      <trkpt lat="48.4166" lon="7.43121">
        <ele>483.7</ele>
        <time>2012-08-20T13:51:25Z</time>
      </trkpt>
      <trkpt lat="48.41618" lon="7.43164">
        <ele>477.4</ele>
        <time>2012-08-20T13:52:20Z</time>
      </trkpt>
      <trkpt lat="48.41571" lon="7.43197">
        <ele>479.4</ele>
        <time>2012-08-20T13:52:57Z</time>
      </trkpt>
      <trkpt lat="48.4153" lon="7.43238">
        <ele>494.3</ele>
        <time>2012-08-20T13:53:34Z</time>
      </trkpt>
      <trkpt lat="48.41514" lon="7.4335">
        <ele>537</ele>
        <time>2012-08-20T13:54:39Z</time>
      </trkpt>
      <trkpt lat="48.41536" lon="7.43479">
        <ele>539.4</ele>
        <time>2012-08-20T13:55:41Z</time>
      </trkpt>
      <trkpt lat="48.41549" lon="7.43605">
        <ele>496.7</ele>
        <time>2012-08-20T13:56:34Z</time>
      </trkpt>
      <trkpt lat="48.41523" lon="7.43706">
        <ele>490.9</ele>
        <time>2012-08-20T13:57:26Z</time>
      </trkpt>
      <trkpt lat="48.415" lon="7.43794">
        <ele>488</ele>
        <time>2012-08-20T13:58:11Z</time>
      </trkpt>
      <trkpt lat="48.41482" lon="7.43926">
        <ele>474.5</ele>
        <time>2012-08-20T13:59:24Z</time>
      </trkpt>
      <trkpt lat="48.41474" lon="7.44138">
        <ele>441.9</ele>
        <time>2012-08-20T14:01:10Z</time>
      </trkpt>
      <trkpt lat="48.41476" lon="7.44267">
        <ele>421.2</ele>
        <time>2012-08-20T14:02:12Z</time>
      </trkpt>
      <trkpt lat="48.41465" lon="7.44354">
        <ele>412.1</ele>
        <time>2012-08-20T14:02:53Z</time>
      </trkpt>
      <trkpt lat="48.41442" lon="7.44442">
        <ele>405.3</ele>
        <time>2012-08-20T14:03:35Z</time>
      </trkpt>
      <trkpt lat="48.41397" lon="7.44529">
        <ele>393.3</ele>
        <time>2012-08-20T14:04:32Z</time>
      </trkpt>
      <trkpt lat="48.41428" lon="7.44688">
        <ele>384.2</ele>
        <time>2012-08-20T14:06:29Z</time>
      </trkpt>
      <trkpt lat="48.41385" lon="7.44702">
        <ele>375.5</ele>
        <time>2012-08-20T14:07:00Z</time>
      </trkpt>
      <trkpt lat="48.41422" lon="7.44745">
        <ele>321.7</ele>
        <time>2012-08-20T14:08:21Z</time>
      </trkpt>
      <trkpt lat="48.41425" lon="7.44859">
        <ele>313.5</ele>
        <time>2012-08-20T14:10:05Z</time>
      </trkpt>
      <trkpt lat="48.41367" lon="7.44923">
        <ele>302</ele>
        <time>2012-08-20T14:11:03Z</time>
      </trkpt>
      <trkpt lat="48.41316" lon="7.44933">
        <ele>290.5</ele>
        <time>2012-08-20T14:11:45Z</time>
      </trkpt>
      <trkpt lat="48.41267" lon="7.44924">
        <ele>279.9</ele>
        <time>2012-08-20T14:12:20Z</time>
      </trkpt>
      <trkpt lat="48.41226" lon="7.449">
        <ele>275.1</ele>
        <time>2012-08-20T14:12:56Z</time>
      </trkpt>
      <trkpt lat="48.41181" lon="7.44871">
        <ele>262.1</ele>
        <time>2012-08-20T14:13:43Z</time>
      </trkpt>
      <trkpt lat="48.41138" lon="7.44849">
        <ele>254.4</ele>
        <time>2012-08-20T14:14:15Z</time>
      </trkpt>
      <trkpt lat="48.41095" lon="7.4483">
        <ele>250.6</ele>
        <time>2012-08-20T14:14:47Z</time>
      </trkpt>
      <trkpt lat="48.41055" lon="7.44799">
        <ele>246.2</ele>
        <time>2012-08-20T14:15:20Z</time>
      </trkpt>
      <trkpt lat="48.41008" lon="7.44799">
        <ele>238.1</ele>
        <time>2012-08-20T14:15:58Z</time>
      </trkpt>
      <trkpt lat="48.40963" lon="7.44807">
        <ele>232.3</ele>
        <time>2012-08-20T14:16:35Z</time>
      </trkpt>
      <trkpt lat="48.40923" lon="7.44842">
        <ele>231.8</ele>
        <time>2012-08-20T14:17:26Z</time>
      </trkpt>
      <trkpt lat="48.40914" lon="7.44907">
        <ele>226.5</ele>
        <time>2012-08-20T14:18:24Z</time>
      </trkpt>
      <trkpt lat="48.40909" lon="7.44973">
        <ele>224.1</ele>
        <time>2012-08-20T14:19:11Z</time>
      </trkpt>
      <trkpt lat="48.40957" lon="7.4505">
        <ele>232.3</ele>
        <time>2012-08-20T14:20:23Z</time>
      </trkpt>
      <trkpt lat="48.40991" lon="7.45095">
        <ele>235.2</ele>
        <time>2012-08-20T14:21:00Z</time>
      </trkpt>
      <trkpt lat="48.41003" lon="7.45114">
        <ele>238.5</ele>
        <time>2012-08-20T14:21:56Z</time>
      </trkpt>
      <trkpt lat="48.40654" lon="7.44435">
        <ele>249.6</ele>
        <time>2012-08-20T17:31:34Z</time>
      </trkpt>
      <trkpt lat="48.40654" lon="7.44435">
        <ele>247.2</ele>
        <time>2012-08-20T17:31:35Z</time>
      </trkpt>
      <trkpt lat="48.93409" lon="7.88927">
        <ele>250.6</ele>
        <time>2012-08-21T12:42:04Z</time>
      </trkpt>
      <trkpt lat="48.93417" lon="7.89003">
        <ele>145.3</ele>
        <time>2012-08-21T12:42:43Z</time>
      </trkpt>
      <trkpt lat="48.93385" lon="7.88968">
        <ele>135.7</ele>
        <time>2012-08-21T12:43:07Z</time>
      </trkpt>
      <trkpt lat="48.93422" lon="7.88998">
        <ele>142.4</ele>
        <time>2012-08-21T12:44:41Z</time>
      </trkpt>
      <trkpt lat="48.93445" lon="7.89055">
        <ele>149.1</ele>
        <time>2012-08-21T12:45:17Z</time>
      </trkpt>
      <trkpt lat="48.93439" lon="7.8913">
        <ele>144.3</ele>
        <time>2012-08-21T12:45:59Z</time>
      </trkpt>
      <trkpt lat="48.93427" lon="7.89201">
        <ele>149.6</ele>
        <time>2012-08-21T12:46:35Z</time>
      </trkpt>
      <trkpt lat="48.9343" lon="7.89272">
        <ele>154.9</ele>
        <time>2012-08-21T12:47:08Z</time>
      </trkpt>
      <trkpt lat="48.93442" lon="7.8934">
        <ele>157.3</ele>
        <time>2012-08-21T12:47:41Z</time>
      </trkpt>
      <trkpt lat="48.93458" lon="7.89415">
        <ele>153.5</ele>
        <time>2012-08-21T12:48:21Z</time>
      </trkpt>
      <trkpt lat="48.93472" lon="7.89491">
        <ele>151.5</ele>
        <time>2012-08-21T12:48:56Z</time>
      </trkpt>
      <trkpt lat="48.93488" lon="7.89564">
        <ele>152.5</ele>
        <time>2012-08-21T12:49:30Z</time>
      </trkpt>
      <trkpt lat="48.935" lon="7.89635">
        <ele>156.4</ele>
        <time>2012-08-21T12:50:02Z</time>
      </trkpt>
      <trkpt lat="48.93512" lon="7.89708">
        <ele>160.2</ele>
        <time>2012-08-21T12:50:35Z</time>
      </trkpt>
      <trkpt lat="48.93525" lon="7.89781">
        <ele>161.2</ele>
        <time>2012-08-21T12:51:10Z</time>
      </trkpt>
      <trkpt lat="48.93542" lon="7.89849">
        <ele>161.6</ele>
        <time>2012-08-21T12:51:39Z</time>
      </trkpt>
      <trkpt lat="48.93555" lon="7.89912">
        <ele>161.6</ele>
        <time>2012-08-21T12:52:08Z</time>
      </trkpt>
      <trkpt lat="48.93571" lon="7.89984">
        <ele>161.2</ele>
        <time>2012-08-21T12:52:44Z</time>
      </trkpt>
      <trkpt lat="48.93588" lon="7.90054">
        <ele>163.1</ele>
        <time>2012-08-21T12:53:16Z</time>
      </trkpt>
      <trkpt lat="48.93603" lon="7.90126">
        <ele>166.4</ele>
        <time>2012-08-21T12:53:50Z</time>
      </trkpt>
      <trkpt lat="48.9362" lon="7.90197">
        <ele>168.4</ele>
        <time>2012-08-21T12:54:26Z</time>
      </trkpt>
      <trkpt lat="48.93636" lon="7.90268">
        <ele>168.8</ele>
        <time>2012-08-21T12:55:03Z</time>
      </trkpt>
      <trkpt lat="48.93657" lon="7.90355">
        <ele>172.7</ele>
        <time>2012-08-21T12:55:49Z</time>
      </trkpt>
      <trkpt lat="48.93658" lon="7.9043">
        <ele>176.5</ele>
        <time>2012-08-21T12:56:21Z</time>
      </trkpt>
      <trkpt lat="48.93648" lon="7.90503">
        <ele>178</ele>
        <time>2012-08-21T12:56:54Z</time>
      </trkpt>
      <trkpt lat="48.93642" lon="7.90576">
        <ele>185.2</ele>
        <time>2012-08-21T12:57:22Z</time>
      </trkpt>
      <trkpt lat="48.93645" lon="7.90642">
        <ele>190</ele>
        <time>2012-08-21T12:57:53Z</time>
      </trkpt>
      <trkpt lat="48.93639" lon="7.9074">
        <ele>167.9</ele>
        <time>2012-08-21T12:58:47Z</time>
      </trkpt>
      <trkpt lat="48.93627" lon="7.90828">
        <ele>159.2</ele>
        <time>2012-08-21T12:59:29Z</time>
      </trkpt>
      <trkpt lat="48.93618" lon="7.90909">
        <ele>153.5</ele>
        <time>2012-08-21T13:00:06Z</time>
      </trkpt>
      <trkpt lat="48.93603" lon="7.91002">
        <ele>149.6</ele>
        <time>2012-08-21T13:00:53Z</time>
      </trkpt>
      <trkpt lat="48.93598" lon="7.91092">
        <ele>151.1</ele>
        <time>2012-08-21T13:01:35Z</time>
      </trkpt>
      <trkpt lat="48.9359" lon="7.91178">
        <ele>171.7</ele>
        <time>2012-08-21T13:02:11Z</time>
      </trkpt>
      <trkpt lat="48.93613" lon="7.91237">
        <ele>168.4</ele>
        <time>2012-08-21T13:02:50Z</time>
      </trkpt>
      <trkpt lat="48.9364" lon="7.9124">
        <ele>171.3</ele>
        <time>2012-08-21T13:03:10Z</time>
      </trkpt>
      <trkpt lat="48.93724" lon="7.91176">
        <ele>287.1</ele>
        <time>2012-08-21T13:56:51Z</time>
      </trkpt>
      <trkpt lat="48.93655" lon="7.91231">
        <ele>178</ele>
        <time>2012-08-21T13:59:32Z</time>
      </trkpt>
      <trkpt lat="48.9361" lon="7.91236">
        <ele>176.5</ele>
        <time>2012-08-21T14:00:05Z</time>
      </trkpt>
      <trkpt lat="48.93593" lon="7.91184">
        <ele>178</ele>
        <time>2012-08-21T14:00:38Z</time>
      </trkpt>
      <trkpt lat="48.93602" lon="7.91116">
        <ele>178</ele>
        <time>2012-08-21T14:01:09Z</time>
      </trkpt>
      <trkpt lat="48.93612" lon="7.91049">
        <ele>178</ele>
        <time>2012-08-21T14:01:40Z</time>
      </trkpt>
      <trkpt lat="48.93622" lon="7.90981">
        <ele>177</ele>
        <time>2012-08-21T14:02:10Z</time>
      </trkpt>
      <trkpt lat="48.93631" lon="7.90914">
        <ele>178.5</ele>
        <time>2012-08-21T14:02:41Z</time>
      </trkpt>
      <trkpt lat="48.93638" lon="7.90847">
        <ele>178.5</ele>
        <time>2012-08-21T14:03:11Z</time>
      </trkpt>
      <trkpt lat="48.93647" lon="7.90779">
        <ele>178.5</ele>
        <time>2012-08-21T14:03:41Z</time>
      </trkpt>
      <trkpt lat="48.93655" lon="7.90712">
        <ele>180.4</ele>
        <time>2012-08-21T14:04:11Z</time>
      </trkpt>
      <trkpt lat="48.93654" lon="7.90643">
        <ele>182.3</ele>
        <time>2012-08-21T14:04:42Z</time>
      </trkpt>
      <trkpt lat="48.93655" lon="7.90573">
        <ele>181.8</ele>
        <time>2012-08-21T14:05:14Z</time>
      </trkpt>
      <trkpt lat="48.93661" lon="7.90507">
        <ele>181.3</ele>
        <time>2012-08-21T14:05:44Z</time>
      </trkpt>
      <trkpt lat="48.9367" lon="7.90439">
        <ele>181.3</ele>
        <time>2012-08-21T14:06:15Z</time>
      </trkpt>
      <trkpt lat="48.9368" lon="7.90371">
        <ele>179.9</ele>
        <time>2012-08-21T14:06:47Z</time>
      </trkpt>
      <trkpt lat="48.93696" lon="7.90305">
        <ele>181.3</ele>
        <time>2012-08-21T14:07:17Z</time>
      </trkpt>
      <trkpt lat="48.9371" lon="7.9024">
        <ele>181.3</ele>
        <time>2012-08-21T14:07:47Z</time>
      </trkpt>
      <trkpt lat="48.93722" lon="7.90171">
        <ele>182.8</ele>
        <time>2012-08-21T14:08:18Z</time>
      </trkpt>
      <trkpt lat="48.93733" lon="7.90105">
        <ele>183.3</ele>
        <time>2012-08-21T14:08:47Z</time>
      </trkpt>
      <trkpt lat="48.93747" lon="7.90038">
        <ele>182.3</ele>
        <time>2012-08-21T14:09:18Z</time>
      </trkpt>
      <trkpt lat="48.93762" lon="7.89974">
        <ele>183.3</ele>
        <time>2012-08-21T14:09:49Z</time>
      </trkpt>
      <trkpt lat="48.93778" lon="7.89911">
        <ele>183.7</ele>
        <time>2012-08-21T14:10:18Z</time>
      </trkpt>
      <trkpt lat="48.93798" lon="7.8985">
        <ele>183.7</ele>
        <time>2012-08-21T14:10:48Z</time>
      </trkpt>
      <trkpt lat="48.93825" lon="7.89794">
        <ele>184.2</ele>
        <time>2012-08-21T14:11:18Z</time>
      </trkpt>
      <trkpt lat="48.93853" lon="7.89742">
        <ele>185.7</ele>
        <time>2012-08-21T14:11:48Z</time>
      </trkpt>
      <trkpt lat="48.93884" lon="7.89691">
        <ele>186.6</ele>
        <time>2012-08-21T14:12:18Z</time>
      </trkpt>
      <trkpt lat="48.93915" lon="7.89641">
        <ele>189</ele>
        <time>2012-08-21T14:12:49Z</time>
      </trkpt>
      <trkpt lat="48.93946" lon="7.89592">
        <ele>189</ele>
        <time>2012-08-21T14:13:19Z</time>
      </trkpt>
      <trkpt lat="48.93979" lon="7.89546">
        <ele>189.5</ele>
        <time>2012-08-21T14:13:48Z</time>
      </trkpt>
      <trkpt lat="48.94014" lon="7.89503">
        <ele>189.5</ele>
        <time>2012-08-21T14:14:18Z</time>
      </trkpt>
      <trkpt lat="48.94052" lon="7.89465">
        <ele>189.5</ele>
        <time>2012-08-21T14:14:49Z</time>
      </trkpt>
      <trkpt lat="48.94093" lon="7.89434">
        <ele>188.6</ele>
        <time>2012-08-21T14:15:21Z</time>
      </trkpt>
      <trkpt lat="48.94137" lon="7.89405">
        <ele>190.5</ele>
        <time>2012-08-21T14:15:53Z</time>
      </trkpt>
      <trkpt lat="48.9418" lon="7.89376">
        <ele>188.1</ele>
        <time>2012-08-21T14:16:24Z</time>
      </trkpt>
      <trkpt lat="48.94224" lon="7.89348">
        <ele>186.6</ele>
        <time>2012-08-21T14:16:56Z</time>
      </trkpt>
      <trkpt lat="48.94267" lon="7.89319">
        <ele>187.1</ele>
        <time>2012-08-21T14:17:28Z</time>
      </trkpt>
      <trkpt lat="48.94309" lon="7.89295">
        <ele>186.2</ele>
        <time>2012-08-21T14:17:59Z</time>
      </trkpt>
      <trkpt lat="48.94352" lon="7.89277">
        <ele>186.6</ele>
        <time>2012-08-21T14:18:29Z</time>
      </trkpt>
      <trkpt lat="48.94394" lon="7.89256">
        <ele>185.2</ele>
        <time>2012-08-21T14:19:44Z</time>
      </trkpt>
      <trkpt lat="48.94436" lon="7.89234">
        <ele>186.2</ele>
        <time>2012-08-21T14:20:16Z</time>
      </trkpt>
      <trkpt lat="48.94479" lon="7.89219">
        <ele>188.1</ele>
        <time>2012-08-21T14:21:29Z</time>
      </trkpt>
      <trkpt lat="48.94518" lon="7.89196">
        <ele>189</ele>
        <time>2012-08-21T14:22:15Z</time>
      </trkpt>
      <trkpt lat="48.94551" lon="7.89153">
        <ele>186.6</ele>
        <time>2012-08-21T14:22:51Z</time>
      </trkpt>
      <trkpt lat="48.94583" lon="7.89103">
        <ele>185.2</ele>
        <time>2012-08-21T14:23:22Z</time>
      </trkpt>
      <trkpt lat="48.94615" lon="7.89056">
        <ele>185.2</ele>
        <time>2012-08-21T14:23:52Z</time>
      </trkpt>
      <trkpt lat="48.94644" lon="7.89002">
        <ele>185.7</ele>
        <time>2012-08-21T14:24:29Z</time>
      </trkpt>
      <trkpt lat="48.9467" lon="7.88947">
        <ele>185.2</ele>
        <time>2012-08-21T14:25:00Z</time>
      </trkpt>
      <trkpt lat="48.94698" lon="7.88894">
        <ele>185.7</ele>
        <time>2012-08-21T14:25:29Z</time>
      </trkpt>
      <trkpt lat="48.94726" lon="7.88841">
        <ele>187.6</ele>
        <time>2012-08-21T14:26:00Z</time>
      </trkpt>
      <trkpt lat="48.94757" lon="7.88791">
        <ele>188.1</ele>
        <time>2012-08-21T14:26:31Z</time>
      </trkpt>
      <trkpt lat="48.94781" lon="7.88759">
        <ele>187.1</ele>
        <time>2012-08-21T14:27:05Z</time>
      </trkpt>
      <trkpt lat="48.94804" lon="7.88729">
        <ele>186.2</ele>
        <time>2012-08-21T14:27:45Z</time>
      </trkpt>
      <trkpt lat="48.94836" lon="7.88681">
        <ele>187.6</ele>
        <time>2012-08-21T14:28:15Z</time>
      </trkpt>
      <trkpt lat="48.94859" lon="7.88621">
        <ele>190</ele>
        <time>2012-08-21T14:28:45Z</time>
      </trkpt>
      <trkpt lat="48.94878" lon="7.8856">
        <ele>191.4</ele>
        <time>2012-08-21T14:29:16Z</time>
      </trkpt>
      <trkpt lat="48.94897" lon="7.88497">
        <ele>193.4</ele>
        <time>2012-08-21T14:29:46Z</time>
      </trkpt>
      <trkpt lat="48.94916" lon="7.88433">
        <ele>193.8</ele>
        <time>2012-08-21T14:30:18Z</time>
      </trkpt>
      <trkpt lat="48.94936" lon="7.8837">
        <ele>196.2</ele>
        <time>2012-08-21T14:30:49Z</time>
      </trkpt>
      <trkpt lat="48.94955" lon="7.88307">
        <ele>200.1</ele>
        <time>2012-08-21T14:31:21Z</time>
      </trkpt>
      <trkpt lat="48.9497" lon="7.88243">
        <ele>201.1</ele>
        <time>2012-08-21T14:31:52Z</time>
      </trkpt>
      <trkpt lat="48.94986" lon="7.88177">
        <ele>202</ele>
        <time>2012-08-21T14:32:24Z</time>
      </trkpt>
      <trkpt lat="48.94984" lon="7.88105">
        <ele>202</ele>
        <time>2012-08-21T14:32:55Z</time>
      </trkpt>
      <trkpt lat="48.94984" lon="7.88035">
        <ele>204.9</ele>
        <time>2012-08-21T14:33:26Z</time>
      </trkpt>
      <trkpt lat="48.94988" lon="7.8797">
        <ele>206.3</ele>
        <time>2012-08-21T14:33:55Z</time>
      </trkpt>
      <trkpt lat="48.95" lon="7.87907">
        <ele>212.6</ele>
        <time>2012-08-21T14:34:26Z</time>
      </trkpt>
      <trkpt lat="48.95011" lon="7.87846">
        <ele>208.3</ele>
        <time>2012-08-21T14:35:16Z</time>
      </trkpt>
      <trkpt lat="48.95051" lon="7.87818">
        <ele>208.3</ele>
        <time>2012-08-21T14:35:50Z</time>
      </trkpt>
      <trkpt lat="48.95087" lon="7.87783">
        <ele>206.3</ele>
        <time>2012-08-21T14:36:22Z</time>
      </trkpt>
      <trkpt lat="48.95125" lon="7.87747">
        <ele>205.4</ele>
        <time>2012-08-21T14:36:53Z</time>
      </trkpt>
      <trkpt lat="48.95159" lon="7.87702">
        <ele>206.3</ele>
        <time>2012-08-21T14:37:24Z</time>
      </trkpt>
      <trkpt lat="48.95191" lon="7.87653">
        <ele>204.9</ele>
        <time>2012-08-21T14:37:56Z</time>
      </trkpt>
      <trkpt lat="48.9522" lon="7.87604">
        <ele>204.9</ele>
        <time>2012-08-21T14:38:27Z</time>
      </trkpt>
      <trkpt lat="48.95246" lon="7.87546">
        <ele>204.4</ele>
        <time>2012-08-21T14:38:59Z</time>
      </trkpt>
      <trkpt lat="48.95269" lon="7.87488">
        <ele>203.9</ele>
        <time>2012-08-21T14:39:30Z</time>
      </trkpt>
      <trkpt lat="48.95293" lon="7.87431">
        <ele>204.9</ele>
        <time>2012-08-21T14:40:00Z</time>
      </trkpt>
      <trkpt lat="48.95332" lon="7.87417">
        <ele>203.5</ele>
        <time>2012-08-21T14:40:31Z</time>
      </trkpt>
      <trkpt lat="48.95379" lon="7.87425">
        <ele>202</ele>
        <time>2012-08-21T14:41:03Z</time>
      </trkpt>
      <trkpt lat="48.95425" lon="7.8743">
        <ele>200.1</ele>
        <time>2012-08-21T14:41:35Z</time>
      </trkpt>
      <trkpt lat="48.95471" lon="7.87436">
        <ele>199.6</ele>
        <time>2012-08-21T14:42:06Z</time>
      </trkpt>
      <trkpt lat="48.95517" lon="7.87422">
        <ele>198.6</ele>
        <time>2012-08-21T14:42:37Z</time>
      </trkpt>
      <trkpt lat="48.95561" lon="7.87406">
        <ele>202.5</ele>
        <time>2012-08-21T14:43:08Z</time>
      </trkpt>
      <trkpt lat="48.95602" lon="7.87384">
        <ele>204.9</ele>
        <time>2012-08-21T14:43:41Z</time>
      </trkpt>
      <trkpt lat="48.95644" lon="7.87355">
        <ele>207.3</ele>
        <time>2012-08-21T14:44:12Z</time>
      </trkpt>
      <trkpt lat="48.95678" lon="7.87311">
        <ele>209.2</ele>
        <time>2012-08-21T14:44:43Z</time>
      </trkpt>
      <trkpt lat="48.9571" lon="7.87263">
        <ele>212.6</ele>
        <time>2012-08-21T14:45:14Z</time>
      </trkpt>
      <trkpt lat="48.9574" lon="7.8721">
        <ele>215</ele>
        <time>2012-08-21T14:45:45Z</time>
      </trkpt>
      <trkpt lat="48.95769" lon="7.87159">
        <ele>215</ele>
        <time>2012-08-21T14:46:17Z</time>
      </trkpt>
      <trkpt lat="48.95772" lon="7.87149">
        <ele>214</ele>
        <time>2012-08-21T14:46:56Z</time>
      </trkpt>
      <trkpt lat="48.95801" lon="7.87096">
        <ele>210.7</ele>
        <time>2012-08-21T14:47:27Z</time>
      </trkpt>
      <trkpt lat="48.95829" lon="7.87042">
        <ele>211.6</ele>
        <time>2012-08-21T14:47:58Z</time>
      </trkpt>
      <trkpt lat="48.95859" lon="7.86989">
        <ele>211.6</ele>
        <time>2012-08-21T14:48:30Z</time>
      </trkpt>
      <trkpt lat="48.95891" lon="7.86942">
        <ele>212.1</ele>
        <time>2012-08-21T14:49:03Z</time>
      </trkpt>
      <trkpt lat="48.95924" lon="7.86896">
        <ele>212.1</ele>
        <time>2012-08-21T14:49:35Z</time>
      </trkpt>
      <trkpt lat="48.95961" lon="7.86854">
        <ele>210.2</ele>
        <time>2012-08-21T14:50:06Z</time>
      </trkpt>
      <trkpt lat="48.96" lon="7.86825">
        <ele>210.2</ele>
        <time>2012-08-21T14:50:38Z</time>
      </trkpt>
      <trkpt lat="48.9604" lon="7.8679">
        <ele>207.3</ele>
        <time>2012-08-21T14:51:12Z</time>
      </trkpt>
      <trkpt lat="48.96078" lon="7.86749">
        <ele>211.1</ele>
        <time>2012-08-21T14:51:44Z</time>
      </trkpt>
      <trkpt lat="48.96126" lon="7.86752">
        <ele>213.6</ele>
        <time>2012-08-21T14:52:16Z</time>
      </trkpt>
      <trkpt lat="48.96165" lon="7.86717">
        <ele>215.5</ele>
        <time>2012-08-21T14:52:48Z</time>
      </trkpt>
      <trkpt lat="48.96206" lon="7.86683">
        <ele>213.6</ele>
        <time>2012-08-21T14:53:19Z</time>
      </trkpt>
      <trkpt lat="48.96245" lon="7.86645">
        <ele>215</ele>
        <time>2012-08-21T14:53:50Z</time>
      </trkpt>
      <trkpt lat="48.96273" lon="7.86592">
        <ele>217.4</ele>
        <time>2012-08-21T14:54:21Z</time>
      </trkpt>
      <trkpt lat="48.96305" lon="7.86545">
        <ele>217.4</ele>
        <time>2012-08-21T14:54:51Z</time>
      </trkpt>
      <trkpt lat="48.96345" lon="7.86512">
        <ele>218.4</ele>
        <time>2012-08-21T14:55:23Z</time>
      </trkpt>
      <trkpt lat="48.96387" lon="7.86488">
        <ele>220.8</ele>
        <time>2012-08-21T14:55:53Z</time>
      </trkpt>
      <trkpt lat="48.9643" lon="7.86465">
        <ele>222.7</ele>
        <time>2012-08-21T14:56:26Z</time>
      </trkpt>
      <trkpt lat="48.96464" lon="7.86423">
        <ele>218.8</ele>
        <time>2012-08-21T14:57:40Z</time>
      </trkpt>
      <trkpt lat="48.96504" lon="7.86365">
        <ele>220.3</ele>
        <time>2012-08-21T14:58:21Z</time>
      </trkpt>
      <trkpt lat="48.96543" lon="7.86371">
        <ele>225.6</ele>
        <time>2012-08-21T14:59:04Z</time>
      </trkpt>
      <trkpt lat="48.9657" lon="7.86441">
        <ele>224.6</ele>
        <time>2012-08-21T14:59:43Z</time>
      </trkpt>
      <trkpt lat="48.96584" lon="7.86511">
        <ele>224.6</ele>
        <time>2012-08-21T15:00:18Z</time>
      </trkpt>
      <trkpt lat="48.96606" lon="7.86586">
        <ele>222.2</ele>
        <time>2012-08-21T15:00:54Z</time>
      </trkpt>
      <trkpt lat="48.96628" lon="7.86655">
        <ele>217.9</ele>
        <time>2012-08-21T15:01:31Z</time>
      </trkpt>
      <trkpt lat="48.96643" lon="7.86729">
        <ele>216</ele>
        <time>2012-08-21T15:02:06Z</time>
      </trkpt>
      <trkpt lat="48.96689" lon="7.86775">
        <ele>209.2</ele>
        <time>2012-08-21T15:03:05Z</time>
      </trkpt>
      <trkpt lat="48.9674" lon="7.86762">
        <ele>195.3</ele>
        <time>2012-08-21T15:03:42Z</time>
      </trkpt>
      <trkpt lat="48.96777" lon="7.86711">
        <ele>188.6</ele>
        <time>2012-08-21T15:04:19Z</time>
      </trkpt>
      <trkpt lat="48.96817" lon="7.8667">
        <ele>193.4</ele>
        <time>2012-08-21T15:04:53Z</time>
      </trkpt>
      <trkpt lat="48.96849" lon="7.86603">
        <ele>198.2</ele>
        <time>2012-08-21T15:05:30Z</time>
      </trkpt>
      <trkpt lat="48.96881" lon="7.86534">
        <ele>197.7</ele>
        <time>2012-08-21T15:06:10Z</time>
      </trkpt>
      <trkpt lat="48.96912" lon="7.86464">
        <ele>194.8</ele>
        <time>2012-08-21T15:06:51Z</time>
      </trkpt>
      <trkpt lat="48.96964" lon="7.86429">
        <ele>192.4</ele>
        <time>2012-08-21T15:07:35Z</time>
      </trkpt>
      <trkpt lat="48.97015" lon="7.86406">
        <ele>195.8</ele>
        <time>2012-08-21T15:08:09Z</time>
      </trkpt>
      <trkpt lat="48.97064" lon="7.86381">
        <ele>194.3</ele>
        <time>2012-08-21T15:08:52Z</time>
      </trkpt>
      <trkpt lat="48.97101" lon="7.86344">
        <ele>194.8</ele>
        <time>2012-08-21T15:09:29Z</time>
      </trkpt>
      <trkpt lat="48.97142" lon="7.86318">
        <ele>203</ele>
        <time>2012-08-21T15:10:05Z</time>
      </trkpt>
      <trkpt lat="48.97187" lon="7.86299">
        <ele>199.1</ele>
        <time>2012-08-21T15:10:43Z</time>
      </trkpt>
      <trkpt lat="48.97233" lon="7.86279">
        <ele>198.2</ele>
        <time>2012-08-21T15:11:14Z</time>
      </trkpt>
      <trkpt lat="48.9728" lon="7.86266">
        <ele>191</ele>
        <time>2012-08-21T15:11:53Z</time>
      </trkpt>
      <trkpt lat="48.97325" lon="7.86251">
        <ele>189.5</ele>
        <time>2012-08-21T15:12:23Z</time>
      </trkpt>
      <trkpt lat="48.97366" lon="7.86217">
        <ele>187.1</ele>
        <time>2012-08-21T15:12:57Z</time>
      </trkpt>
      <trkpt lat="48.97402" lon="7.86183">
        <ele>189.5</ele>
        <time>2012-08-21T15:13:28Z</time>
      </trkpt>
      <trkpt lat="48.97451" lon="7.86181">
        <ele>191.9</ele>
        <time>2012-08-21T15:14:07Z</time>
      </trkpt>
      <trkpt lat="48.97497" lon="7.86154">
        <ele>189.5</ele>
        <time>2012-08-21T15:14:42Z</time>
      </trkpt>
      <trkpt lat="48.9755" lon="7.86121">
        <ele>185.2</ele>
        <time>2012-08-21T15:15:28Z</time>
      </trkpt>
      <trkpt lat="48.97594" lon="7.86108">
        <ele>188.6</ele>
        <time>2012-08-21T15:16:05Z</time>
      </trkpt>
      <trkpt lat="48.9764" lon="7.86102">
        <ele>186.6</ele>
        <time>2012-08-21T15:16:38Z</time>
      </trkpt>
      <trkpt lat="48.97695" lon="7.86082">
        <ele>183.3</ele>
        <time>2012-08-21T15:17:24Z</time>
      </trkpt>
      <trkpt lat="48.97746" lon="7.8604">
        <ele>186.2</ele>
        <time>2012-08-21T15:18:13Z</time>
      </trkpt>
      <trkpt lat="48.97807" lon="7.86">
        <ele>183.7</ele>
        <time>2012-08-21T15:18:59Z</time>
      </trkpt>
      <trkpt lat="48.97864" lon="7.85985">
        <ele>188.1</ele>
        <time>2012-08-21T15:19:35Z</time>
      </trkpt>
      <trkpt lat="48.97903" lon="7.85938">
        <ele>195.3</ele>
        <time>2012-08-21T15:20:12Z</time>
      </trkpt>
      <trkpt lat="48.97942" lon="7.85895">
        <ele>200.1</ele>
        <time>2012-08-21T15:20:50Z</time>
      </trkpt>
      <trkpt lat="48.9798" lon="7.85836">
        <ele>214.5</ele>
        <time>2012-08-21T15:21:31Z</time>
      </trkpt>
      <trkpt lat="48.98033" lon="7.85821">
        <ele>219.3</ele>
        <time>2012-08-21T15:22:05Z</time>
      </trkpt>
      <trkpt lat="48.9808" lon="7.85776">
        <ele>216.9</ele>
        <time>2012-08-21T15:22:51Z</time>
      </trkpt>
      <trkpt lat="48.98117" lon="7.8573">
        <ele>209.7</ele>
        <time>2012-08-21T15:23:26Z</time>
      </trkpt>
      <trkpt lat="48.98158" lon="7.85676">
        <ele>211.1</ele>
        <time>2012-08-21T15:25:04Z</time>
      </trkpt>
      <trkpt lat="48.98182" lon="7.8559">
        <ele>211.6</ele>
        <time>2012-08-21T15:25:49Z</time>
      </trkpt>
      <trkpt lat="48.98217" lon="7.85517">
        <ele>212.6</ele>
        <time>2012-08-21T15:26:32Z</time>
      </trkpt>
      <trkpt lat="48.98258" lon="7.85437">
        <ele>224.6</ele>
        <time>2012-08-21T15:27:22Z</time>
      </trkpt>
      <trkpt lat="48.98283" lon="7.85333">
        <ele>228</ele>
        <time>2012-08-21T15:28:15Z</time>
      </trkpt>
      <trkpt lat="48.98286" lon="7.85233">
        <ele>222.7</ele>
        <time>2012-08-21T15:29:02Z</time>
      </trkpt>
      <trkpt lat="48.9829" lon="7.85146">
        <ele>212.6</ele>
        <time>2012-08-21T15:29:40Z</time>
      </trkpt>
      <trkpt lat="48.98302" lon="7.85058">
        <ele>220.3</ele>
        <time>2012-08-21T15:30:25Z</time>
      </trkpt>
      <trkpt lat="48.98341" lon="7.85012">
        <ele>224.1</ele>
        <time>2012-08-21T15:31:05Z</time>
      </trkpt>
      <trkpt lat="48.98392" lon="7.85008">
        <ele>235.2</ele>
        <time>2012-08-21T15:31:38Z</time>
      </trkpt>
      <trkpt lat="48.98436" lon="7.85012">
        <ele>241.9</ele>
        <time>2012-08-21T15:32:10Z</time>
      </trkpt>
      <trkpt lat="48.98476" lon="7.85006">
        <ele>246.7</ele>
        <time>2012-08-21T15:33:00Z</time>
      </trkpt>
      <trkpt lat="48.98496" lon="7.84943">
        <ele>245.8</ele>
        <time>2012-08-21T15:34:24Z</time>
      </trkpt>
      <trkpt lat="48.98506" lon="7.8486">
        <ele>259.2</ele>
        <time>2012-08-21T15:35:31Z</time>
      </trkpt>
      <trkpt lat="48.98522" lon="7.84673">
        <ele>275.1</ele>
        <time>2012-08-21T15:38:12Z</time>
      </trkpt>
      <trkpt lat="48.98494" lon="7.84566">
        <ele>300.1</ele>
        <time>2012-08-21T15:39:22Z</time>
      </trkpt>
      <trkpt lat="48.98551" lon="7.8454">
        <ele>315.9</ele>
        <time>2012-08-21T15:41:11Z</time>
      </trkpt>
      <trkpt lat="48.98597" lon="7.84584">
        <ele>323.1</ele>
        <time>2012-08-21T15:41:56Z</time>
      </trkpt>
      <trkpt lat="48.98636" lon="7.84628">
        <ele>319.8</ele>
        <time>2012-08-21T15:42:33Z</time>
      </trkpt>
      <trkpt lat="48.98678" lon="7.84668">
        <ele>317.4</ele>
        <time>2012-08-21T15:43:09Z</time>
      </trkpt>
      <trkpt lat="48.98717" lon="7.84699">
        <ele>320.3</ele>
        <time>2012-08-21T15:43:43Z</time>
      </trkpt>
      <trkpt lat="48.98762" lon="7.84692">
        <ele>331.3</ele>
        <time>2012-08-21T15:44:24Z</time>
      </trkpt>
      <trkpt lat="48.98812" lon="7.84631">
        <ele>339</ele>
        <time>2012-08-21T15:45:31Z</time>
      </trkpt>
      <trkpt lat="48.98797" lon="7.84543">
        <ele>349.6</ele>
        <time>2012-08-21T15:46:51Z</time>
      </trkpt>
      <trkpt lat="48.9874" lon="7.84487">
        <ele>361.6</ele>
        <time>2012-08-21T15:47:50Z</time>
      </trkpt>
      <trkpt lat="48.987" lon="7.84425">
        <ele>365.9</ele>
        <time>2012-08-21T15:48:30Z</time>
      </trkpt>
      <trkpt lat="48.98672" lon="7.8436">
        <ele>374.1</ele>
        <time>2012-08-21T15:49:09Z</time>
      </trkpt>
      <trkpt lat="48.9864" lon="7.84301">
        <ele>379.4</ele>
        <time>2012-08-21T15:49:44Z</time>
      </trkpt>
      <trkpt lat="48.98611" lon="7.84244">
        <ele>382.3</ele>
        <time>2012-08-21T15:50:21Z</time>
      </trkpt>
      <trkpt lat="48.98574" lon="7.84195">
        <ele>391.9</ele>
        <time>2012-08-21T15:50:58Z</time>
      </trkpt>
      <trkpt lat="48.98517" lon="7.84145">
        <ele>375.5</ele>
        <time>2012-08-21T15:51:49Z</time>
      </trkpt>
      <trkpt lat="48.98468" lon="7.84079">
        <ele>384.7</ele>
        <time>2012-08-21T15:52:36Z</time>
      </trkpt>
      <trkpt lat="48.98428" lon="7.84004">
        <ele>398.1</ele>
        <time>2012-08-21T15:53:31Z</time>
      </trkpt>
      <trkpt lat="48.98405" lon="7.83927">
        <ele>397.6</ele>
        <time>2012-08-21T15:54:17Z</time>
      </trkpt>
      <trkpt lat="48.98391" lon="7.83856">
        <ele>395.7</ele>
        <time>2012-08-21T15:55:09Z</time>
      </trkpt>
      <trkpt lat="48.98359" lon="7.8379">
        <ele>400</ele>
        <time>2012-08-21T15:55:55Z</time>
      </trkpt>
      <trkpt lat="48.98324" lon="7.837">
        <ele>423.6</ele>
        <time>2012-08-21T15:57:03Z</time>
      </trkpt>
      <trkpt lat="48.98286" lon="7.83584">
        <ele>461.6</ele>
        <time>2012-08-21T15:58:32Z</time>
      </trkpt>
      <trkpt lat="48.98263" lon="7.83483">
        <ele>472.6</ele>
        <time>2012-08-21T15:59:32Z</time>
      </trkpt>
      <trkpt lat="48.98224" lon="7.83426">
        <ele>481.3</ele>
        <time>2012-08-21T16:00:19Z</time>
      </trkpt>
      <trkpt lat="48.98192" lon="7.83353">
        <ele>485.6</ele>
        <time>2012-08-21T16:01:13Z</time>
      </trkpt>
      <trkpt lat="48.9816" lon="7.83283">
        <ele>481.3</ele>
        <time>2012-08-21T16:02:04Z</time>
      </trkpt>
      <trkpt lat="48.98117" lon="7.83195">
        <ele>508.7</ele>
        <time>2012-08-21T16:03:18Z</time>
      </trkpt>
      <trkpt lat="48.9807" lon="7.83106">
        <ele>517.8</ele>
        <time>2012-08-21T16:04:27Z</time>
      </trkpt>
      <trkpt lat="48.98028" lon="7.8301">
        <ele>533.7</ele>
        <time>2012-08-21T16:05:33Z</time>
      </trkpt>
      <trkpt lat="48.97984" lon="7.8294">
        <ele>519.2</ele>
        <time>2012-08-21T16:06:32Z</time>
      </trkpt>
      <trkpt lat="48.97949" lon="7.82831">
        <ele>523.6</ele>
        <time>2012-08-21T16:08:36Z</time>
      </trkpt>
      <trkpt lat="48.97914" lon="7.82777">
        <ele>507.7</ele>
        <time>2012-08-21T16:09:27Z</time>
      </trkpt>
      <trkpt lat="48.97874" lon="7.82726">
        <ele>498.6</ele>
        <time>2012-08-21T16:10:17Z</time>
      </trkpt>
      <trkpt lat="48.97838" lon="7.82672">
        <ele>483.2</ele>
        <time>2012-08-21T16:11:04Z</time>
      </trkpt>
      <trkpt lat="48.97817" lon="7.82643">
        <ele>475.5</ele>
        <time>2012-08-21T16:14:51Z</time>
      </trkpt>
      <trkpt lat="48.97836" lon="7.82633">
        <ele>464.9</ele>
        <time>2012-08-21T16:16:45Z</time>
      </trkpt>
      <trkpt lat="48.97891" lon="7.8259">
        <ele>456.3</ele>
        <time>2012-08-21T16:17:46Z</time>
      </trkpt>
      <trkpt lat="48.97939" lon="7.82549">
        <ele>438.5</ele>
        <time>2012-08-21T16:18:34Z</time>
      </trkpt>
      <trkpt lat="48.97983" lon="7.82511">
        <ele>427.4</ele>
        <time>2012-08-21T16:19:11Z</time>
      </trkpt>
      <trkpt lat="48.98028" lon="7.82471">
        <ele>415.4</ele>
        <time>2012-08-21T16:19:49Z</time>
      </trkpt>
      <trkpt lat="48.98057" lon="7.82406">
        <ele>407.7</ele>
        <time>2012-08-21T16:20:28Z</time>
      </trkpt>
      <trkpt lat="48.98059" lon="7.82339">
        <ele>417.8</ele>
        <time>2012-08-21T16:21:09Z</time>
      </trkpt>
      <trkpt lat="48.98051" lon="7.82262">
        <ele>423.6</ele>
        <time>2012-08-21T16:21:49Z</time>
      </trkpt>
      <trkpt lat="48.98042" lon="7.82188">
        <ele>433.2</ele>
        <time>2012-08-21T16:22:25Z</time>
      </trkpt>
      <trkpt lat="48.98037" lon="7.82118">
        <ele>438</ele>
        <time>2012-08-21T16:23:00Z</time>
      </trkpt>
      <trkpt lat="48.98045" lon="7.82045">
        <ele>448.1</ele>
        <time>2012-08-21T16:23:37Z</time>
      </trkpt>
      <trkpt lat="48.98059" lon="7.81972">
        <ele>451</ele>
        <time>2012-08-21T16:24:14Z</time>
      </trkpt>
      <trkpt lat="48.98084" lon="7.81902">
        <ele>445.2</ele>
        <time>2012-08-21T16:24:50Z</time>
      </trkpt>
      <trkpt lat="48.98109" lon="7.81831">
        <ele>439.5</ele>
        <time>2012-08-21T16:25:28Z</time>
      </trkpt>
      <trkpt lat="48.98135" lon="7.81762">
        <ele>439</ele>
        <time>2012-08-21T16:26:04Z</time>
      </trkpt>
      <trkpt lat="48.98167" lon="7.81702">
        <ele>439</ele>
        <time>2012-08-21T16:26:41Z</time>
      </trkpt>
      <trkpt lat="48.98191" lon="7.81637">
        <ele>442.8</ele>
        <time>2012-08-21T16:27:18Z</time>
      </trkpt>
      <trkpt lat="48.98228" lon="7.81592">
        <ele>439.9</ele>
        <time>2012-08-21T16:27:53Z</time>
      </trkpt>
      <trkpt lat="48.98267" lon="7.81556">
        <ele>448.1</ele>
        <time>2012-08-21T16:28:29Z</time>
      </trkpt>
      <trkpt lat="48.98312" lon="7.81519">
        <ele>459.2</ele>
        <time>2012-08-21T16:29:08Z</time>
      </trkpt>
      <trkpt lat="48.98357" lon="7.8148">
        <ele>459.6</ele>
        <time>2012-08-21T16:29:48Z</time>
      </trkpt>
      <trkpt lat="48.98407" lon="7.81438">
        <ele>467.8</ele>
        <time>2012-08-21T16:30:28Z</time>
      </trkpt>
      <trkpt lat="48.98446" lon="7.814">
        <ele>467.3</ele>
        <time>2012-08-21T16:31:09Z</time>
      </trkpt>
      <trkpt lat="48.98432" lon="7.81337">
        <ele>472.1</ele>
        <time>2012-08-21T16:31:47Z</time>
      </trkpt>
      <trkpt lat="48.98403" lon="7.81268">
        <ele>465.4</ele>
        <time>2012-08-21T16:32:32Z</time>
      </trkpt>
      <trkpt lat="48.9837" lon="7.812">
        <ele>469.3</ele>
        <time>2012-08-21T16:33:11Z</time>
      </trkpt>
      <trkpt lat="48.98335" lon="7.81127">
        <ele>473.1</ele>
        <time>2012-08-21T16:33:56Z</time>
      </trkpt>
      <trkpt lat="48.98334" lon="7.81053">
        <ele>461.1</ele>
        <time>2012-08-21T16:35:01Z</time>
      </trkpt>
      <trkpt lat="48.98391" lon="7.81038">
        <ele>453.4</ele>
        <time>2012-08-21T16:36:34Z</time>
      </trkpt>
      <trkpt lat="48.98402" lon="7.80964">
        <ele>452.9</ele>
        <time>2012-08-21T16:37:14Z</time>
      </trkpt>
      <trkpt lat="48.98412" lon="7.8089">
        <ele>457.2</ele>
        <time>2012-08-21T16:38:25Z</time>
      </trkpt>
      <trkpt lat="48.9842" lon="7.80821">
        <ele>467.3</ele>
        <time>2012-08-21T16:39:03Z</time>
      </trkpt>
      <trkpt lat="48.9841" lon="7.80751">
        <ele>465.9</ele>
        <time>2012-08-21T16:39:38Z</time>
      </trkpt>
      <trkpt lat="48.98384" lon="7.80691">
        <ele>466.9</ele>
        <time>2012-08-21T16:40:16Z</time>
      </trkpt>
      <trkpt lat="48.98356" lon="7.80631">
        <ele>470.2</ele>
        <time>2012-08-21T16:40:58Z</time>
      </trkpt>
      <trkpt lat="48.98335" lon="7.8057">
        <ele>465.9</ele>
        <time>2012-08-21T16:41:39Z</time>
      </trkpt>
      <trkpt lat="48.98324" lon="7.80494">
        <ele>448.1</ele>
        <time>2012-08-21T16:42:33Z</time>
      </trkpt>
      <trkpt lat="48.98307" lon="7.8042">
        <ele>427</ele>
        <time>2012-08-21T16:43:17Z</time>
      </trkpt>
      <trkpt lat="48.98295" lon="7.80334">
        <ele>421.7</ele>
        <time>2012-08-21T16:44:01Z</time>
      </trkpt>
      <trkpt lat="48.98283" lon="7.80252">
        <ele>408.2</ele>
        <time>2012-08-21T16:44:43Z</time>
      </trkpt>
      <trkpt lat="48.98274" lon="7.80173">
        <ele>402.9</ele>
        <time>2012-08-21T16:45:22Z</time>
      </trkpt>
      <trkpt lat="48.98251" lon="7.8009">
        <ele>393.8</ele>
        <time>2012-08-21T16:46:13Z</time>
      </trkpt>
      <trkpt lat="48.98232" lon="7.8001">
        <ele>385.1</ele>
        <time>2012-08-21T16:47:08Z</time>
      </trkpt>
      <trkpt lat="48.98222" lon="7.79919">
        <ele>374.1</ele>
        <time>2012-08-21T16:48:22Z</time>
      </trkpt>
      <trkpt lat="48.98209" lon="7.79824">
        <ele>357.3</ele>
        <time>2012-08-21T16:49:23Z</time>
      </trkpt>
      <trkpt lat="48.98206" lon="7.7973">
        <ele>332.3</ele>
        <time>2012-08-21T16:50:18Z</time>
      </trkpt>
      <trkpt lat="48.98194" lon="7.79629">
        <ele>324.1</ele>
        <time>2012-08-21T16:51:15Z</time>
      </trkpt>
      <trkpt lat="48.9818" lon="7.79541">
        <ele>307.8</ele>
        <time>2012-08-21T16:52:12Z</time>
      </trkpt>
      <trkpt lat="48.98168" lon="7.79459">
        <ele>301</ele>
        <time>2012-08-21T16:53:05Z</time>
      </trkpt>
      <trkpt lat="48.98148" lon="7.79388">
        <ele>294.8</ele>
        <time>2012-08-21T16:53:45Z</time>
      </trkpt>
      <trkpt lat="48.98164" lon="7.79315">
        <ele>301.5</ele>
        <time>2012-08-21T16:54:22Z</time>
      </trkpt>
      <trkpt lat="48.98192" lon="7.79243">
        <ele>285.6</ele>
        <time>2012-08-21T16:55:07Z</time>
      </trkpt>
      <trkpt lat="48.98236" lon="7.79197">
        <ele>283.2</ele>
        <time>2012-08-21T16:55:45Z</time>
      </trkpt>
      <trkpt lat="48.98283" lon="7.79163">
        <ele>285.6</ele>
        <time>2012-08-21T16:56:20Z</time>
      </trkpt>
      <trkpt lat="48.98333" lon="7.7914">
        <ele>279.4</ele>
        <time>2012-08-21T16:56:55Z</time>
      </trkpt>
      <trkpt lat="48.98389" lon="7.79113">
        <ele>275.6</ele>
        <time>2012-08-21T16:57:38Z</time>
      </trkpt>
      <trkpt lat="48.98438" lon="7.79086">
        <ele>269.3</ele>
        <time>2012-08-21T16:58:14Z</time>
      </trkpt>
      <trkpt lat="48.98493" lon="7.79059">
        <ele>260.7</ele>
        <time>2012-08-21T16:58:55Z</time>
      </trkpt>
      <trkpt lat="48.98549" lon="7.79029">
        <ele>245.8</ele>
        <time>2012-08-21T16:59:35Z</time>
      </trkpt>
      <trkpt lat="48.98596" lon="7.79003">
        <ele>240.9</ele>
        <time>2012-08-21T17:00:14Z</time>
      </trkpt>
      <trkpt lat="48.98649" lon="7.78941">
        <ele>228.5</ele>
        <time>2012-08-21T17:01:04Z</time>
      </trkpt>
      <trkpt lat="48.98687" lon="7.78849">
        <ele>217.4</ele>
        <time>2012-08-21T17:01:57Z</time>
      </trkpt>
      <trkpt lat="48.98736" lon="7.78758">
        <ele>220.3</ele>
        <time>2012-08-21T17:02:52Z</time>
      </trkpt>
      <trkpt lat="48.98794" lon="7.78635">
        <ele>232.8</ele>
        <time>2012-08-21T17:04:15Z</time>
      </trkpt>
      <trkpt lat="48.98896" lon="7.78573">
        <ele>223.2</ele>
        <time>2012-08-21T17:05:40Z</time>
      </trkpt>
      <trkpt lat="48.98992" lon="7.78494">
        <ele>233.7</ele>
        <time>2012-08-21T17:07:13Z</time>
      </trkpt>
      <trkpt lat="48.99001" lon="7.78377">
        <ele>225.6</ele>
        <time>2012-08-21T17:08:16Z</time>
      </trkpt>
      <trkpt lat="48.99002" lon="7.78259">
        <ele>214</ele>
        <time>2012-08-21T17:09:13Z</time>
      </trkpt>
      <trkpt lat="48.99009" lon="7.78157">
        <ele>210.2</ele>
        <time>2012-08-21T17:09:59Z</time>
      </trkpt>
      <trkpt lat="48.9906" lon="7.78118">
        <ele>213.6</ele>
        <time>2012-08-21T17:11:04Z</time>
      </trkpt>
      <trkpt lat="48.9911" lon="7.78138">
        <ele>217.9</ele>
        <time>2012-08-21T17:11:37Z</time>
      </trkpt>
      <trkpt lat="48.99167" lon="7.78161">
        <ele>211.6</ele>
        <time>2012-08-21T17:12:25Z</time>
      </trkpt>
      <trkpt lat="48.99212" lon="7.78198">
        <ele>205.9</ele>
        <time>2012-08-21T17:13:45Z</time>
      </trkpt>
      <trkpt lat="48.99229" lon="7.78163">
        <ele>208.3</ele>
        <time>2012-08-21T17:35:55Z</time>
      </trkpt>
      <trkpt lat="48.99249" lon="7.78232">
        <ele>188.6</ele>
        <time>2012-08-21T17:36:55Z</time>
      </trkpt>
      <trkpt lat="48.9929" lon="7.78256">
        <ele>190</ele>
        <time>2012-08-21T17:37:33Z</time>
      </trkpt>
      <trkpt lat="48.9933" lon="7.78286">
        <ele>191.9</ele>
        <time>2012-08-21T17:38:09Z</time>
      </trkpt>
      <trkpt lat="48.99363" lon="7.78322">
        <ele>193.4</ele>
        <time>2012-08-21T17:39:41Z</time>
      </trkpt>
      <trkpt lat="48.99396" lon="7.78373">
        <ele>192.9</ele>
        <time>2012-08-21T17:40:17Z</time>
      </trkpt>
      <trkpt lat="48.99427" lon="7.78421">
        <ele>192.9</ele>
        <time>2012-08-21T17:40:49Z</time>
      </trkpt>
      <trkpt lat="48.99461" lon="7.78462">
        <ele>192.9</ele>
        <time>2012-08-21T17:41:20Z</time>
      </trkpt>
      <trkpt lat="48.99501" lon="7.78498">
        <ele>193.8</ele>
        <time>2012-08-21T17:41:53Z</time>
      </trkpt>
      <trkpt lat="48.99542" lon="7.78525">
        <ele>195.3</ele>
        <time>2012-08-21T17:42:27Z</time>
      </trkpt>
      <trkpt lat="48.99589" lon="7.78543">
        <ele>195.8</ele>
        <time>2012-08-21T17:43:02Z</time>
      </trkpt>
      <trkpt lat="48.99634" lon="7.78558">
        <ele>192.9</ele>
        <time>2012-08-21T17:43:33Z</time>
      </trkpt>
      <trkpt lat="48.99673" lon="7.78546">
        <ele>194.3</ele>
        <time>2012-08-21T17:44:05Z</time>
      </trkpt>
      <trkpt lat="48.99677" lon="7.78479">
        <ele>193.4</ele>
        <time>2012-08-21T17:44:38Z</time>
      </trkpt>
      <trkpt lat="48.99706" lon="7.7844">
        <ele>192.4</ele>
        <time>2012-08-21T17:45:12Z</time>
      </trkpt>
      <trkpt lat="48.99722" lon="7.7838">
        <ele>193.4</ele>
        <time>2012-08-21T17:45:45Z</time>
      </trkpt>
      <trkpt lat="48.9972" lon="7.78315">
        <ele>195.8</ele>
        <time>2012-08-21T17:46:20Z</time>
      </trkpt>
      <trkpt lat="48.99682" lon="7.78274">
        <ele>194.3</ele>
        <time>2012-08-21T17:46:55Z</time>
      </trkpt>
      <trkpt lat="48.99649" lon="7.78225">
        <ele>193.4</ele>
        <time>2012-08-21T17:47:29Z</time>
      </trkpt>
      <trkpt lat="48.9962" lon="7.7817">
        <ele>195.3</ele>
        <time>2012-08-21T17:48:04Z</time>
      </trkpt>
      <trkpt lat="48.99594" lon="7.78114">
        <ele>193.8</ele>
        <time>2012-08-21T17:48:36Z</time>
      </trkpt>
      <trkpt lat="48.99565" lon="7.78061">
        <ele>194.3</ele>
        <time>2012-08-21T17:49:09Z</time>
      </trkpt>
      <trkpt lat="48.99533" lon="7.78013">
        <ele>194.8</ele>
        <time>2012-08-21T17:49:43Z</time>
      </trkpt>
      <trkpt lat="48.99496" lon="7.77968">
        <ele>195.8</ele>
        <time>2012-08-21T17:50:16Z</time>
      </trkpt>
      <trkpt lat="48.99454" lon="7.77935">
        <ele>195.8</ele>
        <time>2012-08-21T17:50:49Z</time>
      </trkpt>
      <trkpt lat="48.99412" lon="7.77915">
        <ele>193.8</ele>
        <time>2012-08-21T17:51:21Z</time>
      </trkpt>
      <trkpt lat="48.9937" lon="7.7789">
        <ele>191</ele>
        <time>2012-08-21T17:51:52Z</time>
      </trkpt>
      <trkpt lat="48.99328" lon="7.77869">
        <ele>192.9</ele>
        <time>2012-08-21T17:52:23Z</time>
      </trkpt>
      <trkpt lat="48.99284" lon="7.77871">
        <ele>193.8</ele>
        <time>2012-08-21T17:52:55Z</time>
      </trkpt>
      <trkpt lat="48.9924" lon="7.77881">
        <ele>194.3</ele>
        <time>2012-08-21T17:53:27Z</time>
      </trkpt>
      <trkpt lat="48.99196" lon="7.77874">
        <ele>195.3</ele>
        <time>2012-08-21T17:53:58Z</time>
      </trkpt>
      <trkpt lat="48.99155" lon="7.77853">
        <ele>196.2</ele>
        <time>2012-08-21T17:54:29Z</time>
      </trkpt>
      <trkpt lat="48.99121" lon="7.77814">
        <ele>197.2</ele>
        <time>2012-08-21T17:55:01Z</time>
      </trkpt>
      <trkpt lat="48.99097" lon="7.77755">
        <ele>201.1</ele>
        <time>2012-08-21T17:55:33Z</time>
      </trkpt>
      <trkpt lat="48.9909" lon="7.77689">
        <ele>204.9</ele>
        <time>2012-08-21T17:56:04Z</time>
      </trkpt>
      <trkpt lat="48.99095" lon="7.77621">
        <ele>210.2</ele>
        <time>2012-08-21T17:56:37Z</time>
      </trkpt>
      <trkpt lat="48.99092" lon="7.77552">
        <ele>215</ele>
        <time>2012-08-21T17:57:09Z</time>
      </trkpt>
      <trkpt lat="48.99081" lon="7.77479">
        <ele>219.3</ele>
        <time>2012-08-21T17:57:47Z</time>
      </trkpt>
      <trkpt lat="48.99069" lon="7.77408">
        <ele>222.7</ele>
        <time>2012-08-21T17:58:21Z</time>
      </trkpt>
      <trkpt lat="48.99048" lon="7.77339">
        <ele>225.6</ele>
        <time>2012-08-21T17:58:56Z</time>
      </trkpt>
      <trkpt lat="48.9902" lon="7.77281">
        <ele>227.5</ele>
        <time>2012-08-21T17:59:30Z</time>
      </trkpt>
      <trkpt lat="48.98984" lon="7.77222">
        <ele>231.8</ele>
        <time>2012-08-21T18:00:08Z</time>
      </trkpt>
      <trkpt lat="48.98954" lon="7.77162">
        <ele>237.6</ele>
        <time>2012-08-21T18:00:43Z</time>
      </trkpt>
      <trkpt lat="48.98934" lon="7.77091">
        <ele>239</ele>
        <time>2012-08-21T18:01:20Z</time>
      </trkpt>
      <trkpt lat="48.98937" lon="7.77018">
        <ele>242.4</ele>
        <time>2012-08-21T18:01:53Z</time>
      </trkpt>
      <trkpt lat="48.98944" lon="7.76948">
        <ele>243.8</ele>
        <time>2012-08-21T18:02:26Z</time>
      </trkpt>
      <trkpt lat="48.98945" lon="7.76926">
        <ele>238.5</ele>
        <time>2012-08-21T18:03:17Z</time>
      </trkpt>
    </trkseg>
  </trk>
</gpx>